<?xml version="1.0" encoding="UTF-8"?>
<gpx
  version="1.0"
  creator="GPSBabel - http://www.gpsbabel.org"
  xmlns:xsi="http://www.w3.org/2001/XMLSchema-instance"
  xmlns="http://www.topografix.com/GPX/1/0"
  xsi:schemaLocation="http://www.topografix.com/GPX/1/0 http://www.topografix.com/GPX/1/0/gpx.xsd">
<time>2011-10-25T23:15:05Z</time>
<bounds minlat="32.561271667" minlon="34.991786957" maxlat="32.597423553" maxlon="35.015129089"/>
<trk>
  <name>Holux2011/10/25_19:50</name>
<trkseg>
<trkpt lat="32.597339630" lon="35.004337311">
  <ele>83.481079</ele>
  <time>2011-10-25T17:50:55Z</time>
  <speed>0.120000</speed>
</trkpt>
<trkpt lat="32.597358704" lon="35.004314423">
  <ele>84.899048</ele>
  <time>2011-10-25T17:51:00Z</time>
  <speed>0.090000</speed>
</trkpt>
<trkpt lat="32.597343445" lon="35.004287720">
  <ele>84.733032</ele>
  <time>2011-10-25T17:51:13Z</time>
  <speed>0.240000</speed>
</trkpt>
<trkpt lat="32.597309113" lon="35.004268646">
  <ele>84.697876</ele>
  <time>2011-10-25T17:51:16Z</time>
  <speed>2.280000</speed>
</trkpt>
<trkpt lat="32.597278595" lon="35.004234314">
  <ele>84.666626</ele>
  <time>2011-10-25T17:51:18Z</time>
  <speed>2.650000</speed>
</trkpt>
<trkpt lat="32.597236633" lon="35.004203796">
  <ele>84.690063</ele>
  <time>2011-10-25T17:51:20Z</time>
  <speed>3.000000</speed>
</trkpt>
<trkpt lat="32.597206116" lon="35.004184723">
  <ele>84.432251</ele>
  <time>2011-10-25T17:51:21Z</time>
  <speed>3.730000</speed>
</trkpt>
<trkpt lat="32.597175598" lon="35.004177094">
  <ele>84.684204</ele>
  <time>2011-10-25T17:51:22Z</time>
  <speed>3.630000</speed>
</trkpt>
<trkpt lat="32.597137451" lon="35.004169464">
  <ele>85.067017</ele>
  <time>2011-10-25T17:51:23Z</time>
  <speed>3.900000</speed>
</trkpt>
<trkpt lat="32.597095490" lon="35.004165649">
  <ele>85.029907</ele>
  <time>2011-10-25T17:51:24Z</time>
  <speed>3.730000</speed>
</trkpt>
<trkpt lat="32.597068787" lon="35.004165649">
  <ele>84.977173</ele>
  <time>2011-10-25T17:51:25Z</time>
  <speed>2.890000</speed>
</trkpt>
<trkpt lat="32.597015381" lon="35.004165649">
  <ele>85.703735</ele>
  <time>2011-10-25T17:51:27Z</time>
  <speed>2.910000</speed>
</trkpt>
<trkpt lat="32.596984863" lon="35.004173279">
  <ele>85.590454</ele>
  <time>2011-10-25T17:51:28Z</time>
  <speed>2.840000</speed>
</trkpt>
<trkpt lat="32.596954346" lon="35.004169464">
  <ele>86.234985</ele>
  <time>2011-10-25T17:51:29Z</time>
  <speed>3.240000</speed>
</trkpt>
<trkpt lat="32.596923828" lon="35.004165649">
  <ele>86.633423</ele>
  <time>2011-10-25T17:51:30Z</time>
  <speed>2.770000</speed>
</trkpt>
<trkpt lat="32.596878052" lon="35.004158020">
  <ele>87.160767</ele>
  <time>2011-10-25T17:51:32Z</time>
  <speed>2.370000</speed>
</trkpt>
<trkpt lat="32.596836090" lon="35.004158020">
  <ele>87.420532</ele>
  <time>2011-10-25T17:51:34Z</time>
  <speed>2.540000</speed>
</trkpt>
<trkpt lat="32.596794128" lon="35.004169464">
  <ele>87.354126</ele>
  <time>2011-10-25T17:51:36Z</time>
  <speed>2.310000</speed>
</trkpt>
<trkpt lat="32.596752167" lon="35.004177094">
  <ele>88.072876</ele>
  <time>2011-10-25T17:51:38Z</time>
  <speed>2.160000</speed>
</trkpt>
<trkpt lat="32.596714020" lon="35.004184723">
  <ele>88.092407</ele>
  <time>2011-10-25T17:51:40Z</time>
  <speed>2.570000</speed>
</trkpt>
<trkpt lat="32.596687317" lon="35.004196167">
  <ele>88.358032</ele>
  <time>2011-10-25T17:51:41Z</time>
  <speed>2.410000</speed>
</trkpt>
<trkpt lat="32.596660614" lon="35.004207611">
  <ele>88.440063</ele>
  <time>2011-10-25T17:51:42Z</time>
  <speed>2.320000</speed>
</trkpt>
<trkpt lat="32.596614838" lon="35.004226685">
  <ele>88.555298</ele>
  <time>2011-10-25T17:51:44Z</time>
  <speed>2.590000</speed>
</trkpt>
<trkpt lat="32.596569061" lon="35.004226685">
  <ele>88.055298</ele>
  <time>2011-10-25T17:51:46Z</time>
  <speed>2.390000</speed>
</trkpt>
<trkpt lat="32.596538544" lon="35.004230499">
  <ele>87.371704</ele>
  <time>2011-10-25T17:51:47Z</time>
  <speed>2.540000</speed>
</trkpt>
<trkpt lat="32.596488953" lon="35.004222870">
  <ele>87.510376</ele>
  <time>2011-10-25T17:51:49Z</time>
  <speed>2.580000</speed>
</trkpt>
<trkpt lat="32.596439362" lon="35.004234314">
  <ele>86.529907</ele>
  <time>2011-10-25T17:51:51Z</time>
  <speed>2.540000</speed>
</trkpt>
<trkpt lat="32.596397400" lon="35.004245758">
  <ele>86.156860</ele>
  <time>2011-10-25T17:51:53Z</time>
  <speed>2.730000</speed>
</trkpt>
<trkpt lat="32.596366882" lon="35.004249573">
  <ele>86.229126</ele>
  <time>2011-10-25T17:51:54Z</time>
  <speed>2.620000</speed>
</trkpt>
<trkpt lat="32.596340179" lon="35.004253387">
  <ele>86.277954</ele>
  <time>2011-10-25T17:51:55Z</time>
  <speed>2.980000</speed>
</trkpt>
<trkpt lat="32.596302032" lon="35.004249573">
  <ele>87.379517</ele>
  <time>2011-10-25T17:51:56Z</time>
  <speed>2.890000</speed>
</trkpt>
<trkpt lat="32.596275330" lon="35.004253387">
  <ele>87.270142</ele>
  <time>2011-10-25T17:51:57Z</time>
  <speed>2.930000</speed>
</trkpt>
<trkpt lat="32.596221924" lon="35.004264832">
  <ele>87.100220</ele>
  <time>2011-10-25T17:51:59Z</time>
  <speed>3.290000</speed>
</trkpt>
<trkpt lat="32.596172333" lon="35.004272461">
  <ele>87.002563</ele>
  <time>2011-10-25T17:52:01Z</time>
  <speed>3.410000</speed>
</trkpt>
<trkpt lat="32.596138000" lon="35.004276276">
  <ele>86.760376</ele>
  <time>2011-10-25T17:52:02Z</time>
  <speed>3.790000</speed>
</trkpt>
<trkpt lat="32.596099854" lon="35.004291534">
  <ele>86.963501</ele>
  <time>2011-10-25T17:52:03Z</time>
  <speed>3.700000</speed>
</trkpt>
<trkpt lat="32.596069336" lon="35.004302979">
  <ele>86.975220</ele>
  <time>2011-10-25T17:52:04Z</time>
  <speed>4.340000</speed>
</trkpt>
<trkpt lat="32.596027374" lon="35.004302979">
  <ele>86.945923</ele>
  <time>2011-10-25T17:52:05Z</time>
  <speed>4.330000</speed>
</trkpt>
<trkpt lat="32.595977783" lon="35.004306793">
  <ele>86.734985</ele>
  <time>2011-10-25T17:52:06Z</time>
  <speed>4.930000</speed>
</trkpt>
<trkpt lat="32.595932007" lon="35.004310608">
  <ele>86.512329</ele>
  <time>2011-10-25T17:52:07Z</time>
  <speed>5.220000</speed>
</trkpt>
<trkpt lat="32.595878601" lon="35.004322052">
  <ele>86.174438</ele>
  <time>2011-10-25T17:52:08Z</time>
  <speed>5.590000</speed>
</trkpt>
<trkpt lat="32.595817566" lon="35.004333496">
  <ele>86.539673</ele>
  <time>2011-10-25T17:52:09Z</time>
  <speed>6.900000</speed>
</trkpt>
<trkpt lat="32.595752716" lon="35.004344940">
  <ele>86.779907</ele>
  <time>2011-10-25T17:52:10Z</time>
  <speed>6.890000</speed>
</trkpt>
<trkpt lat="32.595680237" lon="35.004356384">
  <ele>87.086548</ele>
  <time>2011-10-25T17:52:11Z</time>
  <speed>7.240000</speed>
</trkpt>
<trkpt lat="32.595607758" lon="35.004364014">
  <ele>86.809204</ele>
  <time>2011-10-25T17:52:12Z</time>
  <speed>7.920000</speed>
</trkpt>
<trkpt lat="32.595535278" lon="35.004364014">
  <ele>86.688110</ele>
  <time>2011-10-25T17:52:13Z</time>
  <speed>7.900000</speed>
</trkpt>
<trkpt lat="32.595455170" lon="35.004367828">
  <ele>86.449829</ele>
  <time>2011-10-25T17:52:14Z</time>
  <speed>8.810000</speed>
</trkpt>
<trkpt lat="32.595378876" lon="35.004375458">
  <ele>86.240845</ele>
  <time>2011-10-25T17:52:15Z</time>
  <speed>8.390000</speed>
</trkpt>
<trkpt lat="32.595302582" lon="35.004379272">
  <ele>85.877563</ele>
  <time>2011-10-25T17:52:16Z</time>
  <speed>8.320000</speed>
</trkpt>
<trkpt lat="32.595230103" lon="35.004394531">
  <ele>84.658813</ele>
  <time>2011-10-25T17:52:17Z</time>
  <speed>7.900000</speed>
</trkpt>
<trkpt lat="32.595157623" lon="35.004409790">
  <ele>83.000610</ele>
  <time>2011-10-25T17:52:18Z</time>
  <speed>7.760000</speed>
</trkpt>
<trkpt lat="32.595092773" lon="35.004425049">
  <ele>82.106079</ele>
  <time>2011-10-25T17:52:19Z</time>
  <speed>7.100000</speed>
</trkpt>
<trkpt lat="32.595031738" lon="35.004440308">
  <ele>80.541626</ele>
  <time>2011-10-25T17:52:20Z</time>
  <speed>7.080000</speed>
</trkpt>
<trkpt lat="32.594970703" lon="35.004455566">
  <ele>79.701782</ele>
  <time>2011-10-25T17:52:21Z</time>
  <speed>6.260000</speed>
</trkpt>
<trkpt lat="32.594917297" lon="35.004470825">
  <ele>78.336548</ele>
  <time>2011-10-25T17:52:22Z</time>
  <speed>5.660000</speed>
</trkpt>
<trkpt lat="32.594879150" lon="35.004482269">
  <ele>76.988892</ele>
  <time>2011-10-25T17:52:23Z</time>
  <speed>4.390000</speed>
</trkpt>
<trkpt lat="32.594848633" lon="35.004497528">
  <ele>75.904907</ele>
  <time>2011-10-25T17:52:24Z</time>
  <speed>3.860000</speed>
</trkpt>
<trkpt lat="32.594814301" lon="35.004512787">
  <ele>75.600220</ele>
  <time>2011-10-25T17:52:25Z</time>
  <speed>4.010000</speed>
</trkpt>
<trkpt lat="32.594768524" lon="35.004547119">
  <ele>74.695923</ele>
  <time>2011-10-25T17:52:27Z</time>
  <speed>2.840000</speed>
</trkpt>
<trkpt lat="32.594738007" lon="35.004585266">
  <ele>74.408813</ele>
  <time>2011-10-25T17:52:29Z</time>
  <speed>3.060000</speed>
</trkpt>
<trkpt lat="32.594715118" lon="35.004608154">
  <ele>74.109985</ele>
  <time>2011-10-25T17:52:30Z</time>
  <speed>3.180000</speed>
</trkpt>
<trkpt lat="32.594673157" lon="35.004650116">
  <ele>73.035767</ele>
  <time>2011-10-25T17:52:32Z</time>
  <speed>3.360000</speed>
</trkpt>
<trkpt lat="32.594654083" lon="35.004669189">
  <ele>71.613892</ele>
  <time>2011-10-25T17:52:33Z</time>
  <speed>3.140000</speed>
</trkpt>
<trkpt lat="32.594627380" lon="35.004684448">
  <ele>71.252563</ele>
  <time>2011-10-25T17:52:34Z</time>
  <speed>3.040000</speed>
</trkpt>
<trkpt lat="32.594585419" lon="35.004688263">
  <ele>71.068970</ele>
  <time>2011-10-25T17:52:36Z</time>
  <speed>2.270000</speed>
</trkpt>
<trkpt lat="32.594543457" lon="35.004688263">
  <ele>69.594360</ele>
  <time>2011-10-25T17:52:38Z</time>
  <speed>2.480000</speed>
</trkpt>
<trkpt lat="32.594501495" lon="35.004688263">
  <ele>68.051392</ele>
  <time>2011-10-25T17:52:40Z</time>
  <speed>2.760000</speed>
</trkpt>
<trkpt lat="32.594474792" lon="35.004688263">
  <ele>67.127563</ele>
  <time>2011-10-25T17:52:41Z</time>
  <speed>3.250000</speed>
</trkpt>
<trkpt lat="32.594440460" lon="35.004684448">
  <ele>66.957642</ele>
  <time>2011-10-25T17:52:42Z</time>
  <speed>3.380000</speed>
</trkpt>
<trkpt lat="32.594409943" lon="35.004680634">
  <ele>66.692017</ele>
  <time>2011-10-25T17:52:43Z</time>
  <speed>3.270000</speed>
</trkpt>
<trkpt lat="32.594379425" lon="35.004684448">
  <ele>65.918579</ele>
  <time>2011-10-25T17:52:44Z</time>
  <speed>3.290000</speed>
</trkpt>
<trkpt lat="32.594352722" lon="35.004684448">
  <ele>65.455688</ele>
  <time>2011-10-25T17:52:45Z</time>
  <speed>3.350000</speed>
</trkpt>
<trkpt lat="32.594322205" lon="35.004676819">
  <ele>63.931946</ele>
  <time>2011-10-25T17:52:46Z</time>
  <speed>3.410000</speed>
</trkpt>
<trkpt lat="32.594284058" lon="35.004673004">
  <ele>63.444641</ele>
  <time>2011-10-25T17:52:47Z</time>
  <speed>3.540000</speed>
</trkpt>
<trkpt lat="32.594257355" lon="35.004653931">
  <ele>62.924133</ele>
  <time>2011-10-25T17:52:48Z</time>
  <speed>3.730000</speed>
</trkpt>
<trkpt lat="32.594226837" lon="35.004642487">
  <ele>62.508118</ele>
  <time>2011-10-25T17:52:49Z</time>
  <speed>3.810000</speed>
</trkpt>
<trkpt lat="32.594196320" lon="35.004646301">
  <ele>60.336243</ele>
  <time>2011-10-25T17:52:50Z</time>
  <speed>3.120000</speed>
</trkpt>
<trkpt lat="32.594169617" lon="35.004661560">
  <ele>59.281555</ele>
  <time>2011-10-25T17:52:51Z</time>
  <speed>3.130000</speed>
</trkpt>
<trkpt lat="32.594146729" lon="35.004688263">
  <ele>58.527649</ele>
  <time>2011-10-25T17:52:52Z</time>
  <speed>2.990000</speed>
</trkpt>
<trkpt lat="32.594131470" lon="35.004718781">
  <ele>58.304016</ele>
  <time>2011-10-25T17:52:53Z</time>
  <speed>3.170000</speed>
</trkpt>
<trkpt lat="32.594120026" lon="35.004745483">
  <ele>57.484680</ele>
  <time>2011-10-25T17:52:54Z</time>
  <speed>3.170000</speed>
</trkpt>
<trkpt lat="32.594100952" lon="35.004772186">
  <ele>56.887024</ele>
  <time>2011-10-25T17:52:55Z</time>
  <speed>3.130000</speed>
</trkpt>
<trkpt lat="32.594070435" lon="35.004783630">
  <ele>56.804993</ele>
  <time>2011-10-25T17:52:56Z</time>
  <speed>3.400000</speed>
</trkpt>
<trkpt lat="32.594039917" lon="35.004791260">
  <ele>56.690735</ele>
  <time>2011-10-25T17:52:57Z</time>
  <speed>3.350000</speed>
</trkpt>
<trkpt lat="32.594009399" lon="35.004798889">
  <ele>56.776672</ele>
  <time>2011-10-25T17:52:58Z</time>
  <speed>3.310000</speed>
</trkpt>
<trkpt lat="32.593978882" lon="35.004802704">
  <ele>57.106750</ele>
  <time>2011-10-25T17:52:59Z</time>
  <speed>3.520000</speed>
</trkpt>
<trkpt lat="32.593952179" lon="35.004783630">
  <ele>56.225891</ele>
  <time>2011-10-25T17:53:00Z</time>
  <speed>3.310000</speed>
</trkpt>
<trkpt lat="32.593925476" lon="35.004768372">
  <ele>55.156555</ele>
  <time>2011-10-25T17:53:01Z</time>
  <speed>3.520000</speed>
</trkpt>
<trkpt lat="32.593894958" lon="35.004760742">
  <ele>54.736633</ele>
  <time>2011-10-25T17:53:02Z</time>
  <speed>3.720000</speed>
</trkpt>
<trkpt lat="32.593860626" lon="35.004768372">
  <ele>53.592102</ele>
  <time>2011-10-25T17:53:03Z</time>
  <speed>3.440000</speed>
</trkpt>
<trkpt lat="32.593830109" lon="35.004779816">
  <ele>52.827454</ele>
  <time>2011-10-25T17:53:04Z</time>
  <speed>4.270000</speed>
</trkpt>
<trkpt lat="32.593791962" lon="35.004802704">
  <ele>52.494446</ele>
  <time>2011-10-25T17:53:05Z</time>
  <speed>4.310000</speed>
</trkpt>
<trkpt lat="32.593753815" lon="35.004817963">
  <ele>51.920227</ele>
  <time>2011-10-25T17:53:06Z</time>
  <speed>4.690000</speed>
</trkpt>
<trkpt lat="32.593711853" lon="35.004829407">
  <ele>51.289368</ele>
  <time>2011-10-25T17:53:07Z</time>
  <speed>5.080000</speed>
</trkpt>
<trkpt lat="32.593666077" lon="35.004848480">
  <ele>50.574524</ele>
  <time>2011-10-25T17:53:08Z</time>
  <speed>5.400000</speed>
</trkpt>
<trkpt lat="32.593616486" lon="35.004867554">
  <ele>50.257141</ele>
  <time>2011-10-25T17:53:09Z</time>
  <speed>5.900000</speed>
</trkpt>
<trkpt lat="32.593566895" lon="35.004894257">
  <ele>49.854797</ele>
  <time>2011-10-25T17:53:10Z</time>
  <speed>5.660000</speed>
</trkpt>
<trkpt lat="32.593513489" lon="35.004920959">
  <ele>49.820618</ele>
  <time>2011-10-25T17:53:11Z</time>
  <speed>5.860000</speed>
</trkpt>
<trkpt lat="32.593463898" lon="35.004947662">
  <ele>49.325500</ele>
  <time>2011-10-25T17:53:12Z</time>
  <speed>5.750000</speed>
</trkpt>
<trkpt lat="32.593414307" lon="35.004974365">
  <ele>48.950500</ele>
  <time>2011-10-25T17:53:13Z</time>
  <speed>5.780000</speed>
</trkpt>
<trkpt lat="32.593368530" lon="35.005004883">
  <ele>48.364563</ele>
  <time>2011-10-25T17:53:14Z</time>
  <speed>5.660000</speed>
</trkpt>
<trkpt lat="32.593322754" lon="35.005031586">
  <ele>47.813782</ele>
  <time>2011-10-25T17:53:15Z</time>
  <speed>5.450000</speed>
</trkpt>
<trkpt lat="32.593280792" lon="35.005062103">
  <ele>47.452454</ele>
  <time>2011-10-25T17:53:16Z</time>
  <speed>4.950000</speed>
</trkpt>
<trkpt lat="32.593235016" lon="35.005081177">
  <ele>47.439758</ele>
  <time>2011-10-25T17:53:17Z</time>
  <speed>4.770000</speed>
</trkpt>
<trkpt lat="32.593189240" lon="35.005100250">
  <ele>47.011047</ele>
  <time>2011-10-25T17:53:18Z</time>
  <speed>4.750000</speed>
</trkpt>
<trkpt lat="32.593151093" lon="35.005119324">
  <ele>46.794250</ele>
  <time>2011-10-25T17:53:19Z</time>
  <speed>4.470000</speed>
</trkpt>
<trkpt lat="32.593116760" lon="35.005146027">
  <ele>46.622375</ele>
  <time>2011-10-25T17:53:20Z</time>
  <speed>4.210000</speed>
</trkpt>
<trkpt lat="32.593078613" lon="35.005168915">
  <ele>46.639954</ele>
  <time>2011-10-25T17:53:21Z</time>
  <speed>4.180000</speed>
</trkpt>
<trkpt lat="32.593040466" lon="35.005191803">
  <ele>46.928040</ele>
  <time>2011-10-25T17:53:22Z</time>
  <speed>4.180000</speed>
</trkpt>
<trkpt lat="32.593006134" lon="35.005207062">
  <ele>47.006165</ele>
  <time>2011-10-25T17:53:23Z</time>
  <speed>3.900000</speed>
</trkpt>
<trkpt lat="32.592975616" lon="35.005222321">
  <ele>46.900696</ele>
  <time>2011-10-25T17:53:24Z</time>
  <speed>3.890000</speed>
</trkpt>
<trkpt lat="32.592945099" lon="35.005237579">
  <ele>46.564758</ele>
  <time>2011-10-25T17:53:25Z</time>
  <speed>3.640000</speed>
</trkpt>
<trkpt lat="32.592918396" lon="35.005249023">
  <ele>46.804993</ele>
  <time>2011-10-25T17:53:26Z</time>
  <speed>3.550000</speed>
</trkpt>
<trkpt lat="32.592887878" lon="35.005264282">
  <ele>46.960266</ele>
  <time>2011-10-25T17:53:27Z</time>
  <speed>2.720000</speed>
</trkpt>
<trkpt lat="32.592849731" lon="35.005279541">
  <ele>47.814758</ele>
  <time>2011-10-25T17:53:29Z</time>
  <speed>1.770000</speed>
</trkpt>
<trkpt lat="32.592815399" lon="35.005290985">
  <ele>48.865540</ele>
  <time>2011-10-25T17:53:33Z</time>
  <speed>0.030000</speed>
</trkpt>
<trkpt lat="32.592830658" lon="35.005294800">
  <ele>51.420227</ele>
  <time>2011-10-25T17:59:37Z</time>
</trkpt>
<trkpt lat="32.592800140" lon="35.005310059">
  <ele>50.410461</ele>
  <time>2011-10-25T18:00:27Z</time>
  <speed>1.450000</speed>
</trkpt>
<trkpt lat="32.592765808" lon="35.005332947">
  <ele>49.967102</ele>
  <time>2011-10-25T18:00:29Z</time>
  <speed>2.000000</speed>
</trkpt>
<trkpt lat="32.592720032" lon="35.005348206">
  <ele>49.872375</ele>
  <time>2011-10-25T18:00:31Z</time>
  <speed>2.850000</speed>
</trkpt>
<trkpt lat="32.592697144" lon="35.005367279">
  <ele>49.719055</ele>
  <time>2011-10-25T18:00:32Z</time>
  <speed>3.590000</speed>
</trkpt>
<trkpt lat="32.592666626" lon="35.005386353">
  <ele>49.621399</ele>
  <time>2011-10-25T18:00:33Z</time>
  <speed>4.050000</speed>
</trkpt>
<trkpt lat="32.592632294" lon="35.005413055">
  <ele>49.507141</ele>
  <time>2011-10-25T18:00:34Z</time>
  <speed>4.880000</speed>
</trkpt>
<trkpt lat="32.592590332" lon="35.005428314">
  <ele>49.469055</ele>
  <time>2011-10-25T18:00:35Z</time>
  <speed>4.950000</speed>
</trkpt>
<trkpt lat="32.592552185" lon="35.005451202">
  <ele>49.370422</ele>
  <time>2011-10-25T18:00:36Z</time>
  <speed>4.510000</speed>
</trkpt>
<trkpt lat="32.592514038" lon="35.005477905">
  <ele>49.619446</ele>
  <time>2011-10-25T18:00:37Z</time>
  <speed>4.510000</speed>
</trkpt>
<trkpt lat="32.592468262" lon="35.005496979">
  <ele>49.840149</ele>
  <time>2011-10-25T18:00:38Z</time>
  <speed>4.370000</speed>
</trkpt>
<trkpt lat="32.592433929" lon="35.005508423">
  <ele>50.003235</ele>
  <time>2011-10-25T18:00:39Z</time>
  <speed>3.530000</speed>
</trkpt>
<trkpt lat="32.592403412" lon="35.005519867">
  <ele>50.000305</ele>
  <time>2011-10-25T18:00:40Z</time>
  <speed>3.530000</speed>
</trkpt>
<trkpt lat="32.592369080" lon="35.005523682">
  <ele>49.868469</ele>
  <time>2011-10-25T18:00:41Z</time>
  <speed>4.050000</speed>
</trkpt>
<trkpt lat="32.592342377" lon="35.005527496">
  <ele>50.203430</ele>
  <time>2011-10-25T18:00:42Z</time>
  <speed>3.450000</speed>
</trkpt>
<trkpt lat="32.592311859" lon="35.005535126">
  <ele>50.098938</ele>
  <time>2011-10-25T18:00:43Z</time>
  <speed>3.310000</speed>
</trkpt>
<trkpt lat="32.592277527" lon="35.005546570">
  <ele>50.215149</ele>
  <time>2011-10-25T18:00:44Z</time>
  <speed>3.000000</speed>
</trkpt>
<trkpt lat="32.592216492" lon="35.005561829">
  <ele>50.554016</ele>
  <time>2011-10-25T18:00:46Z</time>
  <speed>3.660000</speed>
</trkpt>
<trkpt lat="32.592182159" lon="35.005573273">
  <ele>50.453430</ele>
  <time>2011-10-25T18:00:47Z</time>
  <speed>3.060000</speed>
</trkpt>
<trkpt lat="32.592155457" lon="35.005577087">
  <ele>50.546204</ele>
  <time>2011-10-25T18:00:48Z</time>
  <speed>2.730000</speed>
</trkpt>
<trkpt lat="32.592102051" lon="35.005592346">
  <ele>50.488586</ele>
  <time>2011-10-25T18:00:50Z</time>
  <speed>2.880000</speed>
</trkpt>
<trkpt lat="32.592060089" lon="35.005599976">
  <ele>50.814758</ele>
  <time>2011-10-25T18:00:51Z</time>
  <speed>2.780000</speed>
</trkpt>
<trkpt lat="32.592029572" lon="35.005603790">
  <ele>50.751282</ele>
  <time>2011-10-25T18:00:52Z</time>
  <speed>3.170000</speed>
</trkpt>
<trkpt lat="32.591999054" lon="35.005611420">
  <ele>50.648743</ele>
  <time>2011-10-25T18:00:53Z</time>
  <speed>3.190000</speed>
</trkpt>
<trkpt lat="32.591968536" lon="35.005622864">
  <ele>50.873352</ele>
  <time>2011-10-25T18:00:54Z</time>
  <speed>3.350000</speed>
</trkpt>
<trkpt lat="32.591941833" lon="35.005626678">
  <ele>50.655579</ele>
  <time>2011-10-25T18:00:55Z</time>
  <speed>3.510000</speed>
</trkpt>
<trkpt lat="32.591903687" lon="35.005630493">
  <ele>50.919250</ele>
  <time>2011-10-25T18:00:56Z</time>
  <speed>4.230000</speed>
</trkpt>
<trkpt lat="32.591865540" lon="35.005634308">
  <ele>51.375305</ele>
  <time>2011-10-25T18:00:57Z</time>
  <speed>4.870000</speed>
</trkpt>
<trkpt lat="32.591823578" lon="35.005649567">
  <ele>51.539368</ele>
  <time>2011-10-25T18:00:58Z</time>
  <speed>5.390000</speed>
</trkpt>
<trkpt lat="32.591785431" lon="35.005683899">
  <ele>51.524719</ele>
  <time>2011-10-25T18:00:59Z</time>
  <speed>5.540000</speed>
</trkpt>
<trkpt lat="32.591739655" lon="35.005752563">
  <ele>49.521790</ele>
  <time>2011-10-25T18:01:00Z</time>
  <speed>4.300000</speed>
</trkpt>
<trkpt lat="32.591720581" lon="35.005802155">
  <ele>48.576477</ele>
  <time>2011-10-25T18:01:01Z</time>
  <speed>3.640000</speed>
</trkpt>
<trkpt lat="32.591728210" lon="35.005847931">
  <ele>48.432922</ele>
  <time>2011-10-25T18:01:02Z</time>
  <speed>3.710000</speed>
</trkpt>
<trkpt lat="32.591739655" lon="35.005897522">
  <ele>48.627258</ele>
  <time>2011-10-25T18:01:03Z</time>
  <speed>3.670000</speed>
</trkpt>
<trkpt lat="32.591751099" lon="35.005939484">
  <ele>49.255188</ele>
  <time>2011-10-25T18:01:04Z</time>
  <speed>3.840000</speed>
</trkpt>
<trkpt lat="32.591758728" lon="35.005973816">
  <ele>50.215149</ele>
  <time>2011-10-25T18:01:05Z</time>
  <speed>3.700000</speed>
</trkpt>
<trkpt lat="32.591770172" lon="35.006019592">
  <ele>50.268860</ele>
  <time>2011-10-25T18:01:06Z</time>
  <speed>3.620000</speed>
</trkpt>
<trkpt lat="32.591773987" lon="35.006061554">
  <ele>50.725891</ele>
  <time>2011-10-25T18:01:07Z</time>
  <speed>3.770000</speed>
</trkpt>
<trkpt lat="32.591781616" lon="35.006103516">
  <ele>51.538391</ele>
  <time>2011-10-25T18:01:08Z</time>
  <speed>3.690000</speed>
</trkpt>
<trkpt lat="32.591777802" lon="35.006141663">
  <ele>51.108704</ele>
  <time>2011-10-25T18:01:09Z</time>
  <speed>3.620000</speed>
</trkpt>
<trkpt lat="32.591766357" lon="35.006183624">
  <ele>51.723938</ele>
  <time>2011-10-25T18:01:10Z</time>
  <speed>3.400000</speed>
</trkpt>
<trkpt lat="32.591754913" lon="35.006217957">
  <ele>52.165344</ele>
  <time>2011-10-25T18:01:11Z</time>
  <speed>3.600000</speed>
</trkpt>
<trkpt lat="32.591739655" lon="35.006244659">
  <ele>52.346985</ele>
  <time>2011-10-25T18:01:12Z</time>
  <speed>3.610000</speed>
</trkpt>
<trkpt lat="32.591720581" lon="35.006275177">
  <ele>52.220032</ele>
  <time>2011-10-25T18:01:13Z</time>
  <speed>3.850000</speed>
</trkpt>
<trkpt lat="32.591693878" lon="35.006301880">
  <ele>52.202454</ele>
  <time>2011-10-25T18:01:14Z</time>
  <speed>3.900000</speed>
</trkpt>
<trkpt lat="32.591663361" lon="35.006328583">
  <ele>51.688782</ele>
  <time>2011-10-25T18:01:15Z</time>
  <speed>3.680000</speed>
</trkpt>
<trkpt lat="32.591636658" lon="35.006347656">
  <ele>51.499329</ele>
  <time>2011-10-25T18:01:16Z</time>
  <speed>4.070000</speed>
</trkpt>
<trkpt lat="32.591606140" lon="35.006370544">
  <ele>51.412415</ele>
  <time>2011-10-25T18:01:17Z</time>
  <speed>3.870000</speed>
</trkpt>
<trkpt lat="32.591583252" lon="35.006397247">
  <ele>51.471985</ele>
  <time>2011-10-25T18:01:18Z</time>
  <speed>3.750000</speed>
</trkpt>
<trkpt lat="32.591556549" lon="35.006420135">
  <ele>50.967102</ele>
  <time>2011-10-25T18:01:19Z</time>
  <speed>3.640000</speed>
</trkpt>
<trkpt lat="32.591529846" lon="35.006435394">
  <ele>50.694641</ele>
  <time>2011-10-25T18:01:20Z</time>
  <speed>3.260000</speed>
</trkpt>
<trkpt lat="32.591487885" lon="35.006465912">
  <ele>50.461243</ele>
  <time>2011-10-25T18:01:22Z</time>
  <speed>3.160000</speed>
</trkpt>
<trkpt lat="32.591461182" lon="35.006477356">
  <ele>51.196594</ele>
  <time>2011-10-25T18:01:23Z</time>
  <speed>2.960000</speed>
</trkpt>
<trkpt lat="32.591434479" lon="35.006496429">
  <ele>51.965149</ele>
  <time>2011-10-25T18:01:24Z</time>
  <speed>3.210000</speed>
</trkpt>
<trkpt lat="32.591407776" lon="35.006511688">
  <ele>51.852844</ele>
  <time>2011-10-25T18:01:25Z</time>
  <speed>3.110000</speed>
</trkpt>
<trkpt lat="32.591362000" lon="35.006538391">
  <ele>51.423157</ele>
  <time>2011-10-25T18:01:27Z</time>
  <speed>3.050000</speed>
</trkpt>
<trkpt lat="32.591323853" lon="35.006561279">
  <ele>51.429016</ele>
  <time>2011-10-25T18:01:29Z</time>
  <speed>2.710000</speed>
</trkpt>
<trkpt lat="32.591281891" lon="35.006603241">
  <ele>51.022766</ele>
  <time>2011-10-25T18:01:31Z</time>
  <speed>3.250000</speed>
</trkpt>
<trkpt lat="32.591262817" lon="35.006626129">
  <ele>50.603821</ele>
  <time>2011-10-25T18:01:32Z</time>
  <speed>3.240000</speed>
</trkpt>
<trkpt lat="32.591236115" lon="35.006656647">
  <ele>50.857727</ele>
  <time>2011-10-25T18:01:33Z</time>
  <speed>3.300000</speed>
</trkpt>
<trkpt lat="32.591213226" lon="35.006675720">
  <ele>51.154602</ele>
  <time>2011-10-25T18:01:34Z</time>
  <speed>3.100000</speed>
</trkpt>
<trkpt lat="32.591194153" lon="35.006702423">
  <ele>51.416321</ele>
  <time>2011-10-25T18:01:35Z</time>
  <speed>2.970000</speed>
</trkpt>
<trkpt lat="32.591159821" lon="35.006732941">
  <ele>51.363586</ele>
  <time>2011-10-25T18:01:37Z</time>
  <speed>2.270000</speed>
</trkpt>
<trkpt lat="32.591114044" lon="35.006759644">
  <ele>51.226868</ele>
  <time>2011-10-25T18:01:39Z</time>
  <speed>2.220000</speed>
</trkpt>
<trkpt lat="32.591079712" lon="35.006786346">
  <ele>50.756165</ele>
  <time>2011-10-25T18:01:41Z</time>
  <speed>2.310000</speed>
</trkpt>
<trkpt lat="32.591037750" lon="35.006813049">
  <ele>51.450500</ele>
  <time>2011-10-25T18:01:43Z</time>
  <speed>2.390000</speed>
</trkpt>
<trkpt lat="32.590991974" lon="35.006832123">
  <ele>51.145813</ele>
  <time>2011-10-25T18:01:45Z</time>
  <speed>2.570000</speed>
</trkpt>
<trkpt lat="32.590961456" lon="35.006828308">
  <ele>52.807922</ele>
  <time>2011-10-25T18:01:46Z</time>
  <speed>2.490000</speed>
</trkpt>
<trkpt lat="32.590934753" lon="35.006828308">
  <ele>55.285461</ele>
  <time>2011-10-25T18:01:47Z</time>
  <speed>2.470000</speed>
</trkpt>
<trkpt lat="32.590911865" lon="35.006813049">
  <ele>56.507141</ele>
  <time>2011-10-25T18:01:48Z</time>
  <speed>2.350000</speed>
</trkpt>
<trkpt lat="32.590873718" lon="35.006771088">
  <ele>57.845032</ele>
  <time>2011-10-25T18:01:50Z</time>
  <speed>2.760000</speed>
</trkpt>
<trkpt lat="32.590866089" lon="35.006740570">
  <ele>57.737610</ele>
  <time>2011-10-25T18:01:51Z</time>
  <speed>2.500000</speed>
</trkpt>
<trkpt lat="32.590858459" lon="35.006706238">
  <ele>57.784485</ele>
  <time>2011-10-25T18:01:52Z</time>
  <speed>3.180000</speed>
</trkpt>
<trkpt lat="32.590854645" lon="35.006671906">
  <ele>57.574524</ele>
  <time>2011-10-25T18:01:53Z</time>
  <speed>3.330000</speed>
</trkpt>
<trkpt lat="32.590850830" lon="35.006637573">
  <ele>56.971985</ele>
  <time>2011-10-25T18:01:54Z</time>
  <speed>2.970000</speed>
</trkpt>
<trkpt lat="32.590847015" lon="35.006603241">
  <ele>56.736633</ele>
  <time>2011-10-25T18:01:55Z</time>
  <speed>3.150000</speed>
</trkpt>
<trkpt lat="32.590835571" lon="35.006565094">
  <ele>56.759094</ele>
  <time>2011-10-25T18:01:56Z</time>
  <speed>3.390000</speed>
</trkpt>
<trkpt lat="32.590827942" lon="35.006530762">
  <ele>56.136047</ele>
  <time>2011-10-25T18:01:57Z</time>
  <speed>3.670000</speed>
</trkpt>
<trkpt lat="32.590824127" lon="35.006488800">
  <ele>56.137024</ele>
  <time>2011-10-25T18:01:58Z</time>
  <speed>3.710000</speed>
</trkpt>
<trkpt lat="32.590812683" lon="35.006446838">
  <ele>55.722961</ele>
  <time>2011-10-25T18:01:59Z</time>
  <speed>3.680000</speed>
</trkpt>
<trkpt lat="32.590805054" lon="35.006401062">
  <ele>55.523743</ele>
  <time>2011-10-25T18:02:00Z</time>
  <speed>4.300000</speed>
</trkpt>
<trkpt lat="32.590801239" lon="35.006355286">
  <ele>55.535461</ele>
  <time>2011-10-25T18:02:01Z</time>
  <speed>4.260000</speed>
</trkpt>
<trkpt lat="32.590793610" lon="35.006305695">
  <ele>55.783508</ele>
  <time>2011-10-25T18:02:02Z</time>
  <speed>4.520000</speed>
</trkpt>
<trkpt lat="32.590785980" lon="35.006252289">
  <ele>56.012024</ele>
  <time>2011-10-25T18:02:03Z</time>
  <speed>4.680000</speed>
</trkpt>
<trkpt lat="32.590782166" lon="35.006202698">
  <ele>56.212219</ele>
  <time>2011-10-25T18:02:04Z</time>
  <speed>4.510000</speed>
</trkpt>
<trkpt lat="32.590778351" lon="35.006153107">
  <ele>56.996399</ele>
  <time>2011-10-25T18:02:05Z</time>
  <speed>4.480000</speed>
</trkpt>
<trkpt lat="32.590774536" lon="35.006111145">
  <ele>57.161438</ele>
  <time>2011-10-25T18:02:06Z</time>
  <speed>4.230000</speed>
</trkpt>
<trkpt lat="32.590766907" lon="35.006065369">
  <ele>57.370422</ele>
  <time>2011-10-25T18:02:07Z</time>
  <speed>3.660000</speed>
</trkpt>
<trkpt lat="32.590763092" lon="35.006023407">
  <ele>57.194641</ele>
  <time>2011-10-25T18:02:08Z</time>
  <speed>3.670000</speed>
</trkpt>
<trkpt lat="32.590751648" lon="35.005989075">
  <ele>56.899719</ele>
  <time>2011-10-25T18:02:09Z</time>
  <speed>3.690000</speed>
</trkpt>
<trkpt lat="32.590744019" lon="35.005950928">
  <ele>56.622375</ele>
  <time>2011-10-25T18:02:10Z</time>
  <speed>3.770000</speed>
</trkpt>
<trkpt lat="32.590740204" lon="35.005916595">
  <ele>56.462219</ele>
  <time>2011-10-25T18:02:11Z</time>
  <speed>2.830000</speed>
</trkpt>
<trkpt lat="32.590740204" lon="35.005882263">
  <ele>55.326477</ele>
  <time>2011-10-25T18:02:12Z</time>
  <speed>2.680000</speed>
</trkpt>
<trkpt lat="32.590732574" lon="35.005847931">
  <ele>54.539368</ele>
  <time>2011-10-25T18:02:13Z</time>
  <speed>3.340000</speed>
</trkpt>
<trkpt lat="32.590724945" lon="35.005802155">
  <ele>54.879211</ele>
  <time>2011-10-25T18:02:14Z</time>
  <speed>3.990000</speed>
</trkpt>
<trkpt lat="32.590724945" lon="35.005756378">
  <ele>54.911438</ele>
  <time>2011-10-25T18:02:15Z</time>
  <speed>3.630000</speed>
</trkpt>
<trkpt lat="32.590717316" lon="35.005710602">
  <ele>54.299133</ele>
  <time>2011-10-25T18:02:16Z</time>
  <speed>3.460000</speed>
</trkpt>
<trkpt lat="32.590709686" lon="35.005672455">
  <ele>53.844055</ele>
  <time>2011-10-25T18:02:17Z</time>
  <speed>3.680000</speed>
</trkpt>
<trkpt lat="32.590705872" lon="35.005622864">
  <ele>55.179993</ele>
  <time>2011-10-25T18:02:18Z</time>
  <speed>3.560000</speed>
</trkpt>
<trkpt lat="32.590702057" lon="35.005580902">
  <ele>55.323547</ele>
  <time>2011-10-25T18:02:19Z</time>
  <speed>3.780000</speed>
</trkpt>
<trkpt lat="32.590702057" lon="35.005542755">
  <ele>55.133118</ele>
  <time>2011-10-25T18:02:20Z</time>
  <speed>3.750000</speed>
</trkpt>
<trkpt lat="32.590698242" lon="35.005508423">
  <ele>55.071594</ele>
  <time>2011-10-25T18:02:21Z</time>
  <speed>2.940000</speed>
</trkpt>
<trkpt lat="32.590694427" lon="35.005474091">
  <ele>55.022766</ele>
  <time>2011-10-25T18:02:22Z</time>
  <speed>3.270000</speed>
</trkpt>
<trkpt lat="32.590690613" lon="35.005439758">
  <ele>54.939758</ele>
  <time>2011-10-25T18:02:23Z</time>
  <speed>3.270000</speed>
</trkpt>
<trkpt lat="32.590675354" lon="35.005393982">
  <ele>54.531555</ele>
  <time>2011-10-25T18:02:24Z</time>
  <speed>3.810000</speed>
</trkpt>
<trkpt lat="32.590667725" lon="35.005348206">
  <ele>54.028625</ele>
  <time>2011-10-25T18:02:25Z</time>
  <speed>4.430000</speed>
</trkpt>
<trkpt lat="32.590660095" lon="35.005287170">
  <ele>53.334290</ele>
  <time>2011-10-25T18:02:26Z</time>
  <speed>4.250000</speed>
</trkpt>
<trkpt lat="32.590656281" lon="35.005237579">
  <ele>53.256165</ele>
  <time>2011-10-25T18:02:27Z</time>
  <speed>4.330000</speed>
</trkpt>
<trkpt lat="32.590652466" lon="35.005187988">
  <ele>52.617493</ele>
  <time>2011-10-25T18:02:28Z</time>
  <speed>4.270000</speed>
</trkpt>
<trkpt lat="32.590652466" lon="35.005142212">
  <ele>52.883118</ele>
  <time>2011-10-25T18:02:29Z</time>
  <speed>4.170000</speed>
</trkpt>
<trkpt lat="32.590648651" lon="35.005084991">
  <ele>53.085266</ele>
  <time>2011-10-25T18:02:30Z</time>
  <speed>4.660000</speed>
</trkpt>
<trkpt lat="32.590648651" lon="35.005031586">
  <ele>52.574524</ele>
  <time>2011-10-25T18:02:31Z</time>
  <speed>4.210000</speed>
</trkpt>
<trkpt lat="32.590648651" lon="35.004989624">
  <ele>52.641907</ele>
  <time>2011-10-25T18:02:32Z</time>
  <speed>3.890000</speed>
</trkpt>
<trkpt lat="32.590648651" lon="35.004940033">
  <ele>52.934875</ele>
  <time>2011-10-25T18:02:33Z</time>
  <speed>4.550000</speed>
</trkpt>
<trkpt lat="32.590652466" lon="35.004886627">
  <ele>53.260071</ele>
  <time>2011-10-25T18:02:34Z</time>
  <speed>4.380000</speed>
</trkpt>
<trkpt lat="32.590656281" lon="35.004825592">
  <ele>53.047180</ele>
  <time>2011-10-25T18:02:35Z</time>
  <speed>5.360000</speed>
</trkpt>
<trkpt lat="32.590660095" lon="35.004760742">
  <ele>53.041321</ele>
  <time>2011-10-25T18:02:36Z</time>
  <speed>5.380000</speed>
</trkpt>
<trkpt lat="32.590660095" lon="35.004703522">
  <ele>52.546204</ele>
  <time>2011-10-25T18:02:37Z</time>
  <speed>5.030000</speed>
</trkpt>
<trkpt lat="32.590660095" lon="35.004642487">
  <ele>52.523743</ele>
  <time>2011-10-25T18:02:38Z</time>
  <speed>4.930000</speed>
</trkpt>
<trkpt lat="32.590656281" lon="35.004577637">
  <ele>52.004211</ele>
  <time>2011-10-25T18:02:39Z</time>
  <speed>4.940000</speed>
</trkpt>
<trkpt lat="32.590648651" lon="35.004512787">
  <ele>51.843079</ele>
  <time>2011-10-25T18:02:40Z</time>
  <speed>5.330000</speed>
</trkpt>
<trkpt lat="32.590644836" lon="35.004455566">
  <ele>50.978821</ele>
  <time>2011-10-25T18:02:41Z</time>
  <speed>4.400000</speed>
</trkpt>
<trkpt lat="32.590648651" lon="35.004409790">
  <ele>51.227844</ele>
  <time>2011-10-25T18:02:42Z</time>
  <speed>4.910000</speed>
</trkpt>
<trkpt lat="32.590648651" lon="35.004348755">
  <ele>50.713196</ele>
  <time>2011-10-25T18:02:43Z</time>
  <speed>5.390000</speed>
</trkpt>
<trkpt lat="32.590652466" lon="35.004283905">
  <ele>50.725891</ele>
  <time>2011-10-25T18:02:44Z</time>
  <speed>5.530000</speed>
</trkpt>
<trkpt lat="32.590648651" lon="35.004222870">
  <ele>50.204407</ele>
  <time>2011-10-25T18:02:45Z</time>
  <speed>5.610000</speed>
</trkpt>
<trkpt lat="32.590648651" lon="35.004146576">
  <ele>50.315735</ele>
  <time>2011-10-25T18:02:46Z</time>
  <speed>5.990000</speed>
</trkpt>
<trkpt lat="32.590652466" lon="35.004074097">
  <ele>50.646790</ele>
  <time>2011-10-25T18:02:47Z</time>
  <speed>6.330000</speed>
</trkpt>
<trkpt lat="32.590652466" lon="35.003997803">
  <ele>51.039368</ele>
  <time>2011-10-25T18:02:48Z</time>
  <speed>6.820000</speed>
</trkpt>
<trkpt lat="32.590648651" lon="35.003929138">
  <ele>50.624329</ele>
  <time>2011-10-25T18:02:49Z</time>
  <speed>6.610000</speed>
</trkpt>
<trkpt lat="32.590644836" lon="35.003833771">
  <ele>50.976868</ele>
  <time>2011-10-25T18:02:50Z</time>
  <speed>7.440000</speed>
</trkpt>
<trkpt lat="32.590637207" lon="35.003742218">
  <ele>50.694641</ele>
  <time>2011-10-25T18:02:51Z</time>
  <speed>7.630000</speed>
</trkpt>
<trkpt lat="32.590621948" lon="35.003662109">
  <ele>49.554993</ele>
  <time>2011-10-25T18:02:52Z</time>
  <speed>7.770000</speed>
</trkpt>
<trkpt lat="32.590599060" lon="35.003578186">
  <ele>49.059875</ele>
  <time>2011-10-25T18:02:53Z</time>
  <speed>7.780000</speed>
</trkpt>
<trkpt lat="32.590576172" lon="35.003501892">
  <ele>48.451477</ele>
  <time>2011-10-25T18:02:54Z</time>
  <speed>7.580000</speed>
</trkpt>
<trkpt lat="32.590545654" lon="35.003429413">
  <ele>47.730774</ele>
  <time>2011-10-25T18:02:55Z</time>
  <speed>7.130000</speed>
</trkpt>
<trkpt lat="32.590522766" lon="35.003349304">
  <ele>48.006165</ele>
  <time>2011-10-25T18:02:56Z</time>
  <speed>7.290000</speed>
</trkpt>
<trkpt lat="32.590496063" lon="35.003276825">
  <ele>47.293274</ele>
  <time>2011-10-25T18:02:57Z</time>
  <speed>6.900000</speed>
</trkpt>
<trkpt lat="32.590473175" lon="35.003196716">
  <ele>47.489563</ele>
  <time>2011-10-25T18:02:58Z</time>
  <speed>7.410000</speed>
</trkpt>
<trkpt lat="32.590457916" lon="35.003124237">
  <ele>47.075500</ele>
  <time>2011-10-25T18:02:59Z</time>
  <speed>6.730000</speed>
</trkpt>
<trkpt lat="32.590446472" lon="35.003055573">
  <ele>47.656555</ele>
  <time>2011-10-25T18:03:00Z</time>
  <speed>5.380000</speed>
</trkpt>
<trkpt lat="32.590442657" lon="35.002998352">
  <ele>47.312805</ele>
  <time>2011-10-25T18:03:01Z</time>
  <speed>4.870000</speed>
</trkpt>
<trkpt lat="32.590438843" lon="35.002952576">
  <ele>46.886047</ele>
  <time>2011-10-25T18:03:02Z</time>
  <speed>4.240000</speed>
</trkpt>
<trkpt lat="32.590431213" lon="35.002906799">
  <ele>47.492493</ele>
  <time>2011-10-25T18:03:03Z</time>
  <speed>2.340000</speed>
</trkpt>
<trkpt lat="32.590431213" lon="35.002868652">
  <ele>49.154602</ele>
  <time>2011-10-25T18:03:06Z</time>
  <speed>1.300000</speed>
</trkpt>
<trkpt lat="32.590438843" lon="35.002838135">
  <ele>49.370422</ele>
  <time>2011-10-25T18:03:08Z</time>
  <speed>0.710000</speed>
</trkpt>
<trkpt lat="32.590427399" lon="35.002796173">
  <ele>50.171204</ele>
  <time>2011-10-25T18:03:18Z</time>
  <speed>1.530000</speed>
</trkpt>
<trkpt lat="32.590419769" lon="35.002758026">
  <ele>50.780579</ele>
  <time>2011-10-25T18:03:20Z</time>
  <speed>1.710000</speed>
</trkpt>
<trkpt lat="32.590423584" lon="35.002708435">
  <ele>50.269836</ele>
  <time>2011-10-25T18:03:22Z</time>
  <speed>2.460000</speed>
</trkpt>
<trkpt lat="32.590427399" lon="35.002662659">
  <ele>49.612610</ele>
  <time>2011-10-25T18:03:24Z</time>
  <speed>2.370000</speed>
</trkpt>
<trkpt lat="32.590435028" lon="35.002601624">
  <ele>49.802063</ele>
  <time>2011-10-25T18:03:26Z</time>
  <speed>2.710000</speed>
</trkpt>
<trkpt lat="32.590446472" lon="35.002571106">
  <ele>50.313782</ele>
  <time>2011-10-25T18:03:27Z</time>
  <speed>3.000000</speed>
</trkpt>
<trkpt lat="32.590435028" lon="35.002532959">
  <ele>49.931946</ele>
  <time>2011-10-25T18:03:28Z</time>
  <speed>3.380000</speed>
</trkpt>
<trkpt lat="32.590431213" lon="35.002487183">
  <ele>50.349915</ele>
  <time>2011-10-25T18:03:29Z</time>
  <speed>3.900000</speed>
</trkpt>
<trkpt lat="32.590431213" lon="35.002437592">
  <ele>50.118469</ele>
  <time>2011-10-25T18:03:30Z</time>
  <speed>3.780000</speed>
</trkpt>
<trkpt lat="32.590427399" lon="35.002395630">
  <ele>49.697571</ele>
  <time>2011-10-25T18:03:31Z</time>
  <speed>3.600000</speed>
</trkpt>
<trkpt lat="32.590431213" lon="35.002349854">
  <ele>49.415344</ele>
  <time>2011-10-25T18:03:32Z</time>
  <speed>4.010000</speed>
</trkpt>
<trkpt lat="32.590427399" lon="35.002307892">
  <ele>49.007141</ele>
  <time>2011-10-25T18:03:33Z</time>
  <speed>4.340000</speed>
</trkpt>
<trkpt lat="32.590431213" lon="35.002262115">
  <ele>48.976868</ele>
  <time>2011-10-25T18:03:34Z</time>
  <speed>4.370000</speed>
</trkpt>
<trkpt lat="32.590438843" lon="35.002204895">
  <ele>49.137024</ele>
  <time>2011-10-25T18:03:35Z</time>
  <speed>4.910000</speed>
</trkpt>
<trkpt lat="32.590446472" lon="35.002147675">
  <ele>49.254211</ele>
  <time>2011-10-25T18:03:36Z</time>
  <speed>4.780000</speed>
</trkpt>
<trkpt lat="32.590446472" lon="35.002098083">
  <ele>48.915344</ele>
  <time>2011-10-25T18:03:37Z</time>
  <speed>4.820000</speed>
</trkpt>
<trkpt lat="32.590450287" lon="35.002040863">
  <ele>48.033508</ele>
  <time>2011-10-25T18:03:38Z</time>
  <speed>4.750000</speed>
</trkpt>
<trkpt lat="32.590450287" lon="35.001995087">
  <ele>47.517883</ele>
  <time>2011-10-25T18:03:39Z</time>
  <speed>4.770000</speed>
</trkpt>
<trkpt lat="32.590450287" lon="35.001941681">
  <ele>47.423157</ele>
  <time>2011-10-25T18:03:40Z</time>
  <speed>4.560000</speed>
</trkpt>
<trkpt lat="32.590457916" lon="35.001892090">
  <ele>47.427063</ele>
  <time>2011-10-25T18:03:41Z</time>
  <speed>4.480000</speed>
</trkpt>
<trkpt lat="32.590457916" lon="35.001846313">
  <ele>47.001282</ele>
  <time>2011-10-25T18:03:42Z</time>
  <speed>4.490000</speed>
</trkpt>
<trkpt lat="32.590457916" lon="35.001792908">
  <ele>46.718079</ele>
  <time>2011-10-25T18:03:43Z</time>
  <speed>4.690000</speed>
</trkpt>
<trkpt lat="32.590461731" lon="35.001743317">
  <ele>46.235657</ele>
  <time>2011-10-25T18:03:44Z</time>
  <speed>4.870000</speed>
</trkpt>
<trkpt lat="32.590476990" lon="35.001686096">
  <ele>46.660461</ele>
  <time>2011-10-25T18:03:45Z</time>
  <speed>4.970000</speed>
</trkpt>
<trkpt lat="32.590480804" lon="35.001636505">
  <ele>46.450500</ele>
  <time>2011-10-25T18:03:46Z</time>
  <speed>4.530000</speed>
</trkpt>
<trkpt lat="32.590480804" lon="35.001586914">
  <ele>46.261047</ele>
  <time>2011-10-25T18:03:47Z</time>
  <speed>4.860000</speed>
</trkpt>
<trkpt lat="32.590476990" lon="35.001529694">
  <ele>45.613586</ele>
  <time>2011-10-25T18:03:48Z</time>
  <speed>4.420000</speed>
</trkpt>
<trkpt lat="32.590484619" lon="35.001480103">
  <ele>45.406555</ele>
  <time>2011-10-25T18:03:49Z</time>
  <speed>4.940000</speed>
</trkpt>
<trkpt lat="32.590492249" lon="35.001422882">
  <ele>45.527649</ele>
  <time>2011-10-25T18:03:50Z</time>
  <speed>5.040000</speed>
</trkpt>
<trkpt lat="32.590499878" lon="35.001361847">
  <ele>45.394836</ele>
  <time>2011-10-25T18:03:51Z</time>
  <speed>5.090000</speed>
</trkpt>
<trkpt lat="32.590503693" lon="35.001304626">
  <ele>45.530579</ele>
  <time>2011-10-25T18:03:52Z</time>
  <speed>5.040000</speed>
</trkpt>
<trkpt lat="32.590507507" lon="35.001239777">
  <ele>45.073547</ele>
  <time>2011-10-25T18:03:53Z</time>
  <speed>5.400000</speed>
</trkpt>
<trkpt lat="32.590511322" lon="35.001182556">
  <ele>44.702454</ele>
  <time>2011-10-25T18:03:54Z</time>
  <speed>5.380000</speed>
</trkpt>
<trkpt lat="32.590518951" lon="35.001125336">
  <ele>44.610657</ele>
  <time>2011-10-25T18:03:55Z</time>
  <speed>5.380000</speed>
</trkpt>
<trkpt lat="32.590522766" lon="35.001064301">
  <ele>44.797180</ele>
  <time>2011-10-25T18:03:56Z</time>
  <speed>5.340000</speed>
</trkpt>
<trkpt lat="32.590522766" lon="35.001010895">
  <ele>44.934875</ele>
  <time>2011-10-25T18:03:57Z</time>
  <speed>5.140000</speed>
</trkpt>
<trkpt lat="32.590526581" lon="35.000961304">
  <ele>44.679016</ele>
  <time>2011-10-25T18:03:58Z</time>
  <speed>4.790000</speed>
</trkpt>
<trkpt lat="32.590526581" lon="35.000907898">
  <ele>44.950500</ele>
  <time>2011-10-25T18:03:59Z</time>
  <speed>3.870000</speed>
</trkpt>
<trkpt lat="32.590534210" lon="35.000850677">
  <ele>45.010071</ele>
  <time>2011-10-25T18:04:00Z</time>
  <speed>5.130000</speed>
</trkpt>
<trkpt lat="32.590538025" lon="35.000793457">
  <ele>44.607727</ele>
  <time>2011-10-25T18:04:01Z</time>
  <speed>4.830000</speed>
</trkpt>
<trkpt lat="32.590541840" lon="35.000743866">
  <ele>44.691711</ele>
  <time>2011-10-25T18:04:02Z</time>
  <speed>4.590000</speed>
</trkpt>
<trkpt lat="32.590541840" lon="35.000698090">
  <ele>44.719055</ele>
  <time>2011-10-25T18:04:03Z</time>
  <speed>4.700000</speed>
</trkpt>
<trkpt lat="32.590545654" lon="35.000648499">
  <ele>44.176086</ele>
  <time>2011-10-25T18:04:04Z</time>
  <speed>4.540000</speed>
</trkpt>
<trkpt lat="32.590549469" lon="35.000598907">
  <ele>44.032532</ele>
  <time>2011-10-25T18:04:05Z</time>
  <speed>4.550000</speed>
</trkpt>
<trkpt lat="32.590553284" lon="35.000549316">
  <ele>44.051086</ele>
  <time>2011-10-25T18:04:06Z</time>
  <speed>4.540000</speed>
</trkpt>
<trkpt lat="32.590557098" lon="35.000488281">
  <ele>44.929993</ele>
  <time>2011-10-25T18:04:07Z</time>
  <speed>5.000000</speed>
</trkpt>
<trkpt lat="32.590553284" lon="35.000431061">
  <ele>44.834290</ele>
  <time>2011-10-25T18:04:08Z</time>
  <speed>4.740000</speed>
</trkpt>
<trkpt lat="32.590553284" lon="35.000377655">
  <ele>44.481750</ele>
  <time>2011-10-25T18:04:09Z</time>
  <speed>4.560000</speed>
</trkpt>
<trkpt lat="32.590564728" lon="35.000328064">
  <ele>44.471008</ele>
  <time>2011-10-25T18:04:10Z</time>
  <speed>4.560000</speed>
</trkpt>
<trkpt lat="32.590564728" lon="35.000274658">
  <ele>44.909485</ele>
  <time>2011-10-25T18:04:11Z</time>
  <speed>4.470000</speed>
</trkpt>
<trkpt lat="32.590560913" lon="35.000213623">
  <ele>44.871399</ele>
  <time>2011-10-25T18:04:12Z</time>
  <speed>4.660000</speed>
</trkpt>
<trkpt lat="32.590560913" lon="35.000167847">
  <ele>44.313782</ele>
  <time>2011-10-25T18:04:13Z</time>
  <speed>4.530000</speed>
</trkpt>
<trkpt lat="32.590560913" lon="35.000118256">
  <ele>43.935852</ele>
  <time>2011-10-25T18:04:14Z</time>
  <speed>4.900000</speed>
</trkpt>
<trkpt lat="32.590564728" lon="35.000061035">
  <ele>43.665344</ele>
  <time>2011-10-25T18:04:15Z</time>
  <speed>5.250000</speed>
</trkpt>
<trkpt lat="32.590568542" lon="35.000007629">
  <ele>43.733704</ele>
  <time>2011-10-25T18:04:16Z</time>
  <speed>4.890000</speed>
</trkpt>
<trkpt lat="32.590576172" lon="34.999950409">
  <ele>44.125305</ele>
  <time>2011-10-25T18:04:17Z</time>
  <speed>4.870000</speed>
</trkpt>
<trkpt lat="32.590583801" lon="34.999897003">
  <ele>44.010071</ele>
  <time>2011-10-25T18:04:18Z</time>
  <speed>4.770000</speed>
</trkpt>
<trkpt lat="32.590587616" lon="34.999847412">
  <ele>43.596008</ele>
  <time>2011-10-25T18:04:19Z</time>
  <speed>4.740000</speed>
</trkpt>
<trkpt lat="32.590587616" lon="34.999790192">
  <ele>43.992493</ele>
  <time>2011-10-25T18:04:20Z</time>
  <speed>4.790000</speed>
</trkpt>
<trkpt lat="32.590595245" lon="34.999740601">
  <ele>43.613586</ele>
  <time>2011-10-25T18:04:21Z</time>
  <speed>5.100000</speed>
</trkpt>
<trkpt lat="32.590602875" lon="34.999687195">
  <ele>43.872375</ele>
  <time>2011-10-25T18:04:22Z</time>
  <speed>4.770000</speed>
</trkpt>
<trkpt lat="32.590599060" lon="34.999641418">
  <ele>43.061829</ele>
  <time>2011-10-25T18:04:23Z</time>
  <speed>4.860000</speed>
</trkpt>
<trkpt lat="32.590606689" lon="34.999591827">
  <ele>43.744446</ele>
  <time>2011-10-25T18:04:24Z</time>
  <speed>4.620000</speed>
</trkpt>
<trkpt lat="32.590610504" lon="34.999542236">
  <ele>43.753235</ele>
  <time>2011-10-25T18:04:25Z</time>
  <speed>4.780000</speed>
</trkpt>
<trkpt lat="32.590610504" lon="34.999492645">
  <ele>43.673157</ele>
  <time>2011-10-25T18:04:26Z</time>
  <speed>4.660000</speed>
</trkpt>
<trkpt lat="32.590606689" lon="34.999439240">
  <ele>43.225891</ele>
  <time>2011-10-25T18:04:27Z</time>
  <speed>4.600000</speed>
</trkpt>
<trkpt lat="32.590606689" lon="34.999389648">
  <ele>43.062805</ele>
  <time>2011-10-25T18:04:28Z</time>
  <speed>4.810000</speed>
</trkpt>
<trkpt lat="32.590606689" lon="34.999332428">
  <ele>43.662415</ele>
  <time>2011-10-25T18:04:29Z</time>
  <speed>4.870000</speed>
</trkpt>
<trkpt lat="32.590602875" lon="34.999282837">
  <ele>43.664368</ele>
  <time>2011-10-25T18:04:30Z</time>
  <speed>4.810000</speed>
</trkpt>
<trkpt lat="32.590599060" lon="34.999229431">
  <ele>43.990540</ele>
  <time>2011-10-25T18:04:31Z</time>
  <speed>4.880000</speed>
</trkpt>
<trkpt lat="32.590595245" lon="34.999183655">
  <ele>44.010071</ele>
  <time>2011-10-25T18:04:32Z</time>
  <speed>4.620000</speed>
</trkpt>
<trkpt lat="32.590583801" lon="34.999137878">
  <ele>43.759094</ele>
  <time>2011-10-25T18:04:33Z</time>
  <speed>4.530000</speed>
</trkpt>
<trkpt lat="32.590579987" lon="34.999084473">
  <ele>44.113586</ele>
  <time>2011-10-25T18:04:34Z</time>
  <speed>4.640000</speed>
</trkpt>
<trkpt lat="32.590572357" lon="34.999027252">
  <ele>44.041321</ele>
  <time>2011-10-25T18:04:35Z</time>
  <speed>4.860000</speed>
</trkpt>
<trkpt lat="32.590568542" lon="34.998985291">
  <ele>43.545227</ele>
  <time>2011-10-25T18:04:36Z</time>
  <speed>4.860000</speed>
</trkpt>
<trkpt lat="32.590557098" lon="34.998928070">
  <ele>43.654602</ele>
  <time>2011-10-25T18:04:37Z</time>
  <speed>4.980000</speed>
</trkpt>
<trkpt lat="32.590545654" lon="34.998878479">
  <ele>43.200500</ele>
  <time>2011-10-25T18:04:38Z</time>
  <speed>5.040000</speed>
</trkpt>
<trkpt lat="32.590538025" lon="34.998821259">
  <ele>43.417297</ele>
  <time>2011-10-25T18:04:39Z</time>
  <speed>5.070000</speed>
</trkpt>
<trkpt lat="32.590526581" lon="34.998767853">
  <ele>43.384094</ele>
  <time>2011-10-25T18:04:40Z</time>
  <speed>4.690000</speed>
</trkpt>
<trkpt lat="32.590515137" lon="34.998718262">
  <ele>43.257141</ele>
  <time>2011-10-25T18:04:41Z</time>
  <speed>5.090000</speed>
</trkpt>
<trkpt lat="32.590499878" lon="34.998664856">
  <ele>42.906555</ele>
  <time>2011-10-25T18:04:42Z</time>
  <speed>4.960000</speed>
</trkpt>
<trkpt lat="32.590488434" lon="34.998607635">
  <ele>42.062805</ele>
  <time>2011-10-25T18:04:43Z</time>
  <speed>4.760000</speed>
</trkpt>
<trkpt lat="32.590476990" lon="34.998565674">
  <ele>42.345032</ele>
  <time>2011-10-25T18:04:44Z</time>
  <speed>4.750000</speed>
</trkpt>
<trkpt lat="32.590461731" lon="34.998519897">
  <ele>42.165344</ele>
  <time>2011-10-25T18:04:45Z</time>
  <speed>4.430000</speed>
</trkpt>
<trkpt lat="32.590442657" lon="34.998477936">
  <ele>42.387024</ele>
  <time>2011-10-25T18:04:46Z</time>
  <speed>4.190000</speed>
</trkpt>
<trkpt lat="32.590427399" lon="34.998432159">
  <ele>42.409485</ele>
  <time>2011-10-25T18:04:47Z</time>
  <speed>4.200000</speed>
</trkpt>
<trkpt lat="32.590412140" lon="34.998386383">
  <ele>42.367493</ele>
  <time>2011-10-25T18:04:48Z</time>
  <speed>4.540000</speed>
</trkpt>
<trkpt lat="32.590385437" lon="34.998340607">
  <ele>42.631165</ele>
  <time>2011-10-25T18:04:49Z</time>
  <speed>5.150000</speed>
</trkpt>
<trkpt lat="32.590366364" lon="34.998291016">
  <ele>43.059875</ele>
  <time>2011-10-25T18:04:50Z</time>
  <speed>4.920000</speed>
</trkpt>
<trkpt lat="32.590351105" lon="34.998245239">
  <ele>43.235657</ele>
  <time>2011-10-25T18:04:51Z</time>
  <speed>4.690000</speed>
</trkpt>
<trkpt lat="32.590335846" lon="34.998199463">
  <ele>43.399719</ele>
  <time>2011-10-25T18:04:52Z</time>
  <speed>4.830000</speed>
</trkpt>
<trkpt lat="32.590316772" lon="34.998142242">
  <ele>43.189758</ele>
  <time>2011-10-25T18:04:53Z</time>
  <speed>4.920000</speed>
</trkpt>
<trkpt lat="32.590297699" lon="34.998088837">
  <ele>43.012024</ele>
  <time>2011-10-25T18:04:54Z</time>
  <speed>5.050000</speed>
</trkpt>
<trkpt lat="32.590286255" lon="34.998035431">
  <ele>42.724915</ele>
  <time>2011-10-25T18:04:55Z</time>
  <speed>5.160000</speed>
</trkpt>
<trkpt lat="32.590259552" lon="34.997985840">
  <ele>42.423157</ele>
  <time>2011-10-25T18:04:56Z</time>
  <speed>5.260000</speed>
</trkpt>
<trkpt lat="32.590248108" lon="34.997940063">
  <ele>42.802063</ele>
  <time>2011-10-25T18:04:57Z</time>
  <speed>5.150000</speed>
</trkpt>
<trkpt lat="32.590229034" lon="34.997886658">
  <ele>42.484680</ele>
  <time>2011-10-25T18:04:58Z</time>
  <speed>4.880000</speed>
</trkpt>
<trkpt lat="32.590209961" lon="34.997837067">
  <ele>42.313782</ele>
  <time>2011-10-25T18:04:59Z</time>
  <speed>4.880000</speed>
</trkpt>
<trkpt lat="32.590194702" lon="34.997787476">
  <ele>42.026672</ele>
  <time>2011-10-25T18:05:00Z</time>
  <speed>4.720000</speed>
</trkpt>
<trkpt lat="32.590175629" lon="34.997745514">
  <ele>41.971985</ele>
  <time>2011-10-25T18:05:01Z</time>
  <speed>4.450000</speed>
</trkpt>
<trkpt lat="32.590160370" lon="34.997703552">
  <ele>41.679993</ele>
  <time>2011-10-25T18:05:02Z</time>
  <speed>4.170000</speed>
</trkpt>
<trkpt lat="32.590145111" lon="34.997653961">
  <ele>41.787415</ele>
  <time>2011-10-25T18:05:03Z</time>
  <speed>4.240000</speed>
</trkpt>
<trkpt lat="32.590129852" lon="34.997612000">
  <ele>41.654602</ele>
  <time>2011-10-25T18:05:04Z</time>
  <speed>4.340000</speed>
</trkpt>
<trkpt lat="32.590110779" lon="34.997570038">
  <ele>41.796204</ele>
  <time>2011-10-25T18:05:05Z</time>
  <speed>4.260000</speed>
</trkpt>
<trkpt lat="32.590091705" lon="34.997528076">
  <ele>41.571594</ele>
  <time>2011-10-25T18:05:06Z</time>
  <speed>4.380000</speed>
</trkpt>
<trkpt lat="32.590068817" lon="34.997486115">
  <ele>41.114563</ele>
  <time>2011-10-25T18:05:07Z</time>
  <speed>4.470000</speed>
</trkpt>
<trkpt lat="32.590049744" lon="34.997440338">
  <ele>41.065735</ele>
  <time>2011-10-25T18:05:08Z</time>
  <speed>4.570000</speed>
</trkpt>
<trkpt lat="32.590030670" lon="34.997386932">
  <ele>41.229797</ele>
  <time>2011-10-25T18:05:09Z</time>
  <speed>5.110000</speed>
</trkpt>
<trkpt lat="32.590007782" lon="34.997341156">
  <ele>41.000305</ele>
  <time>2011-10-25T18:05:10Z</time>
  <speed>4.490000</speed>
</trkpt>
<trkpt lat="32.589984894" lon="34.997299194">
  <ele>41.183899</ele>
  <time>2011-10-25T18:05:11Z</time>
  <speed>4.200000</speed>
</trkpt>
<trkpt lat="32.589965820" lon="34.997253418">
  <ele>41.894836</ele>
  <time>2011-10-25T18:05:12Z</time>
  <speed>4.380000</speed>
</trkpt>
<trkpt lat="32.589950562" lon="34.997196198">
  <ele>42.606750</ele>
  <time>2011-10-25T18:05:13Z</time>
  <speed>4.400000</speed>
</trkpt>
<trkpt lat="32.589942932" lon="34.997150421">
  <ele>42.543274</ele>
  <time>2011-10-25T18:05:14Z</time>
  <speed>4.660000</speed>
</trkpt>
<trkpt lat="32.589931488" lon="34.997097015">
  <ele>42.258118</ele>
  <time>2011-10-25T18:05:15Z</time>
  <speed>4.710000</speed>
</trkpt>
<trkpt lat="32.589912415" lon="34.997047424">
  <ele>41.842102</ele>
  <time>2011-10-25T18:05:16Z</time>
  <speed>4.970000</speed>
</trkpt>
<trkpt lat="32.589897156" lon="34.996982574">
  <ele>42.786438</ele>
  <time>2011-10-25T18:05:17Z</time>
  <speed>4.680000</speed>
</trkpt>
<trkpt lat="32.589881897" lon="34.996936798">
  <ele>42.400696</ele>
  <time>2011-10-25T18:05:18Z</time>
  <speed>4.500000</speed>
</trkpt>
<trkpt lat="32.589862823" lon="34.996894836">
  <ele>42.462219</ele>
  <time>2011-10-25T18:05:19Z</time>
  <speed>4.660000</speed>
</trkpt>
<trkpt lat="32.589843750" lon="34.996849060">
  <ele>42.688782</ele>
  <time>2011-10-25T18:05:20Z</time>
  <speed>4.650000</speed>
</trkpt>
<trkpt lat="32.589832306" lon="34.996803284">
  <ele>42.639954</ele>
  <time>2011-10-25T18:05:21Z</time>
  <speed>4.360000</speed>
</trkpt>
<trkpt lat="32.589813232" lon="34.996761322">
  <ele>42.547180</ele>
  <time>2011-10-25T18:05:22Z</time>
  <speed>4.450000</speed>
</trkpt>
<trkpt lat="32.589797974" lon="34.996723175">
  <ele>42.211243</ele>
  <time>2011-10-25T18:05:23Z</time>
  <speed>4.750000</speed>
</trkpt>
<trkpt lat="32.589775085" lon="34.996662140">
  <ele>42.835266</ele>
  <time>2011-10-25T18:05:24Z</time>
  <speed>5.140000</speed>
</trkpt>
<trkpt lat="32.589756012" lon="34.996612549">
  <ele>42.842102</ele>
  <time>2011-10-25T18:05:25Z</time>
  <speed>5.200000</speed>
</trkpt>
<trkpt lat="32.589736938" lon="34.996566772">
  <ele>42.648743</ele>
  <time>2011-10-25T18:05:26Z</time>
  <speed>4.700000</speed>
</trkpt>
<trkpt lat="32.589717865" lon="34.996520996">
  <ele>42.007141</ele>
  <time>2011-10-25T18:05:27Z</time>
  <speed>4.710000</speed>
</trkpt>
<trkpt lat="32.589694977" lon="34.996471405">
  <ele>41.391907</ele>
  <time>2011-10-25T18:05:28Z</time>
  <speed>5.550000</speed>
</trkpt>
<trkpt lat="32.589679718" lon="34.996421814">
  <ele>40.920227</ele>
  <time>2011-10-25T18:05:29Z</time>
  <speed>5.370000</speed>
</trkpt>
<trkpt lat="32.589656830" lon="34.996372223">
  <ele>40.624329</ele>
  <time>2011-10-25T18:05:30Z</time>
  <speed>5.260000</speed>
</trkpt>
<trkpt lat="32.589633942" lon="34.996318817">
  <ele>40.909485</ele>
  <time>2011-10-25T18:05:31Z</time>
  <speed>5.420000</speed>
</trkpt>
<trkpt lat="32.589614868" lon="34.996269226">
  <ele>41.104797</ele>
  <time>2011-10-25T18:05:32Z</time>
  <speed>4.970000</speed>
</trkpt>
<trkpt lat="32.589595795" lon="34.996219635">
  <ele>41.182922</ele>
  <time>2011-10-25T18:05:33Z</time>
  <speed>4.880000</speed>
</trkpt>
<trkpt lat="32.589576721" lon="34.996177673">
  <ele>41.353821</ele>
  <time>2011-10-25T18:05:34Z</time>
  <speed>4.360000</speed>
</trkpt>
<trkpt lat="32.589553833" lon="34.996128082">
  <ele>42.243469</ele>
  <time>2011-10-25T18:05:35Z</time>
  <speed>4.910000</speed>
</trkpt>
<trkpt lat="32.589530945" lon="34.996078491">
  <ele>42.472961</ele>
  <time>2011-10-25T18:05:36Z</time>
  <speed>5.030000</speed>
</trkpt>
<trkpt lat="32.589511871" lon="34.996032715">
  <ele>42.138977</ele>
  <time>2011-10-25T18:05:37Z</time>
  <speed>4.810000</speed>
</trkpt>
<trkpt lat="32.589492798" lon="34.995994568">
  <ele>41.487610</ele>
  <time>2011-10-25T18:05:38Z</time>
  <speed>4.610000</speed>
</trkpt>
<trkpt lat="32.589466095" lon="34.995948792">
  <ele>42.655579</ele>
  <time>2011-10-25T18:05:39Z</time>
  <speed>4.700000</speed>
</trkpt>
<trkpt lat="32.589443207" lon="34.995903015">
  <ele>42.907532</ele>
  <time>2011-10-25T18:05:40Z</time>
  <speed>5.110000</speed>
</trkpt>
<trkpt lat="32.589416504" lon="34.995853424">
  <ele>42.931946</ele>
  <time>2011-10-25T18:05:41Z</time>
  <speed>5.170000</speed>
</trkpt>
<trkpt lat="32.589393616" lon="34.995803833">
  <ele>42.887024</ele>
  <time>2011-10-25T18:05:42Z</time>
  <speed>4.960000</speed>
</trkpt>
<trkpt lat="32.589370728" lon="34.995754242">
  <ele>43.014954</ele>
  <time>2011-10-25T18:05:43Z</time>
  <speed>4.910000</speed>
</trkpt>
<trkpt lat="32.589344025" lon="34.995712280">
  <ele>43.074524</ele>
  <time>2011-10-25T18:05:44Z</time>
  <speed>4.810000</speed>
</trkpt>
<trkpt lat="32.589321136" lon="34.995677948">
  <ele>42.419250</ele>
  <time>2011-10-25T18:05:45Z</time>
  <speed>4.920000</speed>
</trkpt>
<trkpt lat="32.589294434" lon="34.995635986">
  <ele>42.161438</ele>
  <time>2011-10-25T18:05:46Z</time>
  <speed>4.730000</speed>
</trkpt>
<trkpt lat="32.589267731" lon="34.995601654">
  <ele>42.190735</ele>
  <time>2011-10-25T18:05:47Z</time>
  <speed>4.810000</speed>
</trkpt>
<trkpt lat="32.589237213" lon="34.995563507">
  <ele>42.033508</ele>
  <time>2011-10-25T18:05:48Z</time>
  <speed>4.540000</speed>
</trkpt>
<trkpt lat="32.589214325" lon="34.995525360">
  <ele>42.566711</ele>
  <time>2011-10-25T18:05:49Z</time>
  <speed>4.390000</speed>
</trkpt>
<trkpt lat="32.589179993" lon="34.995494843">
  <ele>42.438782</ele>
  <time>2011-10-25T18:05:50Z</time>
  <speed>4.410000</speed>
</trkpt>
<trkpt lat="32.589149475" lon="34.995460510">
  <ele>42.353821</ele>
  <time>2011-10-25T18:05:51Z</time>
  <speed>4.730000</speed>
</trkpt>
<trkpt lat="32.589122772" lon="34.995422363">
  <ele>42.860657</ele>
  <time>2011-10-25T18:05:52Z</time>
  <speed>4.510000</speed>
</trkpt>
<trkpt lat="32.589088440" lon="34.995391846">
  <ele>43.333313</ele>
  <time>2011-10-25T18:05:53Z</time>
  <speed>4.400000</speed>
</trkpt>
<trkpt lat="32.589069366" lon="34.995353699">
  <ele>44.672180</ele>
  <time>2011-10-25T18:05:54Z</time>
  <speed>4.430000</speed>
</trkpt>
<trkpt lat="32.589035034" lon="34.995319366">
  <ele>45.329407</ele>
  <time>2011-10-25T18:05:55Z</time>
  <speed>4.430000</speed>
</trkpt>
<trkpt lat="32.589012146" lon="34.995288849">
  <ele>45.757141</ele>
  <time>2011-10-25T18:05:56Z</time>
  <speed>4.070000</speed>
</trkpt>
<trkpt lat="32.588989258" lon="34.995258331">
  <ele>45.701477</ele>
  <time>2011-10-25T18:05:57Z</time>
  <speed>3.880000</speed>
</trkpt>
<trkpt lat="32.588962555" lon="34.995227814">
  <ele>45.659485</ele>
  <time>2011-10-25T18:05:58Z</time>
  <speed>3.750000</speed>
</trkpt>
<trkpt lat="32.588939667" lon="34.995212555">
  <ele>45.586243</ele>
  <time>2011-10-25T18:05:59Z</time>
  <speed>3.690000</speed>
</trkpt>
<trkpt lat="32.588893890" lon="34.995162964">
  <ele>46.035461</ele>
  <time>2011-10-25T18:06:01Z</time>
  <speed>3.110000</speed>
</trkpt>
<trkpt lat="32.588871002" lon="34.995136261">
  <ele>46.638000</ele>
  <time>2011-10-25T18:06:02Z</time>
  <speed>3.210000</speed>
</trkpt>
<trkpt lat="32.588851929" lon="34.995109558">
  <ele>46.169250</ele>
  <time>2011-10-25T18:06:03Z</time>
  <speed>3.840000</speed>
</trkpt>
<trkpt lat="32.588829041" lon="34.995082855">
  <ele>45.636047</ele>
  <time>2011-10-25T18:06:04Z</time>
  <speed>3.960000</speed>
</trkpt>
<trkpt lat="32.588806152" lon="34.995056152">
  <ele>45.619446</ele>
  <time>2011-10-25T18:06:05Z</time>
  <speed>3.720000</speed>
</trkpt>
<trkpt lat="32.588783264" lon="34.995029449">
  <ele>46.401672</ele>
  <time>2011-10-25T18:06:06Z</time>
  <speed>3.410000</speed>
</trkpt>
<trkpt lat="32.588756561" lon="34.995010376">
  <ele>46.846008</ele>
  <time>2011-10-25T18:06:07Z</time>
  <speed>3.450000</speed>
</trkpt>
<trkpt lat="32.588729858" lon="34.994991302">
  <ele>47.468079</ele>
  <time>2011-10-25T18:06:08Z</time>
  <speed>3.190000</speed>
</trkpt>
<trkpt lat="32.588703156" lon="34.994972229">
  <ele>47.679016</ele>
  <time>2011-10-25T18:06:09Z</time>
  <speed>3.300000</speed>
</trkpt>
<trkpt lat="32.588684082" lon="34.994945526">
  <ele>48.072571</ele>
  <time>2011-10-25T18:06:10Z</time>
  <speed>3.350000</speed>
</trkpt>
<trkpt lat="32.588665009" lon="34.994918823">
  <ele>49.229797</ele>
  <time>2011-10-25T18:06:11Z</time>
  <speed>2.890000</speed>
</trkpt>
<trkpt lat="32.588645935" lon="34.994895935">
  <ele>50.154602</ele>
  <time>2011-10-25T18:06:12Z</time>
  <speed>3.110000</speed>
</trkpt>
<trkpt lat="32.588600159" lon="34.994861603">
  <ele>52.201477</ele>
  <time>2011-10-25T18:06:14Z</time>
  <speed>2.840000</speed>
</trkpt>
<trkpt lat="32.588573456" lon="34.994846344">
  <ele>53.465149</ele>
  <time>2011-10-25T18:06:15Z</time>
  <speed>2.650000</speed>
</trkpt>
<trkpt lat="32.588550568" lon="34.994831085">
  <ele>55.063782</ele>
  <time>2011-10-25T18:06:16Z</time>
  <speed>2.920000</speed>
</trkpt>
<trkpt lat="32.588523865" lon="34.994812012">
  <ele>56.303040</ele>
  <time>2011-10-25T18:06:17Z</time>
  <speed>2.910000</speed>
</trkpt>
<trkpt lat="32.588485718" lon="34.994781494">
  <ele>57.035461</ele>
  <time>2011-10-25T18:06:19Z</time>
  <speed>2.450000</speed>
</trkpt>
<trkpt lat="32.588443756" lon="34.994754791">
  <ele>58.050110</ele>
  <time>2011-10-25T18:06:21Z</time>
  <speed>2.340000</speed>
</trkpt>
<trkpt lat="32.588409424" lon="34.994716644">
  <ele>59.489563</ele>
  <time>2011-10-25T18:06:23Z</time>
  <speed>2.830000</speed>
</trkpt>
<trkpt lat="32.588367462" lon="34.994686127">
  <ele>60.451477</ele>
  <time>2011-10-25T18:06:25Z</time>
  <speed>2.970000</speed>
</trkpt>
<trkpt lat="32.588336945" lon="34.994678497">
  <ele>61.435852</ele>
  <time>2011-10-25T18:06:26Z</time>
  <speed>3.260000</speed>
</trkpt>
<trkpt lat="32.588310242" lon="34.994667053">
  <ele>62.188782</ele>
  <time>2011-10-25T18:06:27Z</time>
  <speed>3.410000</speed>
</trkpt>
<trkpt lat="32.588279724" lon="34.994647980">
  <ele>62.665344</ele>
  <time>2011-10-25T18:06:28Z</time>
  <speed>3.640000</speed>
</trkpt>
<trkpt lat="32.588260651" lon="34.994628906">
  <ele>63.521790</ele>
  <time>2011-10-25T18:06:29Z</time>
  <speed>3.370000</speed>
</trkpt>
<trkpt lat="32.588233948" lon="34.994606018">
  <ele>64.744751</ele>
  <time>2011-10-25T18:06:30Z</time>
  <speed>2.920000</speed>
</trkpt>
<trkpt lat="32.588211060" lon="34.994586945">
  <ele>64.953735</ele>
  <time>2011-10-25T18:06:31Z</time>
  <speed>2.960000</speed>
</trkpt>
<trkpt lat="32.588169098" lon="34.994556427">
  <ele>65.100220</ele>
  <time>2011-10-25T18:06:33Z</time>
  <speed>3.040000</speed>
</trkpt>
<trkpt lat="32.588142395" lon="34.994541168">
  <ele>65.809204</ele>
  <time>2011-10-25T18:06:34Z</time>
  <speed>2.990000</speed>
</trkpt>
<trkpt lat="32.588119507" lon="34.994525909">
  <ele>66.756470</ele>
  <time>2011-10-25T18:06:35Z</time>
  <speed>3.010000</speed>
</trkpt>
<trkpt lat="32.588092804" lon="34.994506836">
  <ele>67.443970</ele>
  <time>2011-10-25T18:06:36Z</time>
  <speed>3.050000</speed>
</trkpt>
<trkpt lat="32.588073730" lon="34.994480133">
  <ele>67.774048</ele>
  <time>2011-10-25T18:06:37Z</time>
  <speed>3.100000</speed>
</trkpt>
<trkpt lat="32.588050842" lon="34.994457245">
  <ele>67.920532</ele>
  <time>2011-10-25T18:06:38Z</time>
  <speed>2.670000</speed>
</trkpt>
<trkpt lat="32.588008881" lon="34.994422913">
  <ele>67.502563</ele>
  <time>2011-10-25T18:06:40Z</time>
  <speed>2.630000</speed>
</trkpt>
<trkpt lat="32.587970734" lon="34.994384766">
  <ele>67.432251</ele>
  <time>2011-10-25T18:06:42Z</time>
  <speed>2.540000</speed>
</trkpt>
<trkpt lat="32.587936401" lon="34.994338989">
  <ele>66.869751</ele>
  <time>2011-10-25T18:06:44Z</time>
  <speed>2.540000</speed>
</trkpt>
<trkpt lat="32.587894440" lon="34.994308472">
  <ele>67.479126</ele>
  <time>2011-10-25T18:06:46Z</time>
  <speed>2.190000</speed>
</trkpt>
<trkpt lat="32.587860107" lon="34.994270325">
  <ele>66.670532</ele>
  <time>2011-10-25T18:06:48Z</time>
  <speed>2.320000</speed>
</trkpt>
<trkpt lat="32.587829590" lon="34.994239807">
  <ele>66.572876</ele>
  <time>2011-10-25T18:06:50Z</time>
  <speed>2.460000</speed>
</trkpt>
<trkpt lat="32.587795258" lon="34.994209290">
  <ele>65.986938</ele>
  <time>2011-10-25T18:06:52Z</time>
  <speed>2.180000</speed>
</trkpt>
<trkpt lat="32.587760925" lon="34.994163513">
  <ele>65.340454</ele>
  <time>2011-10-25T18:06:54Z</time>
  <speed>3.130000</speed>
</trkpt>
<trkpt lat="32.587741852" lon="34.994136810">
  <ele>65.457642</ele>
  <time>2011-10-25T18:06:55Z</time>
  <speed>3.140000</speed>
</trkpt>
<trkpt lat="32.587722778" lon="34.994110107">
  <ele>65.684204</ele>
  <time>2011-10-25T18:06:56Z</time>
  <speed>2.810000</speed>
</trkpt>
<trkpt lat="32.587692261" lon="34.994091034">
  <ele>65.699829</ele>
  <time>2011-10-25T18:06:57Z</time>
  <speed>3.150000</speed>
</trkpt>
<trkpt lat="32.587669373" lon="34.994068146">
  <ele>65.156860</ele>
  <time>2011-10-25T18:06:58Z</time>
  <speed>2.850000</speed>
</trkpt>
<trkpt lat="32.587646484" lon="34.994049072">
  <ele>65.193970</ele>
  <time>2011-10-25T18:06:59Z</time>
  <speed>3.120000</speed>
</trkpt>
<trkpt lat="32.587627411" lon="34.994018555">
  <ele>65.301392</ele>
  <time>2011-10-25T18:07:00Z</time>
  <speed>2.730000</speed>
</trkpt>
<trkpt lat="32.587604523" lon="34.993995667">
  <ele>65.373657</ele>
  <time>2011-10-25T18:07:01Z</time>
  <speed>2.930000</speed>
</trkpt>
<trkpt lat="32.587577820" lon="34.993980408">
  <ele>65.574829</ele>
  <time>2011-10-25T18:07:02Z</time>
  <speed>2.860000</speed>
</trkpt>
<trkpt lat="32.587558746" lon="34.993953705">
  <ele>66.078735</ele>
  <time>2011-10-25T18:07:03Z</time>
  <speed>2.740000</speed>
</trkpt>
<trkpt lat="32.587532043" lon="34.993938446">
  <ele>65.859985</ele>
  <time>2011-10-25T18:07:04Z</time>
  <speed>3.020000</speed>
</trkpt>
<trkpt lat="32.587505341" lon="34.993923187">
  <ele>66.606079</ele>
  <time>2011-10-25T18:07:05Z</time>
  <speed>3.050000</speed>
</trkpt>
<trkpt lat="32.587448120" lon="34.993900299">
  <ele>66.740845</ele>
  <time>2011-10-25T18:07:07Z</time>
  <speed>3.140000</speed>
</trkpt>
<trkpt lat="32.587421417" lon="34.993885040">
  <ele>67.465454</ele>
  <time>2011-10-25T18:07:08Z</time>
  <speed>3.080000</speed>
</trkpt>
<trkpt lat="32.587394714" lon="34.993881226">
  <ele>67.961548</ele>
  <time>2011-10-25T18:07:09Z</time>
  <speed>2.940000</speed>
</trkpt>
<trkpt lat="32.587345123" lon="34.993858337">
  <ele>68.496704</ele>
  <time>2011-10-25T18:07:11Z</time>
  <speed>2.950000</speed>
</trkpt>
<trkpt lat="32.587318420" lon="34.993843079">
  <ele>69.041626</ele>
  <time>2011-10-25T18:07:12Z</time>
  <speed>3.020000</speed>
</trkpt>
<trkpt lat="32.587295532" lon="34.993820190">
  <ele>69.637329</ele>
  <time>2011-10-25T18:07:13Z</time>
  <speed>3.140000</speed>
</trkpt>
<trkpt lat="32.587265015" lon="34.993797302">
  <ele>70.225220</ele>
  <time>2011-10-25T18:07:14Z</time>
  <speed>3.790000</speed>
</trkpt>
<trkpt lat="32.587238312" lon="34.993770599">
  <ele>70.359985</ele>
  <time>2011-10-25T18:07:15Z</time>
  <speed>3.730000</speed>
</trkpt>
<trkpt lat="32.587207794" lon="34.993743896">
  <ele>71.459595</ele>
  <time>2011-10-25T18:07:16Z</time>
  <speed>3.720000</speed>
</trkpt>
<trkpt lat="32.587181091" lon="34.993713379">
  <ele>71.467407</ele>
  <time>2011-10-25T18:07:17Z</time>
  <speed>4.080000</speed>
</trkpt>
<trkpt lat="32.587154388" lon="34.993682861">
  <ele>71.215454</ele>
  <time>2011-10-25T18:07:18Z</time>
  <speed>4.040000</speed>
</trkpt>
<trkpt lat="32.587123871" lon="34.993644714">
  <ele>72.723267</ele>
  <time>2011-10-25T18:07:19Z</time>
  <speed>4.210000</speed>
</trkpt>
<trkpt lat="32.587097168" lon="34.993614197">
  <ele>72.518188</ele>
  <time>2011-10-25T18:07:20Z</time>
  <speed>3.850000</speed>
</trkpt>
<trkpt lat="32.587081909" lon="34.993576050">
  <ele>71.902954</ele>
  <time>2011-10-25T18:07:21Z</time>
  <speed>3.930000</speed>
</trkpt>
<trkpt lat="32.587055206" lon="34.993541718">
  <ele>72.256470</ele>
  <time>2011-10-25T18:07:22Z</time>
  <speed>4.010000</speed>
</trkpt>
<trkpt lat="32.587032318" lon="34.993507385">
  <ele>71.465454</ele>
  <time>2011-10-25T18:07:23Z</time>
  <speed>4.070000</speed>
</trkpt>
<trkpt lat="32.587020874" lon="34.993495941">
  <ele>68.881470</ele>
  <time>2011-10-25T18:07:24Z</time>
  <speed>4.190000</speed>
</trkpt>
<trkpt lat="32.586997986" lon="34.993480682">
  <ele>67.635376</ele>
  <time>2011-10-25T18:07:25Z</time>
  <speed>4.130000</speed>
</trkpt>
<trkpt lat="32.586948395" lon="34.993427277">
  <ele>67.121704</ele>
  <time>2011-10-25T18:07:27Z</time>
  <speed>4.170000</speed>
</trkpt>
<trkpt lat="32.586921692" lon="34.993396759">
  <ele>66.609985</ele>
  <time>2011-10-25T18:07:28Z</time>
  <speed>4.150000</speed>
</trkpt>
<trkpt lat="32.586898804" lon="34.993362427">
  <ele>66.715454</ele>
  <time>2011-10-25T18:07:29Z</time>
  <speed>4.410000</speed>
</trkpt>
<trkpt lat="32.586872101" lon="34.993324280">
  <ele>66.188110</ele>
  <time>2011-10-25T18:07:30Z</time>
  <speed>4.430000</speed>
</trkpt>
<trkpt lat="32.586849213" lon="34.993282318">
  <ele>65.309204</ele>
  <time>2011-10-25T18:07:31Z</time>
  <speed>4.910000</speed>
</trkpt>
<trkpt lat="32.586818695" lon="34.993244171">
  <ele>64.740845</ele>
  <time>2011-10-25T18:07:32Z</time>
  <speed>4.820000</speed>
</trkpt>
<trkpt lat="32.586791992" lon="34.993217468">
  <ele>64.209595</ele>
  <time>2011-10-25T18:07:33Z</time>
  <speed>4.470000</speed>
</trkpt>
<trkpt lat="32.586761475" lon="34.993183136">
  <ele>63.354797</ele>
  <time>2011-10-25T18:07:34Z</time>
  <speed>4.230000</speed>
</trkpt>
<trkpt lat="32.586734772" lon="34.993152618">
  <ele>63.030579</ele>
  <time>2011-10-25T18:07:35Z</time>
  <speed>4.420000</speed>
</trkpt>
<trkpt lat="32.586704254" lon="34.993118286">
  <ele>62.733704</ele>
  <time>2011-10-25T18:07:36Z</time>
  <speed>4.350000</speed>
</trkpt>
<trkpt lat="32.586673737" lon="34.993087769">
  <ele>62.842102</ele>
  <time>2011-10-25T18:07:37Z</time>
  <speed>4.010000</speed>
</trkpt>
<trkpt lat="32.586643219" lon="34.993061066">
  <ele>62.580383</ele>
  <time>2011-10-25T18:07:38Z</time>
  <speed>3.820000</speed>
</trkpt>
<trkpt lat="32.586616516" lon="34.993038177">
  <ele>62.375305</ele>
  <time>2011-10-25T18:07:39Z</time>
  <speed>3.670000</speed>
</trkpt>
<trkpt lat="32.586589813" lon="34.993007660">
  <ele>62.032532</ele>
  <time>2011-10-25T18:07:40Z</time>
  <speed>3.790000</speed>
</trkpt>
<trkpt lat="32.586563110" lon="34.992984772">
  <ele>61.960266</ele>
  <time>2011-10-25T18:07:41Z</time>
  <speed>3.650000</speed>
</trkpt>
<trkpt lat="32.586536407" lon="34.992954254">
  <ele>62.070618</ele>
  <time>2011-10-25T18:07:42Z</time>
  <speed>3.560000</speed>
</trkpt>
<trkpt lat="32.586509705" lon="34.992923737">
  <ele>62.040344</ele>
  <time>2011-10-25T18:07:43Z</time>
  <speed>3.720000</speed>
</trkpt>
<trkpt lat="32.586479187" lon="34.992897034">
  <ele>62.124329</ele>
  <time>2011-10-25T18:07:44Z</time>
  <speed>3.600000</speed>
</trkpt>
<trkpt lat="32.586452484" lon="34.992874146">
  <ele>62.174133</ele>
  <time>2011-10-25T18:07:45Z</time>
  <speed>3.490000</speed>
</trkpt>
<trkpt lat="32.586425781" lon="34.992847443">
  <ele>62.212219</ele>
  <time>2011-10-25T18:07:46Z</time>
  <speed>3.320000</speed>
</trkpt>
<trkpt lat="32.586399078" lon="34.992820740">
  <ele>62.303040</ele>
  <time>2011-10-25T18:07:47Z</time>
  <speed>3.560000</speed>
</trkpt>
<trkpt lat="32.586376190" lon="34.992790222">
  <ele>61.783508</ele>
  <time>2011-10-25T18:07:48Z</time>
  <speed>4.040000</speed>
</trkpt>
<trkpt lat="32.586345673" lon="34.992755890">
  <ele>62.070618</ele>
  <time>2011-10-25T18:07:49Z</time>
  <speed>4.090000</speed>
</trkpt>
<trkpt lat="32.586315155" lon="34.992725372">
  <ele>62.401672</ele>
  <time>2011-10-25T18:07:50Z</time>
  <speed>3.870000</speed>
</trkpt>
<trkpt lat="32.586288452" lon="34.992687225">
  <ele>62.955383</ele>
  <time>2011-10-25T18:07:51Z</time>
  <speed>3.970000</speed>
</trkpt>
<trkpt lat="32.586257935" lon="34.992656708">
  <ele>63.129211</ele>
  <time>2011-10-25T18:07:52Z</time>
  <speed>3.810000</speed>
</trkpt>
<trkpt lat="32.586231232" lon="34.992630005">
  <ele>63.607727</ele>
  <time>2011-10-25T18:07:53Z</time>
  <speed>3.940000</speed>
</trkpt>
<trkpt lat="32.586204529" lon="34.992599487">
  <ele>63.648743</ele>
  <time>2011-10-25T18:07:54Z</time>
  <speed>3.880000</speed>
</trkpt>
<trkpt lat="32.586177826" lon="34.992565155">
  <ele>63.979797</ele>
  <time>2011-10-25T18:07:55Z</time>
  <speed>3.550000</speed>
</trkpt>
<trkpt lat="32.586154938" lon="34.992538452">
  <ele>64.707642</ele>
  <time>2011-10-25T18:07:56Z</time>
  <speed>3.650000</speed>
</trkpt>
<trkpt lat="32.586128235" lon="34.992515564">
  <ele>65.369751</ele>
  <time>2011-10-25T18:07:57Z</time>
  <speed>3.780000</speed>
</trkpt>
<trkpt lat="32.586101532" lon="34.992492676">
  <ele>65.565063</ele>
  <time>2011-10-25T18:07:58Z</time>
  <speed>3.710000</speed>
</trkpt>
<trkpt lat="32.586074829" lon="34.992465973">
  <ele>65.631470</ele>
  <time>2011-10-25T18:07:59Z</time>
  <speed>3.640000</speed>
</trkpt>
<trkpt lat="32.586048126" lon="34.992439270">
  <ele>66.197876</ele>
  <time>2011-10-25T18:08:00Z</time>
  <speed>3.820000</speed>
</trkpt>
<trkpt lat="32.586021423" lon="34.992416382">
  <ele>66.828735</ele>
  <time>2011-10-25T18:08:01Z</time>
  <speed>3.780000</speed>
</trkpt>
<trkpt lat="32.585994720" lon="34.992385864">
  <ele>67.795532</ele>
  <time>2011-10-25T18:08:02Z</time>
  <speed>3.810000</speed>
</trkpt>
<trkpt lat="32.585968018" lon="34.992355347">
  <ele>68.418579</ele>
  <time>2011-10-25T18:08:03Z</time>
  <speed>3.720000</speed>
</trkpt>
<trkpt lat="32.585945129" lon="34.992328644">
  <ele>68.736938</ele>
  <time>2011-10-25T18:08:04Z</time>
  <speed>3.700000</speed>
</trkpt>
<trkpt lat="32.585922241" lon="34.992305756">
  <ele>69.166626</ele>
  <time>2011-10-25T18:08:05Z</time>
  <speed>3.430000</speed>
</trkpt>
<trkpt lat="32.585895538" lon="34.992282867">
  <ele>69.332642</ele>
  <time>2011-10-25T18:08:06Z</time>
  <speed>3.650000</speed>
</trkpt>
<trkpt lat="32.585872650" lon="34.992259979">
  <ele>69.229126</ele>
  <time>2011-10-25T18:08:07Z</time>
  <speed>3.510000</speed>
</trkpt>
<trkpt lat="32.585849762" lon="34.992233276">
  <ele>69.203735</ele>
  <time>2011-10-25T18:08:08Z</time>
  <speed>3.660000</speed>
</trkpt>
<trkpt lat="32.585830688" lon="34.992210388">
  <ele>69.193970</ele>
  <time>2011-10-25T18:08:09Z</time>
  <speed>3.360000</speed>
</trkpt>
<trkpt lat="32.585803986" lon="34.992191315">
  <ele>69.010376</ele>
  <time>2011-10-25T18:08:10Z</time>
  <speed>3.380000</speed>
</trkpt>
<trkpt lat="32.585777283" lon="34.992164612">
  <ele>69.432251</ele>
  <time>2011-10-25T18:08:11Z</time>
  <speed>3.290000</speed>
</trkpt>
<trkpt lat="32.585754395" lon="34.992137909">
  <ele>69.412720</ele>
  <time>2011-10-25T18:08:12Z</time>
  <speed>3.250000</speed>
</trkpt>
<trkpt lat="32.585731506" lon="34.992115021">
  <ele>69.781860</ele>
  <time>2011-10-25T18:08:13Z</time>
  <speed>3.430000</speed>
</trkpt>
<trkpt lat="32.585704803" lon="34.992088318">
  <ele>69.656860</ele>
  <time>2011-10-25T18:08:14Z</time>
  <speed>3.550000</speed>
</trkpt>
<trkpt lat="32.585678101" lon="34.992069244">
  <ele>70.143188</ele>
  <time>2011-10-25T18:08:15Z</time>
  <speed>3.280000</speed>
</trkpt>
<trkpt lat="32.585636139" lon="34.992027283">
  <ele>70.188110</ele>
  <time>2011-10-25T18:08:17Z</time>
  <speed>2.960000</speed>
</trkpt>
<trkpt lat="32.585613251" lon="34.992004395">
  <ele>69.703735</ele>
  <time>2011-10-25T18:08:18Z</time>
  <speed>3.290000</speed>
</trkpt>
<trkpt lat="32.585586548" lon="34.991973877">
  <ele>70.217407</ele>
  <time>2011-10-25T18:08:19Z</time>
  <speed>3.720000</speed>
</trkpt>
<trkpt lat="32.585559845" lon="34.991954803">
  <ele>70.195923</ele>
  <time>2011-10-25T18:08:20Z</time>
  <speed>3.660000</speed>
</trkpt>
<trkpt lat="32.585533142" lon="34.991935730">
  <ele>69.740845</ele>
  <time>2011-10-25T18:08:21Z</time>
  <speed>3.380000</speed>
</trkpt>
<trkpt lat="32.585514069" lon="34.991912842">
  <ele>69.852173</ele>
  <time>2011-10-25T18:08:22Z</time>
  <speed>3.140000</speed>
</trkpt>
<trkpt lat="32.585472107" lon="34.991882324">
  <ele>69.842407</ele>
  <time>2011-10-25T18:08:24Z</time>
  <speed>2.540000</speed>
</trkpt>
<trkpt lat="32.585441589" lon="34.991851807">
  <ele>69.754517</ele>
  <time>2011-10-25T18:08:26Z</time>
  <speed>2.350000</speed>
</trkpt>
<trkpt lat="32.585407257" lon="34.991836548">
  <ele>69.918579</ele>
  <time>2011-10-25T18:08:28Z</time>
  <speed>1.670000</speed>
</trkpt>
<trkpt lat="32.585376740" lon="34.991825104">
  <ele>71.203735</ele>
  <time>2011-10-25T18:08:30Z</time>
  <speed>1.830000</speed>
</trkpt>
<trkpt lat="32.585353851" lon="34.991809845">
  <ele>71.385376</ele>
  <time>2011-10-25T18:08:32Z</time>
  <speed>1.520000</speed>
</trkpt>
<trkpt lat="32.585327148" lon="34.991786957">
  <ele>71.897095</ele>
  <time>2011-10-25T18:08:35Z</time>
  <speed>0.910000</speed>
</trkpt>
<trkpt lat="32.585304260" lon="34.991802216">
  <ele>72.977173</ele>
  <time>2011-10-25T18:08:38Z</time>
  <speed>0.870000</speed>
</trkpt>
<trkpt lat="32.585281372" lon="34.991828918">
  <ele>70.940063</ele>
  <time>2011-10-25T18:08:40Z</time>
  <speed>1.370000</speed>
</trkpt>
<trkpt lat="32.585250854" lon="34.991844177">
  <ele>71.024048</ele>
  <time>2011-10-25T18:08:43Z</time>
  <speed>1.070000</speed>
</trkpt>
<trkpt lat="32.585224152" lon="34.991859436">
  <ele>70.664673</ele>
  <time>2011-10-25T18:08:47Z</time>
  <speed>1.490000</speed>
</trkpt>
<trkpt lat="32.585189819" lon="34.991882324">
  <ele>70.500610</ele>
  <time>2011-10-25T18:08:49Z</time>
  <speed>2.110000</speed>
</trkpt>
<trkpt lat="32.585163116" lon="34.991912842">
  <ele>69.488892</ele>
  <time>2011-10-25T18:08:51Z</time>
  <speed>2.330000</speed>
</trkpt>
<trkpt lat="32.585117340" lon="34.991931915">
  <ele>69.510376</ele>
  <time>2011-10-25T18:08:53Z</time>
  <speed>3.030000</speed>
</trkpt>
<trkpt lat="32.585090637" lon="34.991947174">
  <ele>68.996704</ele>
  <time>2011-10-25T18:08:54Z</time>
  <speed>3.810000</speed>
</trkpt>
<trkpt lat="32.585060120" lon="34.991954803">
  <ele>68.918579</ele>
  <time>2011-10-25T18:08:55Z</time>
  <speed>3.890000</speed>
</trkpt>
<trkpt lat="32.585018158" lon="34.991962433">
  <ele>69.141235</ele>
  <time>2011-10-25T18:08:56Z</time>
  <speed>4.450000</speed>
</trkpt>
<trkpt lat="32.584980011" lon="34.991973877">
  <ele>68.943970</ele>
  <time>2011-10-25T18:08:57Z</time>
  <speed>4.470000</speed>
</trkpt>
<trkpt lat="32.584941864" lon="34.991989136">
  <ele>69.195923</ele>
  <time>2011-10-25T18:08:58Z</time>
  <speed>4.010000</speed>
</trkpt>
<trkpt lat="32.584907532" lon="34.992008209">
  <ele>69.276001</ele>
  <time>2011-10-25T18:08:59Z</time>
  <speed>4.410000</speed>
</trkpt>
<trkpt lat="32.584869385" lon="34.992031097">
  <ele>69.281860</ele>
  <time>2011-10-25T18:09:00Z</time>
  <speed>4.470000</speed>
</trkpt>
<trkpt lat="32.584831238" lon="34.992061615">
  <ele>68.897095</ele>
  <time>2011-10-25T18:09:01Z</time>
  <speed>4.980000</speed>
</trkpt>
<trkpt lat="32.584796906" lon="34.992107391">
  <ele>68.565063</ele>
  <time>2011-10-25T18:09:02Z</time>
  <speed>5.390000</speed>
</trkpt>
<trkpt lat="32.584762573" lon="34.992156982">
  <ele>67.809204</ele>
  <time>2011-10-25T18:09:03Z</time>
  <speed>5.330000</speed>
</trkpt>
<trkpt lat="32.584732056" lon="34.992206573">
  <ele>67.049438</ele>
  <time>2011-10-25T18:09:04Z</time>
  <speed>5.210000</speed>
</trkpt>
<trkpt lat="32.584705353" lon="34.992248535">
  <ele>66.717407</ele>
  <time>2011-10-25T18:09:05Z</time>
  <speed>5.080000</speed>
</trkpt>
<trkpt lat="32.584667206" lon="34.992290497">
  <ele>65.662720</ele>
  <time>2011-10-25T18:09:06Z</time>
  <speed>5.170000</speed>
</trkpt>
<trkpt lat="32.584629059" lon="34.992328644">
  <ele>65.365845</ele>
  <time>2011-10-25T18:09:07Z</time>
  <speed>5.750000</speed>
</trkpt>
<trkpt lat="32.584583282" lon="34.992366791">
  <ele>64.588501</ele>
  <time>2011-10-25T18:09:08Z</time>
  <speed>6.340000</speed>
</trkpt>
<trkpt lat="32.584533691" lon="34.992408752">
  <ele>64.518188</ele>
  <time>2011-10-25T18:09:09Z</time>
  <speed>6.110000</speed>
</trkpt>
<trkpt lat="32.584487915" lon="34.992443085">
  <ele>64.313110</ele>
  <time>2011-10-25T18:09:10Z</time>
  <speed>6.100000</speed>
</trkpt>
<trkpt lat="32.584438324" lon="34.992473602">
  <ele>64.033813</ele>
  <time>2011-10-25T18:09:11Z</time>
  <speed>5.860000</speed>
</trkpt>
<trkpt lat="32.584392548" lon="34.992507935">
  <ele>63.663391</ele>
  <time>2011-10-25T18:09:12Z</time>
  <speed>6.230000</speed>
</trkpt>
<trkpt lat="32.584342957" lon="34.992546082">
  <ele>63.350891</ele>
  <time>2011-10-25T18:09:13Z</time>
  <speed>6.330000</speed>
</trkpt>
<trkpt lat="32.584300995" lon="34.992588043">
  <ele>63.045227</ele>
  <time>2011-10-25T18:09:14Z</time>
  <speed>5.820000</speed>
</trkpt>
<trkpt lat="32.584259033" lon="34.992626190">
  <ele>62.339172</ele>
  <time>2011-10-25T18:09:15Z</time>
  <speed>6.010000</speed>
</trkpt>
<trkpt lat="32.584213257" lon="34.992664337">
  <ele>62.054016</ele>
  <time>2011-10-25T18:09:16Z</time>
  <speed>6.070000</speed>
</trkpt>
<trkpt lat="32.584171295" lon="34.992702484">
  <ele>61.746399</ele>
  <time>2011-10-25T18:09:17Z</time>
  <speed>5.690000</speed>
</trkpt>
<trkpt lat="32.584129333" lon="34.992740631">
  <ele>61.630188</ele>
  <time>2011-10-25T18:09:18Z</time>
  <speed>5.500000</speed>
</trkpt>
<trkpt lat="32.584095001" lon="34.992774963">
  <ele>61.180969</ele>
  <time>2011-10-25T18:09:19Z</time>
  <speed>5.240000</speed>
</trkpt>
<trkpt lat="32.584060669" lon="34.992816925">
  <ele>61.127258</ele>
  <time>2011-10-25T18:09:20Z</time>
  <speed>4.960000</speed>
</trkpt>
<trkpt lat="32.584030151" lon="34.992855072">
  <ele>61.105774</ele>
  <time>2011-10-25T18:09:21Z</time>
  <speed>4.730000</speed>
</trkpt>
<trkpt lat="32.583999634" lon="34.992897034">
  <ele>60.842102</ele>
  <time>2011-10-25T18:09:22Z</time>
  <speed>4.410000</speed>
</trkpt>
<trkpt lat="32.583976746" lon="34.992942810">
  <ele>60.610657</ele>
  <time>2011-10-25T18:09:23Z</time>
  <speed>4.430000</speed>
</trkpt>
<trkpt lat="32.583942413" lon="34.992984772">
  <ele>60.179993</ele>
  <time>2011-10-25T18:09:24Z</time>
  <speed>4.390000</speed>
</trkpt>
<trkpt lat="32.583919525" lon="34.993026733">
  <ele>60.278625</ele>
  <time>2011-10-25T18:09:25Z</time>
  <speed>4.070000</speed>
</trkpt>
<trkpt lat="32.583896637" lon="34.993064880">
  <ele>59.674133</ele>
  <time>2011-10-25T18:09:26Z</time>
  <speed>3.880000</speed>
</trkpt>
<trkpt lat="32.583877563" lon="34.993110657">
  <ele>59.197571</ele>
  <time>2011-10-25T18:09:27Z</time>
  <speed>3.910000</speed>
</trkpt>
<trkpt lat="32.583858490" lon="34.993152618">
  <ele>59.077454</ele>
  <time>2011-10-25T18:09:28Z</time>
  <speed>4.030000</speed>
</trkpt>
<trkpt lat="32.583839417" lon="34.993190765">
  <ele>58.896790</ele>
  <time>2011-10-25T18:09:29Z</time>
  <speed>4.000000</speed>
</trkpt>
<trkpt lat="32.583827972" lon="34.993232727">
  <ele>58.476868</ele>
  <time>2011-10-25T18:09:30Z</time>
  <speed>4.010000</speed>
</trkpt>
<trkpt lat="32.583805084" lon="34.993267059">
  <ele>58.288391</ele>
  <time>2011-10-25T18:09:31Z</time>
  <speed>4.080000</speed>
</trkpt>
<trkpt lat="32.583786011" lon="34.993309021">
  <ele>57.980774</ele>
  <time>2011-10-25T18:09:32Z</time>
  <speed>4.050000</speed>
</trkpt>
<trkpt lat="32.583766937" lon="34.993347168">
  <ele>57.870422</ele>
  <time>2011-10-25T18:09:33Z</time>
  <speed>4.030000</speed>
</trkpt>
<trkpt lat="32.583747864" lon="34.993389130">
  <ele>57.740540</ele>
  <time>2011-10-25T18:09:34Z</time>
  <speed>4.030000</speed>
</trkpt>
<trkpt lat="32.583736420" lon="34.993427277">
  <ele>57.663391</ele>
  <time>2011-10-25T18:09:35Z</time>
  <speed>3.650000</speed>
</trkpt>
<trkpt lat="32.583732605" lon="34.993461609">
  <ele>58.406555</ele>
  <time>2011-10-25T18:09:36Z</time>
  <speed>3.500000</speed>
</trkpt>
<trkpt lat="32.583721161" lon="34.993495941">
  <ele>58.168274</ele>
  <time>2011-10-25T18:09:37Z</time>
  <speed>3.550000</speed>
</trkpt>
<trkpt lat="32.583709717" lon="34.993534088">
  <ele>58.359680</ele>
  <time>2011-10-25T18:09:38Z</time>
  <speed>3.680000</speed>
</trkpt>
<trkpt lat="32.583698273" lon="34.993576050">
  <ele>58.375305</ele>
  <time>2011-10-25T18:09:39Z</time>
  <speed>3.680000</speed>
</trkpt>
<trkpt lat="32.583690643" lon="34.993618011">
  <ele>58.180969</ele>
  <time>2011-10-25T18:09:40Z</time>
  <speed>3.740000</speed>
</trkpt>
<trkpt lat="32.583686829" lon="34.993656158">
  <ele>57.269836</ele>
  <time>2011-10-25T18:09:41Z</time>
  <speed>3.840000</speed>
</trkpt>
<trkpt lat="32.583690643" lon="34.993694305">
  <ele>56.758118</ele>
  <time>2011-10-25T18:09:42Z</time>
  <speed>3.720000</speed>
</trkpt>
<trkpt lat="32.583686829" lon="34.993724823">
  <ele>55.702454</ele>
  <time>2011-10-25T18:09:43Z</time>
  <speed>3.600000</speed>
</trkpt>
<trkpt lat="32.583675385" lon="34.993759155">
  <ele>55.074524</ele>
  <time>2011-10-25T18:09:44Z</time>
  <speed>3.800000</speed>
</trkpt>
<trkpt lat="32.583663940" lon="34.993801117">
  <ele>54.768860</ele>
  <time>2011-10-25T18:09:45Z</time>
  <speed>3.710000</speed>
</trkpt>
<trkpt lat="32.583667755" lon="34.993843079">
  <ele>54.773743</ele>
  <time>2011-10-25T18:09:46Z</time>
  <speed>3.530000</speed>
</trkpt>
<trkpt lat="32.583660126" lon="34.993885040">
  <ele>54.453430</ele>
  <time>2011-10-25T18:09:47Z</time>
  <speed>3.780000</speed>
</trkpt>
<trkpt lat="32.583648682" lon="34.993923187">
  <ele>54.013977</ele>
  <time>2011-10-25T18:09:48Z</time>
  <speed>3.710000</speed>
</trkpt>
<trkpt lat="32.583637238" lon="34.993961334">
  <ele>54.471008</ele>
  <time>2011-10-25T18:09:49Z</time>
  <speed>3.660000</speed>
</trkpt>
<trkpt lat="32.583625793" lon="34.993995667">
  <ele>54.274719</ele>
  <time>2011-10-25T18:09:50Z</time>
  <speed>3.350000</speed>
</trkpt>
<trkpt lat="32.583610535" lon="34.994029999">
  <ele>54.672180</ele>
  <time>2011-10-25T18:09:51Z</time>
  <speed>3.360000</speed>
</trkpt>
<trkpt lat="32.583602905" lon="34.994064331">
  <ele>53.967102</ele>
  <time>2011-10-25T18:09:52Z</time>
  <speed>3.320000</speed>
</trkpt>
<trkpt lat="32.583595276" lon="34.994125366">
  <ele>52.386047</ele>
  <time>2011-10-25T18:09:54Z</time>
  <speed>2.860000</speed>
</trkpt>
<trkpt lat="32.583580017" lon="34.994186401">
  <ele>51.568665</ele>
  <time>2011-10-25T18:09:56Z</time>
  <speed>3.370000</speed>
</trkpt>
<trkpt lat="32.583568573" lon="34.994224548">
  <ele>50.674133</ele>
  <time>2011-10-25T18:09:57Z</time>
  <speed>3.570000</speed>
</trkpt>
<trkpt lat="32.583553314" lon="34.994262695">
  <ele>50.690735</ele>
  <time>2011-10-25T18:09:58Z</time>
  <speed>3.580000</speed>
</trkpt>
<trkpt lat="32.583553314" lon="34.994308472">
  <ele>50.496399</ele>
  <time>2011-10-25T18:09:59Z</time>
  <speed>3.860000</speed>
</trkpt>
<trkpt lat="32.583560944" lon="34.994346619">
  <ele>50.200500</ele>
  <time>2011-10-25T18:10:00Z</time>
  <speed>3.700000</speed>
</trkpt>
<trkpt lat="32.583572388" lon="34.994388580">
  <ele>50.154602</ele>
  <time>2011-10-25T18:10:01Z</time>
  <speed>3.460000</speed>
</trkpt>
<trkpt lat="32.583583832" lon="34.994426727">
  <ele>50.030579</ele>
  <time>2011-10-25T18:10:02Z</time>
  <speed>3.500000</speed>
</trkpt>
<trkpt lat="32.583595276" lon="34.994461060">
  <ele>49.741516</ele>
  <time>2011-10-25T18:10:03Z</time>
  <speed>3.190000</speed>
</trkpt>
<trkpt lat="32.583610535" lon="34.994503021">
  <ele>48.927063</ele>
  <time>2011-10-25T18:10:04Z</time>
  <speed>4.410000</speed>
</trkpt>
<trkpt lat="32.583618164" lon="34.994548798">
  <ele>48.507141</ele>
  <time>2011-10-25T18:10:05Z</time>
  <speed>4.050000</speed>
</trkpt>
<trkpt lat="32.583621979" lon="34.994594574">
  <ele>48.130188</ele>
  <time>2011-10-25T18:10:06Z</time>
  <speed>4.040000</speed>
</trkpt>
<trkpt lat="32.583629608" lon="34.994636536">
  <ele>48.193665</ele>
  <time>2011-10-25T18:10:07Z</time>
  <speed>3.730000</speed>
</trkpt>
<trkpt lat="32.583637238" lon="34.994674683">
  <ele>47.817688</ele>
  <time>2011-10-25T18:10:08Z</time>
  <speed>3.870000</speed>
</trkpt>
<trkpt lat="32.583648682" lon="34.994716644">
  <ele>48.043274</ele>
  <time>2011-10-25T18:10:09Z</time>
  <speed>3.750000</speed>
</trkpt>
<trkpt lat="32.583656311" lon="34.994758606">
  <ele>48.395813</ele>
  <time>2011-10-25T18:10:10Z</time>
  <speed>3.550000</speed>
</trkpt>
<trkpt lat="32.583648682" lon="34.994796753">
  <ele>48.562805</ele>
  <time>2011-10-25T18:10:11Z</time>
  <speed>3.420000</speed>
</trkpt>
<trkpt lat="32.583652496" lon="34.994831085">
  <ele>48.151672</ele>
  <time>2011-10-25T18:10:12Z</time>
  <speed>3.130000</speed>
</trkpt>
<trkpt lat="32.583652496" lon="34.994865417">
  <ele>48.237610</ele>
  <time>2011-10-25T18:10:13Z</time>
  <speed>3.440000</speed>
</trkpt>
<trkpt lat="32.583652496" lon="34.994899750">
  <ele>48.582336</ele>
  <time>2011-10-25T18:10:14Z</time>
  <speed>3.470000</speed>
</trkpt>
<trkpt lat="32.583656311" lon="34.994937897">
  <ele>48.527649</ele>
  <time>2011-10-25T18:10:15Z</time>
  <speed>3.230000</speed>
</trkpt>
<trkpt lat="32.583660126" lon="34.994998932">
  <ele>47.723938</ele>
  <time>2011-10-25T18:10:17Z</time>
  <speed>2.920000</speed>
</trkpt>
<trkpt lat="32.583652496" lon="34.995071411">
  <ele>47.048157</ele>
  <time>2011-10-25T18:10:19Z</time>
  <speed>3.940000</speed>
</trkpt>
<trkpt lat="32.583648682" lon="34.995113373">
  <ele>47.177063</ele>
  <time>2011-10-25T18:10:20Z</time>
  <speed>3.760000</speed>
</trkpt>
<trkpt lat="32.583641052" lon="34.995147705">
  <ele>46.777649</ele>
  <time>2011-10-25T18:10:21Z</time>
  <speed>3.830000</speed>
</trkpt>
<trkpt lat="32.583637238" lon="34.995189667">
  <ele>46.887024</ele>
  <time>2011-10-25T18:10:22Z</time>
  <speed>3.630000</speed>
</trkpt>
<trkpt lat="32.583633423" lon="34.995223999">
  <ele>46.819641</ele>
  <time>2011-10-25T18:10:23Z</time>
  <speed>3.260000</speed>
</trkpt>
<trkpt lat="32.583629608" lon="34.995258331">
  <ele>46.610657</ele>
  <time>2011-10-25T18:10:24Z</time>
  <speed>3.170000</speed>
</trkpt>
<trkpt lat="32.583621979" lon="34.995292664">
  <ele>46.455383</ele>
  <time>2011-10-25T18:10:25Z</time>
  <speed>3.210000</speed>
</trkpt>
<trkpt lat="32.583610535" lon="34.995330811">
  <ele>46.138000</ele>
  <time>2011-10-25T18:10:26Z</time>
  <speed>3.270000</speed>
</trkpt>
<trkpt lat="32.583606720" lon="34.995368958">
  <ele>45.602844</ele>
  <time>2011-10-25T18:10:27Z</time>
  <speed>3.630000</speed>
</trkpt>
<trkpt lat="32.583595276" lon="34.995399475">
  <ele>45.971985</ele>
  <time>2011-10-25T18:10:28Z</time>
  <speed>3.650000</speed>
</trkpt>
<trkpt lat="32.583599091" lon="34.995441437">
  <ele>45.852844</ele>
  <time>2011-10-25T18:10:29Z</time>
  <speed>3.500000</speed>
</trkpt>
<trkpt lat="32.583591461" lon="34.995475769">
  <ele>45.696594</ele>
  <time>2011-10-25T18:10:30Z</time>
  <speed>3.210000</speed>
</trkpt>
<trkpt lat="32.583580017" lon="34.995506287">
  <ele>44.985657</ele>
  <time>2011-10-25T18:10:31Z</time>
  <speed>3.400000</speed>
</trkpt>
<trkpt lat="32.583572388" lon="34.995540619">
  <ele>44.791321</ele>
  <time>2011-10-25T18:10:32Z</time>
  <speed>3.440000</speed>
</trkpt>
<trkpt lat="32.583557129" lon="34.995578766">
  <ele>44.385071</ele>
  <time>2011-10-25T18:10:33Z</time>
  <speed>3.580000</speed>
</trkpt>
<trkpt lat="32.583549500" lon="34.995616913">
  <ele>44.540344</ele>
  <time>2011-10-25T18:10:34Z</time>
  <speed>3.570000</speed>
</trkpt>
<trkpt lat="32.583541870" lon="34.995651245">
  <ele>44.479797</ele>
  <time>2011-10-25T18:10:35Z</time>
  <speed>3.240000</speed>
</trkpt>
<trkpt lat="32.583538055" lon="34.995685577">
  <ele>44.413391</ele>
  <time>2011-10-25T18:10:36Z</time>
  <speed>3.310000</speed>
</trkpt>
<trkpt lat="32.583530426" lon="34.995716095">
  <ele>44.349915</ele>
  <time>2011-10-25T18:10:37Z</time>
  <speed>2.960000</speed>
</trkpt>
<trkpt lat="32.583518982" lon="34.995746613">
  <ele>44.082336</ele>
  <time>2011-10-25T18:10:38Z</time>
  <speed>3.030000</speed>
</trkpt>
<trkpt lat="32.583511353" lon="34.995780945">
  <ele>44.143860</ele>
  <time>2011-10-25T18:10:39Z</time>
  <speed>3.140000</speed>
</trkpt>
<trkpt lat="32.583507538" lon="34.995815277">
  <ele>43.985657</ele>
  <time>2011-10-25T18:10:40Z</time>
  <speed>2.990000</speed>
</trkpt>
<trkpt lat="32.583507538" lon="34.995883942">
  <ele>43.870422</ele>
  <time>2011-10-25T18:10:42Z</time>
  <speed>2.950000</speed>
</trkpt>
<trkpt lat="32.583507538" lon="34.995944977">
  <ele>43.732727</ele>
  <time>2011-10-25T18:10:44Z</time>
  <speed>2.990000</speed>
</trkpt>
<trkpt lat="32.583496094" lon="34.995975494">
  <ele>43.626282</ele>
  <time>2011-10-25T18:10:45Z</time>
  <speed>2.890000</speed>
</trkpt>
<trkpt lat="32.583496094" lon="34.996009827">
  <ele>43.751282</ele>
  <time>2011-10-25T18:10:46Z</time>
  <speed>2.710000</speed>
</trkpt>
<trkpt lat="32.583492279" lon="34.996044159">
  <ele>43.508118</ele>
  <time>2011-10-25T18:10:47Z</time>
  <speed>2.710000</speed>
</trkpt>
<trkpt lat="32.583488464" lon="34.996101379">
  <ele>43.884094</ele>
  <time>2011-10-25T18:10:49Z</time>
  <speed>2.540000</speed>
</trkpt>
<trkpt lat="32.583496094" lon="34.996135712">
  <ele>44.749329</ele>
  <time>2011-10-25T18:10:50Z</time>
  <speed>2.650000</speed>
</trkpt>
<trkpt lat="32.583499908" lon="34.996170044">
  <ele>44.485657</ele>
  <time>2011-10-25T18:10:51Z</time>
  <speed>2.810000</speed>
</trkpt>
<trkpt lat="32.583492279" lon="34.996219635">
  <ele>44.392883</ele>
  <time>2011-10-25T18:10:53Z</time>
  <speed>2.090000</speed>
</trkpt>
<trkpt lat="32.583488464" lon="34.996265411">
  <ele>44.698547</ele>
  <time>2011-10-25T18:10:55Z</time>
  <speed>1.980000</speed>
</trkpt>
<trkpt lat="32.583477020" lon="34.996307373">
  <ele>45.407532</ele>
  <time>2011-10-25T18:10:57Z</time>
  <speed>2.240000</speed>
</trkpt>
<trkpt lat="32.583465576" lon="34.996360779">
  <ele>46.019836</ele>
  <time>2011-10-25T18:10:59Z</time>
  <speed>2.920000</speed>
</trkpt>
<trkpt lat="32.583450317" lon="34.996395111">
  <ele>45.840149</ele>
  <time>2011-10-25T18:11:00Z</time>
  <speed>3.630000</speed>
</trkpt>
<trkpt lat="32.583427429" lon="34.996429443">
  <ele>45.857727</ele>
  <time>2011-10-25T18:11:01Z</time>
  <speed>3.850000</speed>
</trkpt>
<trkpt lat="32.583412170" lon="34.996459961">
  <ele>45.932922</ele>
  <time>2011-10-25T18:11:02Z</time>
  <speed>2.600000</speed>
</trkpt>
<trkpt lat="32.583408356" lon="34.996509552">
  <ele>46.740540</ele>
  <time>2011-10-25T18:11:04Z</time>
  <speed>2.200000</speed>
</trkpt>
<trkpt lat="32.583412170" lon="34.996547699">
  <ele>47.026672</ele>
  <time>2011-10-25T18:11:06Z</time>
  <speed>2.500000</speed>
</trkpt>
<trkpt lat="32.583415985" lon="34.996601105">
  <ele>47.393860</ele>
  <time>2011-10-25T18:11:08Z</time>
  <speed>2.640000</speed>
</trkpt>
<trkpt lat="32.583419800" lon="34.996654510">
  <ele>47.751282</ele>
  <time>2011-10-25T18:11:10Z</time>
  <speed>2.510000</speed>
</trkpt>
<trkpt lat="32.583423615" lon="34.996707916">
  <ele>48.606750</ele>
  <time>2011-10-25T18:11:12Z</time>
  <speed>2.580000</speed>
</trkpt>
<trkpt lat="32.583435059" lon="34.996765137">
  <ele>49.471008</ele>
  <time>2011-10-25T18:11:14Z</time>
  <speed>2.890000</speed>
</trkpt>
<trkpt lat="32.583431244" lon="34.996826172">
  <ele>50.126282</ele>
  <time>2011-10-25T18:11:16Z</time>
  <speed>3.010000</speed>
</trkpt>
<trkpt lat="32.583438873" lon="34.996856689">
  <ele>50.292297</ele>
  <time>2011-10-25T18:11:17Z</time>
  <speed>2.930000</speed>
</trkpt>
<trkpt lat="32.583457947" lon="34.996917725">
  <ele>50.249329</ele>
  <time>2011-10-25T18:11:19Z</time>
  <speed>2.760000</speed>
</trkpt>
<trkpt lat="32.583461761" lon="34.996952057">
  <ele>50.888977</ele>
  <time>2011-10-25T18:11:20Z</time>
  <speed>2.910000</speed>
</trkpt>
<trkpt lat="32.583465576" lon="34.996997833">
  <ele>52.843079</ele>
  <time>2011-10-25T18:11:22Z</time>
  <speed>2.160000</speed>
</trkpt>
<trkpt lat="32.583488464" lon="34.997039795">
  <ele>56.584290</ele>
  <time>2011-10-25T18:11:24Z</time>
  <speed>1.720000</speed>
</trkpt>
<trkpt lat="32.583511353" lon="34.997081757">
  <ele>57.247375</ele>
  <time>2011-10-25T18:11:26Z</time>
  <speed>2.120000</speed>
</trkpt>
<trkpt lat="32.583534241" lon="34.997123718">
  <ele>57.902649</ele>
  <time>2011-10-25T18:11:28Z</time>
  <speed>2.440000</speed>
</trkpt>
<trkpt lat="32.583557129" lon="34.997165680">
  <ele>57.826477</ele>
  <time>2011-10-25T18:11:30Z</time>
  <speed>2.850000</speed>
</trkpt>
<trkpt lat="32.583572388" lon="34.997222900">
  <ele>58.015930</ele>
  <time>2011-10-25T18:11:32Z</time>
  <speed>2.480000</speed>
</trkpt>
<trkpt lat="32.583587646" lon="34.997253418">
  <ele>57.906555</ele>
  <time>2011-10-25T18:11:33Z</time>
  <speed>2.750000</speed>
</trkpt>
<trkpt lat="32.583618164" lon="34.997303009">
  <ele>57.693665</ele>
  <time>2011-10-25T18:11:35Z</time>
  <speed>2.630000</speed>
</trkpt>
<trkpt lat="32.583641052" lon="34.997333527">
  <ele>58.178040</ele>
  <time>2011-10-25T18:11:36Z</time>
  <speed>2.800000</speed>
</trkpt>
<trkpt lat="32.583671570" lon="34.997371674">
  <ele>58.189758</ele>
  <time>2011-10-25T18:11:38Z</time>
  <speed>2.580000</speed>
</trkpt>
<trkpt lat="32.583690643" lon="34.997432709">
  <ele>57.938782</ele>
  <time>2011-10-25T18:11:40Z</time>
  <speed>2.890000</speed>
</trkpt>
<trkpt lat="32.583698273" lon="34.997478485">
  <ele>57.938782</ele>
  <time>2011-10-25T18:11:42Z</time>
  <speed>2.260000</speed>
</trkpt>
<trkpt lat="32.583724976" lon="34.997524261">
  <ele>57.103821</ele>
  <time>2011-10-25T18:11:44Z</time>
  <speed>2.600000</speed>
</trkpt>
<trkpt lat="32.583736420" lon="34.997581482">
  <ele>57.135071</ele>
  <time>2011-10-25T18:11:46Z</time>
  <speed>3.130000</speed>
</trkpt>
<trkpt lat="32.583736420" lon="34.997642517">
  <ele>57.690735</ele>
  <time>2011-10-25T18:11:48Z</time>
  <speed>3.040000</speed>
</trkpt>
<trkpt lat="32.583751678" lon="34.997676849">
  <ele>57.292297</ele>
  <time>2011-10-25T18:11:49Z</time>
  <speed>3.030000</speed>
</trkpt>
<trkpt lat="32.583759308" lon="34.997711182">
  <ele>57.287415</ele>
  <time>2011-10-25T18:11:50Z</time>
  <speed>2.890000</speed>
</trkpt>
<trkpt lat="32.583763123" lon="34.997745514">
  <ele>56.697571</ele>
  <time>2011-10-25T18:11:51Z</time>
  <speed>2.560000</speed>
</trkpt>
<trkpt lat="32.583755493" lon="34.997795105">
  <ele>57.532532</ele>
  <time>2011-10-25T18:11:53Z</time>
  <speed>1.530000</speed>
</trkpt>
<trkpt lat="32.583778381" lon="34.997837067">
  <ele>59.350891</ele>
  <time>2011-10-25T18:11:56Z</time>
  <speed>1.310000</speed>
</trkpt>
<trkpt lat="32.583808899" lon="34.997875214">
  <ele>60.214172</ele>
  <time>2011-10-25T18:11:58Z</time>
  <speed>1.550000</speed>
</trkpt>
<trkpt lat="32.583801270" lon="34.997913361">
  <ele>60.384094</ele>
  <time>2011-10-25T18:12:00Z</time>
  <speed>1.590000</speed>
</trkpt>
<trkpt lat="32.583816528" lon="34.997955322">
  <ele>61.186829</ele>
  <time>2011-10-25T18:12:02Z</time>
  <speed>2.280000</speed>
</trkpt>
<trkpt lat="32.583866119" lon="34.998016357">
  <ele>63.664368</ele>
  <time>2011-10-25T18:12:04Z</time>
  <speed>2.560000</speed>
</trkpt>
<trkpt lat="32.583892822" lon="34.998054504">
  <ele>63.979797</ele>
  <time>2011-10-25T18:12:06Z</time>
  <speed>1.460000</speed>
</trkpt>
<trkpt lat="32.583923340" lon="34.998088837">
  <ele>63.643860</ele>
  <time>2011-10-25T18:12:08Z</time>
  <speed>2.840000</speed>
</trkpt>
<trkpt lat="32.583957672" lon="34.998138428">
  <ele>63.530579</ele>
  <time>2011-10-25T18:12:10Z</time>
  <speed>2.780000</speed>
</trkpt>
<trkpt lat="32.583969116" lon="34.998168945">
  <ele>63.182922</ele>
  <time>2011-10-25T18:12:11Z</time>
  <speed>3.210000</speed>
</trkpt>
<trkpt lat="32.583988190" lon="34.998199463">
  <ele>63.400696</ele>
  <time>2011-10-25T18:12:12Z</time>
  <speed>2.850000</speed>
</trkpt>
<trkpt lat="32.584014893" lon="34.998252869">
  <ele>63.535461</ele>
  <time>2011-10-25T18:12:14Z</time>
  <speed>2.510000</speed>
</trkpt>
<trkpt lat="32.584030151" lon="34.998283386">
  <ele>63.234680</ele>
  <time>2011-10-25T18:12:15Z</time>
  <speed>2.940000</speed>
</trkpt>
<trkpt lat="32.584041595" lon="34.998313904">
  <ele>63.195618</ele>
  <time>2011-10-25T18:12:16Z</time>
  <speed>3.050000</speed>
</trkpt>
<trkpt lat="32.584056854" lon="34.998340607">
  <ele>63.157532</ele>
  <time>2011-10-25T18:12:17Z</time>
  <speed>2.960000</speed>
</trkpt>
<trkpt lat="32.584072113" lon="34.998394012">
  <ele>62.800110</ele>
  <time>2011-10-25T18:12:19Z</time>
  <speed>2.490000</speed>
</trkpt>
<trkpt lat="32.584079742" lon="34.998443604">
  <ele>62.727844</ele>
  <time>2011-10-25T18:12:21Z</time>
  <speed>2.410000</speed>
</trkpt>
<trkpt lat="32.584075928" lon="34.998497009">
  <ele>62.880188</ele>
  <time>2011-10-25T18:12:23Z</time>
  <speed>2.600000</speed>
</trkpt>
<trkpt lat="32.584068298" lon="34.998550415">
  <ele>62.966125</ele>
  <time>2011-10-25T18:12:25Z</time>
  <speed>2.910000</speed>
</trkpt>
<trkpt lat="32.584056854" lon="34.998619080">
  <ele>63.912415</ele>
  <time>2011-10-25T18:12:27Z</time>
  <speed>3.100000</speed>
</trkpt>
<trkpt lat="32.584049225" lon="34.998653412">
  <ele>64.260376</ele>
  <time>2011-10-25T18:12:28Z</time>
  <speed>2.710000</speed>
</trkpt>
<trkpt lat="32.584060669" lon="34.998714447">
  <ele>64.617798</ele>
  <time>2011-10-25T18:12:30Z</time>
  <speed>3.140000</speed>
</trkpt>
<trkpt lat="32.584068298" lon="34.998748779">
  <ele>64.684204</ele>
  <time>2011-10-25T18:12:31Z</time>
  <speed>3.070000</speed>
</trkpt>
<trkpt lat="32.584095001" lon="34.998802185">
  <ele>64.014282</ele>
  <time>2011-10-25T18:12:33Z</time>
  <speed>2.360000</speed>
</trkpt>
<trkpt lat="32.584121704" lon="34.998859406">
  <ele>64.068970</ele>
  <time>2011-10-25T18:12:35Z</time>
  <speed>2.630000</speed>
</trkpt>
<trkpt lat="32.584148407" lon="34.998916626">
  <ele>64.365845</ele>
  <time>2011-10-25T18:12:37Z</time>
  <speed>3.210000</speed>
</trkpt>
<trkpt lat="32.584178925" lon="34.998947144">
  <ele>64.412720</ele>
  <time>2011-10-25T18:12:39Z</time>
  <speed>1.910000</speed>
</trkpt>
<trkpt lat="32.584201813" lon="34.998992920">
  <ele>64.567017</ele>
  <time>2011-10-25T18:12:41Z</time>
  <speed>2.400000</speed>
</trkpt>
<trkpt lat="32.584213257" lon="34.999038696">
  <ele>64.121704</ele>
  <time>2011-10-25T18:12:43Z</time>
  <speed>2.390000</speed>
</trkpt>
<trkpt lat="32.584220886" lon="34.999088287">
  <ele>64.242798</ele>
  <time>2011-10-25T18:12:45Z</time>
  <speed>2.620000</speed>
</trkpt>
<trkpt lat="32.584228516" lon="34.999118805">
  <ele>63.877258</ele>
  <time>2011-10-25T18:12:46Z</time>
  <speed>2.780000</speed>
</trkpt>
<trkpt lat="32.584224701" lon="34.999179840">
  <ele>63.729797</ele>
  <time>2011-10-25T18:12:48Z</time>
  <speed>2.530000</speed>
</trkpt>
<trkpt lat="32.584228516" lon="34.999229431">
  <ele>63.406555</ele>
  <time>2011-10-25T18:12:50Z</time>
  <speed>1.940000</speed>
</trkpt>
<trkpt lat="32.584228516" lon="34.999267578">
  <ele>63.716125</ele>
  <time>2011-10-25T18:12:52Z</time>
  <speed>1.320000</speed>
</trkpt>
<trkpt lat="32.584239960" lon="34.999305725">
  <ele>64.805298</ele>
  <time>2011-10-25T18:12:54Z</time>
  <speed>1.870000</speed>
</trkpt>
<trkpt lat="32.584228516" lon="34.999347687">
  <ele>65.555298</ele>
  <time>2011-10-25T18:12:56Z</time>
  <speed>2.160000</speed>
</trkpt>
<trkpt lat="32.584232330" lon="34.999378204">
  <ele>65.979126</ele>
  <time>2011-10-25T18:12:57Z</time>
  <speed>2.040000</speed>
</trkpt>
<trkpt lat="32.584236145" lon="34.999408722">
  <ele>67.904907</ele>
  <time>2011-10-25T18:12:58Z</time>
  <speed>1.560000</speed>
</trkpt>
<trkpt lat="32.584220886" lon="34.999443054">
  <ele>67.680298</ele>
  <time>2011-10-25T18:13:00Z</time>
  <speed>1.380000</speed>
</trkpt>
<trkpt lat="32.584220886" lon="34.999481201">
  <ele>67.391235</ele>
  <time>2011-10-25T18:13:03Z</time>
  <speed>1.710000</speed>
</trkpt>
<trkpt lat="32.584213257" lon="34.999515533">
  <ele>67.908813</ele>
  <time>2011-10-25T18:13:05Z</time>
  <speed>2.130000</speed>
</trkpt>
<trkpt lat="32.584205627" lon="34.999561310">
  <ele>68.166626</ele>
  <time>2011-10-25T18:13:07Z</time>
  <speed>2.420000</speed>
</trkpt>
<trkpt lat="32.584197998" lon="34.999591827">
  <ele>68.133423</ele>
  <time>2011-10-25T18:13:08Z</time>
  <speed>2.810000</speed>
</trkpt>
<trkpt lat="32.584182739" lon="34.999622345">
  <ele>68.545532</ele>
  <time>2011-10-25T18:13:09Z</time>
  <speed>3.010000</speed>
</trkpt>
<trkpt lat="32.584178925" lon="34.999660492">
  <ele>68.443970</ele>
  <time>2011-10-25T18:13:10Z</time>
  <speed>3.150000</speed>
</trkpt>
<trkpt lat="32.584171295" lon="34.999698639">
  <ele>68.389282</ele>
  <time>2011-10-25T18:13:11Z</time>
  <speed>3.490000</speed>
</trkpt>
<trkpt lat="32.584167480" lon="34.999732971">
  <ele>68.438110</ele>
  <time>2011-10-25T18:13:12Z</time>
  <speed>3.360000</speed>
</trkpt>
<trkpt lat="32.584159851" lon="34.999767303">
  <ele>68.395142</ele>
  <time>2011-10-25T18:13:13Z</time>
  <speed>3.010000</speed>
</trkpt>
<trkpt lat="32.584163666" lon="34.999824524">
  <ele>68.461548</ele>
  <time>2011-10-25T18:13:15Z</time>
  <speed>2.680000</speed>
</trkpt>
<trkpt lat="32.584163666" lon="34.999881744">
  <ele>68.754517</ele>
  <time>2011-10-25T18:13:17Z</time>
  <speed>2.560000</speed>
</trkpt>
<trkpt lat="32.584163666" lon="34.999931335">
  <ele>68.631470</ele>
  <time>2011-10-25T18:13:19Z</time>
  <speed>2.520000</speed>
</trkpt>
<trkpt lat="32.584167480" lon="34.999988556">
  <ele>68.568970</ele>
  <time>2011-10-25T18:13:21Z</time>
  <speed>2.760000</speed>
</trkpt>
<trkpt lat="32.584167480" lon="35.000049591">
  <ele>68.436157</ele>
  <time>2011-10-25T18:13:23Z</time>
  <speed>2.850000</speed>
</trkpt>
<trkpt lat="32.584167480" lon="35.000102997">
  <ele>68.256470</ele>
  <time>2011-10-25T18:13:25Z</time>
  <speed>2.280000</speed>
</trkpt>
<trkpt lat="32.584178925" lon="35.000156403">
  <ele>68.684204</ele>
  <time>2011-10-25T18:13:27Z</time>
  <speed>2.270000</speed>
</trkpt>
<trkpt lat="32.584194183" lon="35.000209808">
  <ele>69.643188</ele>
  <time>2011-10-25T18:13:29Z</time>
  <speed>2.460000</speed>
</trkpt>
<trkpt lat="32.584209442" lon="35.000240326">
  <ele>69.568970</ele>
  <time>2011-10-25T18:13:30Z</time>
  <speed>2.800000</speed>
</trkpt>
<trkpt lat="32.584224701" lon="35.000301361">
  <ele>69.742798</ele>
  <time>2011-10-25T18:13:32Z</time>
  <speed>2.900000</speed>
</trkpt>
<trkpt lat="32.584228516" lon="35.000354767">
  <ele>70.193970</ele>
  <time>2011-10-25T18:13:34Z</time>
  <speed>2.500000</speed>
</trkpt>
<trkpt lat="32.584236145" lon="35.000408173">
  <ele>70.309204</ele>
  <time>2011-10-25T18:13:36Z</time>
  <speed>2.620000</speed>
</trkpt>
<trkpt lat="32.584243774" lon="35.000461578">
  <ele>71.065063</ele>
  <time>2011-10-25T18:13:38Z</time>
  <speed>1.880000</speed>
</trkpt>
<trkpt lat="32.584255219" lon="35.000499725">
  <ele>71.582642</ele>
  <time>2011-10-25T18:13:40Z</time>
  <speed>1.590000</speed>
</trkpt>
<trkpt lat="32.584266663" lon="35.000530243">
  <ele>71.945923</ele>
  <time>2011-10-25T18:13:42Z</time>
  <speed>1.700000</speed>
</trkpt>
<trkpt lat="32.584270477" lon="35.000564575">
  <ele>71.945923</ele>
  <time>2011-10-25T18:13:44Z</time>
  <speed>1.720000</speed>
</trkpt>
<trkpt lat="32.584266663" lon="35.000610352">
  <ele>71.955688</ele>
  <time>2011-10-25T18:13:46Z</time>
  <speed>1.840000</speed>
</trkpt>
<trkpt lat="32.584247589" lon="35.000648499">
  <ele>71.733032</ele>
  <time>2011-10-25T18:13:48Z</time>
  <speed>1.570000</speed>
</trkpt>
<trkpt lat="32.584251404" lon="35.000686646">
  <ele>71.543579</ele>
  <time>2011-10-25T18:13:50Z</time>
  <speed>1.490000</speed>
</trkpt>
<trkpt lat="32.584251404" lon="35.000724792">
  <ele>71.840454</ele>
  <time>2011-10-25T18:13:53Z</time>
  <speed>0.960000</speed>
</trkpt>
<trkpt lat="32.584255219" lon="35.000770569">
  <ele>72.988892</ele>
  <time>2011-10-25T18:13:56Z</time>
  <speed>1.440000</speed>
</trkpt>
<trkpt lat="32.584278107" lon="35.000782013">
  <ele>71.442017</ele>
  <time>2011-10-25T18:14:25Z</time>
  <speed>0.070000</speed>
</trkpt>
<trkpt lat="32.584300995" lon="35.000778198">
  <ele>69.543579</ele>
  <time>2011-10-25T18:14:30Z</time>
  <speed>0.030000</speed>
</trkpt>
<trkpt lat="32.584274292" lon="35.000759125">
  <ele>71.168579</ele>
  <time>2011-10-25T18:15:04Z</time>
  <speed>0.020000</speed>
</trkpt>
<trkpt lat="32.584270477" lon="35.000793457">
  <ele>72.229126</ele>
  <time>2011-10-25T18:15:51Z</time>
</trkpt>
<trkpt lat="32.584259033" lon="35.000762939">
  <ele>73.717407</ele>
  <time>2011-10-25T18:16:05Z</time>
  <speed>0.050000</speed>
</trkpt>
<trkpt lat="32.584266663" lon="35.000816345">
  <ele>73.986938</ele>
  <time>2011-10-25T18:20:38Z</time>
  <speed>2.120000</speed>
</trkpt>
<trkpt lat="32.584274292" lon="35.000869751">
  <ele>73.858032</ele>
  <time>2011-10-25T18:20:40Z</time>
  <speed>2.060000</speed>
</trkpt>
<trkpt lat="32.584278107" lon="35.000915527">
  <ele>73.539673</ele>
  <time>2011-10-25T18:20:42Z</time>
  <speed>1.780000</speed>
</trkpt>
<trkpt lat="32.584285736" lon="35.000957489">
  <ele>73.192017</ele>
  <time>2011-10-25T18:20:45Z</time>
  <speed>0.640000</speed>
</trkpt>
<trkpt lat="32.584274292" lon="35.000995636">
  <ele>72.733032</ele>
  <time>2011-10-25T18:20:49Z</time>
  <speed>0.510000</speed>
</trkpt>
<trkpt lat="32.584270477" lon="35.001029968">
  <ele>71.861938</ele>
  <time>2011-10-25T18:21:24Z</time>
  <speed>0.780000</speed>
</trkpt>
<trkpt lat="32.584266663" lon="35.001068115">
  <ele>71.805298</ele>
  <time>2011-10-25T18:21:26Z</time>
  <speed>2.080000</speed>
</trkpt>
<trkpt lat="32.584255219" lon="35.001121521">
  <ele>71.660767</ele>
  <time>2011-10-25T18:21:28Z</time>
  <speed>2.810000</speed>
</trkpt>
<trkpt lat="32.584239960" lon="35.001186371">
  <ele>71.572876</ele>
  <time>2011-10-25T18:21:30Z</time>
  <speed>2.580000</speed>
</trkpt>
<trkpt lat="32.584232330" lon="35.001213074">
  <ele>71.902954</ele>
  <time>2011-10-25T18:21:31Z</time>
  <speed>2.870000</speed>
</trkpt>
<trkpt lat="32.584209442" lon="35.001274109">
  <ele>71.779907</ele>
  <time>2011-10-25T18:21:33Z</time>
  <speed>2.390000</speed>
</trkpt>
<trkpt lat="32.584201813" lon="35.001331329">
  <ele>71.414673</ele>
  <time>2011-10-25T18:21:35Z</time>
  <speed>2.750000</speed>
</trkpt>
<trkpt lat="32.584186554" lon="35.001384735">
  <ele>71.287720</ele>
  <time>2011-10-25T18:21:37Z</time>
  <speed>2.710000</speed>
</trkpt>
<trkpt lat="32.584178925" lon="35.001434326">
  <ele>70.774048</ele>
  <time>2011-10-25T18:21:39Z</time>
  <speed>2.620000</speed>
</trkpt>
<trkpt lat="32.584167480" lon="35.001491547">
  <ele>70.637329</ele>
  <time>2011-10-25T18:21:41Z</time>
  <speed>2.970000</speed>
</trkpt>
<trkpt lat="32.584167480" lon="35.001525879">
  <ele>70.801392</ele>
  <time>2011-10-25T18:21:42Z</time>
  <speed>3.250000</speed>
</trkpt>
<trkpt lat="32.584167480" lon="35.001564026">
  <ele>70.518188</ele>
  <time>2011-10-25T18:21:43Z</time>
  <speed>3.070000</speed>
</trkpt>
<trkpt lat="32.584159851" lon="35.001594543">
  <ele>70.781860</ele>
  <time>2011-10-25T18:21:44Z</time>
  <speed>2.900000</speed>
</trkpt>
<trkpt lat="32.584152222" lon="35.001628876">
  <ele>70.332642</ele>
  <time>2011-10-25T18:21:45Z</time>
  <speed>2.910000</speed>
</trkpt>
<trkpt lat="32.584125519" lon="35.001686096">
  <ele>70.149048</ele>
  <time>2011-10-25T18:21:47Z</time>
  <speed>3.000000</speed>
</trkpt>
<trkpt lat="32.584102631" lon="35.001712799">
  <ele>70.352173</ele>
  <time>2011-10-25T18:21:48Z</time>
  <speed>3.020000</speed>
</trkpt>
<trkpt lat="32.584091187" lon="35.001770020">
  <ele>70.955688</ele>
  <time>2011-10-25T18:21:50Z</time>
  <speed>2.720000</speed>
</trkpt>
<trkpt lat="32.584083557" lon="35.001827240">
  <ele>70.619751</ele>
  <time>2011-10-25T18:21:52Z</time>
  <speed>2.590000</speed>
</trkpt>
<trkpt lat="32.584072113" lon="35.001853943">
  <ele>71.717407</ele>
  <time>2011-10-25T18:21:53Z</time>
  <speed>2.380000</speed>
</trkpt>
<trkpt lat="32.584049225" lon="35.001907349">
  <ele>71.692017</ele>
  <time>2011-10-25T18:21:55Z</time>
  <speed>2.400000</speed>
</trkpt>
<trkpt lat="32.584033966" lon="35.001934052">
  <ele>72.090454</ele>
  <time>2011-10-25T18:21:56Z</time>
  <speed>2.570000</speed>
</trkpt>
<trkpt lat="32.584011078" lon="35.001983643">
  <ele>71.623657</ele>
  <time>2011-10-25T18:21:58Z</time>
  <speed>2.700000</speed>
</trkpt>
<trkpt lat="32.583992004" lon="35.002037048">
  <ele>72.215454</ele>
  <time>2011-10-25T18:22:00Z</time>
  <speed>2.460000</speed>
</trkpt>
<trkpt lat="32.583980560" lon="35.002067566">
  <ele>73.166626</ele>
  <time>2011-10-25T18:22:01Z</time>
  <speed>2.520000</speed>
</trkpt>
<trkpt lat="32.583969116" lon="35.002117157">
  <ele>74.180298</ele>
  <time>2011-10-25T18:22:03Z</time>
  <speed>2.750000</speed>
</trkpt>
<trkpt lat="32.583946228" lon="35.002170563">
  <ele>74.959595</ele>
  <time>2011-10-25T18:22:05Z</time>
  <speed>2.730000</speed>
</trkpt>
<trkpt lat="32.583919525" lon="35.002220154">
  <ele>74.746704</ele>
  <time>2011-10-25T18:22:07Z</time>
  <speed>2.910000</speed>
</trkpt>
<trkpt lat="32.583900452" lon="35.002250671">
  <ele>74.508423</ele>
  <time>2011-10-25T18:22:08Z</time>
  <speed>3.200000</speed>
</trkpt>
<trkpt lat="32.583881378" lon="35.002273560">
  <ele>74.254517</ele>
  <time>2011-10-25T18:22:09Z</time>
  <speed>3.050000</speed>
</trkpt>
<trkpt lat="32.583862305" lon="35.002304077">
  <ele>74.842407</ele>
  <time>2011-10-25T18:22:10Z</time>
  <speed>3.050000</speed>
</trkpt>
<trkpt lat="32.583827972" lon="35.002342224">
  <ele>75.361938</ele>
  <time>2011-10-25T18:22:12Z</time>
  <speed>2.830000</speed>
</trkpt>
<trkpt lat="32.583793640" lon="35.002365112">
  <ele>75.813110</ele>
  <time>2011-10-25T18:22:14Z</time>
  <speed>1.950000</speed>
</trkpt>
<trkpt lat="32.583747864" lon="35.002384186">
  <ele>76.145142</ele>
  <time>2011-10-25T18:22:16Z</time>
  <speed>3.210000</speed>
</trkpt>
<trkpt lat="32.583705902" lon="35.002426147">
  <ele>76.443970</ele>
  <time>2011-10-25T18:22:18Z</time>
  <speed>2.460000</speed>
</trkpt>
<trkpt lat="32.583667755" lon="35.002456665">
  <ele>76.293579</ele>
  <time>2011-10-25T18:22:20Z</time>
  <speed>2.670000</speed>
</trkpt>
<trkpt lat="32.583625793" lon="35.002490997">
  <ele>75.990845</ele>
  <time>2011-10-25T18:22:22Z</time>
  <speed>2.930000</speed>
</trkpt>
<trkpt lat="32.583599091" lon="35.002506256">
  <ele>75.721313</ele>
  <time>2011-10-25T18:22:23Z</time>
  <speed>3.280000</speed>
</trkpt>
<trkpt lat="32.583557129" lon="35.002536774">
  <ele>75.570923</ele>
  <time>2011-10-25T18:22:25Z</time>
  <speed>2.650000</speed>
</trkpt>
<trkpt lat="32.583518982" lon="35.002567291">
  <ele>74.785767</ele>
  <time>2011-10-25T18:22:27Z</time>
  <speed>2.730000</speed>
</trkpt>
<trkpt lat="32.583492279" lon="35.002601624">
  <ele>73.967407</ele>
  <time>2011-10-25T18:22:29Z</time>
  <speed>2.000000</speed>
</trkpt>
<trkpt lat="32.583450317" lon="35.002639771">
  <ele>72.723267</ele>
  <time>2011-10-25T18:22:31Z</time>
  <speed>2.520000</speed>
</trkpt>
<trkpt lat="32.583408356" lon="35.002689362">
  <ele>73.026001</ele>
  <time>2011-10-25T18:22:33Z</time>
  <speed>3.330000</speed>
</trkpt>
<trkpt lat="32.583385468" lon="35.002708435">
  <ele>72.512329</ele>
  <time>2011-10-25T18:22:34Z</time>
  <speed>3.060000</speed>
</trkpt>
<trkpt lat="32.583362579" lon="35.002731323">
  <ele>73.693970</ele>
  <time>2011-10-25T18:22:35Z</time>
  <speed>3.030000</speed>
</trkpt>
<trkpt lat="32.583335876" lon="35.002750397">
  <ele>73.443970</ele>
  <time>2011-10-25T18:22:36Z</time>
  <speed>3.030000</speed>
</trkpt>
<trkpt lat="32.583320618" lon="35.002780914">
  <ele>73.988892</ele>
  <time>2011-10-25T18:22:37Z</time>
  <speed>3.270000</speed>
</trkpt>
<trkpt lat="32.583301544" lon="35.002803802">
  <ele>73.791626</ele>
  <time>2011-10-25T18:22:38Z</time>
  <speed>2.860000</speed>
</trkpt>
<trkpt lat="32.583278656" lon="35.002822876">
  <ele>73.719360</ele>
  <time>2011-10-25T18:22:39Z</time>
  <speed>2.730000</speed>
</trkpt>
<trkpt lat="32.583236694" lon="35.002857208">
  <ele>74.180298</ele>
  <time>2011-10-25T18:22:41Z</time>
  <speed>2.680000</speed>
</trkpt>
<trkpt lat="32.583213806" lon="35.002872467">
  <ele>74.406860</ele>
  <time>2011-10-25T18:22:42Z</time>
  <speed>2.490000</speed>
</trkpt>
<trkpt lat="32.583183289" lon="35.002910614">
  <ele>74.629517</ele>
  <time>2011-10-25T18:22:44Z</time>
  <speed>2.080000</speed>
</trkpt>
<trkpt lat="32.583148956" lon="35.002941132">
  <ele>75.154907</ele>
  <time>2011-10-25T18:22:46Z</time>
  <speed>2.220000</speed>
</trkpt>
<trkpt lat="32.583126068" lon="35.002960205">
  <ele>76.621704</ele>
  <time>2011-10-25T18:22:48Z</time>
  <speed>1.880000</speed>
</trkpt>
<trkpt lat="32.583095551" lon="35.002998352">
  <ele>77.627563</ele>
  <time>2011-10-25T18:22:50Z</time>
  <speed>2.490000</speed>
</trkpt>
<trkpt lat="32.583065033" lon="35.003021240">
  <ele>79.109985</ele>
  <time>2011-10-25T18:22:52Z</time>
  <speed>2.530000</speed>
</trkpt>
<trkpt lat="32.583042145" lon="35.003040314">
  <ele>79.756470</ele>
  <time>2011-10-25T18:22:53Z</time>
  <speed>2.520000</speed>
</trkpt>
<trkpt lat="32.583000183" lon="35.003067017">
  <ele>80.770142</ele>
  <time>2011-10-25T18:22:55Z</time>
  <speed>2.410000</speed>
</trkpt>
<trkpt lat="32.582973480" lon="35.003093719">
  <ele>82.449829</ele>
  <time>2011-10-25T18:22:57Z</time>
  <speed>2.190000</speed>
</trkpt>
<trkpt lat="32.582931519" lon="35.003131866">
  <ele>82.893188</ele>
  <time>2011-10-25T18:22:59Z</time>
  <speed>2.980000</speed>
</trkpt>
<trkpt lat="32.582908630" lon="35.003154755">
  <ele>82.848267</ele>
  <time>2011-10-25T18:23:00Z</time>
  <speed>3.030000</speed>
</trkpt>
<trkpt lat="32.582862854" lon="35.003181458">
  <ele>83.328735</ele>
  <time>2011-10-25T18:23:02Z</time>
  <speed>3.210000</speed>
</trkpt>
<trkpt lat="32.582817078" lon="35.003211975">
  <ele>84.022095</ele>
  <time>2011-10-25T18:23:04Z</time>
  <speed>2.990000</speed>
</trkpt>
<trkpt lat="32.582790375" lon="35.003227234">
  <ele>84.246704</ele>
  <time>2011-10-25T18:23:05Z</time>
  <speed>2.920000</speed>
</trkpt>
<trkpt lat="32.582744598" lon="35.003257751">
  <ele>85.145142</ele>
  <time>2011-10-25T18:23:07Z</time>
  <speed>2.910000</speed>
</trkpt>
<trkpt lat="32.582698822" lon="35.003284454">
  <ele>85.879517</ele>
  <time>2011-10-25T18:23:09Z</time>
  <speed>3.340000</speed>
</trkpt>
<trkpt lat="32.582653046" lon="35.003295898">
  <ele>86.522095</ele>
  <time>2011-10-25T18:23:11Z</time>
  <speed>2.440000</speed>
</trkpt>
<trkpt lat="32.582611084" lon="35.003314972">
  <ele>87.803345</ele>
  <time>2011-10-25T18:23:13Z</time>
  <speed>2.880000</speed>
</trkpt>
<trkpt lat="32.582565308" lon="35.003349304">
  <ele>88.145142</ele>
  <time>2011-10-25T18:23:15Z</time>
  <speed>2.880000</speed>
</trkpt>
<trkpt lat="32.582511902" lon="35.003364563">
  <ele>89.643188</ele>
  <time>2011-10-25T18:23:17Z</time>
  <speed>3.050000</speed>
</trkpt>
<trkpt lat="32.582462311" lon="35.003387451">
  <ele>89.953735</ele>
  <time>2011-10-25T18:23:19Z</time>
  <speed>2.760000</speed>
</trkpt>
<trkpt lat="32.582420349" lon="35.003410339">
  <ele>90.918579</ele>
  <time>2011-10-25T18:23:21Z</time>
  <speed>2.870000</speed>
</trkpt>
<trkpt lat="32.582378387" lon="35.003437042">
  <ele>92.209595</ele>
  <time>2011-10-25T18:23:23Z</time>
  <speed>2.800000</speed>
</trkpt>
<trkpt lat="32.582340240" lon="35.003463745">
  <ele>93.279907</ele>
  <time>2011-10-25T18:23:25Z</time>
  <speed>2.850000</speed>
</trkpt>
<trkpt lat="32.582302094" lon="35.003463745">
  <ele>92.164673</ele>
  <time>2011-10-25T18:23:27Z</time>
  <speed>2.750000</speed>
</trkpt>
<trkpt lat="32.582248688" lon="35.003448486">
  <ele>93.049438</ele>
  <time>2011-10-25T18:23:29Z</time>
  <speed>2.520000</speed>
</trkpt>
<trkpt lat="32.582199097" lon="35.003452301">
  <ele>93.945923</ele>
  <time>2011-10-25T18:23:31Z</time>
  <speed>2.510000</speed>
</trkpt>
<trkpt lat="32.582157135" lon="35.003471375">
  <ele>94.045532</ele>
  <time>2011-10-25T18:23:33Z</time>
  <speed>2.590000</speed>
</trkpt>
<trkpt lat="32.582111359" lon="35.003490448">
  <ele>94.154907</ele>
  <time>2011-10-25T18:23:35Z</time>
  <speed>2.540000</speed>
</trkpt>
<trkpt lat="32.582069397" lon="35.003513336">
  <ele>94.164673</ele>
  <time>2011-10-25T18:23:37Z</time>
  <speed>2.230000</speed>
</trkpt>
<trkpt lat="32.582038879" lon="35.003551483">
  <ele>93.715454</ele>
  <time>2011-10-25T18:23:39Z</time>
  <speed>1.570000</speed>
</trkpt>
<trkpt lat="32.582008362" lon="35.003562927">
  <ele>93.881470</ele>
  <time>2011-10-25T18:23:41Z</time>
  <speed>1.150000</speed>
</trkpt>
<trkpt lat="32.581974030" lon="35.003604889">
  <ele>93.195923</ele>
  <time>2011-10-25T18:23:44Z</time>
  <speed>2.170000</speed>
</trkpt>
<trkpt lat="32.581954956" lon="35.003631592">
  <ele>95.022095</ele>
  <time>2011-10-25T18:23:46Z</time>
  <speed>2.010000</speed>
</trkpt>
<trkpt lat="32.581924438" lon="35.003646851">
  <ele>95.234985</ele>
  <time>2011-10-25T18:23:48Z</time>
  <speed>1.900000</speed>
</trkpt>
<trkpt lat="32.581893921" lon="35.003665924">
  <ele>95.799438</ele>
  <time>2011-10-25T18:23:50Z</time>
  <speed>1.780000</speed>
</trkpt>
<trkpt lat="32.581863403" lon="35.003677368">
  <ele>95.471313</ele>
  <time>2011-10-25T18:23:52Z</time>
  <speed>1.680000</speed>
</trkpt>
<trkpt lat="32.581829071" lon="35.003700256">
  <ele>95.785767</ele>
  <time>2011-10-25T18:23:54Z</time>
  <speed>1.980000</speed>
</trkpt>
<trkpt lat="32.581794739" lon="35.003730774">
  <ele>95.760376</ele>
  <time>2011-10-25T18:23:56Z</time>
  <speed>2.260000</speed>
</trkpt>
<trkpt lat="32.581771851" lon="35.003753662">
  <ele>97.049438</ele>
  <time>2011-10-25T18:23:58Z</time>
  <speed>2.040000</speed>
</trkpt>
<trkpt lat="32.581729889" lon="35.003787994">
  <ele>97.365845</ele>
  <time>2011-10-25T18:24:00Z</time>
  <speed>2.130000</speed>
</trkpt>
<trkpt lat="32.581710815" lon="35.003814697">
  <ele>99.039673</ele>
  <time>2011-10-25T18:24:02Z</time>
  <speed>2.300000</speed>
</trkpt>
<trkpt lat="32.581687927" lon="35.003837585">
  <ele>100.697876</ele>
  <time>2011-10-25T18:24:04Z</time>
  <speed>1.940000</speed>
</trkpt>
<trkpt lat="32.581657410" lon="35.003868103">
  <ele>100.340454</ele>
  <time>2011-10-25T18:24:06Z</time>
  <speed>2.180000</speed>
</trkpt>
<trkpt lat="32.581623077" lon="35.003894806">
  <ele>101.897095</ele>
  <time>2011-10-25T18:24:08Z</time>
  <speed>2.080000</speed>
</trkpt>
<trkpt lat="32.581592560" lon="35.003921509">
  <ele>101.486938</ele>
  <time>2011-10-25T18:24:10Z</time>
  <speed>2.110000</speed>
</trkpt>
<trkpt lat="32.581565857" lon="35.003940582">
  <ele>104.328735</ele>
  <time>2011-10-25T18:24:12Z</time>
  <speed>2.160000</speed>
</trkpt>
<trkpt lat="32.581535339" lon="35.003959656">
  <ele>105.867798</ele>
  <time>2011-10-25T18:24:14Z</time>
  <speed>2.010000</speed>
</trkpt>
<trkpt lat="32.581504822" lon="35.003978729">
  <ele>107.143188</ele>
  <time>2011-10-25T18:24:16Z</time>
  <speed>2.280000</speed>
</trkpt>
<trkpt lat="32.581459045" lon="35.003997803">
  <ele>107.086548</ele>
  <time>2011-10-25T18:24:18Z</time>
  <speed>2.410000</speed>
</trkpt>
<trkpt lat="32.581420898" lon="35.004024506">
  <ele>106.955688</ele>
  <time>2011-10-25T18:24:20Z</time>
  <speed>2.250000</speed>
</trkpt>
<trkpt lat="32.581386566" lon="35.004055023">
  <ele>106.014282</ele>
  <time>2011-10-25T18:24:22Z</time>
  <speed>2.100000</speed>
</trkpt>
<trkpt lat="32.581348419" lon="35.004081726">
  <ele>105.440063</ele>
  <time>2011-10-25T18:24:24Z</time>
  <speed>2.390000</speed>
</trkpt>
<trkpt lat="32.581306458" lon="35.004108429">
  <ele>105.984985</ele>
  <time>2011-10-25T18:24:26Z</time>
  <speed>2.320000</speed>
</trkpt>
<trkpt lat="32.581272125" lon="35.004131317">
  <ele>105.742798</ele>
  <time>2011-10-25T18:24:28Z</time>
  <speed>2.060000</speed>
</trkpt>
<trkpt lat="32.581233978" lon="35.004161835">
  <ele>105.404907</ele>
  <time>2011-10-25T18:24:30Z</time>
  <speed>2.100000</speed>
</trkpt>
<trkpt lat="32.581188202" lon="35.004188538">
  <ele>104.846313</ele>
  <time>2011-10-25T18:24:32Z</time>
  <speed>2.300000</speed>
</trkpt>
<trkpt lat="32.581157684" lon="35.004219055">
  <ele>104.619751</ele>
  <time>2011-10-25T18:24:34Z</time>
  <speed>2.190000</speed>
</trkpt>
<trkpt lat="32.581130981" lon="35.004253387">
  <ele>103.486938</ele>
  <time>2011-10-25T18:24:36Z</time>
  <speed>1.910000</speed>
</trkpt>
<trkpt lat="32.581111908" lon="35.004276276">
  <ele>102.576782</ele>
  <time>2011-10-25T18:24:37Z</time>
  <speed>2.570000</speed>
</trkpt>
<trkpt lat="32.581077576" lon="35.004306793">
  <ele>101.740845</ele>
  <time>2011-10-25T18:24:39Z</time>
  <speed>2.360000</speed>
</trkpt>
<trkpt lat="32.581050873" lon="35.004341125">
  <ele>100.305298</ele>
  <time>2011-10-25T18:24:41Z</time>
  <speed>2.120000</speed>
</trkpt>
<trkpt lat="32.581027985" lon="35.004371643">
  <ele>99.301392</ele>
  <time>2011-10-25T18:24:43Z</time>
  <speed>1.830000</speed>
</trkpt>
<trkpt lat="32.581008911" lon="35.004405975">
  <ele>98.756470</ele>
  <time>2011-10-25T18:24:45Z</time>
  <speed>2.180000</speed>
</trkpt>
<trkpt lat="32.580982208" lon="35.004451752">
  <ele>98.453735</ele>
  <time>2011-10-25T18:24:47Z</time>
  <speed>2.110000</speed>
</trkpt>
<trkpt lat="32.580963135" lon="35.004486084">
  <ele>98.012329</ele>
  <time>2011-10-25T18:24:49Z</time>
  <speed>2.630000</speed>
</trkpt>
<trkpt lat="32.580932617" lon="35.004535675">
  <ele>96.686157</ele>
  <time>2011-10-25T18:24:51Z</time>
  <speed>2.010000</speed>
</trkpt>
<trkpt lat="32.580921173" lon="35.004585266">
  <ele>95.992798</ele>
  <time>2011-10-25T18:24:53Z</time>
  <speed>2.220000</speed>
</trkpt>
<trkpt lat="32.580909729" lon="35.004627228">
  <ele>95.318970</ele>
  <time>2011-10-25T18:24:55Z</time>
  <speed>2.540000</speed>
</trkpt>
<trkpt lat="32.580890656" lon="35.004684448">
  <ele>95.815063</ele>
  <time>2011-10-25T18:24:57Z</time>
  <speed>2.610000</speed>
</trkpt>
<trkpt lat="32.580871582" lon="35.004745483">
  <ele>95.471313</ele>
  <time>2011-10-25T18:24:59Z</time>
  <speed>2.550000</speed>
</trkpt>
<trkpt lat="32.580867767" lon="35.004795074">
  <ele>95.453735</ele>
  <time>2011-10-25T18:25:01Z</time>
  <speed>2.640000</speed>
</trkpt>
<trkpt lat="32.580875397" lon="35.004825592">
  <ele>95.912720</ele>
  <time>2011-10-25T18:25:02Z</time>
  <speed>2.840000</speed>
</trkpt>
<trkpt lat="32.580883026" lon="35.004878998">
  <ele>95.776001</ele>
  <time>2011-10-25T18:25:04Z</time>
  <speed>2.460000</speed>
</trkpt>
<trkpt lat="32.580875397" lon="35.004928589">
  <ele>95.193970</ele>
  <time>2011-10-25T18:25:06Z</time>
  <speed>2.140000</speed>
</trkpt>
<trkpt lat="32.580860138" lon="35.004978180">
  <ele>94.832642</ele>
  <time>2011-10-25T18:25:08Z</time>
  <speed>2.470000</speed>
</trkpt>
<trkpt lat="32.580856323" lon="35.005020142">
  <ele>94.717407</ele>
  <time>2011-10-25T18:25:10Z</time>
  <speed>2.140000</speed>
</trkpt>
<trkpt lat="32.580841064" lon="35.005065918">
  <ele>94.631470</ele>
  <time>2011-10-25T18:25:12Z</time>
  <speed>2.340000</speed>
</trkpt>
<trkpt lat="32.580829620" lon="35.005115509">
  <ele>94.127563</ele>
  <time>2011-10-25T18:25:14Z</time>
  <speed>2.060000</speed>
</trkpt>
<trkpt lat="32.580829620" lon="35.005161285">
  <ele>93.787720</ele>
  <time>2011-10-25T18:25:16Z</time>
  <speed>2.280000</speed>
</trkpt>
<trkpt lat="32.580810547" lon="35.005207062">
  <ele>93.840454</ele>
  <time>2011-10-25T18:25:18Z</time>
  <speed>1.910000</speed>
</trkpt>
<trkpt lat="32.580814362" lon="35.005260468">
  <ele>93.317017</ele>
  <time>2011-10-25T18:25:20Z</time>
  <speed>2.020000</speed>
</trkpt>
<trkpt lat="32.580814362" lon="35.005302429">
  <ele>93.410767</ele>
  <time>2011-10-25T18:25:22Z</time>
  <speed>2.380000</speed>
</trkpt>
<trkpt lat="32.580806732" lon="35.005355835">
  <ele>93.320923</ele>
  <time>2011-10-25T18:25:24Z</time>
  <speed>2.410000</speed>
</trkpt>
<trkpt lat="32.580810547" lon="35.005413055">
  <ele>93.803345</ele>
  <time>2011-10-25T18:25:26Z</time>
  <speed>2.230000</speed>
</trkpt>
<trkpt lat="32.580818176" lon="35.005458832">
  <ele>94.910767</ele>
  <time>2011-10-25T18:25:28Z</time>
  <speed>2.320000</speed>
</trkpt>
<trkpt lat="32.580810547" lon="35.005508423">
  <ele>94.895142</ele>
  <time>2011-10-25T18:25:30Z</time>
  <speed>2.030000</speed>
</trkpt>
<trkpt lat="32.580802917" lon="35.005558014">
  <ele>94.721313</ele>
  <time>2011-10-25T18:25:32Z</time>
  <speed>2.040000</speed>
</trkpt>
<trkpt lat="32.580799103" lon="35.005603790">
  <ele>94.912720</ele>
  <time>2011-10-25T18:25:34Z</time>
  <speed>2.270000</speed>
</trkpt>
<trkpt lat="32.580799103" lon="35.005653381">
  <ele>94.762329</ele>
  <time>2011-10-25T18:25:36Z</time>
  <speed>2.420000</speed>
</trkpt>
<trkpt lat="32.580799103" lon="35.005710602">
  <ele>94.656860</ele>
  <time>2011-10-25T18:25:38Z</time>
  <speed>2.410000</speed>
</trkpt>
<trkpt lat="32.580802917" lon="35.005767822">
  <ele>95.578735</ele>
  <time>2011-10-25T18:25:40Z</time>
  <speed>2.470000</speed>
</trkpt>
<trkpt lat="32.580810547" lon="35.005817413">
  <ele>96.018188</ele>
  <time>2011-10-25T18:25:42Z</time>
  <speed>2.530000</speed>
</trkpt>
<trkpt lat="32.580806732" lon="35.005874634">
  <ele>96.508423</ele>
  <time>2011-10-25T18:25:44Z</time>
  <speed>2.470000</speed>
</trkpt>
<trkpt lat="32.580799103" lon="35.005928040">
  <ele>96.670532</ele>
  <time>2011-10-25T18:25:46Z</time>
  <speed>2.520000</speed>
</trkpt>
<trkpt lat="32.580802917" lon="35.005981445">
  <ele>97.082642</ele>
  <time>2011-10-25T18:25:48Z</time>
  <speed>2.500000</speed>
</trkpt>
<trkpt lat="32.580799103" lon="35.006031036">
  <ele>97.801392</ele>
  <time>2011-10-25T18:25:50Z</time>
  <speed>1.970000</speed>
</trkpt>
<trkpt lat="32.580795288" lon="35.006084442">
  <ele>100.016235</ele>
  <time>2011-10-25T18:25:52Z</time>
  <speed>2.250000</speed>
</trkpt>
<trkpt lat="32.580787659" lon="35.006137848">
  <ele>101.912720</ele>
  <time>2011-10-25T18:25:54Z</time>
  <speed>2.290000</speed>
</trkpt>
<trkpt lat="32.580783844" lon="35.006187439">
  <ele>102.633423</ele>
  <time>2011-10-25T18:25:56Z</time>
  <speed>2.260000</speed>
</trkpt>
<trkpt lat="32.580764771" lon="35.006229401">
  <ele>102.481079</ele>
  <time>2011-10-25T18:25:58Z</time>
  <speed>2.290000</speed>
</trkpt>
<trkpt lat="32.580741882" lon="35.006271362">
  <ele>103.555298</ele>
  <time>2011-10-25T18:26:00Z</time>
  <speed>2.530000</speed>
</trkpt>
<trkpt lat="32.580734253" lon="35.006324768">
  <ele>104.108032</ele>
  <time>2011-10-25T18:26:02Z</time>
  <speed>2.060000</speed>
</trkpt>
<trkpt lat="32.580745697" lon="35.006370544">
  <ele>104.182251</ele>
  <time>2011-10-25T18:26:04Z</time>
  <speed>2.210000</speed>
</trkpt>
<trkpt lat="32.580760956" lon="35.006420135">
  <ele>104.719360</ele>
  <time>2011-10-25T18:26:06Z</time>
  <speed>2.420000</speed>
</trkpt>
<trkpt lat="32.580768585" lon="35.006469727">
  <ele>105.141235</ele>
  <time>2011-10-25T18:26:08Z</time>
  <speed>2.380000</speed>
</trkpt>
<trkpt lat="32.580768585" lon="35.006519318">
  <ele>105.252563</ele>
  <time>2011-10-25T18:26:10Z</time>
  <speed>2.390000</speed>
</trkpt>
<trkpt lat="32.580780029" lon="35.006568909">
  <ele>105.918579</ele>
  <time>2011-10-25T18:26:12Z</time>
  <speed>2.200000</speed>
</trkpt>
<trkpt lat="32.580780029" lon="35.006607056">
  <ele>106.055298</ele>
  <time>2011-10-25T18:26:14Z</time>
  <speed>1.550000</speed>
</trkpt>
<trkpt lat="32.580753326" lon="35.006652832">
  <ele>105.748657</ele>
  <time>2011-10-25T18:26:16Z</time>
  <speed>2.930000</speed>
</trkpt>
<trkpt lat="32.580749512" lon="35.006710052">
  <ele>106.861938</ele>
  <time>2011-10-25T18:26:18Z</time>
  <speed>2.730000</speed>
</trkpt>
<trkpt lat="32.580738068" lon="35.006740570">
  <ele>106.672485</ele>
  <time>2011-10-25T18:26:19Z</time>
  <speed>2.550000</speed>
</trkpt>
<trkpt lat="32.580726624" lon="35.006790161">
  <ele>106.701782</ele>
  <time>2011-10-25T18:26:21Z</time>
  <speed>2.120000</speed>
</trkpt>
<trkpt lat="32.580734253" lon="35.006832123">
  <ele>107.401001</ele>
  <time>2011-10-25T18:26:23Z</time>
  <speed>2.180000</speed>
</trkpt>
<trkpt lat="32.580738068" lon="35.006885529">
  <ele>107.242798</ele>
  <time>2011-10-25T18:26:25Z</time>
  <speed>2.360000</speed>
</trkpt>
<trkpt lat="32.580745697" lon="35.006935120">
  <ele>107.180298</ele>
  <time>2011-10-25T18:26:27Z</time>
  <speed>2.240000</speed>
</trkpt>
<trkpt lat="32.580768585" lon="35.006984711">
  <ele>107.621704</ele>
  <time>2011-10-25T18:26:29Z</time>
  <speed>2.680000</speed>
</trkpt>
<trkpt lat="32.580776215" lon="35.007034302">
  <ele>107.166626</ele>
  <time>2011-10-25T18:26:31Z</time>
  <speed>2.390000</speed>
</trkpt>
<trkpt lat="32.580780029" lon="35.007087708">
  <ele>106.881470</ele>
  <time>2011-10-25T18:26:33Z</time>
  <speed>2.520000</speed>
</trkpt>
<trkpt lat="32.580768585" lon="35.007133484">
  <ele>107.338501</ele>
  <time>2011-10-25T18:26:35Z</time>
  <speed>2.190000</speed>
</trkpt>
<trkpt lat="32.580768585" lon="35.007186890">
  <ele>108.352173</ele>
  <time>2011-10-25T18:26:37Z</time>
  <speed>2.420000</speed>
</trkpt>
<trkpt lat="32.580768585" lon="35.007240295">
  <ele>109.676392</ele>
  <time>2011-10-25T18:26:39Z</time>
  <speed>2.030000</speed>
</trkpt>
<trkpt lat="32.580772400" lon="35.007286072">
  <ele>110.711548</ele>
  <time>2011-10-25T18:26:41Z</time>
  <speed>2.190000</speed>
</trkpt>
<trkpt lat="32.580780029" lon="35.007335663">
  <ele>111.891235</ele>
  <time>2011-10-25T18:26:43Z</time>
  <speed>1.990000</speed>
</trkpt>
<trkpt lat="32.580795288" lon="35.007381439">
  <ele>113.055298</ele>
  <time>2011-10-25T18:26:45Z</time>
  <speed>2.120000</speed>
</trkpt>
<trkpt lat="32.580791473" lon="35.007431030">
  <ele>113.889282</ele>
  <time>2011-10-25T18:26:47Z</time>
  <speed>2.180000</speed>
</trkpt>
<trkpt lat="32.580787659" lon="35.007476807">
  <ele>114.387329</ele>
  <time>2011-10-25T18:26:49Z</time>
  <speed>2.190000</speed>
</trkpt>
<trkpt lat="32.580783844" lon="35.007522583">
  <ele>113.981079</ele>
  <time>2011-10-25T18:26:51Z</time>
  <speed>2.170000</speed>
</trkpt>
<trkpt lat="32.580783844" lon="35.007568359">
  <ele>113.740845</ele>
  <time>2011-10-25T18:26:53Z</time>
  <speed>2.210000</speed>
</trkpt>
<trkpt lat="32.580776215" lon="35.007617950">
  <ele>112.899048</ele>
  <time>2011-10-25T18:26:55Z</time>
  <speed>2.370000</speed>
</trkpt>
<trkpt lat="32.580764771" lon="35.007663727">
  <ele>112.789673</ele>
  <time>2011-10-25T18:26:57Z</time>
  <speed>2.160000</speed>
</trkpt>
<trkpt lat="32.580760956" lon="35.007709503">
  <ele>112.750610</ele>
  <time>2011-10-25T18:26:59Z</time>
  <speed>2.320000</speed>
</trkpt>
<trkpt lat="32.580749512" lon="35.007759094">
  <ele>112.902954</ele>
  <time>2011-10-25T18:27:01Z</time>
  <speed>2.100000</speed>
</trkpt>
<trkpt lat="32.580741882" lon="35.007801056">
  <ele>113.012329</ele>
  <time>2011-10-25T18:27:03Z</time>
  <speed>2.200000</speed>
</trkpt>
<trkpt lat="32.580734253" lon="35.007846832">
  <ele>113.035767</ele>
  <time>2011-10-25T18:27:05Z</time>
  <speed>2.030000</speed>
</trkpt>
<trkpt lat="32.580722809" lon="35.007881165">
  <ele>113.537720</ele>
  <time>2011-10-25T18:27:07Z</time>
  <speed>2.280000</speed>
</trkpt>
<trkpt lat="32.580703735" lon="35.007919312">
  <ele>113.764282</ele>
  <time>2011-10-25T18:27:09Z</time>
  <speed>2.270000</speed>
</trkpt>
<trkpt lat="32.580688477" lon="35.007957458">
  <ele>114.111938</ele>
  <time>2011-10-25T18:27:11Z</time>
  <speed>1.590000</speed>
</trkpt>
<trkpt lat="32.580677032" lon="35.007995605">
  <ele>114.633423</ele>
  <time>2011-10-25T18:27:13Z</time>
  <speed>1.880000</speed>
</trkpt>
<trkpt lat="32.580654144" lon="35.008014679">
  <ele>114.381470</ele>
  <time>2011-10-25T18:27:15Z</time>
  <speed>1.860000</speed>
</trkpt>
<trkpt lat="32.580627441" lon="35.008052826">
  <ele>114.717407</ele>
  <time>2011-10-25T18:27:18Z</time>
  <speed>1.810000</speed>
</trkpt>
<trkpt lat="32.580604553" lon="35.008090973">
  <ele>113.871704</ele>
  <time>2011-10-25T18:27:20Z</time>
  <speed>1.630000</speed>
</trkpt>
<trkpt lat="32.580593109" lon="35.008125305">
  <ele>114.381470</ele>
  <time>2011-10-25T18:27:22Z</time>
  <speed>2.070000</speed>
</trkpt>
<trkpt lat="32.580581665" lon="35.008178711">
  <ele>113.902954</ele>
  <time>2011-10-25T18:27:24Z</time>
  <speed>2.070000</speed>
</trkpt>
<trkpt lat="32.580551147" lon="35.008216858">
  <ele>113.383423</ele>
  <time>2011-10-25T18:27:26Z</time>
  <speed>1.750000</speed>
</trkpt>
<trkpt lat="32.580543518" lon="35.008251190">
  <ele>112.967407</ele>
  <time>2011-10-25T18:27:28Z</time>
  <speed>1.940000</speed>
</trkpt>
<trkpt lat="32.580532074" lon="35.008289337">
  <ele>112.910767</ele>
  <time>2011-10-25T18:27:30Z</time>
  <speed>1.720000</speed>
</trkpt>
<trkpt lat="32.580497742" lon="35.008312225">
  <ele>112.693970</ele>
  <time>2011-10-25T18:27:32Z</time>
  <speed>2.420000</speed>
</trkpt>
<trkpt lat="32.580471039" lon="35.008342743">
  <ele>112.266235</ele>
  <time>2011-10-25T18:27:34Z</time>
  <speed>2.240000</speed>
</trkpt>
<trkpt lat="32.580459595" lon="35.008369446">
  <ele>111.078735</ele>
  <time>2011-10-25T18:27:35Z</time>
  <speed>2.120000</speed>
</trkpt>
<trkpt lat="32.580421448" lon="35.008411407">
  <ele>110.895142</ele>
  <time>2011-10-25T18:27:37Z</time>
  <speed>2.510000</speed>
</trkpt>
<trkpt lat="32.580406189" lon="35.008457184">
  <ele>110.611938</ele>
  <time>2011-10-25T18:27:39Z</time>
  <speed>1.690000</speed>
</trkpt>
<trkpt lat="32.580394745" lon="35.008499146">
  <ele>110.897095</ele>
  <time>2011-10-25T18:27:41Z</time>
  <speed>2.250000</speed>
</trkpt>
<trkpt lat="32.580383301" lon="35.008544922">
  <ele>111.217407</ele>
  <time>2011-10-25T18:27:43Z</time>
  <speed>2.250000</speed>
</trkpt>
<trkpt lat="32.580383301" lon="35.008594513">
  <ele>110.635376</ele>
  <time>2011-10-25T18:27:45Z</time>
  <speed>2.260000</speed>
</trkpt>
<trkpt lat="32.580368042" lon="35.008632660">
  <ele>109.758423</ele>
  <time>2011-10-25T18:27:47Z</time>
  <speed>1.830000</speed>
</trkpt>
<trkpt lat="32.580368042" lon="35.008674622">
  <ele>110.106079</ele>
  <time>2011-10-25T18:27:49Z</time>
  <speed>1.990000</speed>
</trkpt>
<trkpt lat="32.580371857" lon="35.008724213">
  <ele>110.598267</ele>
  <time>2011-10-25T18:27:51Z</time>
  <speed>2.240000</speed>
</trkpt>
<trkpt lat="32.580368042" lon="35.008777618">
  <ele>111.242798</ele>
  <time>2011-10-25T18:27:53Z</time>
  <speed>2.240000</speed>
</trkpt>
<trkpt lat="32.580356598" lon="35.008811951">
  <ele>110.666626</ele>
  <time>2011-10-25T18:27:55Z</time>
  <speed>1.800000</speed>
</trkpt>
<trkpt lat="32.580337524" lon="35.008838654">
  <ele>110.020142</ele>
  <time>2011-10-25T18:27:57Z</time>
  <speed>1.660000</speed>
</trkpt>
<trkpt lat="32.580322266" lon="35.008876801">
  <ele>109.834595</ele>
  <time>2011-10-25T18:27:59Z</time>
  <speed>2.150000</speed>
</trkpt>
<trkpt lat="32.580303192" lon="35.008911133">
  <ele>109.377563</ele>
  <time>2011-10-25T18:28:01Z</time>
  <speed>2.430000</speed>
</trkpt>
<trkpt lat="32.580276489" lon="35.008934021">
  <ele>109.576782</ele>
  <time>2011-10-25T18:28:03Z</time>
  <speed>2.250000</speed>
</trkpt>
<trkpt lat="32.580245972" lon="35.008972168">
  <ele>108.582642</ele>
  <time>2011-10-25T18:28:05Z</time>
  <speed>2.030000</speed>
</trkpt>
<trkpt lat="32.580219269" lon="35.008979797">
  <ele>108.279907</ele>
  <time>2011-10-25T18:28:06Z</time>
  <speed>1.600000</speed>
</trkpt>
<trkpt lat="32.580207825" lon="35.009021759">
  <ele>109.656860</ele>
  <time>2011-10-25T18:28:08Z</time>
  <speed>2.170000</speed>
</trkpt>
<trkpt lat="32.580184937" lon="35.009071350">
  <ele>111.031860</ele>
  <time>2011-10-25T18:28:10Z</time>
  <speed>2.120000</speed>
</trkpt>
<trkpt lat="32.580173492" lon="35.009109497">
  <ele>112.537720</ele>
  <time>2011-10-25T18:28:12Z</time>
  <speed>1.980000</speed>
</trkpt>
<trkpt lat="32.580162048" lon="35.009147644">
  <ele>113.238892</ele>
  <time>2011-10-25T18:28:14Z</time>
  <speed>1.920000</speed>
</trkpt>
<trkpt lat="32.580139160" lon="35.009197235">
  <ele>114.172485</ele>
  <time>2011-10-25T18:28:16Z</time>
  <speed>2.170000</speed>
</trkpt>
<trkpt lat="32.580120087" lon="35.009235382">
  <ele>114.617798</ele>
  <time>2011-10-25T18:28:18Z</time>
  <speed>2.090000</speed>
</trkpt>
<trkpt lat="32.580089569" lon="35.009273529">
  <ele>115.092407</ele>
  <time>2011-10-25T18:28:20Z</time>
  <speed>2.160000</speed>
</trkpt>
<trkpt lat="32.580070496" lon="35.009311676">
  <ele>115.996704</ele>
  <time>2011-10-25T18:28:22Z</time>
  <speed>2.180000</speed>
</trkpt>
<trkpt lat="32.580051422" lon="35.009349823">
  <ele>116.024048</ele>
  <time>2011-10-25T18:28:24Z</time>
  <speed>2.290000</speed>
</trkpt>
<trkpt lat="32.580032349" lon="35.009384155">
  <ele>117.252563</ele>
  <time>2011-10-25T18:28:26Z</time>
  <speed>2.390000</speed>
</trkpt>
<trkpt lat="32.580005646" lon="35.009422302">
  <ele>118.219360</ele>
  <time>2011-10-25T18:28:28Z</time>
  <speed>2.280000</speed>
</trkpt>
<trkpt lat="32.579994202" lon="35.009460449">
  <ele>118.322876</ele>
  <time>2011-10-25T18:28:30Z</time>
  <speed>2.010000</speed>
</trkpt>
<trkpt lat="32.579975128" lon="35.009506226">
  <ele>119.024048</ele>
  <time>2011-10-25T18:28:32Z</time>
  <speed>2.200000</speed>
</trkpt>
<trkpt lat="32.579952240" lon="35.009563446">
  <ele>119.869751</ele>
  <time>2011-10-25T18:28:34Z</time>
  <speed>2.400000</speed>
</trkpt>
<trkpt lat="32.579940796" lon="35.009605408">
  <ele>120.330688</ele>
  <time>2011-10-25T18:28:36Z</time>
  <speed>2.300000</speed>
</trkpt>
<trkpt lat="32.579925537" lon="35.009654999">
  <ele>120.695923</ele>
  <time>2011-10-25T18:28:38Z</time>
  <speed>2.200000</speed>
</trkpt>
<trkpt lat="32.579925537" lon="35.009696960">
  <ele>121.279907</ele>
  <time>2011-10-25T18:28:40Z</time>
  <speed>2.350000</speed>
</trkpt>
<trkpt lat="32.579910278" lon="35.009742737">
  <ele>121.039673</ele>
  <time>2011-10-25T18:28:42Z</time>
  <speed>2.180000</speed>
</trkpt>
<trkpt lat="32.579902649" lon="35.009784698">
  <ele>120.701782</ele>
  <time>2011-10-25T18:28:44Z</time>
  <speed>2.240000</speed>
</trkpt>
<trkpt lat="32.579883575" lon="35.009822845">
  <ele>120.670532</ele>
  <time>2011-10-25T18:28:46Z</time>
  <speed>2.040000</speed>
</trkpt>
<trkpt lat="32.579868317" lon="35.009868622">
  <ele>120.623657</ele>
  <time>2011-10-25T18:28:48Z</time>
  <speed>2.280000</speed>
</trkpt>
<trkpt lat="32.579853058" lon="35.009906769">
  <ele>119.971313</ele>
  <time>2011-10-25T18:28:50Z</time>
  <speed>2.210000</speed>
</trkpt>
<trkpt lat="32.579856873" lon="35.009944916">
  <ele>121.404907</ele>
  <time>2011-10-25T18:28:58Z</time>
  <speed>1.220000</speed>
</trkpt>
<trkpt lat="32.579856873" lon="35.009986877">
  <ele>122.545532</ele>
  <time>2011-10-25T18:29:01Z</time>
  <speed>1.440000</speed>
</trkpt>
<trkpt lat="32.579860687" lon="35.010028839">
  <ele>123.408813</ele>
  <time>2011-10-25T18:29:03Z</time>
  <speed>1.830000</speed>
</trkpt>
<trkpt lat="32.579860687" lon="35.010074615">
  <ele>123.637329</ele>
  <time>2011-10-25T18:29:05Z</time>
  <speed>2.140000</speed>
</trkpt>
<trkpt lat="32.579856873" lon="35.010120392">
  <ele>123.818970</ele>
  <time>2011-10-25T18:29:07Z</time>
  <speed>2.220000</speed>
</trkpt>
<trkpt lat="32.579856873" lon="35.010169983">
  <ele>124.572876</ele>
  <time>2011-10-25T18:29:09Z</time>
  <speed>2.100000</speed>
</trkpt>
<trkpt lat="32.579845428" lon="35.010215759">
  <ele>125.365845</ele>
  <time>2011-10-25T18:29:11Z</time>
  <speed>2.290000</speed>
</trkpt>
<trkpt lat="32.579841614" lon="35.010269165">
  <ele>126.135376</ele>
  <time>2011-10-25T18:29:13Z</time>
  <speed>2.160000</speed>
</trkpt>
<trkpt lat="32.579845428" lon="35.010311127">
  <ele>126.221313</ele>
  <time>2011-10-25T18:29:15Z</time>
  <speed>1.980000</speed>
</trkpt>
<trkpt lat="32.579845428" lon="35.010360718">
  <ele>127.039673</ele>
  <time>2011-10-25T18:29:17Z</time>
  <speed>2.220000</speed>
</trkpt>
<trkpt lat="32.579853058" lon="35.010406494">
  <ele>127.674438</ele>
  <time>2011-10-25T18:29:19Z</time>
  <speed>2.120000</speed>
</trkpt>
<trkpt lat="32.579856873" lon="35.010452271">
  <ele>127.723267</ele>
  <time>2011-10-25T18:29:21Z</time>
  <speed>2.260000</speed>
</trkpt>
<trkpt lat="32.579864502" lon="35.010498047">
  <ele>128.161377</ele>
  <time>2011-10-25T18:29:23Z</time>
  <speed>2.320000</speed>
</trkpt>
<trkpt lat="32.579864502" lon="35.010536194">
  <ele>127.904907</ele>
  <time>2011-10-25T18:29:25Z</time>
  <speed>2.140000</speed>
</trkpt>
<trkpt lat="32.579856873" lon="35.010581970">
  <ele>127.656860</ele>
  <time>2011-10-25T18:29:27Z</time>
  <speed>1.850000</speed>
</trkpt>
<trkpt lat="32.579868317" lon="35.010631561">
  <ele>127.377563</ele>
  <time>2011-10-25T18:29:29Z</time>
  <speed>2.370000</speed>
</trkpt>
<trkpt lat="32.579868317" lon="35.010673523">
  <ele>127.055298</ele>
  <time>2011-10-25T18:29:31Z</time>
  <speed>2.160000</speed>
</trkpt>
<trkpt lat="32.579879761" lon="35.010726929">
  <ele>126.830688</ele>
  <time>2011-10-25T18:29:33Z</time>
  <speed>2.710000</speed>
</trkpt>
<trkpt lat="32.579891205" lon="35.010780334">
  <ele>126.627563</ele>
  <time>2011-10-25T18:29:35Z</time>
  <speed>2.700000</speed>
</trkpt>
<trkpt lat="32.579898834" lon="35.010822296">
  <ele>128.434814</ele>
  <time>2011-10-25T18:29:36Z</time>
  <speed>2.860000</speed>
</trkpt>
<trkpt lat="32.579902649" lon="35.010852814">
  <ele>128.591064</ele>
  <time>2011-10-25T18:29:37Z</time>
  <speed>2.660000</speed>
</trkpt>
<trkpt lat="32.579895020" lon="35.010887146">
  <ele>129.794189</ele>
  <time>2011-10-25T18:29:38Z</time>
  <speed>2.550000</speed>
</trkpt>
<trkpt lat="32.579883575" lon="35.010936737">
  <ele>130.384033</ele>
  <time>2011-10-25T18:29:40Z</time>
  <speed>1.910000</speed>
</trkpt>
<trkpt lat="32.579883575" lon="35.010978699">
  <ele>130.915283</ele>
  <time>2011-10-25T18:29:42Z</time>
  <speed>2.330000</speed>
</trkpt>
<trkpt lat="32.579895020" lon="35.011009216">
  <ele>130.848877</ele>
  <time>2011-10-25T18:29:43Z</time>
  <speed>2.140000</speed>
</trkpt>
<trkpt lat="32.579895020" lon="35.011058807">
  <ele>132.141846</ele>
  <time>2011-10-25T18:29:45Z</time>
  <speed>1.870000</speed>
</trkpt>
<trkpt lat="32.579891205" lon="35.011096954">
  <ele>132.348877</ele>
  <time>2011-10-25T18:29:47Z</time>
  <speed>1.740000</speed>
</trkpt>
<trkpt lat="32.579879761" lon="35.011127472">
  <ele>133.380127</ele>
  <time>2011-10-25T18:29:48Z</time>
  <speed>2.020000</speed>
</trkpt>
<trkpt lat="32.579879761" lon="35.011169434">
  <ele>133.255127</ele>
  <time>2011-10-25T18:29:50Z</time>
  <speed>1.810000</speed>
</trkpt>
<trkpt lat="32.579875946" lon="35.011215210">
  <ele>132.817627</ele>
  <time>2011-10-25T18:29:52Z</time>
  <speed>1.700000</speed>
</trkpt>
<trkpt lat="32.579883575" lon="35.011253357">
  <ele>132.516846</ele>
  <time>2011-10-25T18:29:54Z</time>
  <speed>1.920000</speed>
</trkpt>
<trkpt lat="32.579891205" lon="35.011287689">
  <ele>132.809814</ele>
  <time>2011-10-25T18:29:55Z</time>
  <speed>1.990000</speed>
</trkpt>
<trkpt lat="32.579872131" lon="35.011318207">
  <ele>133.259033</ele>
  <time>2011-10-25T18:29:56Z</time>
  <speed>1.910000</speed>
</trkpt>
<trkpt lat="32.579868317" lon="35.011360168">
  <ele>133.063721</ele>
  <time>2011-10-25T18:29:59Z</time>
  <speed>1.780000</speed>
</trkpt>
<trkpt lat="32.579856873" lon="35.011405945">
  <ele>133.462158</ele>
  <time>2011-10-25T18:30:02Z</time>
  <speed>1.780000</speed>
</trkpt>
<trkpt lat="32.579856873" lon="35.011440277">
  <ele>133.005127</ele>
  <time>2011-10-25T18:30:04Z</time>
  <speed>1.790000</speed>
</trkpt>
<trkpt lat="32.579833984" lon="35.011474609">
  <ele>132.165283</ele>
  <time>2011-10-25T18:30:07Z</time>
  <speed>1.680000</speed>
</trkpt>
<trkpt lat="32.579822540" lon="35.011508942">
  <ele>131.415283</ele>
  <time>2011-10-25T18:30:09Z</time>
  <speed>1.290000</speed>
</trkpt>
<trkpt lat="32.579826355" lon="35.011543274">
  <ele>130.540283</ele>
  <time>2011-10-25T18:30:11Z</time>
  <speed>1.630000</speed>
</trkpt>
<trkpt lat="32.579811096" lon="35.011581421">
  <ele>129.626221</ele>
  <time>2011-10-25T18:30:13Z</time>
  <speed>1.600000</speed>
</trkpt>
<trkpt lat="32.579807281" lon="35.011627197">
  <ele>129.126221</ele>
  <time>2011-10-25T18:30:15Z</time>
  <speed>1.540000</speed>
</trkpt>
<trkpt lat="32.579803467" lon="35.011661530">
  <ele>128.473877</ele>
  <time>2011-10-25T18:30:17Z</time>
  <speed>1.630000</speed>
</trkpt>
<trkpt lat="32.579826355" lon="35.011699677">
  <ele>128.137939</ele>
  <time>2011-10-25T18:30:19Z</time>
  <speed>1.470000</speed>
</trkpt>
<trkpt lat="32.579833984" lon="35.011737823">
  <ele>128.216064</ele>
  <time>2011-10-25T18:30:21Z</time>
  <speed>1.550000</speed>
</trkpt>
<trkpt lat="32.579830170" lon="35.011775970">
  <ele>133.059814</ele>
  <time>2011-10-25T18:30:23Z</time>
  <speed>1.540000</speed>
</trkpt>
<trkpt lat="32.579833984" lon="35.011821747">
  <ele>136.016846</ele>
  <time>2011-10-25T18:30:25Z</time>
  <speed>1.810000</speed>
</trkpt>
<trkpt lat="32.579845428" lon="35.011863708">
  <ele>138.012939</ele>
  <time>2011-10-25T18:30:27Z</time>
  <speed>1.630000</speed>
</trkpt>
<trkpt lat="32.579853058" lon="35.011901855">
  <ele>139.305908</ele>
  <time>2011-10-25T18:30:29Z</time>
  <speed>1.390000</speed>
</trkpt>
<trkpt lat="32.579868317" lon="35.011936188">
  <ele>141.739502</ele>
  <time>2011-10-25T18:30:31Z</time>
  <speed>1.580000</speed>
</trkpt>
<trkpt lat="32.579868317" lon="35.011993408">
  <ele>143.903564</ele>
  <time>2011-10-25T18:30:34Z</time>
  <speed>1.520000</speed>
</trkpt>
<trkpt lat="32.579891205" lon="35.012023926">
  <ele>143.458252</ele>
  <time>2011-10-25T18:30:36Z</time>
  <speed>1.600000</speed>
</trkpt>
<trkpt lat="32.579914093" lon="35.012054443">
  <ele>142.930908</ele>
  <time>2011-10-25T18:30:38Z</time>
  <speed>1.740000</speed>
</trkpt>
<trkpt lat="32.579929352" lon="35.012092590">
  <ele>142.419189</ele>
  <time>2011-10-25T18:30:40Z</time>
  <speed>1.890000</speed>
</trkpt>
<trkpt lat="32.579898834" lon="35.012130737">
  <ele>141.856689</ele>
  <time>2011-10-25T18:30:42Z</time>
  <speed>2.480000</speed>
</trkpt>
<trkpt lat="32.579879761" lon="35.012157440">
  <ele>142.848877</ele>
  <time>2011-10-25T18:30:44Z</time>
  <speed>0.390000</speed>
</trkpt>
<trkpt lat="32.579837799" lon="35.012180328">
  <ele>143.708252</ele>
  <time>2011-10-25T18:30:48Z</time>
  <speed>1.150000</speed>
</trkpt>
<trkpt lat="32.579803467" lon="35.012199402">
  <ele>144.704346</ele>
  <time>2011-10-25T18:30:51Z</time>
  <speed>0.320000</speed>
</trkpt>
<trkpt lat="32.579772949" lon="35.012203217">
  <ele>145.884033</ele>
  <time>2011-10-25T18:31:09Z</time>
  <speed>0.860000</speed>
</trkpt>
<trkpt lat="32.579746246" lon="35.012199402">
  <ele>146.251221</ele>
  <time>2011-10-25T18:31:11Z</time>
  <speed>1.620000</speed>
</trkpt>
<trkpt lat="32.579704285" lon="35.012203217">
  <ele>146.805908</ele>
  <time>2011-10-25T18:31:13Z</time>
  <speed>1.890000</speed>
</trkpt>
<trkpt lat="32.579666138" lon="35.012207031">
  <ele>147.434814</ele>
  <time>2011-10-25T18:31:15Z</time>
  <speed>2.310000</speed>
</trkpt>
<trkpt lat="32.579639435" lon="35.012218475">
  <ele>147.743408</ele>
  <time>2011-10-25T18:31:16Z</time>
  <speed>2.170000</speed>
</trkpt>
<trkpt lat="32.579608917" lon="35.012233734">
  <ele>148.052002</ele>
  <time>2011-10-25T18:31:18Z</time>
  <speed>1.370000</speed>
</trkpt>
<trkpt lat="32.579578400" lon="35.012241364">
  <ele>148.106689</ele>
  <time>2011-10-25T18:31:20Z</time>
  <speed>0.610000</speed>
</trkpt>
<trkpt lat="32.579559326" lon="35.012271881">
  <ele>147.829346</ele>
  <time>2011-10-25T18:31:22Z</time>
  <speed>1.370000</speed>
</trkpt>
<trkpt lat="32.579536438" lon="35.012302399">
  <ele>147.579346</ele>
  <time>2011-10-25T18:31:24Z</time>
  <speed>1.870000</speed>
</trkpt>
<trkpt lat="32.579524994" lon="35.012329102">
  <ele>147.180908</ele>
  <time>2011-10-25T18:31:26Z</time>
  <speed>1.870000</speed>
</trkpt>
<trkpt lat="32.579517365" lon="35.012378693">
  <ele>146.809814</ele>
  <time>2011-10-25T18:31:28Z</time>
  <speed>2.460000</speed>
</trkpt>
<trkpt lat="32.579502106" lon="35.012439728">
  <ele>146.653564</ele>
  <time>2011-10-25T18:31:30Z</time>
  <speed>3.560000</speed>
</trkpt>
<trkpt lat="32.579490662" lon="35.012485504">
  <ele>146.243408</ele>
  <time>2011-10-25T18:31:31Z</time>
  <speed>3.780000</speed>
</trkpt>
<trkpt lat="32.579486847" lon="35.012527466">
  <ele>146.747314</ele>
  <time>2011-10-25T18:31:32Z</time>
  <speed>3.810000</speed>
</trkpt>
<trkpt lat="32.579471588" lon="35.012565613">
  <ele>146.634033</ele>
  <time>2011-10-25T18:31:33Z</time>
  <speed>4.190000</speed>
</trkpt>
<trkpt lat="32.579452515" lon="35.012611389">
  <ele>146.887939</ele>
  <time>2011-10-25T18:31:34Z</time>
  <speed>3.780000</speed>
</trkpt>
<trkpt lat="32.579429626" lon="35.012641907">
  <ele>146.712158</ele>
  <time>2011-10-25T18:31:35Z</time>
  <speed>3.820000</speed>
</trkpt>
<trkpt lat="32.579402924" lon="35.012668610">
  <ele>146.622314</ele>
  <time>2011-10-25T18:31:36Z</time>
  <speed>3.600000</speed>
</trkpt>
<trkpt lat="32.579391479" lon="35.012702942">
  <ele>146.630127</ele>
  <time>2011-10-25T18:31:37Z</time>
  <speed>3.610000</speed>
</trkpt>
<trkpt lat="32.579368591" lon="35.012737274">
  <ele>145.864502</ele>
  <time>2011-10-25T18:31:38Z</time>
  <speed>4.240000</speed>
</trkpt>
<trkpt lat="32.579345703" lon="35.012767792">
  <ele>145.602783</ele>
  <time>2011-10-25T18:31:39Z</time>
  <speed>3.880000</speed>
</trkpt>
<trkpt lat="32.579326630" lon="35.012798309">
  <ele>145.571533</ele>
  <time>2011-10-25T18:31:40Z</time>
  <speed>3.520000</speed>
</trkpt>
<trkpt lat="32.579307556" lon="35.012828827">
  <ele>145.118408</ele>
  <time>2011-10-25T18:31:41Z</time>
  <speed>4.090000</speed>
</trkpt>
<trkpt lat="32.579288483" lon="35.012866974">
  <ele>144.727783</ele>
  <time>2011-10-25T18:31:42Z</time>
  <speed>4.120000</speed>
</trkpt>
<trkpt lat="32.579265594" lon="35.012897491">
  <ele>144.071533</ele>
  <time>2011-10-25T18:31:43Z</time>
  <speed>4.330000</speed>
</trkpt>
<trkpt lat="32.579235077" lon="35.012931824">
  <ele>145.040283</ele>
  <time>2011-10-25T18:31:44Z</time>
  <speed>4.230000</speed>
</trkpt>
<trkpt lat="32.579204559" lon="35.012950897">
  <ele>145.743408</ele>
  <time>2011-10-25T18:31:45Z</time>
  <speed>3.240000</speed>
</trkpt>
<trkpt lat="32.579162598" lon="35.012954712">
  <ele>146.887939</ele>
  <time>2011-10-25T18:31:47Z</time>
  <speed>2.760000</speed>
</trkpt>
<trkpt lat="32.579116821" lon="35.012958527">
  <ele>147.755127</ele>
  <time>2011-10-25T18:31:49Z</time>
  <speed>2.660000</speed>
</trkpt>
<trkpt lat="32.579090118" lon="35.012962341">
  <ele>148.989502</ele>
  <time>2011-10-25T18:31:50Z</time>
  <speed>2.630000</speed>
</trkpt>
<trkpt lat="32.579048157" lon="35.012966156">
  <ele>150.036377</ele>
  <time>2011-10-25T18:31:52Z</time>
  <speed>2.500000</speed>
</trkpt>
<trkpt lat="32.579006195" lon="35.012969971">
  <ele>150.134033</ele>
  <time>2011-10-25T18:31:54Z</time>
  <speed>1.980000</speed>
</trkpt>
<trkpt lat="32.578960419" lon="35.012977600">
  <ele>152.219971</ele>
  <time>2011-10-25T18:31:56Z</time>
  <speed>1.720000</speed>
</trkpt>
<trkpt lat="32.578929901" lon="35.012962341">
  <ele>153.098877</ele>
  <time>2011-10-25T18:31:58Z</time>
  <speed>1.910000</speed>
</trkpt>
<trkpt lat="32.578907013" lon="35.012935638">
  <ele>153.399658</ele>
  <time>2011-10-25T18:32:00Z</time>
  <speed>1.940000</speed>
</trkpt>
<trkpt lat="32.578880310" lon="35.012920380">
  <ele>154.571533</ele>
  <time>2011-10-25T18:32:02Z</time>
  <speed>1.690000</speed>
</trkpt>
<trkpt lat="32.578861237" lon="35.012943268">
  <ele>156.512939</ele>
  <time>2011-10-25T18:32:05Z</time>
  <speed>0.230000</speed>
</trkpt>
<trkpt lat="32.578838348" lon="35.012954712">
  <ele>157.954346</ele>
  <time>2011-10-25T18:32:28Z</time>
  <speed>0.180000</speed>
</trkpt>
<trkpt lat="32.578807831" lon="35.012947083">
  <ele>158.626221</ele>
  <time>2011-10-25T18:33:36Z</time>
  <speed>1.050000</speed>
</trkpt>
<trkpt lat="32.578773499" lon="35.012943268">
  <ele>159.407471</ele>
  <time>2011-10-25T18:33:39Z</time>
  <speed>0.660000</speed>
</trkpt>
<trkpt lat="32.578746796" lon="35.012966156">
  <ele>160.856689</ele>
  <time>2011-10-25T18:33:42Z</time>
  <speed>1.070000</speed>
</trkpt>
<trkpt lat="32.578712463" lon="35.012992859">
  <ele>161.259033</ele>
  <time>2011-10-25T18:33:45Z</time>
  <speed>1.140000</speed>
</trkpt>
<trkpt lat="32.578689575" lon="35.013004303">
  <ele>161.563721</ele>
  <time>2011-10-25T18:33:48Z</time>
  <speed>0.670000</speed>
</trkpt>
<trkpt lat="32.578655243" lon="35.013008118">
  <ele>162.598877</ele>
  <time>2011-10-25T18:33:51Z</time>
  <speed>1.330000</speed>
</trkpt>
<trkpt lat="32.578624725" lon="35.013015747">
  <ele>162.805908</ele>
  <time>2011-10-25T18:33:54Z</time>
  <speed>0.760000</speed>
</trkpt>
<trkpt lat="32.578594208" lon="35.013023376">
  <ele>163.759033</ele>
  <time>2011-10-25T18:33:57Z</time>
  <speed>0.190000</speed>
</trkpt>
<trkpt lat="32.578567505" lon="35.013019562">
  <ele>163.891846</ele>
  <time>2011-10-25T18:34:00Z</time>
  <speed>1.050000</speed>
</trkpt>
<trkpt lat="32.578529358" lon="35.013011932">
  <ele>164.626221</ele>
  <time>2011-10-25T18:34:03Z</time>
  <speed>1.950000</speed>
</trkpt>
<trkpt lat="32.578498840" lon="35.013008118">
  <ele>164.790283</ele>
  <time>2011-10-25T18:34:05Z</time>
  <speed>2.090000</speed>
</trkpt>
<trkpt lat="32.578460693" lon="35.012996674">
  <ele>165.423096</ele>
  <time>2011-10-25T18:34:07Z</time>
  <speed>2.610000</speed>
</trkpt>
<trkpt lat="32.578411102" lon="35.012996674">
  <ele>166.204346</ele>
  <time>2011-10-25T18:34:09Z</time>
  <speed>2.180000</speed>
</trkpt>
<trkpt lat="32.578384399" lon="35.012989044">
  <ele>167.278564</ele>
  <time>2011-10-25T18:34:11Z</time>
  <speed>1.970000</speed>
</trkpt>
<trkpt lat="32.578338623" lon="35.012992859">
  <ele>168.669189</ele>
  <time>2011-10-25T18:34:13Z</time>
  <speed>2.190000</speed>
</trkpt>
<trkpt lat="32.578304291" lon="35.012992859">
  <ele>169.606689</ele>
  <time>2011-10-25T18:34:15Z</time>
  <speed>2.130000</speed>
</trkpt>
<trkpt lat="32.578266144" lon="35.013000488">
  <ele>170.798096</ele>
  <time>2011-10-25T18:34:17Z</time>
  <speed>2.030000</speed>
</trkpt>
<trkpt lat="32.578239441" lon="35.013008118">
  <ele>172.071533</ele>
  <time>2011-10-25T18:34:19Z</time>
  <speed>2.140000</speed>
</trkpt>
<trkpt lat="32.578243256" lon="35.013000488">
  <ele>175.454346</ele>
  <time>2011-10-25T18:34:20Z</time>
  <speed>1.930000</speed>
</trkpt>
<trkpt lat="32.578227997" lon="35.012996674">
  <ele>178.067627</ele>
  <time>2011-10-25T18:34:22Z</time>
  <speed>2.040000</speed>
</trkpt>
<trkpt lat="32.578193665" lon="35.012996674">
  <ele>178.969971</ele>
  <time>2011-10-25T18:34:24Z</time>
  <speed>1.710000</speed>
</trkpt>
<trkpt lat="32.578163147" lon="35.012981415">
  <ele>179.399658</ele>
  <time>2011-10-25T18:34:26Z</time>
  <speed>1.970000</speed>
</trkpt>
<trkpt lat="32.578136444" lon="35.012969971">
  <ele>179.923096</ele>
  <time>2011-10-25T18:34:28Z</time>
  <speed>1.610000</speed>
</trkpt>
<trkpt lat="32.578102112" lon="35.012962341">
  <ele>182.137939</ele>
  <time>2011-10-25T18:34:31Z</time>
  <speed>1.880000</speed>
</trkpt>
<trkpt lat="32.578060150" lon="35.012958527">
  <ele>182.118408</ele>
  <time>2011-10-25T18:34:33Z</time>
  <speed>1.910000</speed>
</trkpt>
<trkpt lat="32.578010559" lon="35.012958527">
  <ele>182.360596</ele>
  <time>2011-10-25T18:34:35Z</time>
  <speed>2.100000</speed>
</trkpt>
<trkpt lat="32.577964783" lon="35.012962341">
  <ele>182.766846</ele>
  <time>2011-10-25T18:34:37Z</time>
  <speed>1.940000</speed>
</trkpt>
<trkpt lat="32.577922821" lon="35.012962341">
  <ele>181.778564</ele>
  <time>2011-10-25T18:34:39Z</time>
  <speed>1.960000</speed>
</trkpt>
<trkpt lat="32.577880859" lon="35.012954712">
  <ele>182.290283</ele>
  <time>2011-10-25T18:34:41Z</time>
  <speed>1.630000</speed>
</trkpt>
<trkpt lat="32.577838898" lon="35.012962341">
  <ele>181.794189</ele>
  <time>2011-10-25T18:34:43Z</time>
  <speed>1.850000</speed>
</trkpt>
<trkpt lat="32.577808380" lon="35.012962341">
  <ele>182.852783</ele>
  <time>2011-10-25T18:34:45Z</time>
  <speed>1.910000</speed>
</trkpt>
<trkpt lat="32.577774048" lon="35.012954712">
  <ele>184.930908</ele>
  <time>2011-10-25T18:34:47Z</time>
  <speed>2.370000</speed>
</trkpt>
<trkpt lat="32.577747345" lon="35.012947083">
  <ele>186.817627</ele>
  <time>2011-10-25T18:34:49Z</time>
  <speed>2.360000</speed>
</trkpt>
<trkpt lat="32.577716827" lon="35.012947083">
  <ele>188.841064</ele>
  <time>2011-10-25T18:34:51Z</time>
  <speed>2.450000</speed>
</trkpt>
<trkpt lat="32.577671051" lon="35.012939453">
  <ele>190.493408</ele>
  <time>2011-10-25T18:34:53Z</time>
  <speed>2.590000</speed>
</trkpt>
<trkpt lat="32.577629089" lon="35.012931824">
  <ele>191.634033</ele>
  <time>2011-10-25T18:34:55Z</time>
  <speed>2.710000</speed>
</trkpt>
<trkpt lat="32.577575684" lon="35.012924194">
  <ele>191.934814</ele>
  <time>2011-10-25T18:34:57Z</time>
  <speed>3.020000</speed>
</trkpt>
<trkpt lat="32.577545166" lon="35.012916565">
  <ele>192.270752</ele>
  <time>2011-10-25T18:34:58Z</time>
  <speed>2.430000</speed>
</trkpt>
<trkpt lat="32.577518463" lon="35.012916565">
  <ele>192.368408</ele>
  <time>2011-10-25T18:34:59Z</time>
  <speed>2.330000</speed>
</trkpt>
<trkpt lat="32.577491760" lon="35.012916565">
  <ele>192.290283</ele>
  <time>2011-10-25T18:35:00Z</time>
  <speed>1.900000</speed>
</trkpt>
<trkpt lat="32.577457428" lon="35.012908936">
  <ele>192.360596</ele>
  <time>2011-10-25T18:35:02Z</time>
  <speed>2.130000</speed>
</trkpt>
<trkpt lat="32.577419281" lon="35.012912750">
  <ele>192.790283</ele>
  <time>2011-10-25T18:35:04Z</time>
  <speed>2.380000</speed>
</trkpt>
<trkpt lat="32.577373505" lon="35.012912750">
  <ele>193.794189</ele>
  <time>2011-10-25T18:35:06Z</time>
  <speed>1.970000</speed>
</trkpt>
<trkpt lat="32.577323914" lon="35.012912750">
  <ele>193.661377</ele>
  <time>2011-10-25T18:35:08Z</time>
  <speed>2.060000</speed>
</trkpt>
<trkpt lat="32.577281952" lon="35.012916565">
  <ele>193.868408</ele>
  <time>2011-10-25T18:35:10Z</time>
  <speed>2.070000</speed>
</trkpt>
<trkpt lat="32.577247620" lon="35.012908936">
  <ele>193.184814</ele>
  <time>2011-10-25T18:35:12Z</time>
  <speed>2.020000</speed>
</trkpt>
<trkpt lat="32.577220917" lon="35.012886047">
  <ele>193.137939</ele>
  <time>2011-10-25T18:35:14Z</time>
  <speed>2.110000</speed>
</trkpt>
<trkpt lat="32.577205658" lon="35.012828827">
  <ele>191.653564</ele>
  <time>2011-10-25T18:35:16Z</time>
  <speed>2.520000</speed>
</trkpt>
<trkpt lat="32.577220917" lon="35.012790680">
  <ele>189.352783</ele>
  <time>2011-10-25T18:35:18Z</time>
  <speed>2.140000</speed>
</trkpt>
<trkpt lat="32.577239990" lon="35.012756348">
  <ele>186.598877</ele>
  <time>2011-10-25T18:35:20Z</time>
  <speed>1.670000</speed>
</trkpt>
<trkpt lat="32.577262878" lon="35.012725830">
  <ele>185.192627</ele>
  <time>2011-10-25T18:35:22Z</time>
  <speed>2.410000</speed>
</trkpt>
<trkpt lat="32.577316284" lon="35.012687683">
  <ele>185.829346</ele>
  <time>2011-10-25T18:35:24Z</time>
  <speed>2.800000</speed>
</trkpt>
<trkpt lat="32.577335358" lon="35.012664795">
  <ele>185.356689</ele>
  <time>2011-10-25T18:35:25Z</time>
  <speed>3.100000</speed>
</trkpt>
<trkpt lat="32.577358246" lon="35.012638092">
  <ele>184.497314</ele>
  <time>2011-10-25T18:35:26Z</time>
  <speed>3.420000</speed>
</trkpt>
<trkpt lat="32.577396393" lon="35.012588501">
  <ele>185.684814</ele>
  <time>2011-10-25T18:35:27Z</time>
  <speed>4.360000</speed>
</trkpt>
<trkpt lat="32.577426910" lon="35.012538910">
  <ele>187.001221</ele>
  <time>2011-10-25T18:35:28Z</time>
  <speed>4.140000</speed>
</trkpt>
<trkpt lat="32.577442169" lon="35.012481689">
  <ele>187.684814</ele>
  <time>2011-10-25T18:35:29Z</time>
  <speed>4.830000</speed>
</trkpt>
<trkpt lat="32.577457428" lon="35.012424469">
  <ele>187.927002</ele>
  <time>2011-10-25T18:35:30Z</time>
  <speed>5.480000</speed>
</trkpt>
<trkpt lat="32.577468872" lon="35.012367249">
  <ele>188.540283</ele>
  <time>2011-10-25T18:35:31Z</time>
  <speed>4.990000</speed>
</trkpt>
<trkpt lat="32.577468872" lon="35.012302399">
  <ele>187.852783</ele>
  <time>2011-10-25T18:35:32Z</time>
  <speed>5.850000</speed>
</trkpt>
<trkpt lat="32.577465057" lon="35.012226105">
  <ele>187.380127</ele>
  <time>2011-10-25T18:35:33Z</time>
  <speed>5.810000</speed>
</trkpt>
<trkpt lat="32.577476501" lon="35.012165070">
  <ele>186.899658</ele>
  <time>2011-10-25T18:35:34Z</time>
  <speed>5.900000</speed>
</trkpt>
<trkpt lat="32.577499390" lon="35.012088776">
  <ele>187.907471</ele>
  <time>2011-10-25T18:35:35Z</time>
  <speed>6.030000</speed>
</trkpt>
<trkpt lat="32.577514648" lon="35.012016296">
  <ele>188.255127</ele>
  <time>2011-10-25T18:35:36Z</time>
  <speed>6.070000</speed>
</trkpt>
<trkpt lat="32.577518463" lon="35.011947632">
  <ele>187.782471</ele>
  <time>2011-10-25T18:35:37Z</time>
  <speed>5.930000</speed>
</trkpt>
<trkpt lat="32.577526093" lon="35.011875153">
  <ele>187.829346</ele>
  <time>2011-10-25T18:35:38Z</time>
  <speed>6.190000</speed>
</trkpt>
<trkpt lat="32.577529907" lon="35.011798859">
  <ele>188.075439</ele>
  <time>2011-10-25T18:35:39Z</time>
  <speed>7.000000</speed>
</trkpt>
<trkpt lat="32.577529907" lon="35.011718750">
  <ele>188.380127</ele>
  <time>2011-10-25T18:35:40Z</time>
  <speed>7.120000</speed>
</trkpt>
<trkpt lat="32.577533722" lon="35.011638641">
  <ele>187.145752</ele>
  <time>2011-10-25T18:35:41Z</time>
  <speed>7.150000</speed>
</trkpt>
<trkpt lat="32.577537537" lon="35.011558533">
  <ele>187.009033</ele>
  <time>2011-10-25T18:35:42Z</time>
  <speed>7.600000</speed>
</trkpt>
<trkpt lat="32.577541351" lon="35.011466980">
  <ele>187.821533</ele>
  <time>2011-10-25T18:35:43Z</time>
  <speed>7.440000</speed>
</trkpt>
<trkpt lat="32.577545166" lon="35.011394501">
  <ele>187.368408</ele>
  <time>2011-10-25T18:35:44Z</time>
  <speed>7.020000</speed>
</trkpt>
<trkpt lat="32.577552795" lon="35.011314392">
  <ele>187.157471</ele>
  <time>2011-10-25T18:35:45Z</time>
  <speed>6.870000</speed>
</trkpt>
<trkpt lat="32.577548981" lon="35.011234283">
  <ele>187.469971</ele>
  <time>2011-10-25T18:35:46Z</time>
  <speed>7.210000</speed>
</trkpt>
<trkpt lat="32.577556610" lon="35.011154175">
  <ele>187.255127</ele>
  <time>2011-10-25T18:35:47Z</time>
  <speed>7.420000</speed>
</trkpt>
<trkpt lat="32.577568054" lon="35.011070251">
  <ele>186.516846</ele>
  <time>2011-10-25T18:35:48Z</time>
  <speed>7.980000</speed>
</trkpt>
<trkpt lat="32.577587128" lon="35.010982513">
  <ele>186.927002</ele>
  <time>2011-10-25T18:35:49Z</time>
  <speed>7.510000</speed>
</trkpt>
<trkpt lat="32.577617645" lon="35.010917664">
  <ele>186.790283</ele>
  <time>2011-10-25T18:35:50Z</time>
  <speed>6.450000</speed>
</trkpt>
<trkpt lat="32.577640533" lon="35.010856628">
  <ele>186.356689</ele>
  <time>2011-10-25T18:35:51Z</time>
  <speed>6.480000</speed>
</trkpt>
<trkpt lat="32.577663422" lon="35.010799408">
  <ele>185.825439</ele>
  <time>2011-10-25T18:35:52Z</time>
  <speed>5.710000</speed>
</trkpt>
<trkpt lat="32.577690125" lon="35.010753632">
  <ele>185.333252</ele>
  <time>2011-10-25T18:35:53Z</time>
  <speed>5.650000</speed>
</trkpt>
<trkpt lat="32.577709198" lon="35.010700226">
  <ele>185.204346</ele>
  <time>2011-10-25T18:35:54Z</time>
  <speed>5.480000</speed>
</trkpt>
<trkpt lat="32.577716827" lon="35.010643005">
  <ele>184.391846</ele>
  <time>2011-10-25T18:35:55Z</time>
  <speed>5.730000</speed>
</trkpt>
<trkpt lat="32.577728271" lon="35.010578156">
  <ele>184.223877</ele>
  <time>2011-10-25T18:35:56Z</time>
  <speed>6.800000</speed>
</trkpt>
<trkpt lat="32.577758789" lon="35.010517120">
  <ele>184.134033</ele>
  <time>2011-10-25T18:35:57Z</time>
  <speed>5.710000</speed>
</trkpt>
<trkpt lat="32.577796936" lon="35.010482788">
  <ele>183.833252</ele>
  <time>2011-10-25T18:35:58Z</time>
  <speed>5.330000</speed>
</trkpt>
<trkpt lat="32.577838898" lon="35.010456085">
  <ele>183.348877</ele>
  <time>2011-10-25T18:35:59Z</time>
  <speed>4.950000</speed>
</trkpt>
<trkpt lat="32.577877045" lon="35.010417938">
  <ele>183.118408</ele>
  <time>2011-10-25T18:36:00Z</time>
  <speed>5.690000</speed>
</trkpt>
<trkpt lat="32.577911377" lon="35.010375977">
  <ele>182.680908</ele>
  <time>2011-10-25T18:36:01Z</time>
  <speed>5.560000</speed>
</trkpt>
<trkpt lat="32.577964783" lon="35.010314941">
  <ele>185.341064</ele>
  <time>2011-10-25T18:36:02Z</time>
  <speed>6.420000</speed>
</trkpt>
<trkpt lat="32.578006744" lon="35.010265350">
  <ele>185.118408</ele>
  <time>2011-10-25T18:36:03Z</time>
  <speed>6.200000</speed>
</trkpt>
<trkpt lat="32.578044891" lon="35.010211945">
  <ele>184.919189</ele>
  <time>2011-10-25T18:36:04Z</time>
  <speed>5.980000</speed>
</trkpt>
<trkpt lat="32.578071594" lon="35.010158539">
  <ele>184.477783</ele>
  <time>2011-10-25T18:36:05Z</time>
  <speed>6.340000</speed>
</trkpt>
<trkpt lat="32.578102112" lon="35.010105133">
  <ele>184.134033</ele>
  <time>2011-10-25T18:36:06Z</time>
  <speed>6.300000</speed>
</trkpt>
<trkpt lat="32.578128815" lon="35.010040283">
  <ele>183.907471</ele>
  <time>2011-10-25T18:36:07Z</time>
  <speed>5.900000</speed>
</trkpt>
<trkpt lat="32.578140259" lon="35.009979248">
  <ele>183.884033</ele>
  <time>2011-10-25T18:36:08Z</time>
  <speed>5.810000</speed>
</trkpt>
<trkpt lat="32.578144073" lon="35.009918213">
  <ele>183.149658</ele>
  <time>2011-10-25T18:36:09Z</time>
  <speed>6.530000</speed>
</trkpt>
<trkpt lat="32.578147888" lon="35.009857178">
  <ele>181.259033</ele>
  <time>2011-10-25T18:36:10Z</time>
  <speed>6.410000</speed>
</trkpt>
<trkpt lat="32.578155518" lon="35.009792328">
  <ele>180.794189</ele>
  <time>2011-10-25T18:36:11Z</time>
  <speed>6.240000</speed>
</trkpt>
<trkpt lat="32.578163147" lon="35.009723663">
  <ele>179.766846</ele>
  <time>2011-10-25T18:36:12Z</time>
  <speed>6.460000</speed>
</trkpt>
<trkpt lat="32.578178406" lon="35.009658813">
  <ele>179.098877</ele>
  <time>2011-10-25T18:36:13Z</time>
  <speed>6.430000</speed>
</trkpt>
<trkpt lat="32.578186035" lon="35.009590149">
  <ele>178.317627</ele>
  <time>2011-10-25T18:36:14Z</time>
  <speed>6.580000</speed>
</trkpt>
<trkpt lat="32.578193665" lon="35.009521484">
  <ele>176.852783</ele>
  <time>2011-10-25T18:36:15Z</time>
  <speed>6.540000</speed>
</trkpt>
<trkpt lat="32.578205109" lon="35.009456635">
  <ele>175.684814</ele>
  <time>2011-10-25T18:36:16Z</time>
  <speed>6.600000</speed>
</trkpt>
<trkpt lat="32.578216553" lon="35.009384155">
  <ele>174.864502</ele>
  <time>2011-10-25T18:36:17Z</time>
  <speed>6.870000</speed>
</trkpt>
<trkpt lat="32.578227997" lon="35.009319305">
  <ele>174.009033</ele>
  <time>2011-10-25T18:36:18Z</time>
  <speed>6.560000</speed>
</trkpt>
<trkpt lat="32.578239441" lon="35.009250641">
  <ele>172.407471</ele>
  <time>2011-10-25T18:36:19Z</time>
  <speed>7.410000</speed>
</trkpt>
<trkpt lat="32.578254700" lon="35.009178162">
  <ele>171.329346</ele>
  <time>2011-10-25T18:36:20Z</time>
  <speed>7.230000</speed>
</trkpt>
<trkpt lat="32.578266144" lon="35.009101868">
  <ele>170.618408</ele>
  <time>2011-10-25T18:36:21Z</time>
  <speed>7.770000</speed>
</trkpt>
<trkpt lat="32.578277588" lon="35.009025574">
  <ele>169.106689</ele>
  <time>2011-10-25T18:36:22Z</time>
  <speed>7.570000</speed>
</trkpt>
<trkpt lat="32.578289032" lon="35.008914948">
  <ele>171.759033</ele>
  <time>2011-10-25T18:36:23Z</time>
  <speed>8.370000</speed>
</trkpt>
<trkpt lat="32.578289032" lon="35.008834839">
  <ele>170.880127</ele>
  <time>2011-10-25T18:36:24Z</time>
  <speed>7.420000</speed>
</trkpt>
<trkpt lat="32.578292847" lon="35.008762360">
  <ele>168.872314</ele>
  <time>2011-10-25T18:36:25Z</time>
  <speed>7.240000</speed>
</trkpt>
<trkpt lat="32.578296661" lon="35.008686066">
  <ele>168.235596</ele>
  <time>2011-10-25T18:36:26Z</time>
  <speed>6.620000</speed>
</trkpt>
<trkpt lat="32.578292847" lon="35.008613586">
  <ele>168.466064</ele>
  <time>2011-10-25T18:36:27Z</time>
  <speed>6.940000</speed>
</trkpt>
<trkpt lat="32.578277588" lon="35.008541107">
  <ele>168.825439</ele>
  <time>2011-10-25T18:36:28Z</time>
  <speed>6.400000</speed>
</trkpt>
<trkpt lat="32.578269958" lon="35.008476257">
  <ele>168.739502</ele>
  <time>2011-10-25T18:36:29Z</time>
  <speed>5.450000</speed>
</trkpt>
<trkpt lat="32.578273773" lon="35.008419037">
  <ele>167.462158</ele>
  <time>2011-10-25T18:36:30Z</time>
  <speed>6.110000</speed>
</trkpt>
<trkpt lat="32.578285217" lon="35.008358002">
  <ele>167.454346</ele>
  <time>2011-10-25T18:36:31Z</time>
  <speed>6.080000</speed>
</trkpt>
<trkpt lat="32.578315735" lon="35.008358002">
  <ele>162.637939</ele>
  <time>2011-10-25T18:36:32Z</time>
  <speed>4.800000</speed>
</trkpt>
<trkpt lat="32.578365326" lon="35.008316040">
  <ele>164.770752</ele>
  <time>2011-10-25T18:36:33Z</time>
  <speed>4.550000</speed>
</trkpt>
<trkpt lat="32.578399658" lon="35.008277893">
  <ele>166.407471</ele>
  <time>2011-10-25T18:36:34Z</time>
  <speed>3.510000</speed>
</trkpt>
<trkpt lat="32.578414917" lon="35.008232117">
  <ele>167.325439</ele>
  <time>2011-10-25T18:36:35Z</time>
  <speed>3.420000</speed>
</trkpt>
<trkpt lat="32.578407288" lon="35.008193970">
  <ele>167.766846</ele>
  <time>2011-10-25T18:36:36Z</time>
  <speed>3.470000</speed>
</trkpt>
<trkpt lat="32.578388214" lon="35.008163452">
  <ele>166.716064</ele>
  <time>2011-10-25T18:36:37Z</time>
  <speed>4.050000</speed>
</trkpt>
<trkpt lat="32.578369141" lon="35.008110046">
  <ele>168.200439</ele>
  <time>2011-10-25T18:36:38Z</time>
  <speed>4.860000</speed>
</trkpt>
<trkpt lat="32.578334808" lon="35.008056641">
  <ele>167.688721</ele>
  <time>2011-10-25T18:36:39Z</time>
  <speed>5.510000</speed>
</trkpt>
<trkpt lat="32.578308105" lon="35.008007050">
  <ele>166.985596</ele>
  <time>2011-10-25T18:36:40Z</time>
  <speed>5.260000</speed>
</trkpt>
<trkpt lat="32.578281403" lon="35.007961273">
  <ele>166.137939</ele>
  <time>2011-10-25T18:36:41Z</time>
  <speed>5.040000</speed>
</trkpt>
<trkpt lat="32.578258514" lon="35.007896423">
  <ele>164.927002</ele>
  <time>2011-10-25T18:36:42Z</time>
  <speed>6.330000</speed>
</trkpt>
<trkpt lat="32.578239441" lon="35.007835388">
  <ele>163.977783</ele>
  <time>2011-10-25T18:36:43Z</time>
  <speed>5.850000</speed>
</trkpt>
<trkpt lat="32.578212738" lon="35.007785797">
  <ele>162.977783</ele>
  <time>2011-10-25T18:36:44Z</time>
  <speed>6.400000</speed>
</trkpt>
<trkpt lat="32.578193665" lon="35.007728577">
  <ele>161.579346</ele>
  <time>2011-10-25T18:36:45Z</time>
  <speed>5.690000</speed>
</trkpt>
<trkpt lat="32.578189850" lon="35.007667542">
  <ele>161.677002</ele>
  <time>2011-10-25T18:36:46Z</time>
  <speed>5.760000</speed>
</trkpt>
<trkpt lat="32.578186035" lon="35.007602692">
  <ele>160.876221</ele>
  <time>2011-10-25T18:36:47Z</time>
  <speed>6.300000</speed>
</trkpt>
<trkpt lat="32.578182220" lon="35.007537842">
  <ele>160.462158</ele>
  <time>2011-10-25T18:36:48Z</time>
  <speed>5.630000</speed>
</trkpt>
<trkpt lat="32.578182220" lon="35.007472992">
  <ele>159.356689</ele>
  <time>2011-10-25T18:36:49Z</time>
  <speed>6.400000</speed>
</trkpt>
<trkpt lat="32.578189850" lon="35.007400513">
  <ele>159.262939</ele>
  <time>2011-10-25T18:36:50Z</time>
  <speed>6.300000</speed>
</trkpt>
<trkpt lat="32.578208923" lon="35.007331848">
  <ele>159.016846</ele>
  <time>2011-10-25T18:36:51Z</time>
  <speed>6.630000</speed>
</trkpt>
<trkpt lat="32.578224182" lon="35.007259369">
  <ele>158.309814</ele>
  <time>2011-10-25T18:36:52Z</time>
  <speed>6.810000</speed>
</trkpt>
<trkpt lat="32.578216553" lon="35.007179260">
  <ele>157.684814</ele>
  <time>2011-10-25T18:36:53Z</time>
  <speed>7.190000</speed>
</trkpt>
<trkpt lat="32.578208923" lon="35.007102966">
  <ele>157.016846</ele>
  <time>2011-10-25T18:36:54Z</time>
  <speed>7.740000</speed>
</trkpt>
<trkpt lat="32.578201294" lon="35.007030487">
  <ele>156.130127</ele>
  <time>2011-10-25T18:36:55Z</time>
  <speed>7.120000</speed>
</trkpt>
<trkpt lat="32.578197479" lon="35.006946564">
  <ele>155.333252</ele>
  <time>2011-10-25T18:36:56Z</time>
  <speed>7.770000</speed>
</trkpt>
<trkpt lat="32.578186035" lon="35.006866455">
  <ele>154.645752</ele>
  <time>2011-10-25T18:36:57Z</time>
  <speed>7.900000</speed>
</trkpt>
<trkpt lat="32.578178406" lon="35.006778717">
  <ele>154.462158</ele>
  <time>2011-10-25T18:36:58Z</time>
  <speed>7.750000</speed>
</trkpt>
<trkpt lat="32.578174591" lon="35.006671906">
  <ele>156.805908</ele>
  <time>2011-10-25T18:36:59Z</time>
  <speed>8.140000</speed>
</trkpt>
<trkpt lat="32.578159332" lon="35.006584167">
  <ele>156.028564</ele>
  <time>2011-10-25T18:37:00Z</time>
  <speed>7.960000</speed>
</trkpt>
<trkpt lat="32.578136444" lon="35.006504059">
  <ele>155.286377</ele>
  <time>2011-10-25T18:37:01Z</time>
  <speed>7.920000</speed>
</trkpt>
<trkpt lat="32.578121185" lon="35.006389618">
  <ele>158.899658</ele>
  <time>2011-10-25T18:37:02Z</time>
  <speed>8.210000</speed>
</trkpt>
<trkpt lat="32.578090668" lon="35.006313324">
  <ele>158.391846</ele>
  <time>2011-10-25T18:37:03Z</time>
  <speed>7.980000</speed>
</trkpt>
<trkpt lat="32.578056335" lon="35.006233215">
  <ele>157.989502</ele>
  <time>2011-10-25T18:37:04Z</time>
  <speed>7.980000</speed>
</trkpt>
<trkpt lat="32.578025818" lon="35.006156921">
  <ele>157.055908</ele>
  <time>2011-10-25T18:37:05Z</time>
  <speed>8.260000</speed>
</trkpt>
<trkpt lat="32.577999115" lon="35.006084442">
  <ele>155.122314</ele>
  <time>2011-10-25T18:37:06Z</time>
  <speed>6.760000</speed>
</trkpt>
<trkpt lat="32.577968597" lon="35.006023407">
  <ele>154.641846</ele>
  <time>2011-10-25T18:37:07Z</time>
  <speed>6.290000</speed>
</trkpt>
<trkpt lat="32.577938080" lon="35.005970001">
  <ele>153.923096</ele>
  <time>2011-10-25T18:37:08Z</time>
  <speed>6.580000</speed>
</trkpt>
<trkpt lat="32.577903748" lon="35.005912781">
  <ele>153.141846</ele>
  <time>2011-10-25T18:37:09Z</time>
  <speed>7.000000</speed>
</trkpt>
<trkpt lat="32.577873230" lon="35.005855560">
  <ele>151.434814</ele>
  <time>2011-10-25T18:37:10Z</time>
  <speed>7.440000</speed>
</trkpt>
<trkpt lat="32.577846527" lon="35.005786896">
  <ele>150.442627</ele>
  <time>2011-10-25T18:37:11Z</time>
  <speed>8.120000</speed>
</trkpt>
<trkpt lat="32.577812195" lon="35.005699158">
  <ele>149.489502</ele>
  <time>2011-10-25T18:37:12Z</time>
  <speed>8.590000</speed>
</trkpt>
<trkpt lat="32.577781677" lon="35.005611420">
  <ele>148.790283</ele>
  <time>2011-10-25T18:37:13Z</time>
  <speed>8.510000</speed>
</trkpt>
<trkpt lat="32.577758789" lon="35.005531311">
  <ele>148.134033</ele>
  <time>2011-10-25T18:37:14Z</time>
  <speed>7.570000</speed>
</trkpt>
<trkpt lat="32.577735901" lon="35.005462646">
  <ele>148.005127</ele>
  <time>2011-10-25T18:37:15Z</time>
  <speed>6.730000</speed>
</trkpt>
<trkpt lat="32.577716827" lon="35.005397797">
  <ele>147.614502</ele>
  <time>2011-10-25T18:37:16Z</time>
  <speed>7.240000</speed>
</trkpt>
<trkpt lat="32.577690125" lon="35.005317688">
  <ele>146.911377</ele>
  <time>2011-10-25T18:37:17Z</time>
  <speed>7.950000</speed>
</trkpt>
<trkpt lat="32.577655792" lon="35.005237579">
  <ele>146.227783</ele>
  <time>2011-10-25T18:37:18Z</time>
  <speed>8.540000</speed>
</trkpt>
<trkpt lat="32.577617645" lon="35.005172729">
  <ele>145.212158</ele>
  <time>2011-10-25T18:37:19Z</time>
  <speed>7.770000</speed>
</trkpt>
<trkpt lat="32.577579498" lon="35.005107880">
  <ele>144.524658</ele>
  <time>2011-10-25T18:37:20Z</time>
  <speed>7.490000</speed>
</trkpt>
<trkpt lat="32.577533722" lon="35.005043030">
  <ele>143.770752</ele>
  <time>2011-10-25T18:37:21Z</time>
  <speed>7.480000</speed>
</trkpt>
<trkpt lat="32.577499390" lon="35.004985809">
  <ele>142.942627</ele>
  <time>2011-10-25T18:37:22Z</time>
  <speed>5.750000</speed>
</trkpt>
<trkpt lat="32.577491760" lon="35.004932404">
  <ele>142.169189</ele>
  <time>2011-10-25T18:37:23Z</time>
  <speed>4.440000</speed>
</trkpt>
<trkpt lat="32.577495575" lon="35.004882813">
  <ele>142.399658</ele>
  <time>2011-10-25T18:37:24Z</time>
  <speed>5.230000</speed>
</trkpt>
<trkpt lat="32.577503204" lon="35.004829407">
  <ele>141.844971</ele>
  <time>2011-10-25T18:37:25Z</time>
  <speed>5.550000</speed>
</trkpt>
<trkpt lat="32.577503204" lon="35.004756927">
  <ele>141.286377</ele>
  <time>2011-10-25T18:37:26Z</time>
  <speed>7.030000</speed>
</trkpt>
<trkpt lat="32.577510834" lon="35.004684448">
  <ele>140.778564</ele>
  <time>2011-10-25T18:37:27Z</time>
  <speed>6.900000</speed>
</trkpt>
<trkpt lat="32.577522278" lon="35.004604340">
  <ele>140.575439</ele>
  <time>2011-10-25T18:37:28Z</time>
  <speed>7.250000</speed>
</trkpt>
<trkpt lat="32.577510834" lon="35.004528046">
  <ele>140.118408</ele>
  <time>2011-10-25T18:37:29Z</time>
  <speed>7.360000</speed>
</trkpt>
<trkpt lat="32.577514648" lon="35.004451752">
  <ele>139.786377</ele>
  <time>2011-10-25T18:37:30Z</time>
  <speed>6.430000</speed>
</trkpt>
<trkpt lat="32.577503204" lon="35.004398346">
  <ele>139.712158</ele>
  <time>2011-10-25T18:37:31Z</time>
  <speed>4.350000</speed>
</trkpt>
<trkpt lat="32.577499390" lon="35.004367828">
  <ele>139.548096</ele>
  <time>2011-10-25T18:37:32Z</time>
  <speed>2.430000</speed>
</trkpt>
<trkpt lat="32.577491760" lon="35.004322052">
  <ele>142.364502</ele>
  <time>2011-10-25T18:37:48Z</time>
  <speed>2.700000</speed>
</trkpt>
<trkpt lat="32.577484131" lon="35.004276276">
  <ele>143.055908</ele>
  <time>2011-10-25T18:37:49Z</time>
  <speed>3.870000</speed>
</trkpt>
<trkpt lat="32.577480316" lon="35.004222870">
  <ele>143.134033</ele>
  <time>2011-10-25T18:37:50Z</time>
  <speed>4.820000</speed>
</trkpt>
<trkpt lat="32.577491760" lon="35.004158020">
  <ele>143.290283</ele>
  <time>2011-10-25T18:37:51Z</time>
  <speed>5.260000</speed>
</trkpt>
<trkpt lat="32.577491760" lon="35.004104614">
  <ele>143.177002</ele>
  <time>2011-10-25T18:37:52Z</time>
  <speed>5.010000</speed>
</trkpt>
<trkpt lat="32.577491760" lon="35.004051208">
  <ele>143.083252</ele>
  <time>2011-10-25T18:37:53Z</time>
  <speed>5.550000</speed>
</trkpt>
<trkpt lat="32.577484131" lon="35.003974915">
  <ele>143.665283</ele>
  <time>2011-10-25T18:37:54Z</time>
  <speed>5.850000</speed>
</trkpt>
<trkpt lat="32.577484131" lon="35.003898621">
  <ele>144.309814</ele>
  <time>2011-10-25T18:37:55Z</time>
  <speed>6.150000</speed>
</trkpt>
<trkpt lat="32.577480316" lon="35.003837585">
  <ele>144.423096</ele>
  <time>2011-10-25T18:37:56Z</time>
  <speed>5.370000</speed>
</trkpt>
<trkpt lat="32.577468872" lon="35.003772736">
  <ele>144.407471</ele>
  <time>2011-10-25T18:37:57Z</time>
  <speed>5.730000</speed>
</trkpt>
<trkpt lat="32.577445984" lon="35.003719330">
  <ele>144.606689</ele>
  <time>2011-10-25T18:37:58Z</time>
  <speed>5.540000</speed>
</trkpt>
<trkpt lat="32.577426910" lon="35.003662109">
  <ele>145.649658</ele>
  <time>2011-10-25T18:37:59Z</time>
  <speed>5.460000</speed>
</trkpt>
<trkpt lat="32.577404022" lon="35.003650665">
  <ele>143.821533</ele>
  <time>2011-10-25T18:38:00Z</time>
  <speed>4.930000</speed>
</trkpt>
<trkpt lat="32.577362061" lon="35.003616333">
  <ele>143.442627</ele>
  <time>2011-10-25T18:38:01Z</time>
  <speed>6.170000</speed>
</trkpt>
<trkpt lat="32.577308655" lon="35.003574371">
  <ele>142.368408</ele>
  <time>2011-10-25T18:38:02Z</time>
  <speed>6.390000</speed>
</trkpt>
<trkpt lat="32.577262878" lon="35.003524780">
  <ele>141.833252</ele>
  <time>2011-10-25T18:38:03Z</time>
  <speed>5.980000</speed>
</trkpt>
<trkpt lat="32.577255249" lon="35.003463745">
  <ele>141.083252</ele>
  <time>2011-10-25T18:38:04Z</time>
  <speed>5.560000</speed>
</trkpt>
<trkpt lat="32.577274323" lon="35.003410339">
  <ele>140.348877</ele>
  <time>2011-10-25T18:38:05Z</time>
  <speed>5.130000</speed>
</trkpt>
<trkpt lat="32.577297211" lon="35.003360748">
  <ele>139.505127</ele>
  <time>2011-10-25T18:38:06Z</time>
  <speed>4.690000</speed>
</trkpt>
<trkpt lat="32.577304840" lon="35.003303528">
  <ele>139.126221</ele>
  <time>2011-10-25T18:38:07Z</time>
  <speed>5.870000</speed>
</trkpt>
<trkpt lat="32.577304840" lon="35.003238678">
  <ele>138.755127</ele>
  <time>2011-10-25T18:38:08Z</time>
  <speed>5.850000</speed>
</trkpt>
<trkpt lat="32.577293396" lon="35.003170013">
  <ele>137.626221</ele>
  <time>2011-10-25T18:38:09Z</time>
  <speed>6.400000</speed>
</trkpt>
<trkpt lat="32.577278137" lon="35.003097534">
  <ele>137.266846</ele>
  <time>2011-10-25T18:38:10Z</time>
  <speed>6.740000</speed>
</trkpt>
<trkpt lat="32.577262878" lon="35.003025055">
  <ele>136.473877</ele>
  <time>2011-10-25T18:38:11Z</time>
  <speed>6.070000</speed>
</trkpt>
<trkpt lat="32.577262878" lon="35.002960205">
  <ele>136.899658</ele>
  <time>2011-10-25T18:38:12Z</time>
  <speed>4.790000</speed>
</trkpt>
<trkpt lat="32.577262878" lon="35.002902985">
  <ele>136.583252</ele>
  <time>2011-10-25T18:38:13Z</time>
  <speed>5.310000</speed>
</trkpt>
<trkpt lat="32.577251434" lon="35.002853394">
  <ele>136.313721</ele>
  <time>2011-10-25T18:38:14Z</time>
  <speed>5.460000</speed>
</trkpt>
<trkpt lat="32.577239990" lon="35.002788544">
  <ele>135.977783</ele>
  <time>2011-10-25T18:38:15Z</time>
  <speed>6.090000</speed>
</trkpt>
<trkpt lat="32.577217102" lon="35.002712250">
  <ele>135.813721</ele>
  <time>2011-10-25T18:38:16Z</time>
  <speed>6.860000</speed>
</trkpt>
<trkpt lat="32.577190399" lon="35.002647400">
  <ele>135.641846</ele>
  <time>2011-10-25T18:38:17Z</time>
  <speed>6.930000</speed>
</trkpt>
<trkpt lat="32.577163696" lon="35.002586365">
  <ele>135.649658</ele>
  <time>2011-10-25T18:38:18Z</time>
  <speed>5.830000</speed>
</trkpt>
<trkpt lat="32.577140808" lon="35.002544403">
  <ele>135.239502</ele>
  <time>2011-10-25T18:38:19Z</time>
  <speed>3.350000</speed>
</trkpt>
<trkpt lat="32.577117920" lon="35.002513885">
  <ele>136.669189</ele>
  <time>2011-10-25T18:38:21Z</time>
  <speed>0.900000</speed>
</trkpt>
<trkpt lat="32.577106476" lon="35.002487183">
  <ele>137.637939</ele>
  <time>2011-10-25T18:39:06Z</time>
  <speed>0.020000</speed>
</trkpt>
<trkpt lat="32.577064514" lon="35.002460480">
  <ele>137.856689</ele>
  <time>2011-10-25T18:42:13Z</time>
  <speed>2.500000</speed>
</trkpt>
<trkpt lat="32.577007294" lon="35.002437592">
  <ele>136.938721</ele>
  <time>2011-10-25T18:42:15Z</time>
  <speed>3.060000</speed>
</trkpt>
<trkpt lat="32.576980591" lon="35.002418518">
  <ele>136.251221</ele>
  <time>2011-10-25T18:42:16Z</time>
  <speed>2.860000</speed>
</trkpt>
<trkpt lat="32.576957703" lon="35.002399445">
  <ele>135.438721</ele>
  <time>2011-10-25T18:42:17Z</time>
  <speed>2.780000</speed>
</trkpt>
<trkpt lat="32.576931000" lon="35.002388000">
  <ele>135.634033</ele>
  <time>2011-10-25T18:42:18Z</time>
  <speed>2.570000</speed>
</trkpt>
<trkpt lat="32.576900482" lon="35.002353668">
  <ele>137.395752</ele>
  <time>2011-10-25T18:42:20Z</time>
  <speed>1.940000</speed>
</trkpt>
<trkpt lat="32.576866150" lon="35.002307892">
  <ele>139.196533</ele>
  <time>2011-10-25T18:42:22Z</time>
  <speed>3.010000</speed>
</trkpt>
<trkpt lat="32.576847076" lon="35.002277374">
  <ele>139.790283</ele>
  <time>2011-10-25T18:42:23Z</time>
  <speed>3.710000</speed>
</trkpt>
<trkpt lat="32.576816559" lon="35.002258301">
  <ele>139.837158</ele>
  <time>2011-10-25T18:42:24Z</time>
  <speed>4.230000</speed>
</trkpt>
<trkpt lat="32.576778412" lon="35.002250671">
  <ele>140.677002</ele>
  <time>2011-10-25T18:42:25Z</time>
  <speed>4.490000</speed>
</trkpt>
<trkpt lat="32.576736450" lon="35.002243042">
  <ele>141.137939</ele>
  <time>2011-10-25T18:42:26Z</time>
  <speed>4.820000</speed>
</trkpt>
<trkpt lat="32.576675415" lon="35.002231598">
  <ele>142.024658</ele>
  <time>2011-10-25T18:42:27Z</time>
  <speed>5.490000</speed>
</trkpt>
<trkpt lat="32.576625824" lon="35.002243042">
  <ele>142.044189</ele>
  <time>2011-10-25T18:42:28Z</time>
  <speed>5.070000</speed>
</trkpt>
<trkpt lat="32.576587677" lon="35.002254486">
  <ele>142.180908</ele>
  <time>2011-10-25T18:42:29Z</time>
  <speed>4.140000</speed>
</trkpt>
<trkpt lat="32.576549530" lon="35.002254486">
  <ele>142.395752</ele>
  <time>2011-10-25T18:42:30Z</time>
  <speed>3.760000</speed>
</trkpt>
<trkpt lat="32.576519012" lon="35.002250671">
  <ele>142.673096</ele>
  <time>2011-10-25T18:42:31Z</time>
  <speed>2.970000</speed>
</trkpt>
<trkpt lat="32.576488495" lon="35.002246857">
  <ele>143.473877</ele>
  <time>2011-10-25T18:42:32Z</time>
  <speed>3.000000</speed>
</trkpt>
<trkpt lat="32.576442719" lon="35.002246857">
  <ele>144.251221</ele>
  <time>2011-10-25T18:42:34Z</time>
  <speed>2.640000</speed>
</trkpt>
<trkpt lat="32.576419830" lon="35.002265930">
  <ele>144.903564</ele>
  <time>2011-10-25T18:42:35Z</time>
  <speed>2.640000</speed>
</trkpt>
<trkpt lat="32.576396942" lon="35.002288818">
  <ele>144.833252</ele>
  <time>2011-10-25T18:42:36Z</time>
  <speed>3.190000</speed>
</trkpt>
<trkpt lat="32.576366425" lon="35.002315521">
  <ele>144.509033</ele>
  <time>2011-10-25T18:42:37Z</time>
  <speed>3.870000</speed>
</trkpt>
<trkpt lat="32.576339722" lon="35.002349854">
  <ele>144.333252</ele>
  <time>2011-10-25T18:42:38Z</time>
  <speed>3.630000</speed>
</trkpt>
<trkpt lat="32.576320648" lon="35.002384186">
  <ele>144.454346</ele>
  <time>2011-10-25T18:42:39Z</time>
  <speed>3.800000</speed>
</trkpt>
<trkpt lat="32.576293945" lon="35.002414703">
  <ele>144.083252</ele>
  <time>2011-10-25T18:42:40Z</time>
  <speed>3.780000</speed>
</trkpt>
<trkpt lat="32.576271057" lon="35.002445221">
  <ele>144.751221</ele>
  <time>2011-10-25T18:42:41Z</time>
  <speed>3.720000</speed>
</trkpt>
<trkpt lat="32.576244354" lon="35.002471924">
  <ele>145.380127</ele>
  <time>2011-10-25T18:42:42Z</time>
  <speed>3.270000</speed>
</trkpt>
<trkpt lat="32.576217651" lon="35.002506256">
  <ele>145.868408</ele>
  <time>2011-10-25T18:42:43Z</time>
  <speed>3.740000</speed>
</trkpt>
<trkpt lat="32.576187134" lon="35.002521515">
  <ele>146.485596</ele>
  <time>2011-10-25T18:42:44Z</time>
  <speed>3.360000</speed>
</trkpt>
<trkpt lat="32.576160431" lon="35.002532959">
  <ele>146.903564</ele>
  <time>2011-10-25T18:42:45Z</time>
  <speed>3.860000</speed>
</trkpt>
<trkpt lat="32.576126099" lon="35.002540588">
  <ele>146.700439</ele>
  <time>2011-10-25T18:42:46Z</time>
  <speed>3.680000</speed>
</trkpt>
<trkpt lat="32.576099396" lon="35.002555847">
  <ele>146.868408</ele>
  <time>2011-10-25T18:42:47Z</time>
  <speed>3.560000</speed>
</trkpt>
<trkpt lat="32.576072693" lon="35.002571106">
  <ele>147.153564</ele>
  <time>2011-10-25T18:42:48Z</time>
  <speed>3.280000</speed>
</trkpt>
<trkpt lat="32.576049805" lon="35.002593994">
  <ele>147.368408</ele>
  <time>2011-10-25T18:42:49Z</time>
  <speed>3.460000</speed>
</trkpt>
<trkpt lat="32.576026917" lon="35.002616882">
  <ele>147.673096</ele>
  <time>2011-10-25T18:42:50Z</time>
  <speed>3.010000</speed>
</trkpt>
<trkpt lat="32.576004028" lon="35.002639771">
  <ele>146.981689</ele>
  <time>2011-10-25T18:42:51Z</time>
  <speed>2.930000</speed>
</trkpt>
<trkpt lat="32.575954437" lon="35.002670288">
  <ele>146.923096</ele>
  <time>2011-10-25T18:42:53Z</time>
  <speed>2.910000</speed>
</trkpt>
<trkpt lat="32.575931549" lon="35.002696991">
  <ele>146.680908</ele>
  <time>2011-10-25T18:42:54Z</time>
  <speed>2.960000</speed>
</trkpt>
<trkpt lat="32.575904846" lon="35.002719879">
  <ele>146.122314</ele>
  <time>2011-10-25T18:42:55Z</time>
  <speed>2.250000</speed>
</trkpt>
<trkpt lat="32.575866699" lon="35.002754211">
  <ele>145.762939</ele>
  <time>2011-10-25T18:42:57Z</time>
  <speed>3.270000</speed>
</trkpt>
<trkpt lat="32.575809479" lon="35.002788544">
  <ele>146.458252</ele>
  <time>2011-10-25T18:42:59Z</time>
  <speed>3.180000</speed>
</trkpt>
<trkpt lat="32.575756073" lon="35.002822876">
  <ele>145.098877</ele>
  <time>2011-10-25T18:43:01Z</time>
  <speed>2.910000</speed>
</trkpt>
<trkpt lat="32.575733185" lon="35.002841949">
  <ele>145.395752</ele>
  <time>2011-10-25T18:43:02Z</time>
  <speed>1.970000</speed>
</trkpt>
<trkpt lat="32.575702667" lon="35.002880096">
  <ele>144.126221</ele>
  <time>2011-10-25T18:43:04Z</time>
  <speed>1.200000</speed>
</trkpt>
<trkpt lat="32.575668335" lon="35.002899170">
  <ele>143.134033</ele>
  <time>2011-10-25T18:43:07Z</time>
  <speed>1.700000</speed>
</trkpt>
<trkpt lat="32.575634003" lon="35.002895355">
  <ele>143.466064</ele>
  <time>2011-10-25T18:43:09Z</time>
  <speed>2.690000</speed>
</trkpt>
<trkpt lat="32.575607300" lon="35.002880096">
  <ele>142.829346</ele>
  <time>2011-10-25T18:43:10Z</time>
  <speed>2.640000</speed>
</trkpt>
<trkpt lat="32.575576782" lon="35.002849579">
  <ele>141.196533</ele>
  <time>2011-10-25T18:43:12Z</time>
  <speed>2.300000</speed>
</trkpt>
<trkpt lat="32.575542450" lon="35.002845764">
  <ele>140.563721</ele>
  <time>2011-10-25T18:43:14Z</time>
  <speed>1.480000</speed>
</trkpt>
<trkpt lat="32.575515747" lon="35.002849579">
  <ele>139.637939</ele>
  <time>2011-10-25T18:43:16Z</time>
  <speed>1.410000</speed>
</trkpt>
<trkpt lat="32.575477600" lon="35.002849579">
  <ele>139.989502</ele>
  <time>2011-10-25T18:43:18Z</time>
  <speed>2.570000</speed>
</trkpt>
<trkpt lat="32.575424194" lon="35.002861023">
  <ele>139.231689</ele>
  <time>2011-10-25T18:43:20Z</time>
  <speed>3.200000</speed>
</trkpt>
<trkpt lat="32.575382233" lon="35.002891541">
  <ele>138.341064</ele>
  <time>2011-10-25T18:43:21Z</time>
  <speed>4.990000</speed>
</trkpt>
<trkpt lat="32.575347900" lon="35.002929688">
  <ele>137.485596</ele>
  <time>2011-10-25T18:43:22Z</time>
  <speed>5.090000</speed>
</trkpt>
<trkpt lat="32.575309753" lon="35.002956390">
  <ele>136.950439</ele>
  <time>2011-10-25T18:43:23Z</time>
  <speed>5.070000</speed>
</trkpt>
<trkpt lat="32.575260162" lon="35.002971649">
  <ele>136.411377</ele>
  <time>2011-10-25T18:43:24Z</time>
  <speed>4.760000</speed>
</trkpt>
<trkpt lat="32.575225830" lon="35.002983093">
  <ele>135.868408</ele>
  <time>2011-10-25T18:43:25Z</time>
  <speed>4.450000</speed>
</trkpt>
<trkpt lat="32.575176239" lon="35.002990723">
  <ele>135.145752</ele>
  <time>2011-10-25T18:43:26Z</time>
  <speed>4.200000</speed>
</trkpt>
<trkpt lat="32.575141907" lon="35.003017426">
  <ele>133.790283</ele>
  <time>2011-10-25T18:43:27Z</time>
  <speed>3.640000</speed>
</trkpt>
<trkpt lat="32.575107574" lon="35.003055573">
  <ele>133.427002</ele>
  <time>2011-10-25T18:43:28Z</time>
  <speed>4.360000</speed>
</trkpt>
<trkpt lat="32.575080872" lon="35.003093719">
  <ele>132.337158</ele>
  <time>2011-10-25T18:43:29Z</time>
  <speed>4.420000</speed>
</trkpt>
<trkpt lat="32.575050354" lon="35.003139496">
  <ele>132.145752</ele>
  <time>2011-10-25T18:43:30Z</time>
  <speed>4.430000</speed>
</trkpt>
<trkpt lat="32.575016022" lon="35.003166199">
  <ele>132.106689</ele>
  <time>2011-10-25T18:43:31Z</time>
  <speed>3.900000</speed>
</trkpt>
<trkpt lat="32.574977875" lon="35.003185272">
  <ele>131.813721</ele>
  <time>2011-10-25T18:43:32Z</time>
  <speed>3.900000</speed>
</trkpt>
<trkpt lat="32.574935913" lon="35.003196716">
  <ele>130.684814</ele>
  <time>2011-10-25T18:43:33Z</time>
  <speed>4.450000</speed>
</trkpt>
<trkpt lat="32.574901581" lon="35.003219604">
  <ele>130.161377</ele>
  <time>2011-10-25T18:43:34Z</time>
  <speed>4.150000</speed>
</trkpt>
<trkpt lat="32.574855804" lon="35.003265381">
  <ele>128.696533</ele>
  <time>2011-10-25T18:43:35Z</time>
  <speed>6.130000</speed>
</trkpt>
<trkpt lat="32.574817657" lon="35.003322601">
  <ele>127.254517</ele>
  <time>2011-10-25T18:43:36Z</time>
  <speed>5.870000</speed>
</trkpt>
<trkpt lat="32.574790955" lon="35.003379822">
  <ele>126.068970</ele>
  <time>2011-10-25T18:43:37Z</time>
  <speed>5.650000</speed>
</trkpt>
<trkpt lat="32.574745178" lon="35.003429413">
  <ele>125.842407</ele>
  <time>2011-10-25T18:43:38Z</time>
  <speed>5.260000</speed>
</trkpt>
<trkpt lat="32.574710846" lon="35.003471375">
  <ele>124.721313</ele>
  <time>2011-10-25T18:43:39Z</time>
  <speed>5.160000</speed>
</trkpt>
<trkpt lat="32.574661255" lon="35.003505707">
  <ele>123.877563</ele>
  <time>2011-10-25T18:43:40Z</time>
  <speed>6.010000</speed>
</trkpt>
<trkpt lat="32.574615479" lon="35.003528595">
  <ele>123.582642</ele>
  <time>2011-10-25T18:43:41Z</time>
  <speed>4.870000</speed>
</trkpt>
<trkpt lat="32.574573517" lon="35.003528595">
  <ele>123.442017</ele>
  <time>2011-10-25T18:43:42Z</time>
  <speed>4.300000</speed>
</trkpt>
<trkpt lat="32.574523926" lon="35.003520966">
  <ele>122.988892</ele>
  <time>2011-10-25T18:43:43Z</time>
  <speed>4.910000</speed>
</trkpt>
<trkpt lat="32.574478149" lon="35.003517151">
  <ele>123.010376</ele>
  <time>2011-10-25T18:43:44Z</time>
  <speed>5.180000</speed>
</trkpt>
<trkpt lat="32.574436188" lon="35.003505707">
  <ele>125.055298</ele>
  <time>2011-10-25T18:43:45Z</time>
  <speed>4.890000</speed>
</trkpt>
<trkpt lat="32.574394226" lon="35.003513336">
  <ele>124.820923</ele>
  <time>2011-10-25T18:43:46Z</time>
  <speed>4.670000</speed>
</trkpt>
<trkpt lat="32.574329376" lon="35.003509521">
  <ele>125.156860</ele>
  <time>2011-10-25T18:43:47Z</time>
  <speed>4.980000</speed>
</trkpt>
<trkpt lat="32.574287415" lon="35.003517151">
  <ele>125.391235</ele>
  <time>2011-10-25T18:43:48Z</time>
  <speed>4.110000</speed>
</trkpt>
<trkpt lat="32.574260712" lon="35.003532410">
  <ele>126.354126</ele>
  <time>2011-10-25T18:43:49Z</time>
  <speed>3.220000</speed>
</trkpt>
<trkpt lat="32.574214935" lon="35.003528595">
  <ele>126.555298</ele>
  <time>2011-10-25T18:43:51Z</time>
  <speed>2.750000</speed>
</trkpt>
<trkpt lat="32.574184418" lon="35.003528595">
  <ele>127.742798</ele>
  <time>2011-10-25T18:43:52Z</time>
  <speed>2.910000</speed>
</trkpt>
<trkpt lat="32.574157715" lon="35.003540039">
  <ele>128.337158</ele>
  <time>2011-10-25T18:43:53Z</time>
  <speed>2.870000</speed>
</trkpt>
<trkpt lat="32.574123383" lon="35.003551483">
  <ele>128.661377</ele>
  <time>2011-10-25T18:43:54Z</time>
  <speed>3.830000</speed>
</trkpt>
<trkpt lat="32.574092865" lon="35.003582001">
  <ele>129.044189</ele>
  <time>2011-10-25T18:43:55Z</time>
  <speed>3.690000</speed>
</trkpt>
<trkpt lat="32.574066162" lon="35.003608704">
  <ele>128.661377</ele>
  <time>2011-10-25T18:43:56Z</time>
  <speed>3.670000</speed>
</trkpt>
<trkpt lat="32.574039459" lon="35.003623962">
  <ele>129.626221</ele>
  <time>2011-10-25T18:43:57Z</time>
  <speed>3.230000</speed>
</trkpt>
<trkpt lat="32.574012756" lon="35.003650665">
  <ele>129.981689</ele>
  <time>2011-10-25T18:43:58Z</time>
  <speed>3.830000</speed>
</trkpt>
<trkpt lat="32.573986053" lon="35.003684998">
  <ele>129.833252</ele>
  <time>2011-10-25T18:43:59Z</time>
  <speed>3.290000</speed>
</trkpt>
<trkpt lat="32.573963165" lon="35.003715515">
  <ele>129.469971</ele>
  <time>2011-10-25T18:44:00Z</time>
  <speed>3.530000</speed>
</trkpt>
<trkpt lat="32.573932648" lon="35.003734589">
  <ele>129.739502</ele>
  <time>2011-10-25T18:44:01Z</time>
  <speed>3.000000</speed>
</trkpt>
<trkpt lat="32.573909760" lon="35.003749847">
  <ele>129.802002</ele>
  <time>2011-10-25T18:44:02Z</time>
  <speed>2.480000</speed>
</trkpt>
<trkpt lat="32.573863983" lon="35.003768921">
  <ele>130.458252</ele>
  <time>2011-10-25T18:44:04Z</time>
  <speed>3.170000</speed>
</trkpt>
<trkpt lat="32.573833466" lon="35.003780365">
  <ele>130.759033</ele>
  <time>2011-10-25T18:44:05Z</time>
  <speed>3.730000</speed>
</trkpt>
<trkpt lat="32.573791504" lon="35.003795624">
  <ele>131.063721</ele>
  <time>2011-10-25T18:44:06Z</time>
  <speed>4.050000</speed>
</trkpt>
<trkpt lat="32.573760986" lon="35.003803253">
  <ele>130.977783</ele>
  <time>2011-10-25T18:44:07Z</time>
  <speed>3.680000</speed>
</trkpt>
<trkpt lat="32.573730469" lon="35.003807068">
  <ele>131.430908</ele>
  <time>2011-10-25T18:44:08Z</time>
  <speed>4.180000</speed>
</trkpt>
<trkpt lat="32.573703766" lon="35.003818512">
  <ele>131.282471</ele>
  <time>2011-10-25T18:44:09Z</time>
  <speed>3.740000</speed>
</trkpt>
<trkpt lat="32.573677063" lon="35.003841400">
  <ele>131.067627</ele>
  <time>2011-10-25T18:44:10Z</time>
  <speed>2.670000</speed>
</trkpt>
<trkpt lat="32.573650360" lon="35.003864288">
  <ele>130.809814</ele>
  <time>2011-10-25T18:44:11Z</time>
  <speed>3.780000</speed>
</trkpt>
<trkpt lat="32.573608398" lon="35.003887177">
  <ele>130.286377</ele>
  <time>2011-10-25T18:44:12Z</time>
  <speed>4.710000</speed>
</trkpt>
<trkpt lat="32.573574066" lon="35.003917694">
  <ele>130.516846</ele>
  <time>2011-10-25T18:44:13Z</time>
  <speed>4.440000</speed>
</trkpt>
<trkpt lat="32.573532104" lon="35.003948212">
  <ele>130.262939</ele>
  <time>2011-10-25T18:44:14Z</time>
  <speed>4.340000</speed>
</trkpt>
<trkpt lat="32.573486328" lon="35.003978729">
  <ele>129.915283</ele>
  <time>2011-10-25T18:44:15Z</time>
  <speed>4.700000</speed>
</trkpt>
<trkpt lat="32.573448181" lon="35.003993988">
  <ele>130.020752</ele>
  <time>2011-10-25T18:44:16Z</time>
  <speed>3.840000</speed>
</trkpt>
<trkpt lat="32.573417664" lon="35.004005432">
  <ele>129.852783</ele>
  <time>2011-10-25T18:44:17Z</time>
  <speed>2.840000</speed>
</trkpt>
<trkpt lat="32.573387146" lon="35.004016876">
  <ele>129.833252</ele>
  <time>2011-10-25T18:44:18Z</time>
  <speed>2.910000</speed>
</trkpt>
<trkpt lat="32.573356628" lon="35.004047394">
  <ele>128.891846</ele>
  <time>2011-10-25T18:44:19Z</time>
  <speed>3.930000</speed>
</trkpt>
<trkpt lat="32.573326111" lon="35.004081726">
  <ele>128.774658</ele>
  <time>2011-10-25T18:44:20Z</time>
  <speed>3.410000</speed>
</trkpt>
<trkpt lat="32.573299408" lon="35.004116058">
  <ele>128.313721</ele>
  <time>2011-10-25T18:44:21Z</time>
  <speed>3.620000</speed>
</trkpt>
<trkpt lat="32.573268890" lon="35.004150391">
  <ele>128.407471</ele>
  <time>2011-10-25T18:44:22Z</time>
  <speed>3.740000</speed>
</trkpt>
<trkpt lat="32.573257446" lon="35.004192352">
  <ele>128.040283</ele>
  <time>2011-10-25T18:44:23Z</time>
  <speed>3.070000</speed>
</trkpt>
<trkpt lat="32.573246002" lon="35.004245758">
  <ele>127.729126</ele>
  <time>2011-10-25T18:44:24Z</time>
  <speed>3.370000</speed>
</trkpt>
<trkpt lat="32.573242188" lon="35.004295349">
  <ele>127.238892</ele>
  <time>2011-10-25T18:44:25Z</time>
  <speed>3.120000</speed>
</trkpt>
<trkpt lat="32.573226929" lon="35.004337311">
  <ele>127.940063</ele>
  <time>2011-10-25T18:44:26Z</time>
  <speed>2.830000</speed>
</trkpt>
<trkpt lat="32.573211670" lon="35.004379272">
  <ele>127.563110</ele>
  <time>2011-10-25T18:44:27Z</time>
  <speed>2.560000</speed>
</trkpt>
<trkpt lat="32.573200226" lon="35.004417419">
  <ele>127.572876</ele>
  <time>2011-10-25T18:44:28Z</time>
  <speed>2.410000</speed>
</trkpt>
<trkpt lat="32.573196411" lon="35.004459381">
  <ele>128.372314</ele>
  <time>2011-10-25T18:44:30Z</time>
  <speed>1.770000</speed>
</trkpt>
<trkpt lat="32.573169708" lon="35.004486084">
  <ele>129.223877</ele>
  <time>2011-10-25T18:44:32Z</time>
  <speed>2.190000</speed>
</trkpt>
<trkpt lat="32.573150635" lon="35.004543304">
  <ele>130.001221</ele>
  <time>2011-10-25T18:44:34Z</time>
  <speed>2.800000</speed>
</trkpt>
<trkpt lat="32.573112488" lon="35.004592896">
  <ele>131.145752</ele>
  <time>2011-10-25T18:44:36Z</time>
  <speed>2.770000</speed>
</trkpt>
<trkpt lat="32.573093414" lon="35.004615784">
  <ele>132.177002</ele>
  <time>2011-10-25T18:44:37Z</time>
  <speed>2.490000</speed>
</trkpt>
<trkpt lat="32.573062897" lon="35.004692078">
  <ele>131.071533</ele>
  <time>2011-10-25T18:44:39Z</time>
  <speed>2.950000</speed>
</trkpt>
<trkpt lat="32.573051453" lon="35.004730225">
  <ele>130.270752</ele>
  <time>2011-10-25T18:44:40Z</time>
  <speed>2.770000</speed>
</trkpt>
<trkpt lat="32.573043823" lon="35.004776001">
  <ele>129.028564</ele>
  <time>2011-10-25T18:44:41Z</time>
  <speed>3.000000</speed>
</trkpt>
<trkpt lat="32.573043823" lon="35.004810333">
  <ele>129.110596</ele>
  <time>2011-10-25T18:44:42Z</time>
  <speed>2.130000</speed>
</trkpt>
<trkpt lat="32.573043823" lon="35.004844666">
  <ele>128.516846</ele>
  <time>2011-10-25T18:44:43Z</time>
  <speed>2.480000</speed>
</trkpt>
<trkpt lat="32.573040009" lon="35.004878998">
  <ele>128.930908</ele>
  <time>2011-10-25T18:44:44Z</time>
  <speed>3.420000</speed>
</trkpt>
<trkpt lat="32.573040009" lon="35.004917145">
  <ele>129.434814</ele>
  <time>2011-10-25T18:44:45Z</time>
  <speed>2.830000</speed>
</trkpt>
<trkpt lat="32.573024750" lon="35.004959106">
  <ele>128.930908</ele>
  <time>2011-10-25T18:44:46Z</time>
  <speed>3.110000</speed>
</trkpt>
<trkpt lat="32.573020935" lon="35.004997253">
  <ele>128.290283</ele>
  <time>2011-10-25T18:44:47Z</time>
  <speed>3.000000</speed>
</trkpt>
<trkpt lat="32.573013306" lon="35.005035400">
  <ele>127.574829</ele>
  <time>2011-10-25T18:44:48Z</time>
  <speed>2.780000</speed>
</trkpt>
<trkpt lat="32.573001862" lon="35.005088806">
  <ele>126.988892</ele>
  <time>2011-10-25T18:44:50Z</time>
  <speed>2.550000</speed>
</trkpt>
<trkpt lat="32.572998047" lon="35.005157471">
  <ele>126.733032</ele>
  <time>2011-10-25T18:44:52Z</time>
  <speed>2.960000</speed>
</trkpt>
<trkpt lat="32.573001862" lon="35.005187988">
  <ele>126.385376</ele>
  <time>2011-10-25T18:44:53Z</time>
  <speed>3.010000</speed>
</trkpt>
<trkpt lat="32.572994232" lon="35.005229950">
  <ele>126.307251</ele>
  <time>2011-10-25T18:44:54Z</time>
  <speed>3.270000</speed>
</trkpt>
<trkpt lat="32.572990417" lon="35.005264282">
  <ele>126.283813</ele>
  <time>2011-10-25T18:44:55Z</time>
  <speed>3.060000</speed>
</trkpt>
<trkpt lat="32.572990417" lon="35.005302429">
  <ele>126.494751</ele>
  <time>2011-10-25T18:44:56Z</time>
  <speed>3.590000</speed>
</trkpt>
<trkpt lat="32.572986603" lon="35.005340576">
  <ele>126.461548</ele>
  <time>2011-10-25T18:44:57Z</time>
  <speed>3.650000</speed>
</trkpt>
<trkpt lat="32.572982788" lon="35.005374908">
  <ele>126.463501</ele>
  <time>2011-10-25T18:44:58Z</time>
  <speed>3.020000</speed>
</trkpt>
<trkpt lat="32.572975159" lon="35.005409241">
  <ele>125.615845</ele>
  <time>2011-10-25T18:44:59Z</time>
  <speed>3.350000</speed>
</trkpt>
<trkpt lat="32.572967529" lon="35.005443573">
  <ele>125.520142</ele>
  <time>2011-10-25T18:45:00Z</time>
  <speed>2.960000</speed>
</trkpt>
<trkpt lat="32.572952271" lon="35.005500793">
  <ele>124.703735</ele>
  <time>2011-10-25T18:45:02Z</time>
  <speed>2.560000</speed>
</trkpt>
<trkpt lat="32.572956085" lon="35.005546570">
  <ele>125.512329</ele>
  <time>2011-10-25T18:45:04Z</time>
  <speed>1.970000</speed>
</trkpt>
<trkpt lat="32.572967529" lon="35.005596161">
  <ele>125.381470</ele>
  <time>2011-10-25T18:45:06Z</time>
  <speed>2.450000</speed>
</trkpt>
<trkpt lat="32.572978973" lon="35.005641937">
  <ele>125.453735</ele>
  <time>2011-10-25T18:45:08Z</time>
  <speed>1.890000</speed>
</trkpt>
<trkpt lat="32.572982788" lon="35.005680084">
  <ele>124.697876</ele>
  <time>2011-10-25T18:45:10Z</time>
  <speed>1.210000</speed>
</trkpt>
<trkpt lat="32.572967529" lon="35.005718231">
  <ele>125.020142</ele>
  <time>2011-10-25T18:45:13Z</time>
  <speed>1.080000</speed>
</trkpt>
<trkpt lat="32.572967529" lon="35.005760193">
  <ele>124.531860</ele>
  <time>2011-10-25T18:45:16Z</time>
  <speed>1.340000</speed>
</trkpt>
<trkpt lat="32.572978973" lon="35.005798340">
  <ele>123.516235</ele>
  <time>2011-10-25T18:45:20Z</time>
  <speed>0.390000</speed>
</trkpt>
<trkpt lat="32.573020935" lon="35.005802155">
  <ele>125.746704</ele>
  <time>2011-10-25T18:45:21Z</time>
  <speed>0.370000</speed>
</trkpt>
<trkpt lat="32.572994232" lon="35.005809784">
  <ele>127.229126</ele>
  <time>2011-10-25T18:45:40Z</time>
  <speed>1.690000</speed>
</trkpt>
<trkpt lat="32.572986603" lon="35.005844116">
  <ele>127.420532</ele>
  <time>2011-10-25T18:45:41Z</time>
  <speed>2.360000</speed>
</trkpt>
<trkpt lat="32.572975159" lon="35.005878448">
  <ele>127.264282</ele>
  <time>2011-10-25T18:45:43Z</time>
  <speed>1.930000</speed>
</trkpt>
<trkpt lat="32.572963715" lon="35.005920410">
  <ele>127.151001</ele>
  <time>2011-10-25T18:45:45Z</time>
  <speed>2.130000</speed>
</trkpt>
<trkpt lat="32.572952271" lon="35.005962372">
  <ele>127.791626</ele>
  <time>2011-10-25T18:45:47Z</time>
  <speed>1.760000</speed>
</trkpt>
<trkpt lat="32.572937012" lon="35.005989075">
  <ele>128.212158</ele>
  <time>2011-10-25T18:45:48Z</time>
  <speed>3.740000</speed>
</trkpt>
<trkpt lat="32.572910309" lon="35.006011963">
  <ele>128.712158</ele>
  <time>2011-10-25T18:45:49Z</time>
  <speed>4.360000</speed>
</trkpt>
<trkpt lat="32.572872162" lon="35.006038666">
  <ele>129.188721</ele>
  <time>2011-10-25T18:45:50Z</time>
  <speed>5.010000</speed>
</trkpt>
<trkpt lat="32.572837830" lon="35.006080627">
  <ele>129.071533</ele>
  <time>2011-10-25T18:45:51Z</time>
  <speed>5.550000</speed>
</trkpt>
<trkpt lat="32.572803497" lon="35.006122589">
  <ele>129.200439</ele>
  <time>2011-10-25T18:45:52Z</time>
  <speed>6.050000</speed>
</trkpt>
<trkpt lat="32.572769165" lon="35.006172180">
  <ele>128.735596</ele>
  <time>2011-10-25T18:45:53Z</time>
  <speed>5.800000</speed>
</trkpt>
<trkpt lat="32.572738647" lon="35.006225586">
  <ele>128.337158</ele>
  <time>2011-10-25T18:45:54Z</time>
  <speed>6.100000</speed>
</trkpt>
<trkpt lat="32.572711945" lon="35.006286621">
  <ele>128.059814</ele>
  <time>2011-10-25T18:45:55Z</time>
  <speed>6.250000</speed>
</trkpt>
<trkpt lat="32.572696686" lon="35.006351471">
  <ele>127.690063</ele>
  <time>2011-10-25T18:45:56Z</time>
  <speed>5.590000</speed>
</trkpt>
<trkpt lat="32.572689056" lon="35.006408691">
  <ele>127.018188</ele>
  <time>2011-10-25T18:45:57Z</time>
  <speed>4.950000</speed>
</trkpt>
<trkpt lat="32.572689056" lon="35.006458282">
  <ele>127.043579</ele>
  <time>2011-10-25T18:45:58Z</time>
  <speed>3.850000</speed>
</trkpt>
<trkpt lat="32.572685242" lon="35.006504059">
  <ele>126.469360</ele>
  <time>2011-10-25T18:45:59Z</time>
  <speed>3.760000</speed>
</trkpt>
<trkpt lat="32.572673798" lon="35.006546021">
  <ele>126.070923</ele>
  <time>2011-10-25T18:46:00Z</time>
  <speed>4.180000</speed>
</trkpt>
<trkpt lat="32.572658539" lon="35.006591797">
  <ele>125.473267</ele>
  <time>2011-10-25T18:46:01Z</time>
  <speed>4.890000</speed>
</trkpt>
<trkpt lat="32.572647095" lon="35.006645203">
  <ele>124.959595</ele>
  <time>2011-10-25T18:46:02Z</time>
  <speed>5.450000</speed>
</trkpt>
<trkpt lat="32.572639465" lon="35.006702423">
  <ele>124.820923</ele>
  <time>2011-10-25T18:46:03Z</time>
  <speed>5.480000</speed>
</trkpt>
<trkpt lat="32.572635651" lon="35.006763458">
  <ele>124.070923</ele>
  <time>2011-10-25T18:46:04Z</time>
  <speed>5.120000</speed>
</trkpt>
<trkpt lat="32.572631836" lon="35.006816864">
  <ele>123.752563</ele>
  <time>2011-10-25T18:46:05Z</time>
  <speed>4.990000</speed>
</trkpt>
<trkpt lat="32.572635651" lon="35.006877899">
  <ele>123.203735</ele>
  <time>2011-10-25T18:46:06Z</time>
  <speed>5.680000</speed>
</trkpt>
<trkpt lat="32.572631836" lon="35.006942749">
  <ele>123.104126</ele>
  <time>2011-10-25T18:46:07Z</time>
  <speed>6.240000</speed>
</trkpt>
<trkpt lat="32.572620392" lon="35.007015228">
  <ele>123.203735</ele>
  <time>2011-10-25T18:46:08Z</time>
  <speed>6.350000</speed>
</trkpt>
<trkpt lat="32.572616577" lon="35.007083893">
  <ele>122.967407</ele>
  <time>2011-10-25T18:46:09Z</time>
  <speed>6.510000</speed>
</trkpt>
<trkpt lat="32.572605133" lon="35.007148743">
  <ele>122.031860</ele>
  <time>2011-10-25T18:46:10Z</time>
  <speed>6.190000</speed>
</trkpt>
<trkpt lat="32.572586060" lon="35.007190704">
  <ele>121.791626</ele>
  <time>2011-10-25T18:46:11Z</time>
  <speed>2.360000</speed>
</trkpt>
<trkpt lat="32.572547913" lon="35.007217407">
  <ele>121.391235</ele>
  <time>2011-10-25T18:46:13Z</time>
  <speed>1.350000</speed>
</trkpt>
<trkpt lat="32.572551727" lon="35.007255554">
  <ele>120.246704</ele>
  <time>2011-10-25T18:46:16Z</time>
  <speed>1.520000</speed>
</trkpt>
<trkpt lat="32.572574615" lon="35.007278442">
  <ele>119.615845</ele>
  <time>2011-10-25T18:46:18Z</time>
  <speed>2.460000</speed>
</trkpt>
<trkpt lat="32.572586060" lon="35.007305145">
  <ele>119.100220</ele>
  <time>2011-10-25T18:46:19Z</time>
  <speed>3.140000</speed>
</trkpt>
<trkpt lat="32.572605133" lon="35.007331848">
  <ele>118.563110</ele>
  <time>2011-10-25T18:46:20Z</time>
  <speed>3.170000</speed>
</trkpt>
<trkpt lat="32.572620392" lon="35.007358551">
  <ele>118.361938</ele>
  <time>2011-10-25T18:46:21Z</time>
  <speed>2.900000</speed>
</trkpt>
<trkpt lat="32.572643280" lon="35.007385254">
  <ele>117.815063</ele>
  <time>2011-10-25T18:46:22Z</time>
  <speed>3.860000</speed>
</trkpt>
<trkpt lat="32.572673798" lon="35.007400513">
  <ele>118.231079</ele>
  <time>2011-10-25T18:46:23Z</time>
  <speed>4.050000</speed>
</trkpt>
<trkpt lat="32.572711945" lon="35.007427216">
  <ele>119.065063</ele>
  <time>2011-10-25T18:46:24Z</time>
  <speed>3.980000</speed>
</trkpt>
<trkpt lat="32.572734833" lon="35.007453918">
  <ele>118.994751</ele>
  <time>2011-10-25T18:46:25Z</time>
  <speed>3.850000</speed>
</trkpt>
<trkpt lat="32.572761536" lon="35.007495880">
  <ele>118.885376</ele>
  <time>2011-10-25T18:46:26Z</time>
  <speed>4.290000</speed>
</trkpt>
<trkpt lat="32.572784424" lon="35.007530212">
  <ele>119.340454</ele>
  <time>2011-10-25T18:46:27Z</time>
  <speed>3.860000</speed>
</trkpt>
<trkpt lat="32.572803497" lon="35.007568359">
  <ele>119.193970</ele>
  <time>2011-10-25T18:46:28Z</time>
  <speed>4.350000</speed>
</trkpt>
<trkpt lat="32.572830200" lon="35.007606506">
  <ele>119.129517</ele>
  <time>2011-10-25T18:46:29Z</time>
  <speed>4.560000</speed>
</trkpt>
<trkpt lat="32.572856903" lon="35.007652283">
  <ele>119.131470</ele>
  <time>2011-10-25T18:46:30Z</time>
  <speed>5.000000</speed>
</trkpt>
<trkpt lat="32.572883606" lon="35.007701874">
  <ele>119.092407</ele>
  <time>2011-10-25T18:46:31Z</time>
  <speed>5.070000</speed>
</trkpt>
<trkpt lat="32.572898865" lon="35.007747650">
  <ele>119.059204</ele>
  <time>2011-10-25T18:46:32Z</time>
  <speed>4.790000</speed>
</trkpt>
<trkpt lat="32.572917938" lon="35.007801056">
  <ele>118.660767</ele>
  <time>2011-10-25T18:46:33Z</time>
  <speed>4.920000</speed>
</trkpt>
<trkpt lat="32.572944641" lon="35.007843018">
  <ele>118.592407</ele>
  <time>2011-10-25T18:46:34Z</time>
  <speed>4.660000</speed>
</trkpt>
<trkpt lat="32.572971344" lon="35.007877350">
  <ele>118.348267</ele>
  <time>2011-10-25T18:46:35Z</time>
  <speed>4.210000</speed>
</trkpt>
<trkpt lat="32.572994232" lon="35.007923126">
  <ele>117.526001</ele>
  <time>2011-10-25T18:46:36Z</time>
  <speed>4.130000</speed>
</trkpt>
<trkpt lat="32.573013306" lon="35.007961273">
  <ele>116.910767</ele>
  <time>2011-10-25T18:46:37Z</time>
  <speed>4.410000</speed>
</trkpt>
<trkpt lat="32.573036194" lon="35.008003235">
  <ele>116.484985</ele>
  <time>2011-10-25T18:46:38Z</time>
  <speed>4.000000</speed>
</trkpt>
<trkpt lat="32.573059082" lon="35.008037567">
  <ele>116.815063</ele>
  <time>2011-10-25T18:46:39Z</time>
  <speed>4.360000</speed>
</trkpt>
<trkpt lat="32.573081970" lon="35.008079529">
  <ele>116.621704</ele>
  <time>2011-10-25T18:46:40Z</time>
  <speed>4.400000</speed>
</trkpt>
<trkpt lat="32.573097229" lon="35.008113861">
  <ele>116.686157</ele>
  <time>2011-10-25T18:46:41Z</time>
  <speed>4.280000</speed>
</trkpt>
<trkpt lat="32.573127747" lon="35.008144379">
  <ele>117.221313</ele>
  <time>2011-10-25T18:46:42Z</time>
  <speed>4.250000</speed>
</trkpt>
<trkpt lat="32.573162079" lon="35.008171082">
  <ele>118.910767</ele>
  <time>2011-10-25T18:46:43Z</time>
  <speed>4.070000</speed>
</trkpt>
<trkpt lat="32.573192596" lon="35.008193970">
  <ele>118.375610</ele>
  <time>2011-10-25T18:46:44Z</time>
  <speed>4.390000</speed>
</trkpt>
<trkpt lat="32.573226929" lon="35.008224487">
  <ele>118.088501</ele>
  <time>2011-10-25T18:46:45Z</time>
  <speed>4.120000</speed>
</trkpt>
<trkpt lat="32.573249817" lon="35.008255005">
  <ele>117.959595</ele>
  <time>2011-10-25T18:46:46Z</time>
  <speed>3.850000</speed>
</trkpt>
<trkpt lat="32.573268890" lon="35.008285522">
  <ele>117.262329</ele>
  <time>2011-10-25T18:46:47Z</time>
  <speed>3.990000</speed>
</trkpt>
<trkpt lat="32.573295593" lon="35.008319855">
  <ele>117.084595</ele>
  <time>2011-10-25T18:46:48Z</time>
  <speed>4.340000</speed>
</trkpt>
<trkpt lat="32.573322296" lon="35.008350372">
  <ele>116.428345</ele>
  <time>2011-10-25T18:46:49Z</time>
  <speed>4.070000</speed>
</trkpt>
<trkpt lat="32.573352814" lon="35.008380890">
  <ele>115.822876</ele>
  <time>2011-10-25T18:46:50Z</time>
  <speed>4.360000</speed>
</trkpt>
<trkpt lat="32.573379517" lon="35.008407593">
  <ele>115.399048</ele>
  <time>2011-10-25T18:46:51Z</time>
  <speed>4.280000</speed>
</trkpt>
<trkpt lat="32.573410034" lon="35.008434296">
  <ele>114.824829</ele>
  <time>2011-10-25T18:46:52Z</time>
  <speed>4.010000</speed>
</trkpt>
<trkpt lat="32.573440552" lon="35.008453369">
  <ele>115.365845</ele>
  <time>2011-10-25T18:46:53Z</time>
  <speed>3.840000</speed>
</trkpt>
<trkpt lat="32.573471069" lon="35.008468628">
  <ele>116.029907</ele>
  <time>2011-10-25T18:46:54Z</time>
  <speed>3.090000</speed>
</trkpt>
<trkpt lat="32.573516846" lon="35.008491516">
  <ele>118.131470</ele>
  <time>2011-10-25T18:46:56Z</time>
  <speed>2.370000</speed>
</trkpt>
<trkpt lat="32.573551178" lon="35.008522034">
  <ele>118.203735</ele>
  <time>2011-10-25T18:46:58Z</time>
  <speed>2.430000</speed>
</trkpt>
<trkpt lat="32.573581696" lon="35.008575439">
  <ele>117.994751</ele>
  <time>2011-10-25T18:47:00Z</time>
  <speed>3.120000</speed>
</trkpt>
<trkpt lat="32.573596954" lon="35.008602142">
  <ele>118.580688</ele>
  <time>2011-10-25T18:47:01Z</time>
  <speed>3.200000</speed>
</trkpt>
<trkpt lat="32.573616028" lon="35.008628845">
  <ele>119.209595</ele>
  <time>2011-10-25T18:47:02Z</time>
  <speed>3.480000</speed>
</trkpt>
<trkpt lat="32.573627472" lon="35.008666992">
  <ele>119.367798</ele>
  <time>2011-10-25T18:47:03Z</time>
  <speed>3.630000</speed>
</trkpt>
<trkpt lat="32.573646545" lon="35.008693695">
  <ele>120.143188</ele>
  <time>2011-10-25T18:47:04Z</time>
  <speed>2.860000</speed>
</trkpt>
<trkpt lat="32.573673248" lon="35.008754730">
  <ele>121.918579</ele>
  <time>2011-10-25T18:47:06Z</time>
  <speed>3.360000</speed>
</trkpt>
<trkpt lat="32.573688507" lon="35.008785248">
  <ele>122.313110</ele>
  <time>2011-10-25T18:47:07Z</time>
  <speed>3.210000</speed>
</trkpt>
<trkpt lat="32.573699951" lon="35.008819580">
  <ele>122.615845</ele>
  <time>2011-10-25T18:47:08Z</time>
  <speed>3.480000</speed>
</trkpt>
<trkpt lat="32.573715210" lon="35.008850098">
  <ele>123.035767</ele>
  <time>2011-10-25T18:47:09Z</time>
  <speed>3.410000</speed>
</trkpt>
<trkpt lat="32.573719025" lon="35.008892059">
  <ele>123.629517</ele>
  <time>2011-10-25T18:47:10Z</time>
  <speed>3.830000</speed>
</trkpt>
<trkpt lat="32.573734283" lon="35.008926392">
  <ele>123.943970</ele>
  <time>2011-10-25T18:47:11Z</time>
  <speed>3.600000</speed>
</trkpt>
<trkpt lat="32.573749542" lon="35.008960724">
  <ele>123.748657</ele>
  <time>2011-10-25T18:47:12Z</time>
  <speed>3.420000</speed>
</trkpt>
<trkpt lat="32.573772430" lon="35.008987427">
  <ele>123.695923</ele>
  <time>2011-10-25T18:47:13Z</time>
  <speed>3.800000</speed>
</trkpt>
<trkpt lat="32.573791504" lon="35.009014130">
  <ele>124.260376</ele>
  <time>2011-10-25T18:47:14Z</time>
  <speed>3.570000</speed>
</trkpt>
<trkpt lat="32.573810577" lon="35.009033203">
  <ele>123.506470</ele>
  <time>2011-10-25T18:47:15Z</time>
  <speed>3.730000</speed>
</trkpt>
<trkpt lat="32.573833466" lon="35.009056091">
  <ele>123.121704</ele>
  <time>2011-10-25T18:47:16Z</time>
  <speed>3.650000</speed>
</trkpt>
<trkpt lat="32.573860168" lon="35.009078979">
  <ele>122.348267</ele>
  <time>2011-10-25T18:47:17Z</time>
  <speed>3.530000</speed>
</trkpt>
<trkpt lat="32.573883057" lon="35.009105682">
  <ele>122.432251</ele>
  <time>2011-10-25T18:47:18Z</time>
  <speed>3.480000</speed>
</trkpt>
<trkpt lat="32.573909760" lon="35.009132385">
  <ele>121.983032</ele>
  <time>2011-10-25T18:47:19Z</time>
  <speed>3.520000</speed>
</trkpt>
<trkpt lat="32.573928833" lon="35.009159088">
  <ele>122.192017</ele>
  <time>2011-10-25T18:47:20Z</time>
  <speed>3.790000</speed>
</trkpt>
<trkpt lat="32.573947906" lon="35.009189606">
  <ele>121.820923</ele>
  <time>2011-10-25T18:47:21Z</time>
  <speed>3.280000</speed>
</trkpt>
<trkpt lat="32.573970795" lon="35.009216309">
  <ele>122.063110</ele>
  <time>2011-10-25T18:47:22Z</time>
  <speed>3.470000</speed>
</trkpt>
<trkpt lat="32.573989868" lon="35.009243011">
  <ele>122.250610</ele>
  <time>2011-10-25T18:47:23Z</time>
  <speed>3.480000</speed>
</trkpt>
<trkpt lat="32.574012756" lon="35.009273529">
  <ele>121.902954</ele>
  <time>2011-10-25T18:47:24Z</time>
  <speed>3.220000</speed>
</trkpt>
<trkpt lat="32.574031830" lon="35.009300232">
  <ele>121.797485</ele>
  <time>2011-10-25T18:47:25Z</time>
  <speed>3.230000</speed>
</trkpt>
<trkpt lat="32.574047089" lon="35.009326935">
  <ele>121.613892</ele>
  <time>2011-10-25T18:47:26Z</time>
  <speed>3.190000</speed>
</trkpt>
<trkpt lat="32.574081421" lon="35.009372711">
  <ele>121.428345</ele>
  <time>2011-10-25T18:47:28Z</time>
  <speed>3.100000</speed>
</trkpt>
<trkpt lat="32.574108124" lon="35.009391785">
  <ele>122.805298</ele>
  <time>2011-10-25T18:47:29Z</time>
  <speed>2.840000</speed>
</trkpt>
<trkpt lat="32.574131012" lon="35.009407043">
  <ele>124.289673</ele>
  <time>2011-10-25T18:47:30Z</time>
  <speed>2.630000</speed>
</trkpt>
<trkpt lat="32.574153900" lon="35.009422302">
  <ele>124.744751</ele>
  <time>2011-10-25T18:47:31Z</time>
  <speed>2.810000</speed>
</trkpt>
<trkpt lat="32.574184418" lon="35.009429932">
  <ele>126.276001</ele>
  <time>2011-10-25T18:47:32Z</time>
  <speed>2.690000</speed>
</trkpt>
<trkpt lat="32.574207306" lon="35.009445190">
  <ele>126.336548</ele>
  <time>2011-10-25T18:47:33Z</time>
  <speed>2.490000</speed>
</trkpt>
<trkpt lat="32.574249268" lon="35.009475708">
  <ele>126.617798</ele>
  <time>2011-10-25T18:47:35Z</time>
  <speed>2.550000</speed>
</trkpt>
<trkpt lat="32.574279785" lon="35.009521484">
  <ele>126.125610</ele>
  <time>2011-10-25T18:47:37Z</time>
  <speed>2.880000</speed>
</trkpt>
<trkpt lat="32.574295044" lon="35.009548187">
  <ele>126.324829</ele>
  <time>2011-10-25T18:47:38Z</time>
  <speed>3.000000</speed>
</trkpt>
<trkpt lat="32.574321747" lon="35.009597778">
  <ele>126.442017</ele>
  <time>2011-10-25T18:47:40Z</time>
  <speed>2.810000</speed>
</trkpt>
<trkpt lat="32.574356079" lon="35.009635925">
  <ele>125.729126</ele>
  <time>2011-10-25T18:47:42Z</time>
  <speed>2.730000</speed>
</trkpt>
<trkpt lat="32.574382782" lon="35.009677887">
  <ele>125.008423</ele>
  <time>2011-10-25T18:47:44Z</time>
  <speed>2.950000</speed>
</trkpt>
<trkpt lat="32.574409485" lon="35.009696960">
  <ele>124.830688</ele>
  <time>2011-10-25T18:47:45Z</time>
  <speed>3.000000</speed>
</trkpt>
<trkpt lat="32.574443817" lon="35.009742737">
  <ele>124.160767</ele>
  <time>2011-10-25T18:47:47Z</time>
  <speed>2.710000</speed>
</trkpt>
<trkpt lat="32.574466705" lon="35.009796143">
  <ele>124.258423</ele>
  <time>2011-10-25T18:47:49Z</time>
  <speed>2.800000</speed>
</trkpt>
<trkpt lat="32.574474335" lon="35.009857178">
  <ele>123.670532</ele>
  <time>2011-10-25T18:47:51Z</time>
  <speed>2.720000</speed>
</trkpt>
<trkpt lat="32.574474335" lon="35.009922028">
  <ele>124.047485</ele>
  <time>2011-10-25T18:47:53Z</time>
  <speed>2.800000</speed>
</trkpt>
<trkpt lat="32.574466705" lon="35.009975433">
  <ele>123.709595</ele>
  <time>2011-10-25T18:47:55Z</time>
  <speed>2.200000</speed>
</trkpt>
<trkpt lat="32.574455261" lon="35.010028839">
  <ele>124.633423</ele>
  <time>2011-10-25T18:47:57Z</time>
  <speed>2.250000</speed>
</trkpt>
<trkpt lat="32.574466705" lon="35.010078430">
  <ele>124.963501</ele>
  <time>2011-10-25T18:47:59Z</time>
  <speed>2.040000</speed>
</trkpt>
<trkpt lat="32.574485779" lon="35.010128021">
  <ele>125.947876</ele>
  <time>2011-10-25T18:48:01Z</time>
  <speed>2.050000</speed>
</trkpt>
<trkpt lat="32.574504852" lon="35.010154724">
  <ele>126.387329</ele>
  <time>2011-10-25T18:48:02Z</time>
  <speed>2.280000</speed>
</trkpt>
<trkpt lat="32.574520111" lon="35.010181427">
  <ele>128.567627</ele>
  <time>2011-10-25T18:48:04Z</time>
  <speed>1.550000</speed>
</trkpt>
<trkpt lat="32.574539185" lon="35.010211945">
  <ele>128.473877</ele>
  <time>2011-10-25T18:48:06Z</time>
  <speed>1.670000</speed>
</trkpt>
<trkpt lat="32.574558258" lon="35.010253906">
  <ele>128.423096</ele>
  <time>2011-10-25T18:48:09Z</time>
  <speed>1.720000</speed>
</trkpt>
<trkpt lat="32.574584961" lon="35.010284424">
  <ele>129.887939</ele>
  <time>2011-10-25T18:48:11Z</time>
  <speed>1.950000</speed>
</trkpt>
<trkpt lat="32.574611664" lon="35.010311127">
  <ele>130.180908</ele>
  <time>2011-10-25T18:48:13Z</time>
  <speed>1.910000</speed>
</trkpt>
<trkpt lat="32.574634552" lon="35.010341644">
  <ele>131.091064</ele>
  <time>2011-10-25T18:48:15Z</time>
  <speed>1.500000</speed>
</trkpt>
<trkpt lat="32.574661255" lon="35.010368347">
  <ele>131.790283</ele>
  <time>2011-10-25T18:48:17Z</time>
  <speed>2.110000</speed>
</trkpt>
<trkpt lat="32.574680328" lon="35.010402679">
  <ele>133.493408</ele>
  <time>2011-10-25T18:48:19Z</time>
  <speed>1.550000</speed>
</trkpt>
<trkpt lat="32.574691772" lon="35.010429382">
  <ele>134.243408</ele>
  <time>2011-10-25T18:48:21Z</time>
  <speed>1.370000</speed>
</trkpt>
<trkpt lat="32.574699402" lon="35.010459900">
  <ele>135.337158</ele>
  <time>2011-10-25T18:48:23Z</time>
  <speed>1.430000</speed>
</trkpt>
<trkpt lat="32.574729919" lon="35.010490417">
  <ele>135.130127</ele>
  <time>2011-10-25T18:48:26Z</time>
  <speed>1.170000</speed>
</trkpt>
<trkpt lat="32.574760437" lon="35.010524750">
  <ele>135.024658</ele>
  <time>2011-10-25T18:48:29Z</time>
  <speed>1.330000</speed>
</trkpt>
<trkpt lat="32.574787140" lon="35.010543823">
  <ele>135.399658</ele>
  <time>2011-10-25T18:48:31Z</time>
  <speed>1.770000</speed>
</trkpt>
<trkpt lat="32.574806213" lon="35.010570526">
  <ele>136.356689</ele>
  <time>2011-10-25T18:48:33Z</time>
  <speed>1.660000</speed>
</trkpt>
<trkpt lat="32.574825287" lon="35.010601044">
  <ele>137.009033</ele>
  <time>2011-10-25T18:48:35Z</time>
  <speed>1.700000</speed>
</trkpt>
<trkpt lat="32.574848175" lon="35.010627747">
  <ele>137.309814</ele>
  <time>2011-10-25T18:48:37Z</time>
  <speed>1.740000</speed>
</trkpt>
<trkpt lat="32.574871063" lon="35.010654449">
  <ele>138.380127</ele>
  <time>2011-10-25T18:48:39Z</time>
  <speed>2.010000</speed>
</trkpt>
<trkpt lat="32.574893951" lon="35.010684967">
  <ele>139.434814</ele>
  <time>2011-10-25T18:48:41Z</time>
  <speed>1.530000</speed>
</trkpt>
<trkpt lat="32.574916840" lon="35.010704041">
  <ele>139.391846</ele>
  <time>2011-10-25T18:48:43Z</time>
  <speed>0.990000</speed>
</trkpt>
<trkpt lat="32.574943542" lon="35.010723114">
  <ele>140.071533</ele>
  <time>2011-10-25T18:48:45Z</time>
  <speed>1.400000</speed>
</trkpt>
<trkpt lat="32.574981689" lon="35.010730743">
  <ele>141.196533</ele>
  <time>2011-10-25T18:48:47Z</time>
  <speed>1.820000</speed>
</trkpt>
<trkpt lat="32.575008392" lon="35.010753632">
  <ele>141.290283</ele>
  <time>2011-10-25T18:48:49Z</time>
  <speed>1.680000</speed>
</trkpt>
<trkpt lat="32.575046539" lon="35.010765076">
  <ele>141.829346</ele>
  <time>2011-10-25T18:48:51Z</time>
  <speed>1.730000</speed>
</trkpt>
<trkpt lat="32.575077057" lon="35.010780334">
  <ele>141.735596</ele>
  <time>2011-10-25T18:48:53Z</time>
  <speed>1.900000</speed>
</trkpt>
<trkpt lat="32.575111389" lon="35.010803223">
  <ele>142.884033</ele>
  <time>2011-10-25T18:48:56Z</time>
  <speed>1.990000</speed>
</trkpt>
<trkpt lat="32.575149536" lon="35.010822296">
  <ele>144.302002</ele>
  <time>2011-10-25T18:48:59Z</time>
  <speed>1.860000</speed>
</trkpt>
<trkpt lat="32.575191498" lon="35.010829926">
  <ele>145.262939</ele>
  <time>2011-10-25T18:49:01Z</time>
  <speed>1.870000</speed>
</trkpt>
<trkpt lat="32.575225830" lon="35.010845184">
  <ele>146.653564</ele>
  <time>2011-10-25T18:49:03Z</time>
  <speed>1.810000</speed>
</trkpt>
<trkpt lat="32.575260162" lon="35.010856628">
  <ele>147.395752</ele>
  <time>2011-10-25T18:49:05Z</time>
  <speed>1.610000</speed>
</trkpt>
<trkpt lat="32.575290680" lon="35.010883331">
  <ele>149.001221</ele>
  <time>2011-10-25T18:49:08Z</time>
  <speed>1.540000</speed>
</trkpt>
<trkpt lat="32.575309753" lon="35.010910034">
  <ele>148.825439</ele>
  <time>2011-10-25T18:49:10Z</time>
  <speed>1.600000</speed>
</trkpt>
<trkpt lat="32.575340271" lon="35.010929108">
  <ele>149.559814</ele>
  <time>2011-10-25T18:49:12Z</time>
  <speed>1.470000</speed>
</trkpt>
<trkpt lat="32.575366974" lon="35.010967255">
  <ele>149.368408</ele>
  <time>2011-10-25T18:49:15Z</time>
  <speed>1.550000</speed>
</trkpt>
<trkpt lat="32.575389862" lon="35.010986328">
  <ele>149.895752</ele>
  <time>2011-10-25T18:49:17Z</time>
  <speed>1.910000</speed>
</trkpt>
<trkpt lat="32.575431824" lon="35.011001587">
  <ele>150.235596</ele>
  <time>2011-10-25T18:49:19Z</time>
  <speed>2.080000</speed>
</trkpt>
<trkpt lat="32.575458527" lon="35.011020660">
  <ele>151.102783</ele>
  <time>2011-10-25T18:49:21Z</time>
  <speed>1.620000</speed>
</trkpt>
<trkpt lat="32.575485229" lon="35.011035919">
  <ele>151.755127</ele>
  <time>2011-10-25T18:49:23Z</time>
  <speed>1.960000</speed>
</trkpt>
<trkpt lat="32.575508118" lon="35.011051178">
  <ele>152.212158</ele>
  <time>2011-10-25T18:49:25Z</time>
  <speed>1.440000</speed>
</trkpt>
<trkpt lat="32.575542450" lon="35.011070251">
  <ele>152.247314</ele>
  <time>2011-10-25T18:49:28Z</time>
  <speed>1.650000</speed>
</trkpt>
<trkpt lat="32.575565338" lon="35.011089325">
  <ele>152.821533</ele>
  <time>2011-10-25T18:49:30Z</time>
  <speed>1.510000</speed>
</trkpt>
<trkpt lat="32.575595856" lon="35.011096954">
  <ele>151.934814</ele>
  <time>2011-10-25T18:49:32Z</time>
  <speed>1.300000</speed>
</trkpt>
<trkpt lat="32.575622559" lon="35.011112213">
  <ele>152.212158</ele>
  <time>2011-10-25T18:49:34Z</time>
  <speed>1.680000</speed>
</trkpt>
<trkpt lat="32.575645447" lon="35.011127472">
  <ele>153.141846</ele>
  <time>2011-10-25T18:49:36Z</time>
  <speed>1.760000</speed>
</trkpt>
<trkpt lat="32.575668335" lon="35.011146545">
  <ele>153.481689</ele>
  <time>2011-10-25T18:49:38Z</time>
  <speed>1.760000</speed>
</trkpt>
<trkpt lat="32.575702667" lon="35.011177063">
  <ele>154.344971</ele>
  <time>2011-10-25T18:49:41Z</time>
  <speed>1.700000</speed>
</trkpt>
<trkpt lat="32.575729370" lon="35.011188507">
  <ele>154.727783</ele>
  <time>2011-10-25T18:49:43Z</time>
  <speed>1.500000</speed>
</trkpt>
<trkpt lat="32.575759888" lon="35.011203766">
  <ele>155.423096</ele>
  <time>2011-10-25T18:49:45Z</time>
  <speed>1.410000</speed>
</trkpt>
<trkpt lat="32.575786591" lon="35.011226654">
  <ele>155.969971</ele>
  <time>2011-10-25T18:49:48Z</time>
  <speed>1.300000</speed>
</trkpt>
<trkpt lat="32.575805664" lon="35.011260986">
  <ele>156.028564</ele>
  <time>2011-10-25T18:49:51Z</time>
  <speed>1.280000</speed>
</trkpt>
<trkpt lat="32.575828552" lon="35.011287689">
  <ele>156.825439</ele>
  <time>2011-10-25T18:49:54Z</time>
  <speed>1.430000</speed>
</trkpt>
<trkpt lat="32.575862885" lon="35.011299133">
  <ele>157.118408</ele>
  <time>2011-10-25T18:49:56Z</time>
  <speed>1.570000</speed>
</trkpt>
<trkpt lat="32.575889587" lon="35.011310577">
  <ele>158.059814</ele>
  <time>2011-10-25T18:49:58Z</time>
  <speed>1.610000</speed>
</trkpt>
<trkpt lat="32.575912476" lon="35.011337280">
  <ele>157.278564</ele>
  <time>2011-10-25T18:50:00Z</time>
  <speed>1.670000</speed>
</trkpt>
<trkpt lat="32.575939178" lon="35.011352539">
  <ele>157.266846</ele>
  <time>2011-10-25T18:50:02Z</time>
  <speed>1.880000</speed>
</trkpt>
<trkpt lat="32.575965881" lon="35.011367798">
  <ele>157.102783</ele>
  <time>2011-10-25T18:50:04Z</time>
  <speed>1.850000</speed>
</trkpt>
<trkpt lat="32.575988770" lon="35.011394501">
  <ele>157.122314</ele>
  <time>2011-10-25T18:50:06Z</time>
  <speed>1.560000</speed>
</trkpt>
<trkpt lat="32.576011658" lon="35.011425018">
  <ele>156.665283</ele>
  <time>2011-10-25T18:50:08Z</time>
  <speed>1.850000</speed>
</trkpt>
<trkpt lat="32.576034546" lon="35.011451721">
  <ele>156.309814</ele>
  <time>2011-10-25T18:50:10Z</time>
  <speed>1.740000</speed>
</trkpt>
<trkpt lat="32.576061249" lon="35.011474609">
  <ele>155.587158</ele>
  <time>2011-10-25T18:50:12Z</time>
  <speed>1.380000</speed>
</trkpt>
<trkpt lat="32.576080322" lon="35.011501312">
  <ele>154.985596</ele>
  <time>2011-10-25T18:50:14Z</time>
  <speed>1.550000</speed>
</trkpt>
<trkpt lat="32.576095581" lon="35.011535645">
  <ele>155.020752</ele>
  <time>2011-10-25T18:50:16Z</time>
  <speed>1.670000</speed>
</trkpt>
<trkpt lat="32.576133728" lon="35.011550903">
  <ele>155.309814</ele>
  <time>2011-10-25T18:50:18Z</time>
  <speed>1.760000</speed>
</trkpt>
<trkpt lat="32.576168060" lon="35.011569977">
  <ele>155.130127</ele>
  <time>2011-10-25T18:50:20Z</time>
  <speed>2.000000</speed>
</trkpt>
<trkpt lat="32.576202393" lon="35.011577606">
  <ele>154.716064</ele>
  <time>2011-10-25T18:50:22Z</time>
  <speed>1.590000</speed>
</trkpt>
<trkpt lat="32.576225281" lon="35.011600494">
  <ele>156.520752</ele>
  <time>2011-10-25T18:50:24Z</time>
  <speed>1.680000</speed>
</trkpt>
<trkpt lat="32.576251984" lon="35.011623383">
  <ele>156.821533</ele>
  <time>2011-10-25T18:50:26Z</time>
  <speed>1.830000</speed>
</trkpt>
<trkpt lat="32.576290131" lon="35.011634827">
  <ele>156.837158</ele>
  <time>2011-10-25T18:50:28Z</time>
  <speed>1.590000</speed>
</trkpt>
<trkpt lat="32.576313019" lon="35.011650085">
  <ele>156.583252</ele>
  <time>2011-10-25T18:50:30Z</time>
  <speed>1.770000</speed>
</trkpt>
<trkpt lat="32.576358795" lon="35.011661530">
  <ele>156.977783</ele>
  <time>2011-10-25T18:50:33Z</time>
  <speed>1.750000</speed>
</trkpt>
<trkpt lat="32.576389313" lon="35.011672974">
  <ele>157.770752</ele>
  <time>2011-10-25T18:50:35Z</time>
  <speed>1.510000</speed>
</trkpt>
<trkpt lat="32.576416016" lon="35.011699677">
  <ele>157.110596</ele>
  <time>2011-10-25T18:50:38Z</time>
  <speed>1.160000</speed>
</trkpt>
<trkpt lat="32.576454163" lon="35.011718750">
  <ele>157.274658</ele>
  <time>2011-10-25T18:50:41Z</time>
  <speed>1.360000</speed>
</trkpt>
<trkpt lat="32.576480865" lon="35.011737823">
  <ele>156.997314</ele>
  <time>2011-10-25T18:50:43Z</time>
  <speed>1.410000</speed>
</trkpt>
<trkpt lat="32.576499939" lon="35.011760712">
  <ele>157.653564</ele>
  <time>2011-10-25T18:50:45Z</time>
  <speed>1.460000</speed>
</trkpt>
<trkpt lat="32.576515198" lon="35.011787415">
  <ele>159.438721</ele>
  <time>2011-10-25T18:50:47Z</time>
  <speed>1.740000</speed>
</trkpt>
<trkpt lat="32.576526642" lon="35.011817932">
  <ele>160.231689</ele>
  <time>2011-10-25T18:50:49Z</time>
  <speed>1.430000</speed>
</trkpt>
<trkpt lat="32.576557159" lon="35.011837006">
  <ele>159.782471</ele>
  <time>2011-10-25T18:50:51Z</time>
  <speed>1.400000</speed>
</trkpt>
<trkpt lat="32.576587677" lon="35.011844635">
  <ele>159.977783</ele>
  <time>2011-10-25T18:50:53Z</time>
  <speed>1.670000</speed>
</trkpt>
<trkpt lat="32.576610565" lon="35.011875153">
  <ele>160.938721</ele>
  <time>2011-10-25T18:50:56Z</time>
  <speed>1.600000</speed>
</trkpt>
<trkpt lat="32.576637268" lon="35.011890411">
  <ele>161.352783</ele>
  <time>2011-10-25T18:50:58Z</time>
  <speed>1.210000</speed>
</trkpt>
<trkpt lat="32.576671600" lon="35.011905670">
  <ele>162.692627</ele>
  <time>2011-10-25T18:51:01Z</time>
  <speed>1.630000</speed>
</trkpt>
<trkpt lat="32.576694489" lon="35.011928558">
  <ele>162.829346</ele>
  <time>2011-10-25T18:51:03Z</time>
  <speed>1.500000</speed>
</trkpt>
<trkpt lat="32.576717377" lon="35.011947632">
  <ele>163.473877</ele>
  <time>2011-10-25T18:51:05Z</time>
  <speed>1.110000</speed>
</trkpt>
<trkpt lat="32.576747894" lon="35.011970520">
  <ele>164.602783</ele>
  <time>2011-10-25T18:51:08Z</time>
  <speed>1.720000</speed>
</trkpt>
<trkpt lat="32.576782227" lon="35.011985779">
  <ele>165.184814</ele>
  <time>2011-10-25T18:51:11Z</time>
  <speed>1.190000</speed>
</trkpt>
<trkpt lat="32.576808929" lon="35.011997223">
  <ele>166.329346</ele>
  <time>2011-10-25T18:51:13Z</time>
  <speed>0.860000</speed>
</trkpt>
<trkpt lat="32.576839447" lon="35.012012482">
  <ele>167.716064</ele>
  <time>2011-10-25T18:51:16Z</time>
  <speed>1.390000</speed>
</trkpt>
<trkpt lat="32.576862335" lon="35.012050629">
  <ele>167.938721</ele>
  <time>2011-10-25T18:51:19Z</time>
  <speed>1.390000</speed>
</trkpt>
<trkpt lat="32.576869965" lon="35.012092590">
  <ele>167.497314</ele>
  <time>2011-10-25T18:51:22Z</time>
  <speed>1.480000</speed>
</trkpt>
<trkpt lat="32.576854706" lon="35.012130737">
  <ele>167.141846</ele>
  <time>2011-10-25T18:51:24Z</time>
  <speed>1.520000</speed>
</trkpt>
<trkpt lat="32.576854706" lon="35.012168884">
  <ele>167.427002</ele>
  <time>2011-10-25T18:51:26Z</time>
  <speed>1.680000</speed>
</trkpt>
<trkpt lat="32.576847076" lon="35.012210846">
  <ele>167.278564</ele>
  <time>2011-10-25T18:51:29Z</time>
  <speed>1.510000</speed>
</trkpt>
<trkpt lat="32.576808929" lon="35.012241364">
  <ele>167.403564</ele>
  <time>2011-10-25T18:51:31Z</time>
  <speed>1.840000</speed>
</trkpt>
<trkpt lat="32.576778412" lon="35.012279510">
  <ele>168.059814</ele>
  <time>2011-10-25T18:51:33Z</time>
  <speed>1.980000</speed>
</trkpt>
<trkpt lat="32.576747894" lon="35.012313843">
  <ele>168.680908</ele>
  <time>2011-10-25T18:51:35Z</time>
  <speed>1.920000</speed>
</trkpt>
<trkpt lat="32.576725006" lon="35.012332916">
  <ele>168.520752</ele>
  <time>2011-10-25T18:51:36Z</time>
  <speed>2.300000</speed>
</trkpt>
<trkpt lat="32.576694489" lon="35.012367249">
  <ele>168.966064</ele>
  <time>2011-10-25T18:51:38Z</time>
  <speed>2.110000</speed>
</trkpt>
<trkpt lat="32.576660156" lon="35.012401581">
  <ele>169.204346</ele>
  <time>2011-10-25T18:51:40Z</time>
  <speed>1.780000</speed>
</trkpt>
<trkpt lat="32.576633453" lon="35.012432098">
  <ele>168.813721</ele>
  <time>2011-10-25T18:51:42Z</time>
  <speed>2.010000</speed>
</trkpt>
<trkpt lat="32.576606750" lon="35.012466431">
  <ele>169.173096</ele>
  <time>2011-10-25T18:51:44Z</time>
  <speed>1.510000</speed>
</trkpt>
<trkpt lat="32.576576233" lon="35.012500763">
  <ele>169.509033</ele>
  <time>2011-10-25T18:51:46Z</time>
  <speed>1.770000</speed>
</trkpt>
<trkpt lat="32.576553345" lon="35.012546539">
  <ele>170.817627</ele>
  <time>2011-10-25T18:51:48Z</time>
  <speed>1.830000</speed>
</trkpt>
<trkpt lat="32.576541901" lon="35.012592316">
  <ele>171.442627</ele>
  <time>2011-10-25T18:51:50Z</time>
  <speed>1.800000</speed>
</trkpt>
<trkpt lat="32.576522827" lon="35.012626648">
  <ele>171.173096</ele>
  <time>2011-10-25T18:51:52Z</time>
  <speed>1.940000</speed>
</trkpt>
<trkpt lat="32.576499939" lon="35.012657166">
  <ele>170.958252</ele>
  <time>2011-10-25T18:51:54Z</time>
  <speed>1.750000</speed>
</trkpt>
<trkpt lat="32.576469421" lon="35.012695313">
  <ele>170.274658</ele>
  <time>2011-10-25T18:51:56Z</time>
  <speed>2.100000</speed>
</trkpt>
<trkpt lat="32.576446533" lon="35.012725830">
  <ele>170.153564</ele>
  <time>2011-10-25T18:51:58Z</time>
  <speed>2.120000</speed>
</trkpt>
<trkpt lat="32.576412201" lon="35.012760162">
  <ele>169.696533</ele>
  <time>2011-10-25T18:52:00Z</time>
  <speed>2.120000</speed>
</trkpt>
<trkpt lat="32.576374054" lon="35.012790680">
  <ele>169.782471</ele>
  <time>2011-10-25T18:52:02Z</time>
  <speed>2.200000</speed>
</trkpt>
<trkpt lat="32.576354980" lon="35.012813568">
  <ele>169.923096</ele>
  <time>2011-10-25T18:52:03Z</time>
  <speed>2.550000</speed>
</trkpt>
<trkpt lat="32.576324463" lon="35.012851715">
  <ele>169.567627</ele>
  <time>2011-10-25T18:52:05Z</time>
  <speed>2.790000</speed>
</trkpt>
<trkpt lat="32.576301575" lon="35.012889862">
  <ele>169.661377</ele>
  <time>2011-10-25T18:52:07Z</time>
  <speed>1.630000</speed>
</trkpt>
<trkpt lat="32.576278687" lon="35.012931824">
  <ele>169.223877</ele>
  <time>2011-10-25T18:52:09Z</time>
  <speed>2.380000</speed>
</trkpt>
<trkpt lat="32.576259613" lon="35.012985229">
  <ele>169.341064</ele>
  <time>2011-10-25T18:52:11Z</time>
  <speed>2.360000</speed>
</trkpt>
<trkpt lat="32.576240540" lon="35.013038635">
  <ele>169.778564</ele>
  <time>2011-10-25T18:52:13Z</time>
  <speed>2.430000</speed>
</trkpt>
<trkpt lat="32.576236725" lon="35.013092041">
  <ele>170.794189</ele>
  <time>2011-10-25T18:52:15Z</time>
  <speed>2.030000</speed>
</trkpt>
<trkpt lat="32.576221466" lon="35.013145447">
  <ele>170.841064</ele>
  <time>2011-10-25T18:52:17Z</time>
  <speed>2.240000</speed>
</trkpt>
<trkpt lat="32.576202393" lon="35.013187408">
  <ele>170.348877</ele>
  <time>2011-10-25T18:52:19Z</time>
  <speed>2.120000</speed>
</trkpt>
<trkpt lat="32.576187134" lon="35.013225555">
  <ele>170.473877</ele>
  <time>2011-10-25T18:52:21Z</time>
  <speed>1.670000</speed>
</trkpt>
<trkpt lat="32.576179504" lon="35.013271332">
  <ele>171.567627</ele>
  <time>2011-10-25T18:52:23Z</time>
  <speed>1.850000</speed>
</trkpt>
<trkpt lat="32.576164246" lon="35.013309479">
  <ele>172.110596</ele>
  <time>2011-10-25T18:52:25Z</time>
  <speed>1.830000</speed>
</trkpt>
<trkpt lat="32.576148987" lon="35.013355255">
  <ele>172.809814</ele>
  <time>2011-10-25T18:52:27Z</time>
  <speed>2.120000</speed>
</trkpt>
<trkpt lat="32.576145172" lon="35.013404846">
  <ele>173.216064</ele>
  <time>2011-10-25T18:52:29Z</time>
  <speed>1.660000</speed>
</trkpt>
<trkpt lat="32.576126099" lon="35.013446808">
  <ele>173.798096</ele>
  <time>2011-10-25T18:52:32Z</time>
  <speed>1.330000</speed>
</trkpt>
<trkpt lat="32.576103210" lon="35.013446808">
  <ele>175.903564</ele>
  <time>2011-10-25T18:56:31Z</time>
  <speed>1.390000</speed>
</trkpt>
<trkpt lat="32.576068878" lon="35.013450623">
  <ele>176.602783</ele>
  <time>2011-10-25T18:56:33Z</time>
  <speed>1.790000</speed>
</trkpt>
<trkpt lat="32.576034546" lon="35.013446808">
  <ele>176.290283</ele>
  <time>2011-10-25T18:56:35Z</time>
  <speed>2.090000</speed>
</trkpt>
<trkpt lat="32.576004028" lon="35.013450623">
  <ele>176.087158</ele>
  <time>2011-10-25T18:56:36Z</time>
  <speed>2.660000</speed>
</trkpt>
<trkpt lat="32.575954437" lon="35.013450623">
  <ele>176.520752</ele>
  <time>2011-10-25T18:56:38Z</time>
  <speed>2.840000</speed>
</trkpt>
<trkpt lat="32.575923920" lon="35.013446808">
  <ele>177.489502</ele>
  <time>2011-10-25T18:56:39Z</time>
  <speed>2.980000</speed>
</trkpt>
<trkpt lat="32.575878143" lon="35.013435364">
  <ele>177.958252</ele>
  <time>2011-10-25T18:56:41Z</time>
  <speed>2.890000</speed>
</trkpt>
<trkpt lat="32.575828552" lon="35.013435364">
  <ele>178.923096</ele>
  <time>2011-10-25T18:56:43Z</time>
  <speed>2.700000</speed>
</trkpt>
<trkpt lat="32.575798035" lon="35.013435364">
  <ele>179.352783</ele>
  <time>2011-10-25T18:56:44Z</time>
  <speed>2.840000</speed>
</trkpt>
<trkpt lat="32.575748444" lon="35.013427734">
  <ele>179.942627</ele>
  <time>2011-10-25T18:56:46Z</time>
  <speed>2.320000</speed>
</trkpt>
<trkpt lat="32.575695038" lon="35.013431549">
  <ele>180.563721</ele>
  <time>2011-10-25T18:56:48Z</time>
  <speed>2.550000</speed>
</trkpt>
<trkpt lat="32.575649261" lon="35.013439178">
  <ele>179.469971</ele>
  <time>2011-10-25T18:56:50Z</time>
  <speed>2.980000</speed>
</trkpt>
<trkpt lat="32.575595856" lon="35.013446808">
  <ele>179.977783</ele>
  <time>2011-10-25T18:56:52Z</time>
  <speed>3.410000</speed>
</trkpt>
<trkpt lat="32.575565338" lon="35.013450623">
  <ele>179.770752</ele>
  <time>2011-10-25T18:56:53Z</time>
  <speed>3.590000</speed>
</trkpt>
<trkpt lat="32.575531006" lon="35.013454437">
  <ele>179.786377</ele>
  <time>2011-10-25T18:56:54Z</time>
  <speed>3.600000</speed>
</trkpt>
<trkpt lat="32.575500488" lon="35.013465881">
  <ele>180.173096</ele>
  <time>2011-10-25T18:56:55Z</time>
  <speed>3.420000</speed>
</trkpt>
<trkpt lat="32.575466156" lon="35.013477325">
  <ele>179.665283</ele>
  <time>2011-10-25T18:56:56Z</time>
  <speed>3.520000</speed>
</trkpt>
<trkpt lat="32.575435638" lon="35.013484955">
  <ele>179.934814</ele>
  <time>2011-10-25T18:56:57Z</time>
  <speed>3.170000</speed>
</trkpt>
<trkpt lat="32.575374603" lon="35.013496399">
  <ele>180.126221</ele>
  <time>2011-10-25T18:56:59Z</time>
  <speed>3.480000</speed>
</trkpt>
<trkpt lat="32.575347900" lon="35.013496399">
  <ele>180.626221</ele>
  <time>2011-10-25T18:57:00Z</time>
  <speed>3.500000</speed>
</trkpt>
<trkpt lat="32.575313568" lon="35.013504028">
  <ele>180.708252</ele>
  <time>2011-10-25T18:57:01Z</time>
  <speed>3.760000</speed>
</trkpt>
<trkpt lat="32.575275421" lon="35.013511658">
  <ele>180.473877</ele>
  <time>2011-10-25T18:57:02Z</time>
  <speed>3.510000</speed>
</trkpt>
<trkpt lat="32.575252533" lon="35.013519287">
  <ele>181.059814</ele>
  <time>2011-10-25T18:57:03Z</time>
  <speed>3.360000</speed>
</trkpt>
<trkpt lat="32.575222015" lon="35.013526917">
  <ele>181.169189</ele>
  <time>2011-10-25T18:57:04Z</time>
  <speed>3.280000</speed>
</trkpt>
<trkpt lat="32.575191498" lon="35.013534546">
  <ele>180.774658</ele>
  <time>2011-10-25T18:57:05Z</time>
  <speed>2.950000</speed>
</trkpt>
<trkpt lat="32.575164795" lon="35.013545990">
  <ele>180.520752</ele>
  <time>2011-10-25T18:57:06Z</time>
  <speed>3.200000</speed>
</trkpt>
<trkpt lat="32.575134277" lon="35.013557434">
  <ele>179.989502</ele>
  <time>2011-10-25T18:57:07Z</time>
  <speed>3.570000</speed>
</trkpt>
<trkpt lat="32.575103760" lon="35.013576508">
  <ele>179.352783</ele>
  <time>2011-10-25T18:57:08Z</time>
  <speed>4.060000</speed>
</trkpt>
<trkpt lat="32.575077057" lon="35.013599396">
  <ele>180.059814</ele>
  <time>2011-10-25T18:57:09Z</time>
  <speed>3.940000</speed>
</trkpt>
<trkpt lat="32.575042725" lon="35.013618469">
  <ele>179.157471</ele>
  <time>2011-10-25T18:57:10Z</time>
  <speed>4.480000</speed>
</trkpt>
<trkpt lat="32.575000763" lon="35.013641357">
  <ele>179.247314</ele>
  <time>2011-10-25T18:57:11Z</time>
  <speed>4.360000</speed>
</trkpt>
<trkpt lat="32.574966431" lon="35.013652802">
  <ele>179.255127</ele>
  <time>2011-10-25T18:57:12Z</time>
  <speed>4.620000</speed>
</trkpt>
<trkpt lat="32.574928284" lon="35.013664246">
  <ele>178.985596</ele>
  <time>2011-10-25T18:57:13Z</time>
  <speed>4.870000</speed>
</trkpt>
<trkpt lat="32.574882507" lon="35.013671875">
  <ele>179.020752</ele>
  <time>2011-10-25T18:57:14Z</time>
  <speed>4.440000</speed>
</trkpt>
<trkpt lat="32.574844360" lon="35.013675690">
  <ele>178.395752</ele>
  <time>2011-10-25T18:57:15Z</time>
  <speed>4.270000</speed>
</trkpt>
<trkpt lat="32.574802399" lon="35.013683319">
  <ele>177.727783</ele>
  <time>2011-10-25T18:57:16Z</time>
  <speed>5.040000</speed>
</trkpt>
<trkpt lat="32.574760437" lon="35.013694763">
  <ele>177.266846</ele>
  <time>2011-10-25T18:57:17Z</time>
  <speed>5.190000</speed>
</trkpt>
<trkpt lat="32.574714661" lon="35.013706207">
  <ele>177.680908</ele>
  <time>2011-10-25T18:57:18Z</time>
  <speed>4.910000</speed>
</trkpt>
<trkpt lat="32.574668884" lon="35.013713837">
  <ele>177.192627</ele>
  <time>2011-10-25T18:57:19Z</time>
  <speed>5.260000</speed>
</trkpt>
<trkpt lat="32.574623108" lon="35.013710022">
  <ele>177.009033</ele>
  <time>2011-10-25T18:57:20Z</time>
  <speed>5.140000</speed>
</trkpt>
<trkpt lat="32.574581146" lon="35.013702393">
  <ele>176.532471</ele>
  <time>2011-10-25T18:57:21Z</time>
  <speed>4.980000</speed>
</trkpt>
<trkpt lat="32.574539185" lon="35.013687134">
  <ele>176.540283</ele>
  <time>2011-10-25T18:57:22Z</time>
  <speed>5.280000</speed>
</trkpt>
<trkpt lat="32.574489594" lon="35.013671875">
  <ele>176.645752</ele>
  <time>2011-10-25T18:57:23Z</time>
  <speed>5.700000</speed>
</trkpt>
<trkpt lat="32.574436188" lon="35.013671875">
  <ele>176.391846</ele>
  <time>2011-10-25T18:57:24Z</time>
  <speed>6.340000</speed>
</trkpt>
<trkpt lat="32.574371338" lon="35.013675690">
  <ele>175.438721</ele>
  <time>2011-10-25T18:57:25Z</time>
  <speed>6.560000</speed>
</trkpt>
<trkpt lat="32.574310303" lon="35.013687134">
  <ele>174.637939</ele>
  <time>2011-10-25T18:57:26Z</time>
  <speed>6.940000</speed>
</trkpt>
<trkpt lat="32.574245453" lon="35.013698578">
  <ele>173.559814</ele>
  <time>2011-10-25T18:57:27Z</time>
  <speed>7.200000</speed>
</trkpt>
<trkpt lat="32.574180603" lon="35.013706207">
  <ele>173.309814</ele>
  <time>2011-10-25T18:57:28Z</time>
  <speed>7.350000</speed>
</trkpt>
<trkpt lat="32.574119568" lon="35.013706207">
  <ele>173.567627</ele>
  <time>2011-10-25T18:57:29Z</time>
  <speed>6.720000</speed>
</trkpt>
<trkpt lat="32.574058533" lon="35.013687134">
  <ele>173.364502</ele>
  <time>2011-10-25T18:57:30Z</time>
  <speed>6.740000</speed>
</trkpt>
<trkpt lat="32.574005127" lon="35.013668060">
  <ele>173.380127</ele>
  <time>2011-10-25T18:57:31Z</time>
  <speed>6.580000</speed>
</trkpt>
<trkpt lat="32.573951721" lon="35.013652802">
  <ele>173.012939</ele>
  <time>2011-10-25T18:57:32Z</time>
  <speed>6.490000</speed>
</trkpt>
<trkpt lat="32.573898315" lon="35.013652802">
  <ele>172.216064</ele>
  <time>2011-10-25T18:57:33Z</time>
  <speed>5.680000</speed>
</trkpt>
<trkpt lat="32.573841095" lon="35.013671875">
  <ele>171.243408</ele>
  <time>2011-10-25T18:57:34Z</time>
  <speed>5.550000</speed>
</trkpt>
<trkpt lat="32.573791504" lon="35.013687134">
  <ele>171.001221</ele>
  <time>2011-10-25T18:57:35Z</time>
  <speed>5.120000</speed>
</trkpt>
<trkpt lat="32.573741913" lon="35.013702393">
  <ele>170.173096</ele>
  <time>2011-10-25T18:57:36Z</time>
  <speed>5.890000</speed>
</trkpt>
<trkpt lat="32.573692322" lon="35.013713837">
  <ele>169.427002</ele>
  <time>2011-10-25T18:57:37Z</time>
  <speed>5.170000</speed>
</trkpt>
<trkpt lat="32.573646545" lon="35.013725281">
  <ele>168.411377</ele>
  <time>2011-10-25T18:57:38Z</time>
  <speed>4.640000</speed>
</trkpt>
<trkpt lat="32.573608398" lon="35.013732910">
  <ele>168.106689</ele>
  <time>2011-10-25T18:57:39Z</time>
  <speed>3.470000</speed>
</trkpt>
<trkpt lat="32.573581696" lon="35.013732910">
  <ele>167.055908</ele>
  <time>2011-10-25T18:57:40Z</time>
  <speed>2.740000</speed>
</trkpt>
<trkpt lat="32.573543549" lon="35.013732910">
  <ele>165.665283</ele>
  <time>2011-10-25T18:57:42Z</time>
  <speed>1.600000</speed>
</trkpt>
<trkpt lat="32.573513031" lon="35.013748169">
  <ele>164.294189</ele>
  <time>2011-10-25T18:57:44Z</time>
  <speed>2.310000</speed>
</trkpt>
<trkpt lat="32.573474884" lon="35.013751984">
  <ele>163.661377</ele>
  <time>2011-10-25T18:57:46Z</time>
  <speed>2.540000</speed>
</trkpt>
<trkpt lat="32.573429108" lon="35.013732910">
  <ele>163.833252</ele>
  <time>2011-10-25T18:57:48Z</time>
  <speed>3.480000</speed>
</trkpt>
<trkpt lat="32.573394775" lon="35.013729095">
  <ele>162.868408</ele>
  <time>2011-10-25T18:57:49Z</time>
  <speed>3.890000</speed>
</trkpt>
<trkpt lat="32.573348999" lon="35.013736725">
  <ele>162.544189</ele>
  <time>2011-10-25T18:57:50Z</time>
  <speed>5.210000</speed>
</trkpt>
<trkpt lat="32.573303223" lon="35.013748169">
  <ele>161.868408</ele>
  <time>2011-10-25T18:57:51Z</time>
  <speed>5.270000</speed>
</trkpt>
<trkpt lat="32.573257446" lon="35.013759613">
  <ele>161.102783</ele>
  <time>2011-10-25T18:57:52Z</time>
  <speed>5.210000</speed>
</trkpt>
<trkpt lat="32.573207855" lon="35.013790131">
  <ele>160.673096</ele>
  <time>2011-10-25T18:57:53Z</time>
  <speed>5.360000</speed>
</trkpt>
<trkpt lat="32.573165894" lon="35.013820648">
  <ele>160.188721</ele>
  <time>2011-10-25T18:57:54Z</time>
  <speed>4.510000</speed>
</trkpt>
<trkpt lat="32.573123932" lon="35.013847351">
  <ele>158.993408</ele>
  <time>2011-10-25T18:57:55Z</time>
  <speed>4.980000</speed>
</trkpt>
<trkpt lat="32.573078156" lon="35.013866425">
  <ele>157.985596</ele>
  <time>2011-10-25T18:57:56Z</time>
  <speed>5.320000</speed>
</trkpt>
<trkpt lat="32.573028564" lon="35.013877869">
  <ele>157.196533</ele>
  <time>2011-10-25T18:57:57Z</time>
  <speed>5.000000</speed>
</trkpt>
<trkpt lat="32.572986603" lon="35.013900757">
  <ele>156.716064</ele>
  <time>2011-10-25T18:57:58Z</time>
  <speed>4.040000</speed>
</trkpt>
<trkpt lat="32.572952271" lon="35.013919830">
  <ele>156.126221</ele>
  <time>2011-10-25T18:57:59Z</time>
  <speed>4.170000</speed>
</trkpt>
<trkpt lat="32.572910309" lon="35.013935089">
  <ele>155.665283</ele>
  <time>2011-10-25T18:58:00Z</time>
  <speed>4.640000</speed>
</trkpt>
<trkpt lat="32.572856903" lon="35.013942719">
  <ele>154.985596</ele>
  <time>2011-10-25T18:58:01Z</time>
  <speed>5.900000</speed>
</trkpt>
<trkpt lat="32.572803497" lon="35.013954163">
  <ele>153.813721</ele>
  <time>2011-10-25T18:58:02Z</time>
  <speed>5.600000</speed>
</trkpt>
<trkpt lat="32.572757721" lon="35.013969421">
  <ele>152.962158</ele>
  <time>2011-10-25T18:58:03Z</time>
  <speed>4.620000</speed>
</trkpt>
<trkpt lat="32.572715759" lon="35.013969421">
  <ele>152.055908</ele>
  <time>2011-10-25T18:58:04Z</time>
  <speed>3.950000</speed>
</trkpt>
<trkpt lat="32.572681427" lon="35.013969421">
  <ele>151.227783</ele>
  <time>2011-10-25T18:58:05Z</time>
  <speed>3.630000</speed>
</trkpt>
<trkpt lat="32.572647095" lon="35.013984680">
  <ele>150.571533</ele>
  <time>2011-10-25T18:58:06Z</time>
  <speed>3.380000</speed>
</trkpt>
<trkpt lat="32.572612762" lon="35.014003754">
  <ele>151.403564</ele>
  <time>2011-10-25T18:58:07Z</time>
  <speed>3.680000</speed>
</trkpt>
<trkpt lat="32.572578430" lon="35.014019012">
  <ele>150.509033</ele>
  <time>2011-10-25T18:58:08Z</time>
  <speed>4.370000</speed>
</trkpt>
<trkpt lat="32.572536469" lon="35.014041901">
  <ele>149.938721</ele>
  <time>2011-10-25T18:58:09Z</time>
  <speed>4.560000</speed>
</trkpt>
<trkpt lat="32.572502136" lon="35.014057159">
  <ele>149.555908</ele>
  <time>2011-10-25T18:58:10Z</time>
  <speed>3.580000</speed>
</trkpt>
<trkpt lat="32.572475433" lon="35.014064789">
  <ele>149.298096</ele>
  <time>2011-10-25T18:58:11Z</time>
  <speed>3.370000</speed>
</trkpt>
<trkpt lat="32.572444916" lon="35.014072418">
  <ele>148.684814</ele>
  <time>2011-10-25T18:58:12Z</time>
  <speed>3.220000</speed>
</trkpt>
<trkpt lat="32.572410583" lon="35.014076233">
  <ele>148.223877</ele>
  <time>2011-10-25T18:58:13Z</time>
  <speed>3.780000</speed>
</trkpt>
<trkpt lat="32.572380066" lon="35.014080048">
  <ele>147.493408</ele>
  <time>2011-10-25T18:58:14Z</time>
  <speed>3.300000</speed>
</trkpt>
<trkpt lat="32.572334290" lon="35.014095306">
  <ele>146.993408</ele>
  <time>2011-10-25T18:58:16Z</time>
  <speed>2.130000</speed>
</trkpt>
<trkpt lat="32.572284698" lon="35.014125824">
  <ele>146.149658</ele>
  <time>2011-10-25T18:58:18Z</time>
  <speed>3.690000</speed>
</trkpt>
<trkpt lat="32.572254181" lon="35.014125824">
  <ele>145.802002</ele>
  <time>2011-10-25T18:58:19Z</time>
  <speed>3.780000</speed>
</trkpt>
<trkpt lat="32.572219849" lon="35.014118195">
  <ele>144.759033</ele>
  <time>2011-10-25T18:58:20Z</time>
  <speed>3.680000</speed>
</trkpt>
<trkpt lat="32.572189331" lon="35.014122009">
  <ele>144.005127</ele>
  <time>2011-10-25T18:58:21Z</time>
  <speed>2.910000</speed>
</trkpt>
<trkpt lat="32.572139740" lon="35.014129639">
  <ele>142.501221</ele>
  <time>2011-10-25T18:58:23Z</time>
  <speed>2.430000</speed>
</trkpt>
<trkpt lat="32.572113037" lon="35.014129639">
  <ele>142.290283</ele>
  <time>2011-10-25T18:58:24Z</time>
  <speed>3.300000</speed>
</trkpt>
<trkpt lat="32.572086334" lon="35.014129639">
  <ele>141.872314</ele>
  <time>2011-10-25T18:58:25Z</time>
  <speed>2.910000</speed>
</trkpt>
<trkpt lat="32.572048187" lon="35.014133453">
  <ele>142.165283</ele>
  <time>2011-10-25T18:58:26Z</time>
  <speed>4.180000</speed>
</trkpt>
<trkpt lat="32.572006226" lon="35.014141083">
  <ele>141.360596</ele>
  <time>2011-10-25T18:58:27Z</time>
  <speed>5.520000</speed>
</trkpt>
<trkpt lat="32.571952820" lon="35.014160156">
  <ele>140.196533</ele>
  <time>2011-10-25T18:58:28Z</time>
  <speed>5.580000</speed>
</trkpt>
<trkpt lat="32.571907043" lon="35.014167786">
  <ele>139.255127</ele>
  <time>2011-10-25T18:58:29Z</time>
  <speed>5.170000</speed>
</trkpt>
<trkpt lat="32.571857452" lon="35.014171600">
  <ele>138.598877</ele>
  <time>2011-10-25T18:58:30Z</time>
  <speed>5.090000</speed>
</trkpt>
<trkpt lat="32.571815491" lon="35.014175415">
  <ele>138.016846</ele>
  <time>2011-10-25T18:58:31Z</time>
  <speed>5.240000</speed>
</trkpt>
<trkpt lat="32.571765900" lon="35.014175415">
  <ele>137.411377</ele>
  <time>2011-10-25T18:58:32Z</time>
  <speed>4.560000</speed>
</trkpt>
<trkpt lat="32.571727753" lon="35.014175415">
  <ele>136.708252</ele>
  <time>2011-10-25T18:58:33Z</time>
  <speed>4.120000</speed>
</trkpt>
<trkpt lat="32.571693420" lon="35.014179230">
  <ele>136.188721</ele>
  <time>2011-10-25T18:58:34Z</time>
  <speed>3.790000</speed>
</trkpt>
<trkpt lat="32.571662903" lon="35.014183044">
  <ele>135.684814</ele>
  <time>2011-10-25T18:58:35Z</time>
  <speed>3.030000</speed>
</trkpt>
<trkpt lat="32.571632385" lon="35.014190674">
  <ele>134.895752</ele>
  <time>2011-10-25T18:58:36Z</time>
  <speed>2.430000</speed>
</trkpt>
<trkpt lat="32.571590424" lon="35.014202118">
  <ele>135.427002</ele>
  <time>2011-10-25T18:58:38Z</time>
  <speed>2.980000</speed>
</trkpt>
<trkpt lat="32.571537018" lon="35.014198303">
  <ele>134.391846</ele>
  <time>2011-10-25T18:58:40Z</time>
  <speed>2.470000</speed>
</trkpt>
<trkpt lat="32.571491241" lon="35.014221191">
  <ele>133.208252</ele>
  <time>2011-10-25T18:58:42Z</time>
  <speed>3.200000</speed>
</trkpt>
<trkpt lat="32.571460724" lon="35.014228821">
  <ele>132.739502</ele>
  <time>2011-10-25T18:58:43Z</time>
  <speed>3.240000</speed>
</trkpt>
<trkpt lat="32.571430206" lon="35.014236450">
  <ele>133.016846</ele>
  <time>2011-10-25T18:58:44Z</time>
  <speed>3.200000</speed>
</trkpt>
<trkpt lat="32.571399689" lon="35.014228821">
  <ele>133.364502</ele>
  <time>2011-10-25T18:58:45Z</time>
  <speed>3.880000</speed>
</trkpt>
<trkpt lat="32.571365356" lon="35.014225006">
  <ele>133.137939</ele>
  <time>2011-10-25T18:58:46Z</time>
  <speed>4.380000</speed>
</trkpt>
<trkpt lat="32.571323395" lon="35.014236450">
  <ele>132.626221</ele>
  <time>2011-10-25T18:58:47Z</time>
  <speed>4.550000</speed>
</trkpt>
<trkpt lat="32.571292877" lon="35.014232635">
  <ele>132.430908</ele>
  <time>2011-10-25T18:58:48Z</time>
  <speed>3.630000</speed>
</trkpt>
<trkpt lat="32.571262360" lon="35.014228821">
  <ele>132.255127</ele>
  <time>2011-10-25T18:58:49Z</time>
  <speed>3.020000</speed>
</trkpt>
<trkpt lat="32.571231842" lon="35.014232635">
  <ele>131.333252</ele>
  <time>2011-10-25T18:58:50Z</time>
  <speed>2.970000</speed>
</trkpt>
<trkpt lat="32.571197510" lon="35.014232635">
  <ele>131.544189</ele>
  <time>2011-10-25T18:58:51Z</time>
  <speed>3.920000</speed>
</trkpt>
<trkpt lat="32.571163177" lon="35.014236450">
  <ele>131.649658</ele>
  <time>2011-10-25T18:58:52Z</time>
  <speed>3.420000</speed>
</trkpt>
<trkpt lat="32.571128845" lon="35.014236450">
  <ele>131.825439</ele>
  <time>2011-10-25T18:58:53Z</time>
  <speed>3.610000</speed>
</trkpt>
<trkpt lat="32.571098328" lon="35.014240265">
  <ele>132.391846</ele>
  <time>2011-10-25T18:58:54Z</time>
  <speed>3.310000</speed>
</trkpt>
<trkpt lat="32.571071625" lon="35.014232635">
  <ele>133.387939</ele>
  <time>2011-10-25T18:58:55Z</time>
  <speed>2.510000</speed>
</trkpt>
<trkpt lat="32.571022034" lon="35.014236450">
  <ele>131.938721</ele>
  <time>2011-10-25T18:58:57Z</time>
  <speed>2.820000</speed>
</trkpt>
<trkpt lat="32.570976257" lon="35.014240265">
  <ele>132.098877</ele>
  <time>2011-10-25T18:58:59Z</time>
  <speed>2.640000</speed>
</trkpt>
<trkpt lat="32.570930481" lon="35.014247894">
  <ele>131.423096</ele>
  <time>2011-10-25T18:59:01Z</time>
  <speed>2.060000</speed>
</trkpt>
<trkpt lat="32.570888519" lon="35.014259338">
  <ele>131.571533</ele>
  <time>2011-10-25T18:59:03Z</time>
  <speed>2.220000</speed>
</trkpt>
<trkpt lat="32.570858002" lon="35.014270782">
  <ele>131.399658</ele>
  <time>2011-10-25T18:59:05Z</time>
  <speed>1.350000</speed>
</trkpt>
<trkpt lat="32.570831299" lon="35.014263153">
  <ele>131.071533</ele>
  <time>2011-10-25T18:59:08Z</time>
  <speed>0.350000</speed>
</trkpt>
<trkpt lat="32.570804596" lon="35.014255524">
  <ele>131.938721</ele>
  <time>2011-10-25T18:59:17Z</time>
  <speed>0.050000</speed>
</trkpt>
<trkpt lat="32.570777893" lon="35.014297485">
  <ele>132.239502</ele>
  <time>2011-10-25T18:59:33Z</time>
  <speed>0.350000</speed>
</trkpt>
<trkpt lat="32.570758820" lon="35.014320374">
  <ele>131.958252</ele>
  <time>2011-10-25T18:59:34Z</time>
  <speed>0.870000</speed>
</trkpt>
<trkpt lat="32.570716858" lon="35.014331818">
  <ele>131.856689</ele>
  <time>2011-10-25T18:59:36Z</time>
  <speed>1.380000</speed>
</trkpt>
<trkpt lat="32.570678711" lon="35.014335632">
  <ele>131.657471</ele>
  <time>2011-10-25T18:59:39Z</time>
  <speed>2.140000</speed>
</trkpt>
<trkpt lat="32.570644379" lon="35.014347076">
  <ele>131.434814</ele>
  <time>2011-10-25T18:59:41Z</time>
  <speed>2.580000</speed>
</trkpt>
<trkpt lat="32.570606232" lon="35.014381409">
  <ele>131.290283</ele>
  <time>2011-10-25T18:59:43Z</time>
  <speed>2.450000</speed>
</trkpt>
<trkpt lat="32.570564270" lon="35.014408112">
  <ele>130.895752</ele>
  <time>2011-10-25T18:59:45Z</time>
  <speed>2.080000</speed>
</trkpt>
<trkpt lat="32.570526123" lon="35.014438629">
  <ele>129.876221</ele>
  <time>2011-10-25T18:59:47Z</time>
  <speed>2.230000</speed>
</trkpt>
<trkpt lat="32.570487976" lon="35.014461517">
  <ele>129.559814</ele>
  <time>2011-10-25T18:59:49Z</time>
  <speed>1.800000</speed>
</trkpt>
<trkpt lat="32.570446014" lon="35.014484406">
  <ele>129.356689</ele>
  <time>2011-10-25T18:59:51Z</time>
  <speed>2.320000</speed>
</trkpt>
<trkpt lat="32.570400238" lon="35.014514923">
  <ele>128.973877</ele>
  <time>2011-10-25T18:59:53Z</time>
  <speed>2.690000</speed>
</trkpt>
<trkpt lat="32.570354462" lon="35.014545441">
  <ele>128.778564</ele>
  <time>2011-10-25T18:59:55Z</time>
  <speed>2.610000</speed>
</trkpt>
<trkpt lat="32.570316315" lon="35.014568329">
  <ele>128.079346</ele>
  <time>2011-10-25T18:59:57Z</time>
  <speed>2.440000</speed>
</trkpt>
<trkpt lat="32.570278168" lon="35.014583588">
  <ele>128.204346</ele>
  <time>2011-10-25T18:59:59Z</time>
  <speed>2.230000</speed>
</trkpt>
<trkpt lat="32.570251465" lon="35.014591217">
  <ele>127.207642</ele>
  <time>2011-10-25T19:00:00Z</time>
  <speed>2.800000</speed>
</trkpt>
<trkpt lat="32.570205688" lon="35.014610291">
  <ele>126.686157</ele>
  <time>2011-10-25T19:00:02Z</time>
  <speed>2.720000</speed>
</trkpt>
<trkpt lat="32.570163727" lon="35.014636993">
  <ele>126.151001</ele>
  <time>2011-10-25T19:00:04Z</time>
  <speed>2.040000</speed>
</trkpt>
<trkpt lat="32.570140839" lon="35.014663696">
  <ele>126.084595</ele>
  <time>2011-10-25T19:00:06Z</time>
  <speed>0.920000</speed>
</trkpt>
<trkpt lat="32.570110321" lon="35.014690399">
  <ele>125.119751</ele>
  <time>2011-10-25T19:00:08Z</time>
  <speed>2.070000</speed>
</trkpt>
<trkpt lat="32.570075989" lon="35.014720917">
  <ele>125.283813</ele>
  <time>2011-10-25T19:00:10Z</time>
  <speed>1.420000</speed>
</trkpt>
<trkpt lat="32.570053101" lon="35.014743805">
  <ele>124.973267</ele>
  <time>2011-10-25T19:00:11Z</time>
  <speed>2.360000</speed>
</trkpt>
<trkpt lat="32.570022583" lon="35.014766693">
  <ele>125.313110</ele>
  <time>2011-10-25T19:00:13Z</time>
  <speed>1.610000</speed>
</trkpt>
<trkpt lat="32.569984436" lon="35.014781952">
  <ele>126.883423</ele>
  <time>2011-10-25T19:00:15Z</time>
  <speed>2.330000</speed>
</trkpt>
<trkpt lat="32.569950104" lon="35.014797211">
  <ele>128.528564</ele>
  <time>2011-10-25T19:00:18Z</time>
  <speed>0.640000</speed>
</trkpt>
<trkpt lat="32.569919586" lon="35.014820099">
  <ele>129.290283</ele>
  <time>2011-10-25T19:00:23Z</time>
  <speed>0.720000</speed>
</trkpt>
<trkpt lat="32.569900513" lon="35.014831543">
  <ele>131.844971</ele>
  <time>2011-10-25T19:00:27Z</time>
  <speed>0.990000</speed>
</trkpt>
<trkpt lat="32.569881439" lon="35.014846802">
  <ele>133.848877</ele>
  <time>2011-10-25T19:00:32Z</time>
  <speed>0.360000</speed>
</trkpt>
<trkpt lat="32.569862366" lon="35.014842987">
  <ele>136.704346</ele>
  <time>2011-10-25T19:00:37Z</time>
  <speed>0.130000</speed>
</trkpt>
<trkpt lat="32.569835663" lon="35.014846802">
  <ele>137.153564</ele>
  <time>2011-10-25T19:00:42Z</time>
  <speed>0.800000</speed>
</trkpt>
<trkpt lat="32.569808960" lon="35.014862061">
  <ele>138.282471</ele>
  <time>2011-10-25T19:00:46Z</time>
  <speed>1.100000</speed>
</trkpt>
<trkpt lat="32.569789886" lon="35.014888763">
  <ele>139.169189</ele>
  <time>2011-10-25T19:00:49Z</time>
  <speed>0.650000</speed>
</trkpt>
<trkpt lat="32.569763184" lon="35.014907837">
  <ele>140.641846</ele>
  <time>2011-10-25T19:00:52Z</time>
  <speed>1.070000</speed>
</trkpt>
<trkpt lat="32.569736481" lon="35.014923096">
  <ele>141.106689</ele>
  <time>2011-10-25T19:00:55Z</time>
  <speed>0.890000</speed>
</trkpt>
<trkpt lat="32.569713593" lon="35.014930725">
  <ele>143.911377</ele>
  <time>2011-10-25T19:00:59Z</time>
  <speed>1.070000</speed>
</trkpt>
<trkpt lat="32.569694519" lon="35.014915466">
  <ele>145.380127</ele>
  <time>2011-10-25T19:01:04Z</time>
  <speed>0.770000</speed>
</trkpt>
<trkpt lat="32.569683075" lon="35.014888763">
  <ele>146.434814</ele>
  <time>2011-10-25T19:01:12Z</time>
  <speed>0.150000</speed>
</trkpt>
<trkpt lat="32.569648743" lon="35.014888763">
  <ele>147.075439</ele>
  <time>2011-10-25T19:01:19Z</time>
  <speed>0.800000</speed>
</trkpt>
<trkpt lat="32.569633484" lon="35.014926910">
  <ele>147.173096</ele>
  <time>2011-10-25T19:01:24Z</time>
  <speed>0.740000</speed>
</trkpt>
<trkpt lat="32.569622040" lon="35.014957428">
  <ele>147.067627</ele>
  <time>2011-10-25T19:01:27Z</time>
  <speed>0.980000</speed>
</trkpt>
<trkpt lat="32.569591522" lon="35.014965057">
  <ele>148.067627</ele>
  <time>2011-10-25T19:01:31Z</time>
  <speed>0.830000</speed>
</trkpt>
<trkpt lat="32.569572449" lon="35.014984131">
  <ele>149.509033</ele>
  <time>2011-10-25T19:01:35Z</time>
  <speed>0.750000</speed>
</trkpt>
<trkpt lat="32.569545746" lon="35.014995575">
  <ele>149.915283</ele>
  <time>2011-10-25T19:01:38Z</time>
  <speed>1.220000</speed>
</trkpt>
<trkpt lat="32.569519043" lon="35.014999390">
  <ele>150.552002</ele>
  <time>2011-10-25T19:01:41Z</time>
  <speed>0.660000</speed>
</trkpt>
<trkpt lat="32.569492340" lon="35.015022278">
  <ele>151.790283</ele>
  <time>2011-10-25T19:01:45Z</time>
  <speed>1.280000</speed>
</trkpt>
<trkpt lat="32.569461823" lon="35.015022278">
  <ele>152.434814</ele>
  <time>2011-10-25T19:01:49Z</time>
  <speed>0.840000</speed>
</trkpt>
<trkpt lat="32.569435120" lon="35.015022278">
  <ele>152.454346</ele>
  <time>2011-10-25T19:01:53Z</time>
  <speed>0.690000</speed>
</trkpt>
<trkpt lat="32.569396973" lon="35.015029907">
  <ele>151.848877</ele>
  <time>2011-10-25T19:01:59Z</time>
  <speed>1.040000</speed>
</trkpt>
<trkpt lat="32.569370270" lon="35.015041351">
  <ele>151.934814</ele>
  <time>2011-10-25T19:02:01Z</time>
  <speed>1.290000</speed>
</trkpt>
<trkpt lat="32.569347382" lon="35.015064240">
  <ele>152.052002</ele>
  <time>2011-10-25T19:02:04Z</time>
  <speed>1.420000</speed>
</trkpt>
<trkpt lat="32.569316864" lon="35.015079498">
  <ele>151.848877</ele>
  <time>2011-10-25T19:02:07Z</time>
  <speed>1.220000</speed>
</trkpt>
<trkpt lat="32.569286346" lon="35.015098572">
  <ele>151.864502</ele>
  <time>2011-10-25T19:02:10Z</time>
  <speed>0.970000</speed>
</trkpt>
<trkpt lat="32.569271088" lon="35.015129089">
  <ele>152.091064</ele>
  <time>2011-10-25T19:02:14Z</time>
  <speed>0.990000</speed>
</trkpt>
<trkpt lat="32.569259644" lon="35.015090942">
  <ele>152.489502</ele>
  <time>2011-10-25T19:02:19Z</time>
  <speed>0.790000</speed>
</trkpt>
<trkpt lat="32.569293976" lon="35.015071869">
  <ele>152.684814</ele>
  <time>2011-10-25T19:02:22Z</time>
  <speed>0.930000</speed>
</trkpt>
<trkpt lat="32.569328308" lon="35.015075684">
  <ele>152.770752</ele>
  <time>2011-10-25T19:02:25Z</time>
  <speed>0.650000</speed>
</trkpt>
<trkpt lat="32.569370270" lon="35.015064240">
  <ele>154.235596</ele>
  <time>2011-10-25T19:02:28Z</time>
  <speed>1.710000</speed>
</trkpt>
<trkpt lat="32.569400787" lon="35.015064240">
  <ele>154.485596</ele>
  <time>2011-10-25T19:02:31Z</time>
  <speed>1.050000</speed>
</trkpt>
<trkpt lat="32.569435120" lon="35.015045166">
  <ele>154.751221</ele>
  <time>2011-10-25T19:02:35Z</time>
  <speed>1.130000</speed>
</trkpt>
<trkpt lat="32.569461823" lon="35.015029907">
  <ele>155.153564</ele>
  <time>2011-10-25T19:02:38Z</time>
  <speed>1.190000</speed>
</trkpt>
<trkpt lat="32.569492340" lon="35.015003204">
  <ele>155.587158</ele>
  <time>2011-10-25T19:02:41Z</time>
  <speed>1.200000</speed>
</trkpt>
<trkpt lat="32.569519043" lon="35.014984131">
  <ele>155.884033</ele>
  <time>2011-10-25T19:02:45Z</time>
  <speed>1.390000</speed>
</trkpt>
<trkpt lat="32.569549561" lon="35.014968872">
  <ele>155.743408</ele>
  <time>2011-10-25T19:02:48Z</time>
  <speed>0.730000</speed>
</trkpt>
<trkpt lat="32.569568634" lon="35.014930725">
  <ele>156.071533</ele>
  <time>2011-10-25T19:02:55Z</time>
  <speed>0.890000</speed>
</trkpt>
<trkpt lat="32.569595337" lon="35.014942169">
  <ele>154.216064</ele>
  <time>2011-10-25T19:02:58Z</time>
  <speed>0.820000</speed>
</trkpt>
<trkpt lat="32.569614410" lon="35.014968872">
  <ele>153.219971</ele>
  <time>2011-10-25T19:03:01Z</time>
  <speed>0.790000</speed>
</trkpt>
<trkpt lat="32.569633484" lon="35.014949799">
  <ele>152.688721</ele>
  <time>2011-10-25T19:03:04Z</time>
  <speed>0.620000</speed>
</trkpt>
<trkpt lat="32.569664001" lon="35.014934540">
  <ele>152.669189</ele>
  <time>2011-10-25T19:03:07Z</time>
  <speed>0.670000</speed>
</trkpt>
<trkpt lat="32.569690704" lon="35.014915466">
  <ele>152.516846</ele>
  <time>2011-10-25T19:03:10Z</time>
  <speed>0.740000</speed>
</trkpt>
<trkpt lat="32.569713593" lon="35.014900208">
  <ele>152.266846</ele>
  <time>2011-10-25T19:03:13Z</time>
  <speed>0.800000</speed>
</trkpt>
<trkpt lat="32.569721222" lon="35.014865875">
  <ele>153.009033</ele>
  <time>2011-10-25T19:03:30Z</time>
  <speed>0.800000</speed>
</trkpt>
<trkpt lat="32.569744110" lon="35.014869690">
  <ele>151.427002</ele>
  <time>2011-10-25T19:03:38Z</time>
  <speed>0.410000</speed>
</trkpt>
<trkpt lat="32.569770813" lon="35.014858246">
  <ele>151.204346</ele>
  <time>2011-10-25T19:03:44Z</time>
  <speed>0.600000</speed>
</trkpt>
<trkpt lat="32.569793701" lon="35.014842987">
  <ele>150.083252</ele>
  <time>2011-10-25T19:03:47Z</time>
  <speed>0.390000</speed>
</trkpt>
<trkpt lat="32.569820404" lon="35.014842987">
  <ele>149.403564</ele>
  <time>2011-10-25T19:03:52Z</time>
  <speed>0.760000</speed>
</trkpt>
<trkpt lat="32.569850922" lon="35.014835358">
  <ele>149.270752</ele>
  <time>2011-10-25T19:03:56Z</time>
  <speed>1.300000</speed>
</trkpt>
<trkpt lat="32.569881439" lon="35.014820099">
  <ele>148.567627</ele>
  <time>2011-10-25T19:03:59Z</time>
  <speed>1.710000</speed>
</trkpt>
<trkpt lat="32.569911957" lon="35.014801025">
  <ele>147.645752</ele>
  <time>2011-10-25T19:04:02Z</time>
  <speed>0.960000</speed>
</trkpt>
<trkpt lat="32.569946289" lon="35.014797211">
  <ele>146.298096</ele>
  <time>2011-10-25T19:04:07Z</time>
  <speed>0.830000</speed>
</trkpt>
<trkpt lat="32.569972992" lon="35.014785767">
  <ele>145.231689</ele>
  <time>2011-10-25T19:04:11Z</time>
  <speed>0.780000</speed>
</trkpt>
<trkpt lat="32.569999695" lon="35.014785767">
  <ele>143.880127</ele>
  <time>2011-10-25T19:04:16Z</time>
  <speed>0.460000</speed>
</trkpt>
<trkpt lat="32.570026398" lon="35.014774323">
  <ele>143.071533</ele>
  <time>2011-10-25T19:04:19Z</time>
  <speed>0.840000</speed>
</trkpt>
<trkpt lat="32.570049286" lon="35.014751434">
  <ele>142.036377</ele>
  <time>2011-10-25T19:04:22Z</time>
  <speed>0.620000</speed>
</trkpt>
<trkpt lat="32.570075989" lon="35.014728546">
  <ele>142.669189</ele>
  <time>2011-10-25T19:04:36Z</time>
  <speed>1.380000</speed>
</trkpt>
<trkpt lat="32.570117950" lon="35.014705658">
  <ele>141.536377</ele>
  <time>2011-10-25T19:04:38Z</time>
  <speed>3.410000</speed>
</trkpt>
<trkpt lat="32.570144653" lon="35.014686584">
  <ele>140.973877</ele>
  <time>2011-10-25T19:04:39Z</time>
  <speed>4.030000</speed>
</trkpt>
<trkpt lat="32.570175171" lon="35.014663696">
  <ele>140.887939</ele>
  <time>2011-10-25T19:04:40Z</time>
  <speed>3.490000</speed>
</trkpt>
<trkpt lat="32.570205688" lon="35.014644623">
  <ele>140.493408</ele>
  <time>2011-10-25T19:04:41Z</time>
  <speed>3.380000</speed>
</trkpt>
<trkpt lat="32.570232391" lon="35.014621735">
  <ele>140.005127</ele>
  <time>2011-10-25T19:04:42Z</time>
  <speed>3.580000</speed>
</trkpt>
<trkpt lat="32.570247650" lon="35.014595032">
  <ele>138.876221</ele>
  <time>2011-10-25T19:04:43Z</time>
  <speed>3.350000</speed>
</trkpt>
<trkpt lat="32.570270538" lon="35.014572144">
  <ele>138.134033</ele>
  <time>2011-10-25T19:04:44Z</time>
  <speed>3.830000</speed>
</trkpt>
<trkpt lat="32.570293427" lon="35.014553070">
  <ele>137.376221</ele>
  <time>2011-10-25T19:04:45Z</time>
  <speed>3.110000</speed>
</trkpt>
<trkpt lat="32.570316315" lon="35.014537811">
  <ele>136.645752</ele>
  <time>2011-10-25T19:04:46Z</time>
  <speed>2.490000</speed>
</trkpt>
<trkpt lat="32.570346832" lon="35.014511108">
  <ele>136.493408</ele>
  <time>2011-10-25T19:04:48Z</time>
  <speed>1.640000</speed>
</trkpt>
<trkpt lat="32.570373535" lon="35.014469147">
  <ele>136.270752</ele>
  <time>2011-10-25T19:04:50Z</time>
  <speed>2.620000</speed>
</trkpt>
<trkpt lat="32.570396423" lon="35.014446259">
  <ele>136.243408</ele>
  <time>2011-10-25T19:04:51Z</time>
  <speed>3.410000</speed>
</trkpt>
<trkpt lat="32.570415497" lon="35.014419556">
  <ele>135.907471</ele>
  <time>2011-10-25T19:04:52Z</time>
  <speed>2.810000</speed>
</trkpt>
<trkpt lat="32.570434570" lon="35.014373779">
  <ele>134.458252</ele>
  <time>2011-10-25T19:04:54Z</time>
  <speed>2.120000</speed>
</trkpt>
<trkpt lat="32.570438385" lon="35.014335632">
  <ele>134.145752</ele>
  <time>2011-10-25T19:04:56Z</time>
  <speed>1.110000</speed>
</trkpt>
<trkpt lat="32.570423126" lon="35.014301300">
  <ele>133.864502</ele>
  <time>2011-10-25T19:04:59Z</time>
  <speed>1.270000</speed>
</trkpt>
<trkpt lat="32.570411682" lon="35.014274597">
  <ele>132.528564</ele>
  <time>2011-10-25T19:05:04Z</time>
  <speed>0.140000</speed>
</trkpt>
<trkpt lat="32.570423126" lon="35.014236450">
  <ele>131.848877</ele>
  <time>2011-10-25T19:05:25Z</time>
  <speed>0.390000</speed>
</trkpt>
<trkpt lat="32.570442200" lon="35.014209747">
  <ele>132.075439</ele>
  <time>2011-10-25T19:05:30Z</time>
  <speed>0.900000</speed>
</trkpt>
<trkpt lat="32.570434570" lon="35.014175415">
  <ele>132.126221</ele>
  <time>2011-10-25T19:05:35Z</time>
  <speed>0.540000</speed>
</trkpt>
<trkpt lat="32.570415497" lon="35.014202118">
  <ele>131.692627</ele>
  <time>2011-10-25T19:06:33Z</time>
  <speed>0.240000</speed>
</trkpt>
<trkpt lat="32.570381165" lon="35.014198303">
  <ele>131.106689</ele>
  <time>2011-10-25T19:06:39Z</time>
  <speed>0.580000</speed>
</trkpt>
<trkpt lat="32.570346832" lon="35.014209747">
  <ele>131.555908</ele>
  <time>2011-10-25T19:06:43Z</time>
  <speed>0.750000</speed>
</trkpt>
<trkpt lat="32.570339203" lon="35.014240265">
  <ele>131.137939</ele>
  <time>2011-10-25T19:07:22Z</time>
  <speed>0.130000</speed>
</trkpt>
<trkpt lat="32.570308685" lon="35.014240265">
  <ele>131.723877</ele>
  <time>2011-10-25T19:11:28Z</time>
</trkpt>
<trkpt lat="32.570270538" lon="35.014217377">
  <ele>131.876221</ele>
  <time>2011-10-25T19:11:33Z</time>
  <speed>1.880000</speed>
</trkpt>
<trkpt lat="32.570228577" lon="35.014183044">
  <ele>132.598877</ele>
  <time>2011-10-25T19:11:35Z</time>
  <speed>2.400000</speed>
</trkpt>
<trkpt lat="32.570201874" lon="35.014167786">
  <ele>132.786377</ele>
  <time>2011-10-25T19:11:36Z</time>
  <speed>2.320000</speed>
</trkpt>
<trkpt lat="32.570175171" lon="35.014156342">
  <ele>132.352783</ele>
  <time>2011-10-25T19:11:37Z</time>
  <speed>2.640000</speed>
</trkpt>
<trkpt lat="32.570148468" lon="35.014152527">
  <ele>132.446533</ele>
  <time>2011-10-25T19:11:38Z</time>
  <speed>2.570000</speed>
</trkpt>
<trkpt lat="32.570117950" lon="35.014144897">
  <ele>132.462158</ele>
  <time>2011-10-25T19:11:39Z</time>
  <speed>3.120000</speed>
</trkpt>
<trkpt lat="32.570087433" lon="35.014129639">
  <ele>132.637939</ele>
  <time>2011-10-25T19:11:40Z</time>
  <speed>2.940000</speed>
</trkpt>
<trkpt lat="32.570060730" lon="35.014114380">
  <ele>131.903564</ele>
  <time>2011-10-25T19:11:41Z</time>
  <speed>3.000000</speed>
</trkpt>
<trkpt lat="32.570045471" lon="35.014087677">
  <ele>132.052002</ele>
  <time>2011-10-25T19:11:42Z</time>
  <speed>3.140000</speed>
</trkpt>
<trkpt lat="32.570030212" lon="35.014045715">
  <ele>132.137939</ele>
  <time>2011-10-25T19:11:43Z</time>
  <speed>3.620000</speed>
</trkpt>
<trkpt lat="32.570007324" lon="35.014019012">
  <ele>131.837158</ele>
  <time>2011-10-25T19:11:44Z</time>
  <speed>3.030000</speed>
</trkpt>
<trkpt lat="32.569988251" lon="35.013984680">
  <ele>131.567627</ele>
  <time>2011-10-25T19:11:45Z</time>
  <speed>3.280000</speed>
</trkpt>
<trkpt lat="32.569976807" lon="35.013950348">
  <ele>130.923096</ele>
  <time>2011-10-25T19:11:46Z</time>
  <speed>4.060000</speed>
</trkpt>
<trkpt lat="32.569957733" lon="35.013904572">
  <ele>130.743408</ele>
  <time>2011-10-25T19:11:47Z</time>
  <speed>4.410000</speed>
</trkpt>
<trkpt lat="32.569942474" lon="35.013851166">
  <ele>131.153564</ele>
  <time>2011-10-25T19:11:48Z</time>
  <speed>4.550000</speed>
</trkpt>
<trkpt lat="32.569927216" lon="35.013805389">
  <ele>130.614502</ele>
  <time>2011-10-25T19:11:49Z</time>
  <speed>4.230000</speed>
</trkpt>
<trkpt lat="32.569923401" lon="35.013767242">
  <ele>130.274658</ele>
  <time>2011-10-25T19:11:50Z</time>
  <speed>3.620000</speed>
</trkpt>
<trkpt lat="32.569931030" lon="35.013729095">
  <ele>130.102783</ele>
  <time>2011-10-25T19:11:51Z</time>
  <speed>2.880000</speed>
</trkpt>
<trkpt lat="32.569931030" lon="35.013679504">
  <ele>129.485596</ele>
  <time>2011-10-25T19:11:53Z</time>
  <speed>1.470000</speed>
</trkpt>
<trkpt lat="32.569900513" lon="35.013664246">
  <ele>129.708252</ele>
  <time>2011-10-25T19:11:55Z</time>
  <speed>1.610000</speed>
</trkpt>
<trkpt lat="32.569866180" lon="35.013641357">
  <ele>130.114502</ele>
  <time>2011-10-25T19:11:57Z</time>
  <speed>1.550000</speed>
</trkpt>
<trkpt lat="32.569866180" lon="35.013580322">
  <ele>130.450439</ele>
  <time>2011-10-25T19:11:59Z</time>
  <speed>3.430000</speed>
</trkpt>
<trkpt lat="32.569850922" lon="35.013534546">
  <ele>131.083252</ele>
  <time>2011-10-25T19:12:00Z</time>
  <speed>3.730000</speed>
</trkpt>
<trkpt lat="32.569820404" lon="35.013484955">
  <ele>131.036377</ele>
  <time>2011-10-25T19:12:02Z</time>
  <speed>2.820000</speed>
</trkpt>
<trkpt lat="32.569797516" lon="35.013462067">
  <ele>130.637939</ele>
  <time>2011-10-25T19:12:03Z</time>
  <speed>2.780000</speed>
</trkpt>
<trkpt lat="32.569778442" lon="35.013435364">
  <ele>130.079346</ele>
  <time>2011-10-25T19:12:04Z</time>
  <speed>3.260000</speed>
</trkpt>
<trkpt lat="32.569759369" lon="35.013412476">
  <ele>130.009033</ele>
  <time>2011-10-25T19:12:05Z</time>
  <speed>2.730000</speed>
</trkpt>
<trkpt lat="32.569740295" lon="35.013385773">
  <ele>130.837158</ele>
  <time>2011-10-25T19:12:06Z</time>
  <speed>2.910000</speed>
</trkpt>
<trkpt lat="32.569717407" lon="35.013339996">
  <ele>130.126221</ele>
  <time>2011-10-25T19:12:08Z</time>
  <speed>2.210000</speed>
</trkpt>
<trkpt lat="32.569690704" lon="35.013298035">
  <ele>130.083252</ele>
  <time>2011-10-25T19:12:10Z</time>
  <speed>2.320000</speed>
</trkpt>
<trkpt lat="32.569675446" lon="35.013259888">
  <ele>129.161377</ele>
  <time>2011-10-25T19:12:12Z</time>
  <speed>1.780000</speed>
</trkpt>
<trkpt lat="32.569656372" lon="35.013217926">
  <ele>129.028564</ele>
  <time>2011-10-25T19:12:14Z</time>
  <speed>2.260000</speed>
</trkpt>
<trkpt lat="32.569622040" lon="35.013175964">
  <ele>127.891235</ele>
  <time>2011-10-25T19:12:16Z</time>
  <speed>2.990000</speed>
</trkpt>
<trkpt lat="32.569583893" lon="35.013122559">
  <ele>126.559204</ele>
  <time>2011-10-25T19:12:18Z</time>
  <speed>3.490000</speed>
</trkpt>
<trkpt lat="32.569572449" lon="35.013092041">
  <ele>125.967407</ele>
  <time>2011-10-25T19:12:19Z</time>
  <speed>3.200000</speed>
</trkpt>
<trkpt lat="32.569557190" lon="35.013008118">
  <ele>125.231079</ele>
  <time>2011-10-25T19:12:21Z</time>
  <speed>3.840000</speed>
</trkpt>
<trkpt lat="32.569545746" lon="35.012958527">
  <ele>124.733032</ele>
  <time>2011-10-25T19:12:22Z</time>
  <speed>4.440000</speed>
</trkpt>
<trkpt lat="32.569541931" lon="35.012893677">
  <ele>125.031860</ele>
  <time>2011-10-25T19:12:23Z</time>
  <speed>4.890000</speed>
</trkpt>
<trkpt lat="32.569526672" lon="35.012836456">
  <ele>124.336548</ele>
  <time>2011-10-25T19:12:24Z</time>
  <speed>5.040000</speed>
</trkpt>
<trkpt lat="32.569515228" lon="35.012779236">
  <ele>124.184204</ele>
  <time>2011-10-25T19:12:25Z</time>
  <speed>4.770000</speed>
</trkpt>
<trkpt lat="32.569503784" lon="35.012741089">
  <ele>122.979126</ele>
  <time>2011-10-25T19:12:26Z</time>
  <speed>3.570000</speed>
</trkpt>
<trkpt lat="32.569496155" lon="35.012710571">
  <ele>122.397095</ele>
  <time>2011-10-25T19:12:27Z</time>
  <speed>1.890000</speed>
</trkpt>
<trkpt lat="32.569477081" lon="35.012664795">
  <ele>122.223267</ele>
  <time>2011-10-25T19:12:29Z</time>
  <speed>2.110000</speed>
</trkpt>
<trkpt lat="32.569461823" lon="35.012611389">
  <ele>121.695923</ele>
  <time>2011-10-25T19:12:31Z</time>
  <speed>1.810000</speed>
</trkpt>
<trkpt lat="32.569431305" lon="35.012588501">
  <ele>120.885376</ele>
  <time>2011-10-25T19:12:33Z</time>
  <speed>1.980000</speed>
</trkpt>
<trkpt lat="32.569400787" lon="35.012565613">
  <ele>120.549438</ele>
  <time>2011-10-25T19:12:34Z</time>
  <speed>1.880000</speed>
</trkpt>
<trkpt lat="32.569377899" lon="35.012538910">
  <ele>120.004517</ele>
  <time>2011-10-25T19:12:36Z</time>
  <speed>2.000000</speed>
</trkpt>
<trkpt lat="32.569339752" lon="35.012489319">
  <ele>119.783813</ele>
  <time>2011-10-25T19:12:38Z</time>
  <speed>3.380000</speed>
</trkpt>
<trkpt lat="32.569320679" lon="35.012454987">
  <ele>119.531860</ele>
  <time>2011-10-25T19:12:39Z</time>
  <speed>3.720000</speed>
</trkpt>
<trkpt lat="32.569305420" lon="35.012416840">
  <ele>120.068970</ele>
  <time>2011-10-25T19:12:40Z</time>
  <speed>3.940000</speed>
</trkpt>
<trkpt lat="32.569290161" lon="35.012378693">
  <ele>119.682251</ele>
  <time>2011-10-25T19:12:41Z</time>
  <speed>4.130000</speed>
</trkpt>
<trkpt lat="32.569274902" lon="35.012336731">
  <ele>119.582642</ele>
  <time>2011-10-25T19:12:42Z</time>
  <speed>3.060000</speed>
</trkpt>
<trkpt lat="32.569271088" lon="35.012302399">
  <ele>119.904907</ele>
  <time>2011-10-25T19:12:43Z</time>
  <speed>3.790000</speed>
</trkpt>
<trkpt lat="32.569278717" lon="35.012252808">
  <ele>119.938110</ele>
  <time>2011-10-25T19:12:44Z</time>
  <speed>4.230000</speed>
</trkpt>
<trkpt lat="32.569274902" lon="35.012207031">
  <ele>119.705688</ele>
  <time>2011-10-25T19:12:45Z</time>
  <speed>3.290000</speed>
</trkpt>
<trkpt lat="32.569252014" lon="35.012168884">
  <ele>119.320923</ele>
  <time>2011-10-25T19:12:47Z</time>
  <speed>1.560000</speed>
</trkpt>
<trkpt lat="32.569217682" lon="35.012145996">
  <ele>119.127563</ele>
  <time>2011-10-25T19:12:49Z</time>
  <speed>1.760000</speed>
</trkpt>
<trkpt lat="32.569179535" lon="35.012104034">
  <ele>119.336548</ele>
  <time>2011-10-25T19:12:51Z</time>
  <speed>3.180000</speed>
</trkpt>
<trkpt lat="32.569160461" lon="35.012077332">
  <ele>119.330688</ele>
  <time>2011-10-25T19:12:52Z</time>
  <speed>3.080000</speed>
</trkpt>
<trkpt lat="32.569137573" lon="35.012046814">
  <ele>118.805298</ele>
  <time>2011-10-25T19:12:53Z</time>
  <speed>3.480000</speed>
</trkpt>
<trkpt lat="32.569122314" lon="35.012012482">
  <ele>118.223267</ele>
  <time>2011-10-25T19:12:54Z</time>
  <speed>3.910000</speed>
</trkpt>
<trkpt lat="32.569114685" lon="35.011981964">
  <ele>117.811157</ele>
  <time>2011-10-25T19:12:55Z</time>
  <speed>3.720000</speed>
</trkpt>
<trkpt lat="32.569091797" lon="35.011932373">
  <ele>117.205688</ele>
  <time>2011-10-25T19:12:56Z</time>
  <speed>4.450000</speed>
</trkpt>
<trkpt lat="32.569076538" lon="35.011894226">
  <ele>116.971313</ele>
  <time>2011-10-25T19:12:57Z</time>
  <speed>3.720000</speed>
</trkpt>
<trkpt lat="32.569065094" lon="35.011848450">
  <ele>116.510376</ele>
  <time>2011-10-25T19:12:58Z</time>
  <speed>3.950000</speed>
</trkpt>
<trkpt lat="32.569061279" lon="35.011795044">
  <ele>115.910767</ele>
  <time>2011-10-25T19:12:59Z</time>
  <speed>4.150000</speed>
</trkpt>
<trkpt lat="32.569053650" lon="35.011737823">
  <ele>115.717407</ele>
  <time>2011-10-25T19:13:00Z</time>
  <speed>4.030000</speed>
</trkpt>
<trkpt lat="32.569046021" lon="35.011707306">
  <ele>115.516235</ele>
  <time>2011-10-25T19:13:01Z</time>
  <speed>1.960000</speed>
</trkpt>
<trkpt lat="32.569011688" lon="35.011665344">
  <ele>115.604126</ele>
  <time>2011-10-25T19:13:03Z</time>
  <speed>2.470000</speed>
</trkpt>
<trkpt lat="32.569000244" lon="35.011623383">
  <ele>116.219360</ele>
  <time>2011-10-25T19:13:04Z</time>
  <speed>3.710000</speed>
</trkpt>
<trkpt lat="32.568981171" lon="35.011569977">
  <ele>116.166626</ele>
  <time>2011-10-25T19:13:05Z</time>
  <speed>4.380000</speed>
</trkpt>
<trkpt lat="32.568973541" lon="35.011520386">
  <ele>115.639282</ele>
  <time>2011-10-25T19:13:06Z</time>
  <speed>4.040000</speed>
</trkpt>
<trkpt lat="32.568965912" lon="35.011482239">
  <ele>116.447876</ele>
  <time>2011-10-25T19:13:07Z</time>
  <speed>3.300000</speed>
</trkpt>
<trkpt lat="32.568912506" lon="35.011432648">
  <ele>116.674438</ele>
  <time>2011-10-25T19:13:09Z</time>
  <speed>2.890000</speed>
</trkpt>
<trkpt lat="32.568881989" lon="35.011425018">
  <ele>116.283813</ele>
  <time>2011-10-25T19:13:10Z</time>
  <speed>3.190000</speed>
</trkpt>
<trkpt lat="32.568851471" lon="35.011409760">
  <ele>115.897095</ele>
  <time>2011-10-25T19:13:11Z</time>
  <speed>3.700000</speed>
</trkpt>
<trkpt lat="32.568824768" lon="35.011386871">
  <ele>115.608032</ele>
  <time>2011-10-25T19:13:12Z</time>
  <speed>3.450000</speed>
</trkpt>
<trkpt lat="32.568798065" lon="35.011379242">
  <ele>115.604126</ele>
  <time>2011-10-25T19:13:13Z</time>
  <speed>3.020000</speed>
</trkpt>
<trkpt lat="32.568756104" lon="35.011348724">
  <ele>115.490845</ele>
  <time>2011-10-25T19:13:15Z</time>
  <speed>2.020000</speed>
</trkpt>
<trkpt lat="32.568733215" lon="35.011302948">
  <ele>115.635376</ele>
  <time>2011-10-25T19:13:17Z</time>
  <speed>2.260000</speed>
</trkpt>
<trkpt lat="32.568687439" lon="35.011272430">
  <ele>114.686157</ele>
  <time>2011-10-25T19:13:19Z</time>
  <speed>2.580000</speed>
</trkpt>
<trkpt lat="32.568660736" lon="35.011249542">
  <ele>114.863892</ele>
  <time>2011-10-25T19:13:20Z</time>
  <speed>3.030000</speed>
</trkpt>
<trkpt lat="32.568618774" lon="35.011207581">
  <ele>114.647095</ele>
  <time>2011-10-25T19:13:21Z</time>
  <speed>3.480000</speed>
</trkpt>
<trkpt lat="32.568599701" lon="35.011180878">
  <ele>114.887329</ele>
  <time>2011-10-25T19:13:22Z</time>
  <speed>2.560000</speed>
</trkpt>
<trkpt lat="32.568557739" lon="35.011150360">
  <ele>115.307251</ele>
  <time>2011-10-25T19:13:24Z</time>
  <speed>3.010000</speed>
</trkpt>
<trkpt lat="32.568519592" lon="35.011131287">
  <ele>115.568970</ele>
  <time>2011-10-25T19:13:25Z</time>
  <speed>3.090000</speed>
</trkpt>
<trkpt lat="32.568477631" lon="35.011100769">
  <ele>116.147095</ele>
  <time>2011-10-25T19:13:27Z</time>
  <speed>2.420000</speed>
</trkpt>
<trkpt lat="32.568447113" lon="35.011074066">
  <ele>117.453735</ele>
  <time>2011-10-25T19:13:28Z</time>
  <speed>3.060000</speed>
</trkpt>
<trkpt lat="32.568420410" lon="35.011062622">
  <ele>117.686157</ele>
  <time>2011-10-25T19:13:29Z</time>
  <speed>3.020000</speed>
</trkpt>
<trkpt lat="32.568397522" lon="35.011047363">
  <ele>118.119751</ele>
  <time>2011-10-25T19:13:30Z</time>
  <speed>2.970000</speed>
</trkpt>
<trkpt lat="32.568367004" lon="35.011005402">
  <ele>118.481079</ele>
  <time>2011-10-25T19:13:32Z</time>
  <speed>2.270000</speed>
</trkpt>
<trkpt lat="32.568347931" lon="35.010948181">
  <ele>117.350220</ele>
  <time>2011-10-25T19:13:34Z</time>
  <speed>3.250000</speed>
</trkpt>
<trkpt lat="32.568317413" lon="35.010902405">
  <ele>117.027954</ele>
  <time>2011-10-25T19:13:36Z</time>
  <speed>2.720000</speed>
</trkpt>
<trkpt lat="32.568275452" lon="35.010860443">
  <ele>117.406860</ele>
  <time>2011-10-25T19:13:38Z</time>
  <speed>3.250000</speed>
</trkpt>
<trkpt lat="32.568260193" lon="35.010826111">
  <ele>117.705688</ele>
  <time>2011-10-25T19:13:39Z</time>
  <speed>3.640000</speed>
</trkpt>
<trkpt lat="32.568241119" lon="35.010795593">
  <ele>116.984985</ele>
  <time>2011-10-25T19:13:40Z</time>
  <speed>3.530000</speed>
</trkpt>
<trkpt lat="32.568218231" lon="35.010772705">
  <ele>116.111938</ele>
  <time>2011-10-25T19:13:41Z</time>
  <speed>3.000000</speed>
</trkpt>
<trkpt lat="32.568180084" lon="35.010726929">
  <ele>116.213501</ele>
  <time>2011-10-25T19:13:43Z</time>
  <speed>2.950000</speed>
</trkpt>
<trkpt lat="32.568157196" lon="35.010704041">
  <ele>116.213501</ele>
  <time>2011-10-25T19:13:44Z</time>
  <speed>3.050000</speed>
</trkpt>
<trkpt lat="32.568138123" lon="35.010665894">
  <ele>116.067017</ele>
  <time>2011-10-25T19:13:45Z</time>
  <speed>3.760000</speed>
</trkpt>
<trkpt lat="32.568119049" lon="35.010627747">
  <ele>115.813110</ele>
  <time>2011-10-25T19:13:46Z</time>
  <speed>3.900000</speed>
</trkpt>
<trkpt lat="32.568099976" lon="35.010597229">
  <ele>115.592407</ele>
  <time>2011-10-25T19:13:47Z</time>
  <speed>3.650000</speed>
</trkpt>
<trkpt lat="32.568073273" lon="35.010562897">
  <ele>115.975220</ele>
  <time>2011-10-25T19:13:48Z</time>
  <speed>3.130000</speed>
</trkpt>
<trkpt lat="32.568050385" lon="35.010532379">
  <ele>115.983032</ele>
  <time>2011-10-25T19:13:49Z</time>
  <speed>3.260000</speed>
</trkpt>
<trkpt lat="32.568023682" lon="35.010509491">
  <ele>115.649048</ele>
  <time>2011-10-25T19:13:50Z</time>
  <speed>3.450000</speed>
</trkpt>
<trkpt lat="32.567996979" lon="35.010471344">
  <ele>115.203735</ele>
  <time>2011-10-25T19:13:51Z</time>
  <speed>4.050000</speed>
</trkpt>
<trkpt lat="32.567977905" lon="35.010421753">
  <ele>114.443970</ele>
  <time>2011-10-25T19:13:52Z</time>
  <speed>4.670000</speed>
</trkpt>
<trkpt lat="32.567958832" lon="35.010375977">
  <ele>113.943970</ele>
  <time>2011-10-25T19:13:53Z</time>
  <speed>5.470000</speed>
</trkpt>
<trkpt lat="32.567932129" lon="35.010326385">
  <ele>113.774048</ele>
  <time>2011-10-25T19:13:54Z</time>
  <speed>4.720000</speed>
</trkpt>
<trkpt lat="32.567905426" lon="35.010284424">
  <ele>113.443970</ele>
  <time>2011-10-25T19:13:55Z</time>
  <speed>4.920000</speed>
</trkpt>
<trkpt lat="32.567878723" lon="35.010242462">
  <ele>113.223267</ele>
  <time>2011-10-25T19:13:56Z</time>
  <speed>4.430000</speed>
</trkpt>
<trkpt lat="32.567852020" lon="35.010223389">
  <ele>112.608032</ele>
  <time>2011-10-25T19:13:57Z</time>
  <speed>3.240000</speed>
</trkpt>
<trkpt lat="32.567825317" lon="35.010204315">
  <ele>111.711548</ele>
  <time>2011-10-25T19:13:58Z</time>
  <speed>2.840000</speed>
</trkpt>
<trkpt lat="32.567794800" lon="35.010177612">
  <ele>111.734985</ele>
  <time>2011-10-25T19:13:59Z</time>
  <speed>2.440000</speed>
</trkpt>
<trkpt lat="32.567764282" lon="35.010162354">
  <ele>111.844360</ele>
  <time>2011-10-25T19:14:00Z</time>
  <speed>1.620000</speed>
</trkpt>
<trkpt lat="32.567737579" lon="35.010162354">
  <ele>111.852173</ele>
  <time>2011-10-25T19:14:01Z</time>
  <speed>2.040000</speed>
</trkpt>
<trkpt lat="32.567714691" lon="35.010189056">
  <ele>111.877563</ele>
  <time>2011-10-25T19:14:02Z</time>
  <speed>2.970000</speed>
</trkpt>
<trkpt lat="32.567680359" lon="35.010211945">
  <ele>111.930298</ele>
  <time>2011-10-25T19:14:03Z</time>
  <speed>2.890000</speed>
</trkpt>
<trkpt lat="32.567646027" lon="35.010215759">
  <ele>112.383423</ele>
  <time>2011-10-25T19:14:04Z</time>
  <speed>2.510000</speed>
</trkpt>
<trkpt lat="32.567619324" lon="35.010227203">
  <ele>111.723267</ele>
  <time>2011-10-25T19:14:05Z</time>
  <speed>2.900000</speed>
</trkpt>
<trkpt lat="32.567569733" lon="35.010223389">
  <ele>112.549438</ele>
  <time>2011-10-25T19:14:07Z</time>
  <speed>2.050000</speed>
</trkpt>
<trkpt lat="32.567546844" lon="35.010238647">
  <ele>112.172485</ele>
  <time>2011-10-25T19:14:08Z</time>
  <speed>2.090000</speed>
</trkpt>
<trkpt lat="32.567520142" lon="35.010257721">
  <ele>113.039673</ele>
  <time>2011-10-25T19:14:09Z</time>
  <speed>1.810000</speed>
</trkpt>
<trkpt lat="32.567485809" lon="35.010253906">
  <ele>113.914673</ele>
  <time>2011-10-25T19:14:11Z</time>
  <speed>1.460000</speed>
</trkpt>
<trkpt lat="32.567451477" lon="35.010250092">
  <ele>114.934204</ele>
  <time>2011-10-25T19:14:13Z</time>
  <speed>1.800000</speed>
</trkpt>
<trkpt lat="32.567409515" lon="35.010253906">
  <ele>116.113892</ele>
  <time>2011-10-25T19:14:15Z</time>
  <speed>2.050000</speed>
</trkpt>
<trkpt lat="32.567378998" lon="35.010265350">
  <ele>117.117798</ele>
  <time>2011-10-25T19:14:18Z</time>
  <speed>0.720000</speed>
</trkpt>
<trkpt lat="32.567344666" lon="35.010265350">
  <ele>117.348267</ele>
  <time>2011-10-25T19:14:21Z</time>
  <speed>1.340000</speed>
</trkpt>
<trkpt lat="32.567317963" lon="35.010284424">
  <ele>118.756470</ele>
  <time>2011-10-25T19:14:24Z</time>
  <speed>1.170000</speed>
</trkpt>
<trkpt lat="32.567295074" lon="35.010311127">
  <ele>119.289673</ele>
  <time>2011-10-25T19:14:27Z</time>
  <speed>0.600000</speed>
</trkpt>
<trkpt lat="32.567264557" lon="35.010318756">
  <ele>120.537720</ele>
  <time>2011-10-25T19:14:32Z</time>
  <speed>0.910000</speed>
</trkpt>
<trkpt lat="32.567237854" lon="35.010330200">
  <ele>121.166626</ele>
  <time>2011-10-25T19:14:36Z</time>
  <speed>1.050000</speed>
</trkpt>
<trkpt lat="32.567211151" lon="35.010349274">
  <ele>121.654907</ele>
  <time>2011-10-25T19:14:39Z</time>
  <speed>0.890000</speed>
</trkpt>
<trkpt lat="32.567188263" lon="35.010372162">
  <ele>122.447876</ele>
  <time>2011-10-25T19:14:42Z</time>
  <speed>1.130000</speed>
</trkpt>
<trkpt lat="32.567157745" lon="35.010391235">
  <ele>123.082642</ele>
  <time>2011-10-25T19:14:45Z</time>
  <speed>0.670000</speed>
</trkpt>
<trkpt lat="32.567134857" lon="35.010391235">
  <ele>124.908813</ele>
  <time>2011-10-25T19:14:48Z</time>
  <speed>0.690000</speed>
</trkpt>
<trkpt lat="32.567104340" lon="35.010391235">
  <ele>126.457642</ele>
  <time>2011-10-25T19:14:51Z</time>
  <speed>0.920000</speed>
</trkpt>
<trkpt lat="32.567077637" lon="35.010395050">
  <ele>127.994751</ele>
  <time>2011-10-25T19:14:54Z</time>
  <speed>1.250000</speed>
</trkpt>
<trkpt lat="32.567043304" lon="35.010395050">
  <ele>128.512939</ele>
  <time>2011-10-25T19:14:57Z</time>
  <speed>1.070000</speed>
</trkpt>
<trkpt lat="32.567016602" lon="35.010387421">
  <ele>129.177002</ele>
  <time>2011-10-25T19:15:01Z</time>
  <speed>0.840000</speed>
</trkpt>
<trkpt lat="32.566993713" lon="35.010368347">
  <ele>130.247314</ele>
  <time>2011-10-25T19:15:27Z</time>
  <speed>0.240000</speed>
</trkpt>
<trkpt lat="32.566963196" lon="35.010349274">
  <ele>130.575439</ele>
  <time>2011-10-25T19:15:31Z</time>
  <speed>0.490000</speed>
</trkpt>
<trkpt lat="32.566932678" lon="35.010330200">
  <ele>130.262939</ele>
  <time>2011-10-25T19:15:42Z</time>
  <speed>0.700000</speed>
</trkpt>
<trkpt lat="32.566913605" lon="35.010307312">
  <ele>130.294189</ele>
  <time>2011-10-25T19:15:45Z</time>
  <speed>0.810000</speed>
</trkpt>
<trkpt lat="32.566890717" lon="35.010288239">
  <ele>130.446533</ele>
  <time>2011-10-25T19:15:48Z</time>
  <speed>0.850000</speed>
</trkpt>
<trkpt lat="32.566883087" lon="35.010253906">
  <ele>129.915283</ele>
  <time>2011-10-25T19:15:52Z</time>
  <speed>0.730000</speed>
</trkpt>
<trkpt lat="32.566867828" lon="35.010219574">
  <ele>129.946533</ele>
  <time>2011-10-25T19:15:54Z</time>
  <speed>1.920000</speed>
</trkpt>
<trkpt lat="32.566856384" lon="35.010177612">
  <ele>130.024658</ele>
  <time>2011-10-25T19:15:56Z</time>
  <speed>1.360000</speed>
</trkpt>
<trkpt lat="32.566806793" lon="35.010135651">
  <ele>130.391846</ele>
  <time>2011-10-25T19:15:58Z</time>
  <speed>2.330000</speed>
</trkpt>
<trkpt lat="32.566772461" lon="35.010108948">
  <ele>131.044189</ele>
  <time>2011-10-25T19:16:00Z</time>
  <speed>2.150000</speed>
</trkpt>
<trkpt lat="32.566738129" lon="35.010070801">
  <ele>131.739502</ele>
  <time>2011-10-25T19:16:02Z</time>
  <speed>2.670000</speed>
</trkpt>
<trkpt lat="32.566696167" lon="35.010036469">
  <ele>131.798096</ele>
  <time>2011-10-25T19:16:04Z</time>
  <speed>2.400000</speed>
</trkpt>
<trkpt lat="32.566661835" lon="35.010036469">
  <ele>130.884033</ele>
  <time>2011-10-25T19:16:06Z</time>
  <speed>1.990000</speed>
</trkpt>
<trkpt lat="32.566619873" lon="35.010028839">
  <ele>131.333252</ele>
  <time>2011-10-25T19:16:08Z</time>
  <speed>1.980000</speed>
</trkpt>
<trkpt lat="32.566581726" lon="35.010025024">
  <ele>131.067627</ele>
  <time>2011-10-25T19:16:10Z</time>
  <speed>1.630000</speed>
</trkpt>
<trkpt lat="32.566539764" lon="35.010028839">
  <ele>131.247314</ele>
  <time>2011-10-25T19:16:12Z</time>
  <speed>2.030000</speed>
</trkpt>
<trkpt lat="32.566501617" lon="35.010017395">
  <ele>131.841064</ele>
  <time>2011-10-25T19:16:14Z</time>
  <speed>2.020000</speed>
</trkpt>
<trkpt lat="32.566474915" lon="35.009986877">
  <ele>133.075439</ele>
  <time>2011-10-25T19:16:16Z</time>
  <speed>1.540000</speed>
</trkpt>
<trkpt lat="32.566463470" lon="35.009944916">
  <ele>133.958252</ele>
  <time>2011-10-25T19:16:18Z</time>
  <speed>1.630000</speed>
</trkpt>
<trkpt lat="32.566463470" lon="35.009899139">
  <ele>133.630127</ele>
  <time>2011-10-25T19:16:20Z</time>
  <speed>2.000000</speed>
</trkpt>
<trkpt lat="32.566478729" lon="35.009860992">
  <ele>133.552002</ele>
  <time>2011-10-25T19:16:22Z</time>
  <speed>2.230000</speed>
</trkpt>
<trkpt lat="32.566490173" lon="35.009799957">
  <ele>134.052002</ele>
  <time>2011-10-25T19:16:24Z</time>
  <speed>2.520000</speed>
</trkpt>
<trkpt lat="32.566474915" lon="35.009750366">
  <ele>133.907471</ele>
  <time>2011-10-25T19:16:26Z</time>
  <speed>2.230000</speed>
</trkpt>
<trkpt lat="32.566463470" lon="35.009719849">
  <ele>134.680908</ele>
  <time>2011-10-25T19:16:27Z</time>
  <speed>2.500000</speed>
</trkpt>
<trkpt lat="32.566436768" lon="35.009674072">
  <ele>134.317627</ele>
  <time>2011-10-25T19:16:29Z</time>
  <speed>2.220000</speed>
</trkpt>
<trkpt lat="32.566417694" lon="35.009654999">
  <ele>134.977783</ele>
  <time>2011-10-25T19:16:30Z</time>
  <speed>2.010000</speed>
</trkpt>
<trkpt lat="32.566375732" lon="35.009643555">
  <ele>134.473877</ele>
  <time>2011-10-25T19:16:32Z</time>
  <speed>2.510000</speed>
</trkpt>
<trkpt lat="32.566345215" lon="35.009620667">
  <ele>135.200439</ele>
  <time>2011-10-25T19:16:34Z</time>
  <speed>1.900000</speed>
</trkpt>
<trkpt lat="32.566322327" lon="35.009574890">
  <ele>135.399658</ele>
  <time>2011-10-25T19:16:36Z</time>
  <speed>2.170000</speed>
</trkpt>
<trkpt lat="32.566314697" lon="35.009536743">
  <ele>136.594971</ele>
  <time>2011-10-25T19:16:38Z</time>
  <speed>1.520000</speed>
</trkpt>
<trkpt lat="32.566291809" lon="35.009517670">
  <ele>136.001221</ele>
  <time>2011-10-25T19:16:40Z</time>
  <speed>1.600000</speed>
</trkpt>
<trkpt lat="32.566249847" lon="35.009521484">
  <ele>135.688721</ele>
  <time>2011-10-25T19:16:42Z</time>
  <speed>1.610000</speed>
</trkpt>
<trkpt lat="32.566211700" lon="35.009532928">
  <ele>135.290283</ele>
  <time>2011-10-25T19:16:44Z</time>
  <speed>1.520000</speed>
</trkpt>
<trkpt lat="32.566173553" lon="35.009571075">
  <ele>133.751221</ele>
  <time>2011-10-25T19:16:46Z</time>
  <speed>2.060000</speed>
</trkpt>
<trkpt lat="32.566150665" lon="35.009597778">
  <ele>132.262939</ele>
  <time>2011-10-25T19:16:47Z</time>
  <speed>2.240000</speed>
</trkpt>
<trkpt lat="32.566131592" lon="35.009620667">
  <ele>131.352783</ele>
  <time>2011-10-25T19:16:48Z</time>
  <speed>2.400000</speed>
</trkpt>
<trkpt lat="32.566104889" lon="35.009628296">
  <ele>131.032471</ele>
  <time>2011-10-25T19:16:49Z</time>
  <speed>2.150000</speed>
</trkpt>
<trkpt lat="32.566070557" lon="35.009624481">
  <ele>131.907471</ele>
  <time>2011-10-25T19:16:51Z</time>
  <speed>1.680000</speed>
</trkpt>
<trkpt lat="32.566047668" lon="35.009593964">
  <ele>132.677002</ele>
  <time>2011-10-25T19:16:53Z</time>
  <speed>1.920000</speed>
</trkpt>
<trkpt lat="32.566028595" lon="35.009563446">
  <ele>134.075439</ele>
  <time>2011-10-25T19:16:55Z</time>
  <speed>2.140000</speed>
</trkpt>
<trkpt lat="32.566009521" lon="35.009529114">
  <ele>134.989502</ele>
  <time>2011-10-25T19:16:57Z</time>
  <speed>1.500000</speed>
</trkpt>
<trkpt lat="32.565998077" lon="35.009502411">
  <ele>136.122314</ele>
  <time>2011-10-25T19:16:59Z</time>
  <speed>1.320000</speed>
</trkpt>
<trkpt lat="32.565967560" lon="35.009475708">
  <ele>136.188721</ele>
  <time>2011-10-25T19:17:01Z</time>
  <speed>2.390000</speed>
</trkpt>
<trkpt lat="32.565921783" lon="35.009452820">
  <ele>136.524658</ele>
  <time>2011-10-25T19:17:03Z</time>
  <speed>2.390000</speed>
</trkpt>
<trkpt lat="32.565895081" lon="35.009441376">
  <ele>136.286377</ele>
  <time>2011-10-25T19:17:04Z</time>
  <speed>2.230000</speed>
</trkpt>
<trkpt lat="32.565860748" lon="35.009407043">
  <ele>136.466064</ele>
  <time>2011-10-25T19:17:06Z</time>
  <speed>2.710000</speed>
</trkpt>
<trkpt lat="32.565830231" lon="35.009376526">
  <ele>137.641846</ele>
  <time>2011-10-25T19:17:08Z</time>
  <speed>2.090000</speed>
</trkpt>
<trkpt lat="32.565799713" lon="35.009346008">
  <ele>139.594971</ele>
  <time>2011-10-25T19:17:10Z</time>
  <speed>1.840000</speed>
</trkpt>
<trkpt lat="32.565780640" lon="35.009311676">
  <ele>139.653564</ele>
  <time>2011-10-25T19:17:12Z</time>
  <speed>1.490000</speed>
</trkpt>
<trkpt lat="32.565753937" lon="35.009288788">
  <ele>139.571533</ele>
  <time>2011-10-25T19:17:14Z</time>
  <speed>1.460000</speed>
</trkpt>
<trkpt lat="32.565727234" lon="35.009254456">
  <ele>138.923096</ele>
  <time>2011-10-25T19:17:16Z</time>
  <speed>1.830000</speed>
</trkpt>
<trkpt lat="32.565692902" lon="35.009231567">
  <ele>139.239502</ele>
  <time>2011-10-25T19:17:18Z</time>
  <speed>1.730000</speed>
</trkpt>
<trkpt lat="32.565647125" lon="35.009220123">
  <ele>137.997314</ele>
  <time>2011-10-25T19:17:20Z</time>
  <speed>1.890000</speed>
</trkpt>
<trkpt lat="32.565605164" lon="35.009231567">
  <ele>137.063721</ele>
  <time>2011-10-25T19:17:22Z</time>
  <speed>2.030000</speed>
</trkpt>
<trkpt lat="32.565570831" lon="35.009220123">
  <ele>136.848877</ele>
  <time>2011-10-25T19:17:24Z</time>
  <speed>1.990000</speed>
</trkpt>
<trkpt lat="32.565544128" lon="35.009197235">
  <ele>137.532471</ele>
  <time>2011-10-25T19:17:26Z</time>
  <speed>1.570000</speed>
</trkpt>
<trkpt lat="32.565528870" lon="35.009162903">
  <ele>138.966064</ele>
  <time>2011-10-25T19:17:28Z</time>
  <speed>1.420000</speed>
</trkpt>
<trkpt lat="32.565505981" lon="35.009136200">
  <ele>139.239502</ele>
  <time>2011-10-25T19:17:31Z</time>
  <speed>1.210000</speed>
</trkpt>
<trkpt lat="32.565475464" lon="35.009124756">
  <ele>139.075439</ele>
  <time>2011-10-25T19:17:33Z</time>
  <speed>1.820000</speed>
</trkpt>
<trkpt lat="32.565437317" lon="35.009105682">
  <ele>138.712158</ele>
  <time>2011-10-25T19:17:35Z</time>
  <speed>1.730000</speed>
</trkpt>
<trkpt lat="32.565406799" lon="35.009101868">
  <ele>137.384033</ele>
  <time>2011-10-25T19:17:37Z</time>
  <speed>1.980000</speed>
</trkpt>
<trkpt lat="32.565361023" lon="35.009105682">
  <ele>136.973877</ele>
  <time>2011-10-25T19:17:39Z</time>
  <speed>1.830000</speed>
</trkpt>
<trkpt lat="32.565315247" lon="35.009109497">
  <ele>136.419189</ele>
  <time>2011-10-25T19:17:41Z</time>
  <speed>2.560000</speed>
</trkpt>
<trkpt lat="32.565277100" lon="35.009132385">
  <ele>135.794189</ele>
  <time>2011-10-25T19:17:43Z</time>
  <speed>2.270000</speed>
</trkpt>
<trkpt lat="32.565227509" lon="35.009147644">
  <ele>135.755127</ele>
  <time>2011-10-25T19:17:45Z</time>
  <speed>3.190000</speed>
</trkpt>
<trkpt lat="32.565200806" lon="35.009143829">
  <ele>135.204346</ele>
  <time>2011-10-25T19:17:46Z</time>
  <speed>3.310000</speed>
</trkpt>
<trkpt lat="32.565166473" lon="35.009132385">
  <ele>134.966064</ele>
  <time>2011-10-25T19:17:47Z</time>
  <speed>3.410000</speed>
</trkpt>
<trkpt lat="32.565132141" lon="35.009136200">
  <ele>134.587158</ele>
  <time>2011-10-25T19:17:48Z</time>
  <speed>3.350000</speed>
</trkpt>
<trkpt lat="32.565097809" lon="35.009140015">
  <ele>133.973877</ele>
  <time>2011-10-25T19:17:49Z</time>
  <speed>3.360000</speed>
</trkpt>
<trkpt lat="32.565067291" lon="35.009147644">
  <ele>133.512939</ele>
  <time>2011-10-25T19:17:50Z</time>
  <speed>3.560000</speed>
</trkpt>
<trkpt lat="32.565029144" lon="35.009151459">
  <ele>132.887939</ele>
  <time>2011-10-25T19:17:51Z</time>
  <speed>3.460000</speed>
</trkpt>
<trkpt lat="32.564998627" lon="35.009162903">
  <ele>133.126221</ele>
  <time>2011-10-25T19:17:52Z</time>
  <speed>3.750000</speed>
</trkpt>
<trkpt lat="32.564956665" lon="35.009162903">
  <ele>133.360596</ele>
  <time>2011-10-25T19:17:53Z</time>
  <speed>4.090000</speed>
</trkpt>
<trkpt lat="32.564926147" lon="35.009166718">
  <ele>133.403564</ele>
  <time>2011-10-25T19:17:54Z</time>
  <speed>3.450000</speed>
</trkpt>
<trkpt lat="32.564899445" lon="35.009151459">
  <ele>132.868408</ele>
  <time>2011-10-25T19:17:55Z</time>
  <speed>3.350000</speed>
</trkpt>
<trkpt lat="32.564861298" lon="35.009151459">
  <ele>133.536377</ele>
  <time>2011-10-25T19:17:56Z</time>
  <speed>3.320000</speed>
</trkpt>
<trkpt lat="32.564834595" lon="35.009140015">
  <ele>132.626221</ele>
  <time>2011-10-25T19:17:57Z</time>
  <speed>3.250000</speed>
</trkpt>
<trkpt lat="32.564804077" lon="35.009132385">
  <ele>132.981689</ele>
  <time>2011-10-25T19:17:58Z</time>
  <speed>3.720000</speed>
</trkpt>
<trkpt lat="32.564773560" lon="35.009120941">
  <ele>132.852783</ele>
  <time>2011-10-25T19:17:59Z</time>
  <speed>3.970000</speed>
</trkpt>
<trkpt lat="32.564743042" lon="35.009098053">
  <ele>132.473877</ele>
  <time>2011-10-25T19:18:00Z</time>
  <speed>3.420000</speed>
</trkpt>
<trkpt lat="32.564701080" lon="35.009082794">
  <ele>132.864502</ele>
  <time>2011-10-25T19:18:02Z</time>
  <speed>1.660000</speed>
</trkpt>
<trkpt lat="32.564678192" lon="35.009113312">
  <ele>132.669189</ele>
  <time>2011-10-25T19:18:05Z</time>
  <speed>1.140000</speed>
</trkpt>
<trkpt lat="32.564659119" lon="35.009166718">
  <ele>132.805908</ele>
  <time>2011-10-25T19:18:07Z</time>
  <speed>2.620000</speed>
</trkpt>
<trkpt lat="32.564640045" lon="35.009193420">
  <ele>132.466064</ele>
  <time>2011-10-25T19:18:08Z</time>
  <speed>3.340000</speed>
</trkpt>
<trkpt lat="32.564617157" lon="35.009212494">
  <ele>132.274658</ele>
  <time>2011-10-25T19:18:09Z</time>
  <speed>2.570000</speed>
</trkpt>
<trkpt lat="32.564590454" lon="35.009231567">
  <ele>132.665283</ele>
  <time>2011-10-25T19:18:10Z</time>
  <speed>3.210000</speed>
</trkpt>
<trkpt lat="32.564559937" lon="35.009246826">
  <ele>132.317627</ele>
  <time>2011-10-25T19:18:11Z</time>
  <speed>3.390000</speed>
</trkpt>
<trkpt lat="32.564529419" lon="35.009258270">
  <ele>131.833252</ele>
  <time>2011-10-25T19:18:12Z</time>
  <speed>3.160000</speed>
</trkpt>
<trkpt lat="32.564502716" lon="35.009262085">
  <ele>130.891846</ele>
  <time>2011-10-25T19:18:13Z</time>
  <speed>2.810000</speed>
</trkpt>
<trkpt lat="32.564453125" lon="35.009235382">
  <ele>129.594971</ele>
  <time>2011-10-25T19:18:15Z</time>
  <speed>3.910000</speed>
</trkpt>
<trkpt lat="32.564426422" lon="35.009208679">
  <ele>129.356689</ele>
  <time>2011-10-25T19:18:16Z</time>
  <speed>3.480000</speed>
</trkpt>
<trkpt lat="32.564407349" lon="35.009174347">
  <ele>129.649658</ele>
  <time>2011-10-25T19:18:17Z</time>
  <speed>3.630000</speed>
</trkpt>
<trkpt lat="32.564395905" lon="35.009132385">
  <ele>129.305908</ele>
  <time>2011-10-25T19:18:18Z</time>
  <speed>3.630000</speed>
</trkpt>
<trkpt lat="32.564380646" lon="35.009098053">
  <ele>130.118408</ele>
  <time>2011-10-25T19:18:19Z</time>
  <speed>3.300000</speed>
</trkpt>
<trkpt lat="32.564357758" lon="35.009075165">
  <ele>130.512939</ele>
  <time>2011-10-25T19:18:20Z</time>
  <speed>2.650000</speed>
</trkpt>
<trkpt lat="32.564315796" lon="35.009067535">
  <ele>131.040283</ele>
  <time>2011-10-25T19:18:22Z</time>
  <speed>1.860000</speed>
</trkpt>
<trkpt lat="32.564281464" lon="35.009078979">
  <ele>131.852783</ele>
  <time>2011-10-25T19:18:24Z</time>
  <speed>0.330000</speed>
</trkpt>
<trkpt lat="32.564247131" lon="35.009101868">
  <ele>132.141846</ele>
  <time>2011-10-25T19:18:28Z</time>
  <speed>1.830000</speed>
</trkpt>
<trkpt lat="32.564189911" lon="35.009086609">
  <ele>132.352783</ele>
  <time>2011-10-25T19:18:30Z</time>
  <speed>4.020000</speed>
</trkpt>
<trkpt lat="32.564147949" lon="35.009075165">
  <ele>131.641846</ele>
  <time>2011-10-25T19:18:31Z</time>
  <speed>4.470000</speed>
</trkpt>
<trkpt lat="32.564105988" lon="35.009059906">
  <ele>131.540283</ele>
  <time>2011-10-25T19:18:32Z</time>
  <speed>4.320000</speed>
</trkpt>
<trkpt lat="32.564064026" lon="35.009048462">
  <ele>130.844971</ele>
  <time>2011-10-25T19:18:33Z</time>
  <speed>5.040000</speed>
</trkpt>
<trkpt lat="32.564022064" lon="35.009033203">
  <ele>130.528564</ele>
  <time>2011-10-25T19:18:34Z</time>
  <speed>4.870000</speed>
</trkpt>
<trkpt lat="32.563976288" lon="35.009017944">
  <ele>130.137939</ele>
  <time>2011-10-25T19:18:35Z</time>
  <speed>5.440000</speed>
</trkpt>
<trkpt lat="32.563926697" lon="35.008998871">
  <ele>129.438721</ele>
  <time>2011-10-25T19:18:36Z</time>
  <speed>5.190000</speed>
</trkpt>
<trkpt lat="32.563880920" lon="35.008987427">
  <ele>129.106689</ele>
  <time>2011-10-25T19:18:37Z</time>
  <speed>4.940000</speed>
</trkpt>
<trkpt lat="32.563850403" lon="35.008956909">
  <ele>128.813721</ele>
  <time>2011-10-25T19:18:38Z</time>
  <speed>3.630000</speed>
</trkpt>
<trkpt lat="32.563831329" lon="35.008930206">
  <ele>128.368408</ele>
  <time>2011-10-25T19:18:39Z</time>
  <speed>3.370000</speed>
</trkpt>
<trkpt lat="32.563808441" lon="35.008911133">
  <ele>128.309814</ele>
  <time>2011-10-25T19:18:40Z</time>
  <speed>3.010000</speed>
</trkpt>
<trkpt lat="32.563777924" lon="35.008895874">
  <ele>127.543579</ele>
  <time>2011-10-25T19:18:41Z</time>
  <speed>4.000000</speed>
</trkpt>
<trkpt lat="32.563739777" lon="35.008876801">
  <ele>126.256470</ele>
  <time>2011-10-25T19:18:42Z</time>
  <speed>4.420000</speed>
</trkpt>
<trkpt lat="32.563697815" lon="35.008861542">
  <ele>125.277954</ele>
  <time>2011-10-25T19:18:43Z</time>
  <speed>5.070000</speed>
</trkpt>
<trkpt lat="32.563655853" lon="35.008842468">
  <ele>124.162720</ele>
  <time>2011-10-25T19:18:44Z</time>
  <speed>4.770000</speed>
</trkpt>
<trkpt lat="32.563613892" lon="35.008827209">
  <ele>123.641235</ele>
  <time>2011-10-25T19:18:45Z</time>
  <speed>4.500000</speed>
</trkpt>
<trkpt lat="32.563575745" lon="35.008815765">
  <ele>122.979126</ele>
  <time>2011-10-25T19:18:46Z</time>
  <speed>4.150000</speed>
</trkpt>
<trkpt lat="32.563533783" lon="35.008800507">
  <ele>122.936157</ele>
  <time>2011-10-25T19:18:47Z</time>
  <speed>4.390000</speed>
</trkpt>
<trkpt lat="32.563491821" lon="35.008785248">
  <ele>121.537720</ele>
  <time>2011-10-25T19:18:48Z</time>
  <speed>4.790000</speed>
</trkpt>
<trkpt lat="32.563449860" lon="35.008766174">
  <ele>120.567017</ele>
  <time>2011-10-25T19:18:49Z</time>
  <speed>4.180000</speed>
</trkpt>
<trkpt lat="32.563411713" lon="35.008758545">
  <ele>119.666626</ele>
  <time>2011-10-25T19:18:50Z</time>
  <speed>4.520000</speed>
</trkpt>
<trkpt lat="32.563362122" lon="35.008758545">
  <ele>119.850220</ele>
  <time>2011-10-25T19:18:51Z</time>
  <speed>4.480000</speed>
</trkpt>
<trkpt lat="32.563323975" lon="35.008762360">
  <ele>119.008423</ele>
  <time>2011-10-25T19:18:52Z</time>
  <speed>4.250000</speed>
</trkpt>
<trkpt lat="32.563285828" lon="35.008773804">
  <ele>118.776001</ele>
  <time>2011-10-25T19:18:53Z</time>
  <speed>4.050000</speed>
</trkpt>
<trkpt lat="32.563259125" lon="35.008796692">
  <ele>116.902954</ele>
  <time>2011-10-25T19:18:54Z</time>
  <speed>3.310000</speed>
</trkpt>
<trkpt lat="32.563228607" lon="35.008811951">
  <ele>115.777954</ele>
  <time>2011-10-25T19:18:55Z</time>
  <speed>3.190000</speed>
</trkpt>
<trkpt lat="32.563201904" lon="35.008842468">
  <ele>114.908813</ele>
  <time>2011-10-25T19:18:56Z</time>
  <speed>4.460000</speed>
</trkpt>
<trkpt lat="32.563163757" lon="35.008892059">
  <ele>114.658813</ele>
  <time>2011-10-25T19:18:57Z</time>
  <speed>5.410000</speed>
</trkpt>
<trkpt lat="32.563117981" lon="35.008945465">
  <ele>114.836548</ele>
  <time>2011-10-25T19:18:58Z</time>
  <speed>5.820000</speed>
</trkpt>
<trkpt lat="32.563087463" lon="35.008991241">
  <ele>113.133423</ele>
  <time>2011-10-25T19:18:59Z</time>
  <speed>5.530000</speed>
</trkpt>
<trkpt lat="32.563045502" lon="35.009048462">
  <ele>113.262329</ele>
  <time>2011-10-25T19:19:00Z</time>
  <speed>6.150000</speed>
</trkpt>
<trkpt lat="32.563003540" lon="35.009090424">
  <ele>112.178345</ele>
  <time>2011-10-25T19:19:01Z</time>
  <speed>5.990000</speed>
</trkpt>
<trkpt lat="32.562957764" lon="35.009120941">
  <ele>111.572876</ele>
  <time>2011-10-25T19:19:02Z</time>
  <speed>5.540000</speed>
</trkpt>
<trkpt lat="32.562904358" lon="35.009155273">
  <ele>111.479126</ele>
  <time>2011-10-25T19:19:03Z</time>
  <speed>5.750000</speed>
</trkpt>
<trkpt lat="32.562858582" lon="35.009189606">
  <ele>110.906860</ele>
  <time>2011-10-25T19:19:04Z</time>
  <speed>6.010000</speed>
</trkpt>
<trkpt lat="32.562812805" lon="35.009227753">
  <ele>109.693970</ele>
  <time>2011-10-25T19:19:05Z</time>
  <speed>6.500000</speed>
</trkpt>
<trkpt lat="32.562763214" lon="35.009258270">
  <ele>109.322876</ele>
  <time>2011-10-25T19:19:06Z</time>
  <speed>5.770000</speed>
</trkpt>
<trkpt lat="32.562709808" lon="35.009284973">
  <ele>109.654907</ele>
  <time>2011-10-25T19:19:07Z</time>
  <speed>5.930000</speed>
</trkpt>
<trkpt lat="32.562656403" lon="35.009315491">
  <ele>108.627563</ele>
  <time>2011-10-25T19:19:08Z</time>
  <speed>6.340000</speed>
</trkpt>
<trkpt lat="32.562599182" lon="35.009330750">
  <ele>108.791626</ele>
  <time>2011-10-25T19:19:09Z</time>
  <speed>6.420000</speed>
</trkpt>
<trkpt lat="32.562541962" lon="35.009342194">
  <ele>108.561157</ele>
  <time>2011-10-25T19:19:10Z</time>
  <speed>6.230000</speed>
</trkpt>
<trkpt lat="32.562484741" lon="35.009338379">
  <ele>108.401001</ele>
  <time>2011-10-25T19:19:11Z</time>
  <speed>6.370000</speed>
</trkpt>
<trkpt lat="32.562419891" lon="35.009346008">
  <ele>109.092407</ele>
  <time>2011-10-25T19:19:12Z</time>
  <speed>6.190000</speed>
</trkpt>
<trkpt lat="32.562358856" lon="35.009349823">
  <ele>109.514282</ele>
  <time>2011-10-25T19:19:13Z</time>
  <speed>6.070000</speed>
</trkpt>
<trkpt lat="32.562305450" lon="35.009357452">
  <ele>108.701782</ele>
  <time>2011-10-25T19:19:14Z</time>
  <speed>5.660000</speed>
</trkpt>
<trkpt lat="32.562252045" lon="35.009384155">
  <ele>108.910767</ele>
  <time>2011-10-25T19:19:15Z</time>
  <speed>5.960000</speed>
</trkpt>
<trkpt lat="32.562194824" lon="35.009399414">
  <ele>108.065063</ele>
  <time>2011-10-25T19:19:16Z</time>
  <speed>6.100000</speed>
</trkpt>
<trkpt lat="32.562141418" lon="35.009410858">
  <ele>107.555298</ele>
  <time>2011-10-25T19:19:17Z</time>
  <speed>6.190000</speed>
</trkpt>
<trkpt lat="32.562088013" lon="35.009414673">
  <ele>107.279907</ele>
  <time>2011-10-25T19:19:18Z</time>
  <speed>5.890000</speed>
</trkpt>
<trkpt lat="32.562042236" lon="35.009414673">
  <ele>106.375610</ele>
  <time>2011-10-25T19:19:19Z</time>
  <speed>4.650000</speed>
</trkpt>
<trkpt lat="32.561988831" lon="35.009452820">
  <ele>106.572876</ele>
  <time>2011-10-25T19:19:20Z</time>
  <speed>5.840000</speed>
</trkpt>
<trkpt lat="32.561943054" lon="35.009479523">
  <ele>106.320923</ele>
  <time>2011-10-25T19:19:21Z</time>
  <speed>5.910000</speed>
</trkpt>
<trkpt lat="32.561893463" lon="35.009510040">
  <ele>106.762329</ele>
  <time>2011-10-25T19:19:22Z</time>
  <speed>5.210000</speed>
</trkpt>
<trkpt lat="32.561851501" lon="35.009540558">
  <ele>107.352173</ele>
  <time>2011-10-25T19:19:23Z</time>
  <speed>5.270000</speed>
</trkpt>
<trkpt lat="32.561813354" lon="35.009574890">
  <ele>106.711548</ele>
  <time>2011-10-25T19:19:24Z</time>
  <speed>5.550000</speed>
</trkpt>
<trkpt lat="32.561771393" lon="35.009609222">
  <ele>106.508423</ele>
  <time>2011-10-25T19:19:25Z</time>
  <speed>5.960000</speed>
</trkpt>
<trkpt lat="32.561721802" lon="35.009647369">
  <ele>105.553345</ele>
  <time>2011-10-25T19:19:26Z</time>
  <speed>6.690000</speed>
</trkpt>
<trkpt lat="32.561672211" lon="35.009693146">
  <ele>105.424438</ele>
  <time>2011-10-25T19:19:27Z</time>
  <speed>6.550000</speed>
</trkpt>
<trkpt lat="32.561622620" lon="35.009727478">
  <ele>105.461548</ele>
  <time>2011-10-25T19:19:28Z</time>
  <speed>6.470000</speed>
</trkpt>
<trkpt lat="32.561580658" lon="35.009765625">
  <ele>104.004517</ele>
  <time>2011-10-25T19:19:29Z</time>
  <speed>6.540000</speed>
</trkpt>
<trkpt lat="32.561542511" lon="35.009815216">
  <ele>103.422485</ele>
  <time>2011-10-25T19:19:30Z</time>
  <speed>6.310000</speed>
</trkpt>
<trkpt lat="32.561500549" lon="35.009880066">
  <ele>103.850220</ele>
  <time>2011-10-25T19:19:31Z</time>
  <speed>7.210000</speed>
</trkpt>
<trkpt lat="32.561454773" lon="35.009948730">
  <ele>103.494751</ele>
  <time>2011-10-25T19:19:32Z</time>
  <speed>7.020000</speed>
</trkpt>
<trkpt lat="32.561416626" lon="35.009998322">
  <ele>102.926392</ele>
  <time>2011-10-25T19:19:33Z</time>
  <speed>6.220000</speed>
</trkpt>
<trkpt lat="32.561378479" lon="35.010047913">
  <ele>102.225220</ele>
  <time>2011-10-25T19:19:34Z</time>
  <speed>6.090000</speed>
</trkpt>
<trkpt lat="32.561351776" lon="35.010097504">
  <ele>102.109985</ele>
  <time>2011-10-25T19:19:35Z</time>
  <speed>5.040000</speed>
</trkpt>
<trkpt lat="32.561332703" lon="35.010147095">
  <ele>101.295532</ele>
  <time>2011-10-25T19:19:36Z</time>
  <speed>5.500000</speed>
</trkpt>
<trkpt lat="32.561309814" lon="35.010196686">
  <ele>101.193970</ele>
  <time>2011-10-25T19:19:37Z</time>
  <speed>5.220000</speed>
</trkpt>
<trkpt lat="32.561290741" lon="35.010246277">
  <ele>101.715454</ele>
  <time>2011-10-25T19:19:38Z</time>
  <speed>4.910000</speed>
</trkpt>
<trkpt lat="32.561283112" lon="35.010292053">
  <ele>101.738892</ele>
  <time>2011-10-25T19:19:39Z</time>
  <speed>4.580000</speed>
</trkpt>
<trkpt lat="32.561275482" lon="35.010337830">
  <ele>101.227173</ele>
  <time>2011-10-25T19:19:40Z</time>
  <speed>4.260000</speed>
</trkpt>
<trkpt lat="32.561271667" lon="35.010375977">
  <ele>100.873657</ele>
  <time>2011-10-25T19:19:41Z</time>
  <speed>3.710000</speed>
</trkpt>
<trkpt lat="32.561275482" lon="35.010406494">
  <ele>100.649048</ele>
  <time>2011-10-25T19:19:42Z</time>
  <speed>3.510000</speed>
</trkpt>
<trkpt lat="32.561286926" lon="35.010440826">
  <ele>100.688110</ele>
  <time>2011-10-25T19:19:43Z</time>
  <speed>3.640000</speed>
</trkpt>
<trkpt lat="32.561290741" lon="35.010475159">
  <ele>100.678345</ele>
  <time>2011-10-25T19:19:44Z</time>
  <speed>3.940000</speed>
</trkpt>
<trkpt lat="32.561298370" lon="35.010517120">
  <ele>100.633423</ele>
  <time>2011-10-25T19:19:45Z</time>
  <speed>4.130000</speed>
</trkpt>
<trkpt lat="32.561309814" lon="35.010559082">
  <ele>100.758423</ele>
  <time>2011-10-25T19:19:46Z</time>
  <speed>4.200000</speed>
</trkpt>
<trkpt lat="32.561336517" lon="35.010608673">
  <ele>100.666626</ele>
  <time>2011-10-25T19:19:47Z</time>
  <speed>4.890000</speed>
</trkpt>
<trkpt lat="32.561367035" lon="35.010658264">
  <ele>100.568970</ele>
  <time>2011-10-25T19:19:48Z</time>
  <speed>4.710000</speed>
</trkpt>
<trkpt lat="32.561386108" lon="35.010700226">
  <ele>100.561157</ele>
  <time>2011-10-25T19:19:49Z</time>
  <speed>4.590000</speed>
</trkpt>
<trkpt lat="32.561408997" lon="35.010738373">
  <ele>100.590454</ele>
  <time>2011-10-25T19:19:50Z</time>
  <speed>3.990000</speed>
</trkpt>
<trkpt lat="32.561424255" lon="35.010765076">
  <ele>99.861938</ele>
  <time>2011-10-25T19:19:51Z</time>
  <speed>3.680000</speed>
</trkpt>
<trkpt lat="32.561450958" lon="35.010795593">
  <ele>100.205688</ele>
  <time>2011-10-25T19:19:52Z</time>
  <speed>3.380000</speed>
</trkpt>
<trkpt lat="32.561473846" lon="35.010822296">
  <ele>99.486938</ele>
  <time>2011-10-25T19:19:53Z</time>
  <speed>2.830000</speed>
</trkpt>
<trkpt lat="32.561515808" lon="35.010852814">
  <ele>98.295532</ele>
  <time>2011-10-25T19:19:55Z</time>
  <speed>2.120000</speed>
</trkpt>
<trkpt lat="32.561546326" lon="35.010875702">
  <ele>97.178345</ele>
  <time>2011-10-25T19:19:57Z</time>
  <speed>2.350000</speed>
</trkpt>
<trkpt lat="32.561569214" lon="35.010925293">
  <ele>95.393188</ele>
  <time>2011-10-25T19:19:59Z</time>
  <speed>3.260000</speed>
</trkpt>
<trkpt lat="32.561576843" lon="35.010955811">
  <ele>94.012329</ele>
  <time>2011-10-25T19:20:00Z</time>
  <speed>3.170000</speed>
</trkpt>
<trkpt lat="32.561592102" lon="35.010986328">
  <ele>92.565063</ele>
  <time>2011-10-25T19:20:01Z</time>
  <speed>3.320000</speed>
</trkpt>
<trkpt lat="32.561611176" lon="35.011020660">
  <ele>91.184204</ele>
  <time>2011-10-25T19:20:02Z</time>
  <speed>3.900000</speed>
</trkpt>
<trkpt lat="32.561626434" lon="35.011058807">
  <ele>89.963501</ele>
  <time>2011-10-25T19:20:03Z</time>
  <speed>4.240000</speed>
</trkpt>
<trkpt lat="32.561649323" lon="35.011100769">
  <ele>89.537720</ele>
  <time>2011-10-25T19:20:04Z</time>
  <speed>4.480000</speed>
</trkpt>
<trkpt lat="32.561683655" lon="35.011127472">
  <ele>88.559204</ele>
  <time>2011-10-25T19:20:05Z</time>
  <speed>4.420000</speed>
</trkpt>
<trkpt lat="32.561725616" lon="35.011154175">
  <ele>88.121704</ele>
  <time>2011-10-25T19:20:06Z</time>
  <speed>4.700000</speed>
</trkpt>
<trkpt lat="32.561763763" lon="35.011161804">
  <ele>87.026001</ele>
  <time>2011-10-25T19:20:07Z</time>
  <speed>4.120000</speed>
</trkpt>
<trkpt lat="32.561790466" lon="35.011173248">
  <ele>85.553345</ele>
  <time>2011-10-25T19:20:08Z</time>
  <speed>2.830000</speed>
</trkpt>
<trkpt lat="32.561817169" lon="35.011192322">
  <ele>85.447876</ele>
  <time>2011-10-25T19:20:09Z</time>
  <speed>3.460000</speed>
</trkpt>
<trkpt lat="32.561843872" lon="35.011211395">
  <ele>84.711548</ele>
  <time>2011-10-25T19:20:10Z</time>
  <speed>3.390000</speed>
</trkpt>
<trkpt lat="32.561862946" lon="35.011238098">
  <ele>84.363892</ele>
  <time>2011-10-25T19:20:11Z</time>
  <speed>3.960000</speed>
</trkpt>
<trkpt lat="32.561882019" lon="35.011272430">
  <ele>84.070923</ele>
  <time>2011-10-25T19:20:12Z</time>
  <speed>4.420000</speed>
</trkpt>
<trkpt lat="32.561901093" lon="35.011306763">
  <ele>82.891235</ele>
  <time>2011-10-25T19:20:13Z</time>
  <speed>4.000000</speed>
</trkpt>
<trkpt lat="32.561916351" lon="35.011337280">
  <ele>81.660767</ele>
  <time>2011-10-25T19:20:14Z</time>
  <speed>3.460000</speed>
</trkpt>
<trkpt lat="32.561885834" lon="35.011375427">
  <ele>81.520142</ele>
  <time>2011-10-25T19:20:15Z</time>
  <speed>1.770000</speed>
</trkpt>
<trkpt lat="32.561866760" lon="35.011432648">
  <ele>81.272095</ele>
  <time>2011-10-25T19:20:17Z</time>
  <speed>3.270000</speed>
</trkpt>
<trkpt lat="32.561862946" lon="35.011466980">
  <ele>81.430298</ele>
  <time>2011-10-25T19:20:18Z</time>
  <speed>2.940000</speed>
</trkpt>
<trkpt lat="32.561859131" lon="35.011516571">
  <ele>80.160767</ele>
  <time>2011-10-25T19:20:20Z</time>
  <speed>1.740000</speed>
</trkpt>
<trkpt lat="32.561836243" lon="35.011539459">
  <ele>81.072876</ele>
  <time>2011-10-25T19:20:22Z</time>
  <speed>0.310000</speed>
</trkpt>
<trkpt lat="32.561809540" lon="35.011550903">
  <ele>82.619751</ele>
  <time>2011-10-25T19:20:26Z</time>
  <speed>0.270000</speed>
</trkpt>
<trkpt lat="32.561794281" lon="35.011566162">
  <ele>84.557251</ele>
  <time>2011-10-25T19:20:34Z</time>
</trkpt>
<trkpt lat="32.561798096" lon="35.011592865">
  <ele>86.246704</ele>
  <time>2011-10-25T19:20:50Z</time>
  <speed>0.060000</speed>
</trkpt>
<trkpt lat="32.561809540" lon="35.011566162">
  <ele>87.547485</ele>
  <time>2011-10-25T19:21:29Z</time>
</trkpt>
<trkpt lat="32.561828613" lon="35.011543274">
  <ele>87.276001</ele>
  <time>2011-10-25T19:22:26Z</time>
  <speed>0.550000</speed>
</trkpt>
<trkpt lat="32.561840057" lon="35.011512756">
  <ele>87.342407</ele>
  <time>2011-10-25T19:22:32Z</time>
  <speed>0.350000</speed>
</trkpt>
<trkpt lat="32.561832428" lon="35.011482239">
  <ele>88.217407</ele>
  <time>2011-10-25T19:22:47Z</time>
  <speed>0.150000</speed>
</trkpt>
<trkpt lat="32.561828613" lon="35.011459351">
  <ele>90.160767</ele>
  <time>2011-10-25T19:23:23Z</time>
  <speed>0.120000</speed>
</trkpt>
<trkpt lat="32.561828613" lon="35.011421204">
  <ele>90.250610</ele>
  <time>2011-10-25T19:23:27Z</time>
  <speed>0.920000</speed>
</trkpt>
<trkpt lat="32.561840057" lon="35.011390686">
  <ele>90.113892</ele>
  <time>2011-10-25T19:23:30Z</time>
  <speed>0.700000</speed>
</trkpt>
<trkpt lat="32.561859131" lon="35.011356354">
  <ele>90.957642</ele>
  <time>2011-10-25T19:23:33Z</time>
  <speed>1.120000</speed>
</trkpt>
<trkpt lat="32.561866760" lon="35.011322021">
  <ele>91.834595</ele>
  <time>2011-10-25T19:23:36Z</time>
  <speed>0.980000</speed>
</trkpt>
<trkpt lat="32.561855316" lon="35.011287689">
  <ele>92.258423</ele>
  <time>2011-10-25T19:23:39Z</time>
  <speed>1.080000</speed>
</trkpt>
<trkpt lat="32.561843872" lon="35.011249542">
  <ele>92.615845</ele>
  <time>2011-10-25T19:23:42Z</time>
  <speed>1.130000</speed>
</trkpt>
<trkpt lat="32.561836243" lon="35.011215210">
  <ele>92.518188</ele>
  <time>2011-10-25T19:23:45Z</time>
  <speed>0.970000</speed>
</trkpt>
<trkpt lat="32.561824799" lon="35.011184692">
  <ele>93.199829</ele>
  <time>2011-10-25T19:23:48Z</time>
  <speed>1.020000</speed>
</trkpt>
<trkpt lat="32.561859131" lon="35.011177063">
  <ele>92.479126</ele>
  <time>2011-10-25T19:23:52Z</time>
  <speed>1.030000</speed>
</trkpt>
<trkpt lat="32.561878204" lon="35.011150360">
  <ele>92.856079</ele>
  <time>2011-10-25T19:23:55Z</time>
  <speed>0.520000</speed>
</trkpt>
<trkpt lat="32.561901093" lon="35.011127472">
  <ele>94.303345</ele>
  <time>2011-10-25T19:23:58Z</time>
  <speed>0.830000</speed>
</trkpt>
<trkpt lat="32.561927795" lon="35.011123657">
  <ele>94.545532</ele>
  <time>2011-10-25T19:24:04Z</time>
  <speed>0.430000</speed>
</trkpt>
<trkpt lat="32.561950684" lon="35.011135101">
  <ele>96.195923</ele>
  <time>2011-10-25T19:24:36Z</time>
  <speed>0.140000</speed>
</trkpt>
<trkpt lat="32.561969757" lon="35.011131287">
  <ele>98.180298</ele>
  <time>2011-10-25T19:24:44Z</time>
  <speed>0.300000</speed>
</trkpt>
<trkpt lat="32.561996460" lon="35.011123657">
  <ele>99.049438</ele>
  <time>2011-10-25T19:24:51Z</time>
  <speed>0.200000</speed>
</trkpt>
<trkpt lat="32.562034607" lon="35.011146545">
  <ele>99.379517</ele>
  <time>2011-10-25T19:24:56Z</time>
  <speed>2.090000</speed>
</trkpt>
<trkpt lat="32.562072754" lon="35.011173248">
  <ele>99.143188</ele>
  <time>2011-10-25T19:24:58Z</time>
  <speed>2.390000</speed>
</trkpt>
<trkpt lat="32.562107086" lon="35.011188507">
  <ele>97.848267</ele>
  <time>2011-10-25T19:25:00Z</time>
  <speed>1.620000</speed>
</trkpt>
<trkpt lat="32.562141418" lon="35.011199951">
  <ele>96.916626</ele>
  <time>2011-10-25T19:25:02Z</time>
  <speed>2.130000</speed>
</trkpt>
<trkpt lat="32.562164307" lon="35.011207581">
  <ele>96.231079</ele>
  <time>2011-10-25T19:25:03Z</time>
  <speed>3.110000</speed>
</trkpt>
<trkpt lat="32.562202454" lon="35.011219025">
  <ele>95.920532</ele>
  <time>2011-10-25T19:25:04Z</time>
  <speed>3.670000</speed>
</trkpt>
<trkpt lat="32.562232971" lon="35.011230469">
  <ele>95.182251</ele>
  <time>2011-10-25T19:25:05Z</time>
  <speed>3.930000</speed>
</trkpt>
<trkpt lat="32.562271118" lon="35.011238098">
  <ele>94.953735</ele>
  <time>2011-10-25T19:25:06Z</time>
  <speed>4.130000</speed>
</trkpt>
<trkpt lat="32.562313080" lon="35.011245728">
  <ele>95.135376</ele>
  <time>2011-10-25T19:25:07Z</time>
  <speed>4.920000</speed>
</trkpt>
<trkpt lat="32.562347412" lon="35.011249542">
  <ele>95.717407</ele>
  <time>2011-10-25T19:25:08Z</time>
  <speed>4.940000</speed>
</trkpt>
<trkpt lat="32.562393188" lon="35.011245728">
  <ele>95.436157</ele>
  <time>2011-10-25T19:25:09Z</time>
  <speed>4.210000</speed>
</trkpt>
<trkpt lat="32.562423706" lon="35.011241913">
  <ele>95.123657</ele>
  <time>2011-10-25T19:25:10Z</time>
  <speed>3.710000</speed>
</trkpt>
<trkpt lat="32.562465668" lon="35.011226654">
  <ele>93.248657</ele>
  <time>2011-10-25T19:25:11Z</time>
  <speed>3.810000</speed>
</trkpt>
<trkpt lat="32.562492371" lon="35.011215210">
  <ele>93.252563</ele>
  <time>2011-10-25T19:25:13Z</time>
  <speed>2.220000</speed>
</trkpt>
<trkpt lat="32.562522888" lon="35.011207581">
  <ele>94.272095</ele>
  <time>2011-10-25T19:25:15Z</time>
  <speed>2.260000</speed>
</trkpt>
<trkpt lat="32.562549591" lon="35.011196136">
  <ele>94.584595</ele>
  <time>2011-10-25T19:25:17Z</time>
  <speed>1.780000</speed>
</trkpt>
<trkpt lat="32.562583923" lon="35.011173248">
  <ele>93.875610</ele>
  <time>2011-10-25T19:25:19Z</time>
  <speed>2.400000</speed>
</trkpt>
<trkpt lat="32.562622070" lon="35.011161804">
  <ele>94.309204</ele>
  <time>2011-10-25T19:25:21Z</time>
  <speed>2.280000</speed>
</trkpt>
<trkpt lat="32.562652588" lon="35.011150360">
  <ele>94.307251</ele>
  <time>2011-10-25T19:25:23Z</time>
  <speed>1.750000</speed>
</trkpt>
<trkpt lat="32.562675476" lon="35.011135101">
  <ele>94.740845</ele>
  <time>2011-10-25T19:25:25Z</time>
  <speed>1.900000</speed>
</trkpt>
<trkpt lat="32.562698364" lon="35.011116028">
  <ele>94.416626</ele>
  <time>2011-10-25T19:25:27Z</time>
  <speed>1.570000</speed>
</trkpt>
<trkpt lat="32.562721252" lon="35.011096954">
  <ele>95.080688</ele>
  <time>2011-10-25T19:25:30Z</time>
  <speed>1.220000</speed>
</trkpt>
<trkpt lat="32.562751770" lon="35.011070251">
  <ele>96.123657</ele>
  <time>2011-10-25T19:25:33Z</time>
  <speed>1.620000</speed>
</trkpt>
<trkpt lat="32.562789917" lon="35.011035919">
  <ele>97.379517</ele>
  <time>2011-10-25T19:25:35Z</time>
  <speed>2.240000</speed>
</trkpt>
<trkpt lat="32.562816620" lon="35.011013031">
  <ele>97.301392</ele>
  <time>2011-10-25T19:25:37Z</time>
  <speed>2.010000</speed>
</trkpt>
<trkpt lat="32.562843323" lon="35.010993958">
  <ele>97.836548</ele>
  <time>2011-10-25T19:25:39Z</time>
  <speed>1.820000</speed>
</trkpt>
<trkpt lat="32.562877655" lon="35.010990143">
  <ele>98.293579</ele>
  <time>2011-10-25T19:25:41Z</time>
  <speed>1.210000</speed>
</trkpt>
<trkpt lat="32.562904358" lon="35.010978699">
  <ele>98.086548</ele>
  <time>2011-10-25T19:25:43Z</time>
  <speed>1.940000</speed>
</trkpt>
<trkpt lat="32.562938690" lon="35.010955811">
  <ele>97.641235</ele>
  <time>2011-10-25T19:25:45Z</time>
  <speed>1.520000</speed>
</trkpt>
<trkpt lat="32.562961578" lon="35.010921478">
  <ele>97.596313</ele>
  <time>2011-10-25T19:25:47Z</time>
  <speed>1.420000</speed>
</trkpt>
<trkpt lat="32.562976837" lon="35.010894775">
  <ele>99.738892</ele>
  <time>2011-10-25T19:25:51Z</time>
  <speed>0.770000</speed>
</trkpt>
<trkpt lat="32.563003540" lon="35.010868073">
  <ele>100.598267</ele>
  <time>2011-10-25T19:25:57Z</time>
  <speed>1.230000</speed>
</trkpt>
<trkpt lat="32.563037872" lon="35.010845184">
  <ele>100.608032</ele>
  <time>2011-10-25T19:26:00Z</time>
  <speed>1.880000</speed>
</trkpt>
<trkpt lat="32.563064575" lon="35.010826111">
  <ele>100.942017</ele>
  <time>2011-10-25T19:26:02Z</time>
  <speed>2.060000</speed>
</trkpt>
<trkpt lat="32.563102722" lon="35.010803223">
  <ele>101.662720</ele>
  <time>2011-10-25T19:26:04Z</time>
  <speed>2.120000</speed>
</trkpt>
<trkpt lat="32.563129425" lon="35.010795593">
  <ele>101.432251</ele>
  <time>2011-10-25T19:26:05Z</time>
  <speed>2.610000</speed>
</trkpt>
<trkpt lat="32.563175201" lon="35.010768890">
  <ele>102.608032</ele>
  <time>2011-10-25T19:26:07Z</time>
  <speed>2.850000</speed>
</trkpt>
<trkpt lat="32.563213348" lon="35.010738373">
  <ele>102.951782</ele>
  <time>2011-10-25T19:26:09Z</time>
  <speed>2.380000</speed>
</trkpt>
<trkpt lat="32.563240051" lon="35.010723114">
  <ele>103.418579</ele>
  <time>2011-10-25T19:26:10Z</time>
  <speed>3.140000</speed>
</trkpt>
<trkpt lat="32.563266754" lon="35.010707855">
  <ele>103.422485</ele>
  <time>2011-10-25T19:26:11Z</time>
  <speed>3.030000</speed>
</trkpt>
<trkpt lat="32.563293457" lon="35.010688782">
  <ele>102.947876</ele>
  <time>2011-10-25T19:26:12Z</time>
  <speed>2.790000</speed>
</trkpt>
<trkpt lat="32.563331604" lon="35.010665894">
  <ele>102.490845</ele>
  <time>2011-10-25T19:26:14Z</time>
  <speed>2.130000</speed>
</trkpt>
<trkpt lat="32.563365936" lon="35.010654449">
  <ele>102.483032</ele>
  <time>2011-10-25T19:26:16Z</time>
  <speed>1.950000</speed>
</trkpt>
<trkpt lat="32.563400269" lon="35.010650635">
  <ele>102.699829</ele>
  <time>2011-10-25T19:26:18Z</time>
  <speed>1.990000</speed>
</trkpt>
<trkpt lat="32.563438416" lon="35.010650635">
  <ele>103.602173</ele>
  <time>2011-10-25T19:26:20Z</time>
  <speed>1.570000</speed>
</trkpt>
<trkpt lat="32.563476563" lon="35.010665894">
  <ele>104.356079</ele>
  <time>2011-10-25T19:26:22Z</time>
  <speed>2.170000</speed>
</trkpt>
<trkpt lat="32.563510895" lon="35.010677338">
  <ele>104.803345</ele>
  <time>2011-10-25T19:26:24Z</time>
  <speed>1.330000</speed>
</trkpt>
<trkpt lat="32.563537598" lon="35.010696411">
  <ele>105.916626</ele>
  <time>2011-10-25T19:26:26Z</time>
  <speed>1.870000</speed>
</trkpt>
<trkpt lat="32.563564301" lon="35.010696411">
  <ele>106.832642</ele>
  <time>2011-10-25T19:26:28Z</time>
  <speed>1.270000</speed>
</trkpt>
<trkpt lat="32.563598633" lon="35.010692596">
  <ele>107.492798</ele>
  <time>2011-10-25T19:26:31Z</time>
  <speed>1.610000</speed>
</trkpt>
<trkpt lat="32.563640594" lon="35.010684967">
  <ele>108.293579</ele>
  <time>2011-10-25T19:26:34Z</time>
  <speed>1.980000</speed>
</trkpt>
<trkpt lat="32.563671112" lon="35.010673523">
  <ele>108.145142</ele>
  <time>2011-10-25T19:26:36Z</time>
  <speed>2.160000</speed>
</trkpt>
<trkpt lat="32.563701630" lon="35.010662079">
  <ele>108.619751</ele>
  <time>2011-10-25T19:26:38Z</time>
  <speed>2.070000</speed>
</trkpt>
<trkpt lat="32.563735962" lon="35.010654449">
  <ele>107.861938</ele>
  <time>2011-10-25T19:26:40Z</time>
  <speed>1.510000</speed>
</trkpt>
<trkpt lat="32.563774109" lon="35.010643005">
  <ele>108.924438</ele>
  <time>2011-10-25T19:26:42Z</time>
  <speed>1.990000</speed>
</trkpt>
<trkpt lat="32.563812256" lon="35.010623932">
  <ele>107.680298</ele>
  <time>2011-10-25T19:26:45Z</time>
  <speed>2.470000</speed>
</trkpt>
<trkpt lat="32.563850403" lon="35.010612488">
  <ele>108.492798</ele>
  <time>2011-10-25T19:26:47Z</time>
  <speed>1.800000</speed>
</trkpt>
<trkpt lat="32.563884735" lon="35.010612488">
  <ele>108.404907</ele>
  <time>2011-10-25T19:26:49Z</time>
  <speed>1.650000</speed>
</trkpt>
<trkpt lat="32.563919067" lon="35.010604858">
  <ele>109.387329</ele>
  <time>2011-10-25T19:26:51Z</time>
  <speed>2.110000</speed>
</trkpt>
<trkpt lat="32.563957214" lon="35.010593414">
  <ele>109.576782</ele>
  <time>2011-10-25T19:26:54Z</time>
  <speed>1.220000</speed>
</trkpt>
<trkpt lat="32.563983917" lon="35.010589600">
  <ele>111.553345</ele>
  <time>2011-10-25T19:26:56Z</time>
  <speed>1.390000</speed>
</trkpt>
<trkpt lat="32.564010620" lon="35.010581970">
  <ele>110.703735</ele>
  <time>2011-10-25T19:26:58Z</time>
  <speed>1.520000</speed>
</trkpt>
<trkpt lat="32.564037323" lon="35.010570526">
  <ele>110.129517</ele>
  <time>2011-10-25T19:27:00Z</time>
  <speed>1.680000</speed>
</trkpt>
<trkpt lat="32.564079285" lon="35.010559082">
  <ele>111.084595</ele>
  <time>2011-10-25T19:27:03Z</time>
  <speed>1.480000</speed>
</trkpt>
<trkpt lat="32.564105988" lon="35.010562897">
  <ele>111.418579</ele>
  <time>2011-10-25T19:27:05Z</time>
  <speed>1.380000</speed>
</trkpt>
<trkpt lat="32.564144135" lon="35.010574341">
  <ele>112.035767</ele>
  <time>2011-10-25T19:27:08Z</time>
  <speed>1.190000</speed>
</trkpt>
<trkpt lat="32.564170837" lon="35.010570526">
  <ele>113.272095</ele>
  <time>2011-10-25T19:27:10Z</time>
  <speed>1.470000</speed>
</trkpt>
<trkpt lat="32.564201355" lon="35.010547638">
  <ele>112.975220</ele>
  <time>2011-10-25T19:27:12Z</time>
  <speed>1.750000</speed>
</trkpt>
<trkpt lat="32.564235687" lon="35.010520935">
  <ele>113.840454</ele>
  <time>2011-10-25T19:27:15Z</time>
  <speed>2.170000</speed>
</trkpt>
<trkpt lat="32.564273834" lon="35.010505676">
  <ele>113.543579</ele>
  <time>2011-10-25T19:27:17Z</time>
  <speed>1.330000</speed>
</trkpt>
<trkpt lat="32.564292908" lon="35.010478973">
  <ele>113.664673</ele>
  <time>2011-10-25T19:27:19Z</time>
  <speed>1.760000</speed>
</trkpt>
<trkpt lat="32.564315796" lon="35.010456085">
  <ele>113.906860</ele>
  <time>2011-10-25T19:27:21Z</time>
  <speed>1.350000</speed>
</trkpt>
<trkpt lat="32.564338684" lon="35.010437012">
  <ele>112.789673</ele>
  <time>2011-10-25T19:27:23Z</time>
  <speed>1.310000</speed>
</trkpt>
<trkpt lat="32.564373016" lon="35.010433197">
  <ele>112.998657</ele>
  <time>2011-10-25T19:27:26Z</time>
  <speed>1.640000</speed>
</trkpt>
<trkpt lat="32.564414978" lon="35.010425568">
  <ele>112.590454</ele>
  <time>2011-10-25T19:27:28Z</time>
  <speed>1.730000</speed>
</trkpt>
<trkpt lat="32.564445496" lon="35.010437012">
  <ele>113.463501</ele>
  <time>2011-10-25T19:27:30Z</time>
  <speed>1.570000</speed>
</trkpt>
<trkpt lat="32.564472198" lon="35.010448456">
  <ele>113.928345</ele>
  <time>2011-10-25T19:27:32Z</time>
  <speed>1.460000</speed>
</trkpt>
<trkpt lat="32.564502716" lon="35.010471344">
  <ele>114.604126</ele>
  <time>2011-10-25T19:27:34Z</time>
  <speed>1.820000</speed>
</trkpt>
<trkpt lat="32.564540863" lon="35.010490417">
  <ele>115.481079</ele>
  <time>2011-10-25T19:27:36Z</time>
  <speed>1.680000</speed>
</trkpt>
<trkpt lat="32.564579010" lon="35.010513306">
  <ele>115.920532</ele>
  <time>2011-10-25T19:27:39Z</time>
  <speed>1.620000</speed>
</trkpt>
<trkpt lat="32.564613342" lon="35.010517120">
  <ele>115.852173</ele>
  <time>2011-10-25T19:27:41Z</time>
  <speed>1.590000</speed>
</trkpt>
<trkpt lat="32.564640045" lon="35.010517120">
  <ele>116.602173</ele>
  <time>2011-10-25T19:27:43Z</time>
  <speed>1.700000</speed>
</trkpt>
<trkpt lat="32.564670563" lon="35.010520935">
  <ele>116.518188</ele>
  <time>2011-10-25T19:27:46Z</time>
  <speed>1.450000</speed>
</trkpt>
<trkpt lat="32.564716339" lon="35.010517120">
  <ele>117.496704</ele>
  <time>2011-10-25T19:27:48Z</time>
  <speed>1.880000</speed>
</trkpt>
<trkpt lat="32.564746857" lon="35.010517120">
  <ele>117.397095</ele>
  <time>2011-10-25T19:27:50Z</time>
  <speed>2.000000</speed>
</trkpt>
<trkpt lat="32.564773560" lon="35.010513306">
  <ele>116.994751</ele>
  <time>2011-10-25T19:27:51Z</time>
  <speed>2.130000</speed>
</trkpt>
<trkpt lat="32.564804077" lon="35.010509491">
  <ele>117.463501</ele>
  <time>2011-10-25T19:27:53Z</time>
  <speed>1.620000</speed>
</trkpt>
<trkpt lat="32.564834595" lon="35.010509491">
  <ele>117.131470</ele>
  <time>2011-10-25T19:27:55Z</time>
  <speed>2.110000</speed>
</trkpt>
<trkpt lat="32.564861298" lon="35.010520935">
  <ele>116.779907</ele>
  <time>2011-10-25T19:27:57Z</time>
  <speed>1.790000</speed>
</trkpt>
<trkpt lat="32.564899445" lon="35.010505676">
  <ele>118.401001</ele>
  <time>2011-10-25T19:28:00Z</time>
  <speed>1.520000</speed>
</trkpt>
<trkpt lat="32.564937592" lon="35.010490417">
  <ele>118.854126</ele>
  <time>2011-10-25T19:28:02Z</time>
  <speed>2.150000</speed>
</trkpt>
<trkpt lat="32.564975739" lon="35.010471344">
  <ele>118.772095</ele>
  <time>2011-10-25T19:28:04Z</time>
  <speed>1.740000</speed>
</trkpt>
<trkpt lat="32.565002441" lon="35.010467529">
  <ele>118.604126</ele>
  <time>2011-10-25T19:28:06Z</time>
  <speed>1.990000</speed>
</trkpt>
<trkpt lat="32.565032959" lon="35.010471344">
  <ele>119.205688</ele>
  <time>2011-10-25T19:28:08Z</time>
  <speed>1.910000</speed>
</trkpt>
<trkpt lat="32.565067291" lon="35.010478973">
  <ele>119.002563</ele>
  <time>2011-10-25T19:28:10Z</time>
  <speed>2.040000</speed>
</trkpt>
<trkpt lat="32.565101624" lon="35.010490417">
  <ele>119.824829</ele>
  <time>2011-10-25T19:28:12Z</time>
  <speed>2.000000</speed>
</trkpt>
<trkpt lat="32.565124512" lon="35.010509491">
  <ele>121.533813</ele>
  <time>2011-10-25T19:28:14Z</time>
  <speed>1.900000</speed>
</trkpt>
<trkpt lat="32.565151215" lon="35.010524750">
  <ele>121.996704</ele>
  <time>2011-10-25T19:28:16Z</time>
  <speed>1.450000</speed>
</trkpt>
<trkpt lat="32.565193176" lon="35.010536194">
  <ele>123.354126</ele>
  <time>2011-10-25T19:28:19Z</time>
  <speed>1.460000</speed>
</trkpt>
<trkpt lat="32.565227509" lon="35.010540009">
  <ele>123.988892</ele>
  <time>2011-10-25T19:28:21Z</time>
  <speed>1.500000</speed>
</trkpt>
<trkpt lat="32.565261841" lon="35.010540009">
  <ele>124.664673</ele>
  <time>2011-10-25T19:28:24Z</time>
  <speed>1.670000</speed>
</trkpt>
<trkpt lat="32.565299988" lon="35.010532379">
  <ele>125.115845</ele>
  <time>2011-10-25T19:28:26Z</time>
  <speed>1.920000</speed>
</trkpt>
<trkpt lat="32.565338135" lon="35.010528564">
  <ele>124.942017</ele>
  <time>2011-10-25T19:28:28Z</time>
  <speed>1.700000</speed>
</trkpt>
<trkpt lat="32.565368652" lon="35.010528564">
  <ele>125.348267</ele>
  <time>2011-10-25T19:28:30Z</time>
  <speed>1.280000</speed>
</trkpt>
<trkpt lat="32.565399170" lon="35.010524750">
  <ele>124.324829</ele>
  <time>2011-10-25T19:28:32Z</time>
  <speed>1.770000</speed>
</trkpt>
<trkpt lat="32.565441132" lon="35.010532379">
  <ele>125.760376</ele>
  <time>2011-10-25T19:28:35Z</time>
  <speed>1.460000</speed>
</trkpt>
<trkpt lat="32.565475464" lon="35.010543823">
  <ele>126.113892</ele>
  <time>2011-10-25T19:28:38Z</time>
  <speed>1.230000</speed>
</trkpt>
<trkpt lat="32.565505981" lon="35.010547638">
  <ele>126.453735</ele>
  <time>2011-10-25T19:28:41Z</time>
  <speed>1.110000</speed>
</trkpt>
<trkpt lat="32.565528870" lon="35.010566711">
  <ele>125.492798</ele>
  <time>2011-10-25T19:28:43Z</time>
  <speed>1.050000</speed>
</trkpt>
<trkpt lat="32.565555573" lon="35.010589600">
  <ele>125.055298</ele>
  <time>2011-10-25T19:28:46Z</time>
  <speed>1.120000</speed>
</trkpt>
<trkpt lat="32.565582275" lon="35.010604858">
  <ele>125.848267</ele>
  <time>2011-10-25T19:28:48Z</time>
  <speed>1.350000</speed>
</trkpt>
<trkpt lat="32.565612793" lon="35.010604858">
  <ele>126.024048</ele>
  <time>2011-10-25T19:28:50Z</time>
  <speed>1.540000</speed>
</trkpt>
<trkpt lat="32.565639496" lon="35.010616302">
  <ele>126.539673</ele>
  <time>2011-10-25T19:28:52Z</time>
  <speed>1.440000</speed>
</trkpt>
<trkpt lat="32.565670013" lon="35.010616302">
  <ele>127.330688</ele>
  <time>2011-10-25T19:28:54Z</time>
  <speed>1.570000</speed>
</trkpt>
<trkpt lat="32.565711975" lon="35.010620117">
  <ele>128.309814</ele>
  <time>2011-10-25T19:28:57Z</time>
  <speed>1.630000</speed>
</trkpt>
<trkpt lat="32.565757751" lon="35.010616302">
  <ele>129.196533</ele>
  <time>2011-10-25T19:29:00Z</time>
  <speed>1.720000</speed>
</trkpt>
<trkpt lat="32.565795898" lon="35.010627747">
  <ele>129.200439</ele>
  <time>2011-10-25T19:29:02Z</time>
  <speed>1.560000</speed>
</trkpt>
<trkpt lat="32.565830231" lon="35.010627747">
  <ele>130.032471</ele>
  <time>2011-10-25T19:29:04Z</time>
  <speed>1.460000</speed>
</trkpt>
<trkpt lat="32.565856934" lon="35.010627747">
  <ele>130.716064</ele>
  <time>2011-10-25T19:29:06Z</time>
  <speed>1.690000</speed>
</trkpt>
<trkpt lat="32.565902710" lon="35.010627747">
  <ele>132.384033</ele>
  <time>2011-10-25T19:29:08Z</time>
  <speed>1.860000</speed>
</trkpt>
<trkpt lat="32.565933228" lon="35.010623932">
  <ele>132.305908</ele>
  <time>2011-10-25T19:29:10Z</time>
  <speed>1.530000</speed>
</trkpt>
<trkpt lat="32.565963745" lon="35.010627747">
  <ele>132.028564</ele>
  <time>2011-10-25T19:29:12Z</time>
  <speed>1.910000</speed>
</trkpt>
<trkpt lat="32.565998077" lon="35.010639191">
  <ele>132.802002</ele>
  <time>2011-10-25T19:29:14Z</time>
  <speed>1.700000</speed>
</trkpt>
<trkpt lat="32.566028595" lon="35.010635376">
  <ele>132.493408</ele>
  <time>2011-10-25T19:29:16Z</time>
  <speed>1.470000</speed>
</trkpt>
<trkpt lat="32.566062927" lon="35.010646820">
  <ele>131.997314</ele>
  <time>2011-10-25T19:29:19Z</time>
  <speed>1.610000</speed>
</trkpt>
<trkpt lat="32.566104889" lon="35.010650635">
  <ele>131.462158</ele>
  <time>2011-10-25T19:29:21Z</time>
  <speed>1.770000</speed>
</trkpt>
<trkpt lat="32.566139221" lon="35.010658264">
  <ele>131.747314</ele>
  <time>2011-10-25T19:29:23Z</time>
  <speed>1.710000</speed>
</trkpt>
<trkpt lat="32.566169739" lon="35.010662079">
  <ele>131.942627</ele>
  <time>2011-10-25T19:29:25Z</time>
  <speed>1.960000</speed>
</trkpt>
<trkpt lat="32.566207886" lon="35.010677338">
  <ele>132.462158</ele>
  <time>2011-10-25T19:29:27Z</time>
  <speed>2.000000</speed>
</trkpt>
<trkpt lat="32.566238403" lon="35.010688782">
  <ele>132.555908</ele>
  <time>2011-10-25T19:29:29Z</time>
  <speed>1.810000</speed>
</trkpt>
<trkpt lat="32.566272736" lon="35.010707855">
  <ele>132.856689</ele>
  <time>2011-10-25T19:29:31Z</time>
  <speed>2.130000</speed>
</trkpt>
<trkpt lat="32.566307068" lon="35.010726929">
  <ele>133.036377</ele>
  <time>2011-10-25T19:29:33Z</time>
  <speed>1.780000</speed>
</trkpt>
<trkpt lat="32.566333771" lon="35.010753632">
  <ele>133.559814</ele>
  <time>2011-10-25T19:29:35Z</time>
  <speed>2.080000</speed>
</trkpt>
<trkpt lat="32.566356659" lon="35.010787964">
  <ele>134.598877</ele>
  <time>2011-10-25T19:29:37Z</time>
  <speed>1.880000</speed>
</trkpt>
<trkpt lat="32.566390991" lon="35.010807037">
  <ele>134.294189</ele>
  <time>2011-10-25T19:29:39Z</time>
  <speed>2.150000</speed>
</trkpt>
<trkpt lat="32.566421509" lon="35.010829926">
  <ele>134.684814</ele>
  <time>2011-10-25T19:29:41Z</time>
  <speed>2.160000</speed>
</trkpt>
<trkpt lat="32.566459656" lon="35.010856628">
  <ele>135.364502</ele>
  <time>2011-10-25T19:29:43Z</time>
  <speed>2.130000</speed>
</trkpt>
<trkpt lat="32.566478729" lon="35.010890961">
  <ele>136.130127</ele>
  <time>2011-10-25T19:29:45Z</time>
  <speed>2.050000</speed>
</trkpt>
<trkpt lat="32.566509247" lon="35.010921478">
  <ele>137.048096</ele>
  <time>2011-10-25T19:29:47Z</time>
  <speed>2.220000</speed>
</trkpt>
<trkpt lat="32.566535950" lon="35.010951996">
  <ele>137.137939</ele>
  <time>2011-10-25T19:29:49Z</time>
  <speed>1.970000</speed>
</trkpt>
<trkpt lat="32.566574097" lon="35.010978699">
  <ele>136.774658</ele>
  <time>2011-10-25T19:29:51Z</time>
  <speed>2.030000</speed>
</trkpt>
<trkpt lat="32.566596985" lon="35.011001587">
  <ele>136.302002</ele>
  <time>2011-10-25T19:29:53Z</time>
  <speed>1.750000</speed>
</trkpt>
<trkpt lat="32.566627502" lon="35.011028290">
  <ele>136.173096</ele>
  <time>2011-10-25T19:29:55Z</time>
  <speed>2.240000</speed>
</trkpt>
<trkpt lat="32.566654205" lon="35.011054993">
  <ele>135.532471</ele>
  <time>2011-10-25T19:29:57Z</time>
  <speed>1.960000</speed>
</trkpt>
<trkpt lat="32.566680908" lon="35.011085510">
  <ele>135.243408</ele>
  <time>2011-10-25T19:29:59Z</time>
  <speed>1.840000</speed>
</trkpt>
<trkpt lat="32.566711426" lon="35.011100769">
  <ele>135.594971</ele>
  <time>2011-10-25T19:30:01Z</time>
  <speed>1.830000</speed>
</trkpt>
<trkpt lat="32.566730499" lon="35.011127472">
  <ele>134.958252</ele>
  <time>2011-10-25T19:30:03Z</time>
  <speed>1.930000</speed>
</trkpt>
<trkpt lat="32.566757202" lon="35.011165619">
  <ele>134.563721</ele>
  <time>2011-10-25T19:30:05Z</time>
  <speed>2.030000</speed>
</trkpt>
<trkpt lat="32.566795349" lon="35.011192322">
  <ele>134.966064</ele>
  <time>2011-10-25T19:30:07Z</time>
  <speed>1.740000</speed>
</trkpt>
<trkpt lat="32.566825867" lon="35.011219025">
  <ele>135.536377</ele>
  <time>2011-10-25T19:30:09Z</time>
  <speed>1.950000</speed>
</trkpt>
<trkpt lat="32.566864014" lon="35.011238098">
  <ele>135.645752</ele>
  <time>2011-10-25T19:30:11Z</time>
  <speed>1.750000</speed>
</trkpt>
<trkpt lat="32.566894531" lon="35.011249542">
  <ele>135.934814</ele>
  <time>2011-10-25T19:30:13Z</time>
  <speed>1.880000</speed>
</trkpt>
<trkpt lat="32.566932678" lon="35.011260986">
  <ele>137.098877</ele>
  <time>2011-10-25T19:30:15Z</time>
  <speed>1.990000</speed>
</trkpt>
<trkpt lat="32.566974640" lon="35.011268616">
  <ele>136.677002</ele>
  <time>2011-10-25T19:30:17Z</time>
  <speed>2.310000</speed>
</trkpt>
<trkpt lat="32.567008972" lon="35.011276245">
  <ele>136.880127</ele>
  <time>2011-10-25T19:30:19Z</time>
  <speed>1.830000</speed>
</trkpt>
<trkpt lat="32.567039490" lon="35.011302948">
  <ele>136.946533</ele>
  <time>2011-10-25T19:30:21Z</time>
  <speed>1.790000</speed>
</trkpt>
<trkpt lat="32.567050934" lon="35.011341095">
  <ele>136.380127</ele>
  <time>2011-10-25T19:30:23Z</time>
  <speed>2.030000</speed>
</trkpt>
<trkpt lat="32.567062378" lon="35.011383057">
  <ele>136.677002</ele>
  <time>2011-10-25T19:30:25Z</time>
  <speed>1.920000</speed>
</trkpt>
<trkpt lat="32.567077637" lon="35.011417389">
  <ele>137.005127</ele>
  <time>2011-10-25T19:30:27Z</time>
  <speed>1.740000</speed>
</trkpt>
<trkpt lat="32.567104340" lon="35.011440277">
  <ele>137.071533</ele>
  <time>2011-10-25T19:30:29Z</time>
  <speed>1.860000</speed>
</trkpt>
<trkpt lat="32.567131042" lon="35.011466980">
  <ele>138.450439</ele>
  <time>2011-10-25T19:30:31Z</time>
  <speed>1.900000</speed>
</trkpt>
<trkpt lat="32.567157745" lon="35.011497498">
  <ele>138.977783</ele>
  <time>2011-10-25T19:30:33Z</time>
  <speed>2.000000</speed>
</trkpt>
<trkpt lat="32.567157745" lon="35.011543274">
  <ele>139.122314</ele>
  <time>2011-10-25T19:30:35Z</time>
  <speed>1.730000</speed>
</trkpt>
<trkpt lat="32.567165375" lon="35.011581421">
  <ele>138.848877</ele>
  <time>2011-10-25T19:30:37Z</time>
  <speed>1.660000</speed>
</trkpt>
<trkpt lat="32.567161560" lon="35.011615753">
  <ele>138.637939</ele>
  <time>2011-10-25T19:30:39Z</time>
  <speed>1.490000</speed>
</trkpt>
<trkpt lat="32.567165375" lon="35.011646271">
  <ele>138.407471</ele>
  <time>2011-10-25T19:30:41Z</time>
  <speed>1.540000</speed>
</trkpt>
<trkpt lat="32.567173004" lon="35.011695862">
  <ele>139.653564</ele>
  <time>2011-10-25T19:30:43Z</time>
  <speed>1.980000</speed>
</trkpt>
<trkpt lat="32.567184448" lon="35.011741638">
  <ele>141.516846</ele>
  <time>2011-10-25T19:30:45Z</time>
  <speed>2.240000</speed>
</trkpt>
<trkpt lat="32.567207336" lon="35.011779785">
  <ele>142.552002</ele>
  <time>2011-10-25T19:30:47Z</time>
  <speed>2.120000</speed>
</trkpt>
<trkpt lat="32.567237854" lon="35.011806488">
  <ele>143.622314</ele>
  <time>2011-10-25T19:30:49Z</time>
  <speed>1.770000</speed>
</trkpt>
<trkpt lat="32.567234039" lon="35.011840820">
  <ele>143.891846</ele>
  <time>2011-10-25T19:30:51Z</time>
  <speed>1.410000</speed>
</trkpt>
<trkpt lat="32.567241669" lon="35.011871338">
  <ele>144.356689</ele>
  <time>2011-10-25T19:30:53Z</time>
  <speed>1.460000</speed>
</trkpt>
<trkpt lat="32.567260742" lon="35.011894226">
  <ele>144.841064</ele>
  <time>2011-10-25T19:30:55Z</time>
  <speed>1.490000</speed>
</trkpt>
<trkpt lat="32.567287445" lon="35.011924744">
  <ele>145.489502</ele>
  <time>2011-10-25T19:30:57Z</time>
  <speed>1.690000</speed>
</trkpt>
<trkpt lat="32.567317963" lon="35.011951447">
  <ele>145.434814</ele>
  <time>2011-10-25T19:30:59Z</time>
  <speed>1.780000</speed>
</trkpt>
<trkpt lat="32.567329407" lon="35.011981964">
  <ele>145.661377</ele>
  <time>2011-10-25T19:31:01Z</time>
  <speed>1.600000</speed>
</trkpt>
<trkpt lat="32.567340851" lon="35.012016296">
  <ele>145.989502</ele>
  <time>2011-10-25T19:31:03Z</time>
  <speed>1.600000</speed>
</trkpt>
<trkpt lat="32.567356110" lon="35.012042999">
  <ele>144.973877</ele>
  <time>2011-10-25T19:31:05Z</time>
  <speed>1.590000</speed>
</trkpt>
<trkpt lat="32.567363739" lon="35.012081146">
  <ele>145.708252</ele>
  <time>2011-10-25T19:31:07Z</time>
  <speed>1.680000</speed>
</trkpt>
<trkpt lat="32.567363739" lon="35.012119293">
  <ele>146.208252</ele>
  <time>2011-10-25T19:31:09Z</time>
  <speed>1.480000</speed>
</trkpt>
<trkpt lat="32.567390442" lon="35.012149811">
  <ele>146.196533</ele>
  <time>2011-10-25T19:31:11Z</time>
  <speed>2.060000</speed>
</trkpt>
<trkpt lat="32.567382813" lon="35.012184143">
  <ele>146.516846</ele>
  <time>2011-10-25T19:31:13Z</time>
  <speed>1.660000</speed>
</trkpt>
<trkpt lat="32.567394257" lon="35.012214661">
  <ele>146.567627</ele>
  <time>2011-10-25T19:31:15Z</time>
  <speed>1.810000</speed>
</trkpt>
<trkpt lat="32.567398071" lon="35.012248993">
  <ele>146.309814</ele>
  <time>2011-10-25T19:31:17Z</time>
  <speed>1.820000</speed>
</trkpt>
<trkpt lat="32.567405701" lon="35.012290955">
  <ele>146.743408</ele>
  <time>2011-10-25T19:31:19Z</time>
  <speed>1.650000</speed>
</trkpt>
<trkpt lat="32.567413330" lon="35.012332916">
  <ele>146.852783</ele>
  <time>2011-10-25T19:31:21Z</time>
  <speed>1.640000</speed>
</trkpt>
<trkpt lat="32.567417145" lon="35.012374878">
  <ele>147.641846</ele>
  <time>2011-10-25T19:31:23Z</time>
  <speed>1.650000</speed>
</trkpt>
<trkpt lat="32.567424774" lon="35.012416840">
  <ele>148.516846</ele>
  <time>2011-10-25T19:31:25Z</time>
  <speed>1.880000</speed>
</trkpt>
<trkpt lat="32.567440033" lon="35.012451172">
  <ele>148.587158</ele>
  <time>2011-10-25T19:31:27Z</time>
  <speed>1.610000</speed>
</trkpt>
<trkpt lat="32.567459106" lon="35.012477875">
  <ele>148.708252</ele>
  <time>2011-10-25T19:31:29Z</time>
  <speed>1.760000</speed>
</trkpt>
<trkpt lat="32.567466736" lon="35.012519836">
  <ele>148.997314</ele>
  <time>2011-10-25T19:31:31Z</time>
  <speed>1.900000</speed>
</trkpt>
<trkpt lat="32.567466736" lon="35.012557983">
  <ele>149.290283</ele>
  <time>2011-10-25T19:31:33Z</time>
  <speed>1.390000</speed>
</trkpt>
<trkpt lat="32.567481995" lon="35.012584686">
  <ele>149.751221</ele>
  <time>2011-10-25T19:31:35Z</time>
  <speed>1.500000</speed>
</trkpt>
<trkpt lat="32.567501068" lon="35.012611389">
  <ele>150.325439</ele>
  <time>2011-10-25T19:31:37Z</time>
  <speed>1.550000</speed>
</trkpt>
<trkpt lat="32.567516327" lon="35.012638092">
  <ele>150.552002</ele>
  <time>2011-10-25T19:31:39Z</time>
  <speed>1.670000</speed>
</trkpt>
<trkpt lat="32.567546844" lon="35.012653351">
  <ele>150.630127</ele>
  <time>2011-10-25T19:31:41Z</time>
  <speed>1.480000</speed>
</trkpt>
<trkpt lat="32.567581177" lon="35.012687683">
  <ele>150.251221</ele>
  <time>2011-10-25T19:31:44Z</time>
  <speed>1.500000</speed>
</trkpt>
<trkpt lat="32.567600250" lon="35.012714386">
  <ele>149.907471</ele>
  <time>2011-10-25T19:31:46Z</time>
  <speed>1.740000</speed>
</trkpt>
<trkpt lat="32.567592621" lon="35.012744904">
  <ele>150.161377</ele>
  <time>2011-10-25T19:31:48Z</time>
  <speed>1.530000</speed>
</trkpt>
<trkpt lat="32.567607880" lon="35.012779236">
  <ele>150.782471</ele>
  <time>2011-10-25T19:31:50Z</time>
  <speed>1.940000</speed>
</trkpt>
<trkpt lat="32.567634583" lon="35.012809753">
  <ele>151.587158</ele>
  <time>2011-10-25T19:31:52Z</time>
  <speed>1.710000</speed>
</trkpt>
<trkpt lat="32.567665100" lon="35.012844086">
  <ele>152.372314</ele>
  <time>2011-10-25T19:31:55Z</time>
  <speed>1.640000</speed>
</trkpt>
<trkpt lat="32.567699432" lon="35.012863159">
  <ele>152.290283</ele>
  <time>2011-10-25T19:31:57Z</time>
  <speed>1.610000</speed>
</trkpt>
<trkpt lat="32.567722321" lon="35.012886047">
  <ele>152.216064</ele>
  <time>2011-10-25T19:31:59Z</time>
  <speed>1.770000</speed>
</trkpt>
<trkpt lat="32.567749023" lon="35.012928009">
  <ele>152.040283</ele>
  <time>2011-10-25T19:32:01Z</time>
  <speed>2.120000</speed>
</trkpt>
<trkpt lat="32.567775726" lon="35.012969971">
  <ele>151.977783</ele>
  <time>2011-10-25T19:32:03Z</time>
  <speed>2.260000</speed>
</trkpt>
<trkpt lat="32.567798615" lon="35.013008118">
  <ele>152.079346</ele>
  <time>2011-10-25T19:32:05Z</time>
  <speed>1.860000</speed>
</trkpt>
<trkpt lat="32.567829132" lon="35.013038635">
  <ele>152.622314</ele>
  <time>2011-10-25T19:32:07Z</time>
  <speed>2.080000</speed>
</trkpt>
<trkpt lat="32.567859650" lon="35.013072968">
  <ele>153.052002</ele>
  <time>2011-10-25T19:32:09Z</time>
  <speed>1.720000</speed>
</trkpt>
<trkpt lat="32.567886353" lon="35.013107300">
  <ele>153.825439</ele>
  <time>2011-10-25T19:32:11Z</time>
  <speed>2.290000</speed>
</trkpt>
<trkpt lat="32.567924500" lon="35.013126373">
  <ele>153.235596</ele>
  <time>2011-10-25T19:32:13Z</time>
  <speed>2.240000</speed>
</trkpt>
<trkpt lat="32.567958832" lon="35.013156891">
  <ele>152.559814</ele>
  <time>2011-10-25T19:32:15Z</time>
  <speed>2.330000</speed>
</trkpt>
<trkpt lat="32.567985535" lon="35.013187408">
  <ele>152.020752</ele>
  <time>2011-10-25T19:32:17Z</time>
  <speed>2.320000</speed>
</trkpt>
<trkpt lat="32.568019867" lon="35.013229370">
  <ele>152.641846</ele>
  <time>2011-10-25T19:32:19Z</time>
  <speed>2.300000</speed>
</trkpt>
<trkpt lat="32.568027496" lon="35.013275146">
  <ele>153.462158</ele>
  <time>2011-10-25T19:32:21Z</time>
  <speed>1.970000</speed>
</trkpt>
<trkpt lat="32.568042755" lon="35.013313293">
  <ele>153.735596</ele>
  <time>2011-10-25T19:32:23Z</time>
  <speed>1.950000</speed>
</trkpt>
<trkpt lat="32.568050385" lon="35.013355255">
  <ele>153.313721</ele>
  <time>2011-10-25T19:32:25Z</time>
  <speed>1.970000</speed>
</trkpt>
<trkpt lat="32.568035126" lon="35.013397217">
  <ele>153.130127</ele>
  <time>2011-10-25T19:32:27Z</time>
  <speed>1.850000</speed>
</trkpt>
<trkpt lat="32.568054199" lon="35.013439178">
  <ele>153.063721</ele>
  <time>2011-10-25T19:32:29Z</time>
  <speed>2.110000</speed>
</trkpt>
<trkpt lat="32.568069458" lon="35.013477325">
  <ele>153.259033</ele>
  <time>2011-10-25T19:32:31Z</time>
  <speed>1.930000</speed>
</trkpt>
<trkpt lat="32.568088531" lon="35.013523102">
  <ele>153.469971</ele>
  <time>2011-10-25T19:32:33Z</time>
  <speed>2.120000</speed>
</trkpt>
<trkpt lat="32.568103790" lon="35.013561249">
  <ele>153.774658</ele>
  <time>2011-10-25T19:32:35Z</time>
  <speed>2.060000</speed>
</trkpt>
<trkpt lat="32.568134308" lon="35.013603210">
  <ele>154.134033</ele>
  <time>2011-10-25T19:32:37Z</time>
  <speed>2.460000</speed>
</trkpt>
<trkpt lat="32.568164825" lon="35.013641357">
  <ele>155.161377</ele>
  <time>2011-10-25T19:32:39Z</time>
  <speed>2.240000</speed>
</trkpt>
<trkpt lat="32.568202972" lon="35.013671875">
  <ele>154.509033</ele>
  <time>2011-10-25T19:32:41Z</time>
  <speed>2.220000</speed>
</trkpt>
<trkpt lat="32.568225861" lon="35.013702393">
  <ele>154.731689</ele>
  <time>2011-10-25T19:32:43Z</time>
  <speed>1.920000</speed>
</trkpt>
<trkpt lat="32.568244934" lon="35.013729095">
  <ele>154.079346</ele>
  <time>2011-10-25T19:32:45Z</time>
  <speed>2.040000</speed>
</trkpt>
<trkpt lat="32.568275452" lon="35.013755798">
  <ele>154.106689</ele>
  <time>2011-10-25T19:32:47Z</time>
  <speed>2.100000</speed>
</trkpt>
<trkpt lat="32.568309784" lon="35.013774872">
  <ele>152.985596</ele>
  <time>2011-10-25T19:32:49Z</time>
  <speed>2.150000</speed>
</trkpt>
<trkpt lat="32.568336487" lon="35.013809204">
  <ele>152.821533</ele>
  <time>2011-10-25T19:32:51Z</time>
  <speed>2.490000</speed>
</trkpt>
<trkpt lat="32.568370819" lon="35.013854980">
  <ele>153.552002</ele>
  <time>2011-10-25T19:32:53Z</time>
  <speed>2.170000</speed>
</trkpt>
<trkpt lat="32.568397522" lon="35.013889313">
  <ele>153.137939</ele>
  <time>2011-10-25T19:32:55Z</time>
  <speed>2.140000</speed>
</trkpt>
<trkpt lat="32.568424225" lon="35.013923645">
  <ele>153.165283</ele>
  <time>2011-10-25T19:32:57Z</time>
  <speed>1.650000</speed>
</trkpt>
<trkpt lat="32.568447113" lon="35.013946533">
  <ele>153.872314</ele>
  <time>2011-10-25T19:32:59Z</time>
  <speed>1.770000</speed>
</trkpt>
<trkpt lat="32.568481445" lon="35.013984680">
  <ele>153.255127</ele>
  <time>2011-10-25T19:33:01Z</time>
  <speed>3.040000</speed>
</trkpt>
<trkpt lat="32.568504333" lon="35.014007568">
  <ele>152.981689</ele>
  <time>2011-10-25T19:33:02Z</time>
  <speed>3.230000</speed>
</trkpt>
<trkpt lat="32.568523407" lon="35.014038086">
  <ele>152.594971</ele>
  <time>2011-10-25T19:33:03Z</time>
  <speed>3.390000</speed>
</trkpt>
<trkpt lat="32.568546295" lon="35.014068604">
  <ele>152.126221</ele>
  <time>2011-10-25T19:33:04Z</time>
  <speed>3.960000</speed>
</trkpt>
<trkpt lat="32.568569183" lon="35.014106750">
  <ele>152.024658</ele>
  <time>2011-10-25T19:33:05Z</time>
  <speed>4.320000</speed>
</trkpt>
<trkpt lat="32.568595886" lon="35.014148712">
  <ele>151.563721</ele>
  <time>2011-10-25T19:33:06Z</time>
  <speed>5.040000</speed>
</trkpt>
<trkpt lat="32.568626404" lon="35.014194489">
  <ele>151.360596</ele>
  <time>2011-10-25T19:33:07Z</time>
  <speed>5.430000</speed>
</trkpt>
<trkpt lat="32.568660736" lon="35.014240265">
  <ele>151.364502</ele>
  <time>2011-10-25T19:33:08Z</time>
  <speed>5.810000</speed>
</trkpt>
<trkpt lat="32.568698883" lon="35.014282227">
  <ele>151.134033</ele>
  <time>2011-10-25T19:33:09Z</time>
  <speed>6.390000</speed>
</trkpt>
<trkpt lat="32.568744659" lon="35.014331818">
  <ele>151.071533</ele>
  <time>2011-10-25T19:33:10Z</time>
  <speed>6.380000</speed>
</trkpt>
<trkpt lat="32.568790436" lon="35.014373779">
  <ele>150.665283</ele>
  <time>2011-10-25T19:33:11Z</time>
  <speed>6.390000</speed>
</trkpt>
<trkpt lat="32.568836212" lon="35.014419556">
  <ele>149.688721</ele>
  <time>2011-10-25T19:33:12Z</time>
  <speed>6.580000</speed>
</trkpt>
<trkpt lat="32.568881989" lon="35.014469147">
  <ele>149.239502</ele>
  <time>2011-10-25T19:33:13Z</time>
  <speed>6.360000</speed>
</trkpt>
<trkpt lat="32.568923950" lon="35.014518738">
  <ele>148.790283</ele>
  <time>2011-10-25T19:33:14Z</time>
  <speed>6.410000</speed>
</trkpt>
<trkpt lat="32.568962097" lon="35.014568329">
  <ele>148.290283</ele>
  <time>2011-10-25T19:33:15Z</time>
  <speed>6.240000</speed>
</trkpt>
<trkpt lat="32.569004059" lon="35.014614105">
  <ele>148.661377</ele>
  <time>2011-10-25T19:33:16Z</time>
  <speed>5.680000</speed>
</trkpt>
<trkpt lat="32.569042206" lon="35.014652252">
  <ele>148.434814</ele>
  <time>2011-10-25T19:33:17Z</time>
  <speed>5.300000</speed>
</trkpt>
<trkpt lat="32.569076538" lon="35.014686584">
  <ele>148.466064</ele>
  <time>2011-10-25T19:33:18Z</time>
  <speed>4.680000</speed>
</trkpt>
<trkpt lat="32.569114685" lon="35.014713287">
  <ele>148.462158</ele>
  <time>2011-10-25T19:33:19Z</time>
  <speed>4.610000</speed>
</trkpt>
<trkpt lat="32.569145203" lon="35.014736176">
  <ele>148.813721</ele>
  <time>2011-10-25T19:33:20Z</time>
  <speed>3.770000</speed>
</trkpt>
<trkpt lat="32.569171906" lon="35.014751434">
  <ele>148.993408</ele>
  <time>2011-10-25T19:33:21Z</time>
  <speed>3.100000</speed>
</trkpt>
<trkpt lat="32.569202423" lon="35.014774323">
  <ele>148.485596</ele>
  <time>2011-10-25T19:33:23Z</time>
  <speed>1.760000</speed>
</trkpt>
<trkpt lat="32.569236755" lon="35.014785767">
  <ele>148.134033</ele>
  <time>2011-10-25T19:33:25Z</time>
  <speed>2.060000</speed>
</trkpt>
<trkpt lat="32.569263458" lon="35.014789581">
  <ele>148.524658</ele>
  <time>2011-10-25T19:33:27Z</time>
  <speed>1.670000</speed>
</trkpt>
<trkpt lat="32.569297791" lon="35.014801025">
  <ele>148.759033</ele>
  <time>2011-10-25T19:33:29Z</time>
  <speed>1.880000</speed>
</trkpt>
<trkpt lat="32.569328308" lon="35.014816284">
  <ele>149.079346</ele>
  <time>2011-10-25T19:33:31Z</time>
  <speed>2.050000</speed>
</trkpt>
<trkpt lat="32.569366455" lon="35.014827728">
  <ele>149.157471</ele>
  <time>2011-10-25T19:33:33Z</time>
  <speed>1.820000</speed>
</trkpt>
<trkpt lat="32.569400787" lon="35.014842987">
  <ele>149.208252</ele>
  <time>2011-10-25T19:33:35Z</time>
  <speed>1.450000</speed>
</trkpt>
<trkpt lat="32.569431305" lon="35.014850616">
  <ele>150.204346</ele>
  <time>2011-10-25T19:33:37Z</time>
  <speed>1.690000</speed>
</trkpt>
<trkpt lat="32.569465637" lon="35.014854431">
  <ele>150.923096</ele>
  <time>2011-10-25T19:33:41Z</time>
  <speed>1.120000</speed>
</trkpt>
<trkpt lat="32.569492340" lon="35.014854431">
  <ele>152.153564</ele>
  <time>2011-10-25T19:33:44Z</time>
  <speed>1.080000</speed>
</trkpt>
<trkpt lat="32.569522858" lon="35.014842987">
  <ele>152.302002</ele>
  <time>2011-10-25T19:33:47Z</time>
  <speed>0.920000</speed>
</trkpt>
<trkpt lat="32.569499969" lon="35.014854431">
  <ele>151.083252</ele>
  <time>2011-10-25T19:34:08Z</time>
  <speed>0.440000</speed>
</trkpt>
<trkpt lat="32.569480896" lon="35.014869690">
  <ele>152.622314</ele>
  <time>2011-10-25T19:38:10Z</time>
</trkpt>
<trkpt lat="32.569465637" lon="35.014892578">
  <ele>154.657471</ele>
  <time>2011-10-25T19:38:17Z</time>
  <speed>0.050000</speed>
</trkpt>
<trkpt lat="32.569454193" lon="35.014900208">
  <ele>157.591064</ele>
  <time>2011-10-25T19:38:33Z</time>
  <speed>0.010000</speed>
</trkpt>
<trkpt lat="32.569458008" lon="35.014869690">
  <ele>157.180908</ele>
  <time>2011-10-25T19:39:21Z</time>
  <speed>0.100000</speed>
</trkpt>
<trkpt lat="32.569488525" lon="35.014862061">
  <ele>156.571533</ele>
  <time>2011-10-25T19:39:31Z</time>
  <speed>0.120000</speed>
</trkpt>
<trkpt lat="32.569522858" lon="35.014842987">
  <ele>156.364502</ele>
  <time>2011-10-25T19:39:37Z</time>
  <speed>2.210000</speed>
</trkpt>
<trkpt lat="32.569572449" lon="35.014831543">
  <ele>155.844971</ele>
  <time>2011-10-25T19:39:39Z</time>
  <speed>2.610000</speed>
</trkpt>
<trkpt lat="32.569602966" lon="35.014816284">
  <ele>155.247314</ele>
  <time>2011-10-25T19:39:40Z</time>
  <speed>4.520000</speed>
</trkpt>
<trkpt lat="32.569641113" lon="35.014793396">
  <ele>154.833252</ele>
  <time>2011-10-25T19:39:41Z</time>
  <speed>4.830000</speed>
</trkpt>
<trkpt lat="32.569679260" lon="35.014766693">
  <ele>154.079346</ele>
  <time>2011-10-25T19:39:42Z</time>
  <speed>4.810000</speed>
</trkpt>
<trkpt lat="32.569717407" lon="35.014739990">
  <ele>153.466064</ele>
  <time>2011-10-25T19:39:43Z</time>
  <speed>4.890000</speed>
</trkpt>
<trkpt lat="32.569759369" lon="35.014717102">
  <ele>152.606689</ele>
  <time>2011-10-25T19:39:44Z</time>
  <speed>5.010000</speed>
</trkpt>
<trkpt lat="32.569797516" lon="35.014690399">
  <ele>151.837158</ele>
  <time>2011-10-25T19:39:45Z</time>
  <speed>4.360000</speed>
</trkpt>
<trkpt lat="32.569828033" lon="35.014675140">
  <ele>151.473877</ele>
  <time>2011-10-25T19:39:46Z</time>
  <speed>4.230000</speed>
</trkpt>
<trkpt lat="32.569862366" lon="35.014656067">
  <ele>151.091064</ele>
  <time>2011-10-25T19:39:47Z</time>
  <speed>3.930000</speed>
</trkpt>
<trkpt lat="32.569889069" lon="35.014633179">
  <ele>150.141846</ele>
  <time>2011-10-25T19:39:48Z</time>
  <speed>3.250000</speed>
</trkpt>
<trkpt lat="32.569908142" lon="35.014606476">
  <ele>148.969971</ele>
  <time>2011-10-25T19:39:49Z</time>
  <speed>3.090000</speed>
</trkpt>
<trkpt lat="32.569927216" lon="35.014587402">
  <ele>148.012939</ele>
  <time>2011-10-25T19:39:50Z</time>
  <speed>2.890000</speed>
</trkpt>
<trkpt lat="32.569972992" lon="35.014556885">
  <ele>146.790283</ele>
  <time>2011-10-25T19:39:52Z</time>
  <speed>3.360000</speed>
</trkpt>
<trkpt lat="32.569995880" lon="35.014533997">
  <ele>145.821533</ele>
  <time>2011-10-25T19:39:53Z</time>
  <speed>3.320000</speed>
</trkpt>
<trkpt lat="32.570026398" lon="35.014522552">
  <ele>145.083252</ele>
  <time>2011-10-25T19:39:54Z</time>
  <speed>4.030000</speed>
</trkpt>
<trkpt lat="32.570064545" lon="35.014514923">
  <ele>144.372314</ele>
  <time>2011-10-25T19:39:55Z</time>
  <speed>4.500000</speed>
</trkpt>
<trkpt lat="32.570106506" lon="35.014492035">
  <ele>143.262939</ele>
  <time>2011-10-25T19:39:56Z</time>
  <speed>4.420000</speed>
</trkpt>
<trkpt lat="32.570140839" lon="35.014461517">
  <ele>142.266846</ele>
  <time>2011-10-25T19:39:57Z</time>
  <speed>4.160000</speed>
</trkpt>
<trkpt lat="32.570163727" lon="35.014431000">
  <ele>141.450439</ele>
  <time>2011-10-25T19:39:58Z</time>
  <speed>4.160000</speed>
</trkpt>
<trkpt lat="32.570190430" lon="35.014396667">
  <ele>140.739502</ele>
  <time>2011-10-25T19:39:59Z</time>
  <speed>4.230000</speed>
</trkpt>
<trkpt lat="32.570220947" lon="35.014362335">
  <ele>139.942627</ele>
  <time>2011-10-25T19:40:00Z</time>
  <speed>4.340000</speed>
</trkpt>
<trkpt lat="32.570251465" lon="35.014331818">
  <ele>139.094971</ele>
  <time>2011-10-25T19:40:01Z</time>
  <speed>4.310000</speed>
</trkpt>
<trkpt lat="32.570289612" lon="35.014305115">
  <ele>137.844971</ele>
  <time>2011-10-25T19:40:02Z</time>
  <speed>4.520000</speed>
</trkpt>
<trkpt lat="32.570327759" lon="35.014274597">
  <ele>137.786377</ele>
  <time>2011-10-25T19:40:03Z</time>
  <speed>4.860000</speed>
</trkpt>
<trkpt lat="32.570358276" lon="35.014244080">
  <ele>137.759033</ele>
  <time>2011-10-25T19:40:04Z</time>
  <speed>3.860000</speed>
</trkpt>
<trkpt lat="32.570381165" lon="35.014221191">
  <ele>137.380127</ele>
  <time>2011-10-25T19:40:05Z</time>
  <speed>2.870000</speed>
</trkpt>
<trkpt lat="32.570400238" lon="35.014190674">
  <ele>136.223877</ele>
  <time>2011-10-25T19:40:07Z</time>
  <speed>1.030000</speed>
</trkpt>
<trkpt lat="32.570400238" lon="35.014156342">
  <ele>136.540283</ele>
  <time>2011-10-25T19:41:33Z</time>
  <speed>2.640000</speed>
</trkpt>
<trkpt lat="32.570407867" lon="35.014118195">
  <ele>136.352783</ele>
  <time>2011-10-25T19:41:34Z</time>
  <speed>3.210000</speed>
</trkpt>
<trkpt lat="32.570411682" lon="35.014076233">
  <ele>136.145752</ele>
  <time>2011-10-25T19:41:35Z</time>
  <speed>3.400000</speed>
</trkpt>
<trkpt lat="32.570411682" lon="35.014034271">
  <ele>136.114502</ele>
  <time>2011-10-25T19:41:36Z</time>
  <speed>3.460000</speed>
</trkpt>
<trkpt lat="32.570407867" lon="35.013992310">
  <ele>135.958252</ele>
  <time>2011-10-25T19:41:37Z</time>
  <speed>3.200000</speed>
</trkpt>
<trkpt lat="32.570400238" lon="35.013954163">
  <ele>135.634033</ele>
  <time>2011-10-25T19:41:38Z</time>
  <speed>3.500000</speed>
</trkpt>
<trkpt lat="32.570388794" lon="35.013912201">
  <ele>135.278564</ele>
  <time>2011-10-25T19:41:39Z</time>
  <speed>3.890000</speed>
</trkpt>
<trkpt lat="32.570381165" lon="35.013862610">
  <ele>134.614502</ele>
  <time>2011-10-25T19:41:40Z</time>
  <speed>4.030000</speed>
</trkpt>
<trkpt lat="32.570362091" lon="35.013824463">
  <ele>133.532471</ele>
  <time>2011-10-25T19:41:41Z</time>
  <speed>4.090000</speed>
</trkpt>
<trkpt lat="32.570331573" lon="35.013782501">
  <ele>132.212158</ele>
  <time>2011-10-25T19:41:42Z</time>
  <speed>4.440000</speed>
</trkpt>
<trkpt lat="32.570301056" lon="35.013740540">
  <ele>131.255127</ele>
  <time>2011-10-25T19:41:43Z</time>
  <speed>4.950000</speed>
</trkpt>
<trkpt lat="32.570262909" lon="35.013698578">
  <ele>130.852783</ele>
  <time>2011-10-25T19:41:44Z</time>
  <speed>5.820000</speed>
</trkpt>
<trkpt lat="32.570220947" lon="35.013648987">
  <ele>129.969971</ele>
  <time>2011-10-25T19:41:45Z</time>
  <speed>6.640000</speed>
</trkpt>
<trkpt lat="32.570175171" lon="35.013595581">
  <ele>129.868408</ele>
  <time>2011-10-25T19:41:46Z</time>
  <speed>6.520000</speed>
</trkpt>
<trkpt lat="32.570129395" lon="35.013542175">
  <ele>129.290283</ele>
  <time>2011-10-25T19:41:47Z</time>
  <speed>6.640000</speed>
</trkpt>
<trkpt lat="32.570087433" lon="35.013481140">
  <ele>129.266846</ele>
  <time>2011-10-25T19:41:48Z</time>
  <speed>7.040000</speed>
</trkpt>
<trkpt lat="32.570041656" lon="35.013420105">
  <ele>128.309814</ele>
  <time>2011-10-25T19:41:49Z</time>
  <speed>7.080000</speed>
</trkpt>
<trkpt lat="32.570003510" lon="35.013351440">
  <ele>128.719971</ele>
  <time>2011-10-25T19:41:50Z</time>
  <speed>7.400000</speed>
</trkpt>
<trkpt lat="32.569965363" lon="35.013282776">
  <ele>128.747314</ele>
  <time>2011-10-25T19:41:51Z</time>
  <speed>7.350000</speed>
</trkpt>
<trkpt lat="32.569923401" lon="35.013217926">
  <ele>128.266846</ele>
  <time>2011-10-25T19:41:52Z</time>
  <speed>7.590000</speed>
</trkpt>
<trkpt lat="32.569881439" lon="35.013145447">
  <ele>127.824829</ele>
  <time>2011-10-25T19:41:53Z</time>
  <speed>8.240000</speed>
</trkpt>
<trkpt lat="32.569839478" lon="35.013076782">
  <ele>127.277954</ele>
  <time>2011-10-25T19:41:54Z</time>
  <speed>8.140000</speed>
</trkpt>
<trkpt lat="32.569793701" lon="35.013000488">
  <ele>126.359985</ele>
  <time>2011-10-25T19:41:55Z</time>
  <speed>8.350000</speed>
</trkpt>
<trkpt lat="32.569755554" lon="35.012920380">
  <ele>126.137329</ele>
  <time>2011-10-25T19:41:56Z</time>
  <speed>7.970000</speed>
</trkpt>
<trkpt lat="32.569713593" lon="35.012844086">
  <ele>125.750610</ele>
  <time>2011-10-25T19:41:57Z</time>
  <speed>8.600000</speed>
</trkpt>
<trkpt lat="32.569671631" lon="35.012760162">
  <ele>125.338501</ele>
  <time>2011-10-25T19:41:58Z</time>
  <speed>8.310000</speed>
</trkpt>
<trkpt lat="32.569633484" lon="35.012683868">
  <ele>124.145142</ele>
  <time>2011-10-25T19:41:59Z</time>
  <speed>8.480000</speed>
</trkpt>
<trkpt lat="32.569602966" lon="35.012596130">
  <ele>124.139282</ele>
  <time>2011-10-25T19:42:00Z</time>
  <speed>8.520000</speed>
</trkpt>
<trkpt lat="32.569568634" lon="35.012516022">
  <ele>123.436157</ele>
  <time>2011-10-25T19:42:01Z</time>
  <speed>8.520000</speed>
</trkpt>
<trkpt lat="32.569530487" lon="35.012428284">
  <ele>123.246704</ele>
  <time>2011-10-25T19:42:02Z</time>
  <speed>8.660000</speed>
</trkpt>
<trkpt lat="32.569496155" lon="35.012348175">
  <ele>123.660767</ele>
  <time>2011-10-25T19:42:03Z</time>
  <speed>8.590000</speed>
</trkpt>
<trkpt lat="32.569461823" lon="35.012264252">
  <ele>123.188110</ele>
  <time>2011-10-25T19:42:04Z</time>
  <speed>8.570000</speed>
</trkpt>
<trkpt lat="32.569423676" lon="35.012184143">
  <ele>122.983032</ele>
  <time>2011-10-25T19:42:05Z</time>
  <speed>8.380000</speed>
</trkpt>
<trkpt lat="32.569389343" lon="35.012104034">
  <ele>122.615845</ele>
  <time>2011-10-25T19:42:06Z</time>
  <speed>8.320000</speed>
</trkpt>
<trkpt lat="32.569355011" lon="35.012027740">
  <ele>122.561157</ele>
  <time>2011-10-25T19:42:07Z</time>
  <speed>7.980000</speed>
</trkpt>
<trkpt lat="32.569309235" lon="35.011959076">
  <ele>122.600220</ele>
  <time>2011-10-25T19:42:08Z</time>
  <speed>8.070000</speed>
</trkpt>
<trkpt lat="32.569267273" lon="35.011890411">
  <ele>122.133423</ele>
  <time>2011-10-25T19:42:09Z</time>
  <speed>7.680000</speed>
</trkpt>
<trkpt lat="32.569232941" lon="35.011821747">
  <ele>121.820923</ele>
  <time>2011-10-25T19:42:10Z</time>
  <speed>7.600000</speed>
</trkpt>
<trkpt lat="32.569198608" lon="35.011756897">
  <ele>121.334595</ele>
  <time>2011-10-25T19:42:11Z</time>
  <speed>7.670000</speed>
</trkpt>
<trkpt lat="32.569164276" lon="35.011684418">
  <ele>121.231079</ele>
  <time>2011-10-25T19:42:12Z</time>
  <speed>7.640000</speed>
</trkpt>
<trkpt lat="32.569129944" lon="35.011608124">
  <ele>120.695923</ele>
  <time>2011-10-25T19:42:13Z</time>
  <speed>7.920000</speed>
</trkpt>
<trkpt lat="32.569099426" lon="35.011531830">
  <ele>120.412720</ele>
  <time>2011-10-25T19:42:14Z</time>
  <speed>8.020000</speed>
</trkpt>
<trkpt lat="32.569065094" lon="35.011455536">
  <ele>119.658813</ele>
  <time>2011-10-25T19:42:15Z</time>
  <speed>8.290000</speed>
</trkpt>
<trkpt lat="32.569026947" lon="35.011383057">
  <ele>119.367798</ele>
  <time>2011-10-25T19:42:16Z</time>
  <speed>8.110000</speed>
</trkpt>
<trkpt lat="32.568988800" lon="35.011310577">
  <ele>119.451782</ele>
  <time>2011-10-25T19:42:17Z</time>
  <speed>8.250000</speed>
</trkpt>
<trkpt lat="32.568939209" lon="35.011241913">
  <ele>119.647095</ele>
  <time>2011-10-25T19:42:18Z</time>
  <speed>8.100000</speed>
</trkpt>
<trkpt lat="32.568889618" lon="35.011180878">
  <ele>118.926392</ele>
  <time>2011-10-25T19:42:19Z</time>
  <speed>7.870000</speed>
</trkpt>
<trkpt lat="32.568847656" lon="35.011116028">
  <ele>118.508423</ele>
  <time>2011-10-25T19:42:20Z</time>
  <speed>7.950000</speed>
</trkpt>
<trkpt lat="32.568801880" lon="35.011054993">
  <ele>117.867798</ele>
  <time>2011-10-25T19:42:21Z</time>
  <speed>7.770000</speed>
</trkpt>
<trkpt lat="32.568759918" lon="35.010993958">
  <ele>118.205688</ele>
  <time>2011-10-25T19:42:22Z</time>
  <speed>7.620000</speed>
</trkpt>
<trkpt lat="32.568710327" lon="35.010936737">
  <ele>118.106079</ele>
  <time>2011-10-25T19:42:23Z</time>
  <speed>7.650000</speed>
</trkpt>
<trkpt lat="32.568660736" lon="35.010879517">
  <ele>118.268188</ele>
  <time>2011-10-25T19:42:24Z</time>
  <speed>8.140000</speed>
</trkpt>
<trkpt lat="32.568611145" lon="35.010818481">
  <ele>117.486938</ele>
  <time>2011-10-25T19:42:25Z</time>
  <speed>8.210000</speed>
</trkpt>
<trkpt lat="32.568565369" lon="35.010753632">
  <ele>116.733032</ele>
  <time>2011-10-25T19:42:26Z</time>
  <speed>8.220000</speed>
</trkpt>
<trkpt lat="32.568519592" lon="35.010688782">
  <ele>116.090454</ele>
  <time>2011-10-25T19:42:27Z</time>
  <speed>7.850000</speed>
</trkpt>
<trkpt lat="32.568473816" lon="35.010627747">
  <ele>115.844360</ele>
  <time>2011-10-25T19:42:28Z</time>
  <speed>7.540000</speed>
</trkpt>
<trkpt lat="32.568424225" lon="35.010566711">
  <ele>115.149048</ele>
  <time>2011-10-25T19:42:29Z</time>
  <speed>7.730000</speed>
</trkpt>
<trkpt lat="32.568382263" lon="35.010498047">
  <ele>114.770142</ele>
  <time>2011-10-25T19:42:30Z</time>
  <speed>8.000000</speed>
</trkpt>
<trkpt lat="32.568344116" lon="35.010433197">
  <ele>114.783813</ele>
  <time>2011-10-25T19:42:31Z</time>
  <speed>7.470000</speed>
</trkpt>
<trkpt lat="32.568302155" lon="35.010368347">
  <ele>114.317017</ele>
  <time>2011-10-25T19:42:32Z</time>
  <speed>7.510000</speed>
</trkpt>
<trkpt lat="32.568264008" lon="35.010303497">
  <ele>114.229126</ele>
  <time>2011-10-25T19:42:33Z</time>
  <speed>7.630000</speed>
</trkpt>
<trkpt lat="32.568222046" lon="35.010246277">
  <ele>113.762329</ele>
  <time>2011-10-25T19:42:34Z</time>
  <speed>7.540000</speed>
</trkpt>
<trkpt lat="32.568172455" lon="35.010181427">
  <ele>113.514282</ele>
  <time>2011-10-25T19:42:35Z</time>
  <speed>7.640000</speed>
</trkpt>
<trkpt lat="32.568130493" lon="35.010116577">
  <ele>113.231079</ele>
  <time>2011-10-25T19:42:36Z</time>
  <speed>7.430000</speed>
</trkpt>
<trkpt lat="32.568084717" lon="35.010055542">
  <ele>112.010376</ele>
  <time>2011-10-25T19:42:37Z</time>
  <speed>7.440000</speed>
</trkpt>
<trkpt lat="32.568042755" lon="35.009994507">
  <ele>111.469360</ele>
  <time>2011-10-25T19:42:38Z</time>
  <speed>7.320000</speed>
</trkpt>
<trkpt lat="32.568004608" lon="35.009929657">
  <ele>111.367798</ele>
  <time>2011-10-25T19:42:39Z</time>
  <speed>7.240000</speed>
</trkpt>
<trkpt lat="32.567970276" lon="35.009860992">
  <ele>110.676392</ele>
  <time>2011-10-25T19:42:40Z</time>
  <speed>7.500000</speed>
</trkpt>
<trkpt lat="32.567932129" lon="35.009796143">
  <ele>110.281860</ele>
  <time>2011-10-25T19:42:41Z</time>
  <speed>7.560000</speed>
</trkpt>
<trkpt lat="32.567890167" lon="35.009731293">
  <ele>110.018188</ele>
  <time>2011-10-25T19:42:42Z</time>
  <speed>7.600000</speed>
</trkpt>
<trkpt lat="32.567852020" lon="35.009670258">
  <ele>110.182251</ele>
  <time>2011-10-25T19:42:43Z</time>
  <speed>7.230000</speed>
</trkpt>
<trkpt lat="32.567810059" lon="35.009605408">
  <ele>109.658813</ele>
  <time>2011-10-25T19:42:44Z</time>
  <speed>7.290000</speed>
</trkpt>
<trkpt lat="32.567775726" lon="35.009540558">
  <ele>108.863892</ele>
  <time>2011-10-25T19:42:45Z</time>
  <speed>7.410000</speed>
</trkpt>
<trkpt lat="32.567749023" lon="35.009468079">
  <ele>107.858032</ele>
  <time>2011-10-25T19:42:46Z</time>
  <speed>7.810000</speed>
</trkpt>
<trkpt lat="32.567722321" lon="35.009387970">
  <ele>107.346313</ele>
  <time>2011-10-25T19:42:47Z</time>
  <speed>7.950000</speed>
</trkpt>
<trkpt lat="32.567699432" lon="35.009311676">
  <ele>106.717407</ele>
  <time>2011-10-25T19:42:48Z</time>
  <speed>8.240000</speed>
</trkpt>
<trkpt lat="32.567680359" lon="35.009231567">
  <ele>106.176392</ele>
  <time>2011-10-25T19:42:49Z</time>
  <speed>8.290000</speed>
</trkpt>
<trkpt lat="32.567665100" lon="35.009147644">
  <ele>106.688110</ele>
  <time>2011-10-25T19:42:50Z</time>
  <speed>7.990000</speed>
</trkpt>
<trkpt lat="32.567646027" lon="35.009063721">
  <ele>106.459595</ele>
  <time>2011-10-25T19:42:51Z</time>
  <speed>8.120000</speed>
</trkpt>
<trkpt lat="32.567626953" lon="35.008975983">
  <ele>105.787720</ele>
  <time>2011-10-25T19:42:52Z</time>
  <speed>8.580000</speed>
</trkpt>
<trkpt lat="32.567600250" lon="35.008892059">
  <ele>105.151001</ele>
  <time>2011-10-25T19:42:53Z</time>
  <speed>8.280000</speed>
</trkpt>
<trkpt lat="32.567565918" lon="35.008811951">
  <ele>104.231079</ele>
  <time>2011-10-25T19:42:54Z</time>
  <speed>7.870000</speed>
</trkpt>
<trkpt lat="32.567531586" lon="35.008739471">
  <ele>103.305298</ele>
  <time>2011-10-25T19:42:55Z</time>
  <speed>7.210000</speed>
</trkpt>
<trkpt lat="32.567489624" lon="35.008682251">
  <ele>102.469360</ele>
  <time>2011-10-25T19:42:56Z</time>
  <speed>7.370000</speed>
</trkpt>
<trkpt lat="32.567447662" lon="35.008625031">
  <ele>101.879517</ele>
  <time>2011-10-25T19:42:57Z</time>
  <speed>7.460000</speed>
</trkpt>
<trkpt lat="32.567401886" lon="35.008571625">
  <ele>101.246704</ele>
  <time>2011-10-25T19:42:58Z</time>
  <speed>7.320000</speed>
</trkpt>
<trkpt lat="32.567352295" lon="35.008518219">
  <ele>100.656860</ele>
  <time>2011-10-25T19:42:59Z</time>
  <speed>7.520000</speed>
</trkpt>
<trkpt lat="32.567287445" lon="35.008472443">
  <ele>100.020142</ele>
  <time>2011-10-25T19:43:00Z</time>
  <speed>7.370000</speed>
</trkpt>
<trkpt lat="32.567234039" lon="35.008419037">
  <ele>99.744751</ele>
  <time>2011-10-25T19:43:01Z</time>
  <speed>7.840000</speed>
</trkpt>
<trkpt lat="32.567184448" lon="35.008358002">
  <ele>99.365845</ele>
  <time>2011-10-25T19:43:02Z</time>
  <speed>8.100000</speed>
</trkpt>
<trkpt lat="32.567127228" lon="35.008293152">
  <ele>98.965454</ele>
  <time>2011-10-25T19:43:03Z</time>
  <speed>8.340000</speed>
</trkpt>
<trkpt lat="32.567070007" lon="35.008232117">
  <ele>98.504517</ele>
  <time>2011-10-25T19:43:04Z</time>
  <speed>8.580000</speed>
</trkpt>
<trkpt lat="32.567012787" lon="35.008171082">
  <ele>97.994751</ele>
  <time>2011-10-25T19:43:05Z</time>
  <speed>8.660000</speed>
</trkpt>
<trkpt lat="32.566955566" lon="35.008106232">
  <ele>97.432251</ele>
  <time>2011-10-25T19:43:06Z</time>
  <speed>8.640000</speed>
</trkpt>
<trkpt lat="32.566902161" lon="35.008041382">
  <ele>96.600220</ele>
  <time>2011-10-25T19:43:07Z</time>
  <speed>8.480000</speed>
</trkpt>
<trkpt lat="32.566856384" lon="35.007976532">
  <ele>96.156860</ele>
  <time>2011-10-25T19:43:08Z</time>
  <speed>8.250000</speed>
</trkpt>
<trkpt lat="32.566799164" lon="35.007915497">
  <ele>95.912720</ele>
  <time>2011-10-25T19:43:09Z</time>
  <speed>8.250000</speed>
</trkpt>
<trkpt lat="32.566757202" lon="35.007843018">
  <ele>95.561157</ele>
  <time>2011-10-25T19:43:10Z</time>
  <speed>8.110000</speed>
</trkpt>
<trkpt lat="32.566711426" lon="35.007770538">
  <ele>95.246704</ele>
  <time>2011-10-25T19:43:11Z</time>
  <speed>8.130000</speed>
</trkpt>
<trkpt lat="32.566669464" lon="35.007705688">
  <ele>94.934204</ele>
  <time>2011-10-25T19:43:12Z</time>
  <speed>8.130000</speed>
</trkpt>
<trkpt lat="32.566627502" lon="35.007640839">
  <ele>94.535767</ele>
  <time>2011-10-25T19:43:13Z</time>
  <speed>7.980000</speed>
</trkpt>
<trkpt lat="32.566581726" lon="35.007575989">
  <ele>93.643188</ele>
  <time>2011-10-25T19:43:14Z</time>
  <speed>7.670000</speed>
</trkpt>
<trkpt lat="32.566532135" lon="35.007522583">
  <ele>92.996704</ele>
  <time>2011-10-25T19:43:15Z</time>
  <speed>7.520000</speed>
</trkpt>
<trkpt lat="32.566474915" lon="35.007461548">
  <ele>92.340454</ele>
  <time>2011-10-25T19:43:16Z</time>
  <speed>7.890000</speed>
</trkpt>
<trkpt lat="32.566421509" lon="35.007404327">
  <ele>91.750610</ele>
  <time>2011-10-25T19:43:17Z</time>
  <speed>8.130000</speed>
</trkpt>
<trkpt lat="32.566371918" lon="35.007347107">
  <ele>91.332642</ele>
  <time>2011-10-25T19:43:18Z</time>
  <speed>7.730000</speed>
</trkpt>
<trkpt lat="32.566318512" lon="35.007293701">
  <ele>90.397095</ele>
  <time>2011-10-25T19:43:19Z</time>
  <speed>7.870000</speed>
</trkpt>
<trkpt lat="32.566261292" lon="35.007240295">
  <ele>88.717407</ele>
  <time>2011-10-25T19:43:20Z</time>
  <speed>8.000000</speed>
</trkpt>
<trkpt lat="32.566204071" lon="35.007194519">
  <ele>88.211548</ele>
  <time>2011-10-25T19:43:21Z</time>
  <speed>7.670000</speed>
</trkpt>
<trkpt lat="32.566150665" lon="35.007141113">
  <ele>87.549438</ele>
  <time>2011-10-25T19:43:22Z</time>
  <speed>7.720000</speed>
</trkpt>
<trkpt lat="32.566097260" lon="35.007091522">
  <ele>87.600220</ele>
  <time>2011-10-25T19:43:23Z</time>
  <speed>7.610000</speed>
</trkpt>
<trkpt lat="32.566043854" lon="35.007038116">
  <ele>86.932251</ele>
  <time>2011-10-25T19:43:24Z</time>
  <speed>7.470000</speed>
</trkpt>
<trkpt lat="32.565990448" lon="35.006988525">
  <ele>86.467407</ele>
  <time>2011-10-25T19:43:25Z</time>
  <speed>7.530000</speed>
</trkpt>
<trkpt lat="32.565940857" lon="35.006931305">
  <ele>85.984985</ele>
  <time>2011-10-25T19:43:26Z</time>
  <speed>7.760000</speed>
</trkpt>
<trkpt lat="32.565879822" lon="35.006881714">
  <ele>84.764282</ele>
  <time>2011-10-25T19:43:27Z</time>
  <speed>7.830000</speed>
</trkpt>
<trkpt lat="32.565826416" lon="35.006832123">
  <ele>85.065063</ele>
  <time>2011-10-25T19:43:28Z</time>
  <speed>7.760000</speed>
</trkpt>
<trkpt lat="32.565773010" lon="35.006774902">
  <ele>84.586548</ele>
  <time>2011-10-25T19:43:29Z</time>
  <speed>7.850000</speed>
</trkpt>
<trkpt lat="32.565723419" lon="35.006713867">
  <ele>84.338501</ele>
  <time>2011-10-25T19:43:30Z</time>
  <speed>7.930000</speed>
</trkpt>
<trkpt lat="32.565677643" lon="35.006652832">
  <ele>83.947876</ele>
  <time>2011-10-25T19:43:31Z</time>
  <speed>7.990000</speed>
</trkpt>
<trkpt lat="32.565631866" lon="35.006584167">
  <ele>83.592407</ele>
  <time>2011-10-25T19:43:32Z</time>
  <speed>8.050000</speed>
</trkpt>
<trkpt lat="32.565589905" lon="35.006504059">
  <ele>84.270142</ele>
  <time>2011-10-25T19:43:33Z</time>
  <speed>8.220000</speed>
</trkpt>
<trkpt lat="32.565559387" lon="35.006427765">
  <ele>84.672485</ele>
  <time>2011-10-25T19:43:34Z</time>
  <speed>8.100000</speed>
</trkpt>
<trkpt lat="32.565532684" lon="35.006347656">
  <ele>84.580688</ele>
  <time>2011-10-25T19:43:35Z</time>
  <speed>8.100000</speed>
</trkpt>
<trkpt lat="32.565509796" lon="35.006267548">
  <ele>83.440063</ele>
  <time>2011-10-25T19:43:36Z</time>
  <speed>7.770000</speed>
</trkpt>
<trkpt lat="32.565494537" lon="35.006198883">
  <ele>84.045532</ele>
  <time>2011-10-25T19:43:37Z</time>
  <speed>5.690000</speed>
</trkpt>
<trkpt lat="32.565479279" lon="35.006145477">
  <ele>84.762329</ele>
  <time>2011-10-25T19:43:38Z</time>
  <speed>4.790000</speed>
</trkpt>
<trkpt lat="32.565467834" lon="35.006111145">
  <ele>85.326782</ele>
  <time>2011-10-25T19:43:39Z</time>
  <speed>2.540000</speed>
</trkpt>
<trkpt lat="32.565460205" lon="35.006080627">
  <ele>84.938110</ele>
  <time>2011-10-25T19:43:47Z</time>
  <speed>0.050000</speed>
</trkpt>
<trkpt lat="32.565437317" lon="35.006057739">
  <ele>85.777954</ele>
  <time>2011-10-25T19:44:05Z</time>
  <speed>1.250000</speed>
</trkpt>
<trkpt lat="32.565414429" lon="35.006038666">
  <ele>87.352173</ele>
  <time>2011-10-25T19:44:08Z</time>
  <speed>1.000000</speed>
</trkpt>
<trkpt lat="32.565395355" lon="35.006000519">
  <ele>87.193970</ele>
  <time>2011-10-25T19:44:11Z</time>
  <speed>1.490000</speed>
</trkpt>
<trkpt lat="32.565372467" lon="35.005973816">
  <ele>87.586548</ele>
  <time>2011-10-25T19:44:14Z</time>
  <speed>1.170000</speed>
</trkpt>
<trkpt lat="32.565357208" lon="35.005943298">
  <ele>87.668579</ele>
  <time>2011-10-25T19:44:17Z</time>
  <speed>1.040000</speed>
</trkpt>
<trkpt lat="32.565334320" lon="35.005920410">
  <ele>86.645142</ele>
  <time>2011-10-25T19:44:20Z</time>
  <speed>1.040000</speed>
</trkpt>
<trkpt lat="32.565315247" lon="35.005893707">
  <ele>86.213501</ele>
  <time>2011-10-25T19:45:04Z</time>
  <speed>0.830000</speed>
</trkpt>
<trkpt lat="32.565292358" lon="35.005874634">
  <ele>84.988892</ele>
  <time>2011-10-25T19:45:12Z</time>
  <speed>0.600000</speed>
</trkpt>
<trkpt lat="32.565280914" lon="35.005844116">
  <ele>84.926392</ele>
  <time>2011-10-25T19:45:27Z</time>
  <speed>0.050000</speed>
</trkpt>
<trkpt lat="32.565254211" lon="35.005821228">
  <ele>85.301392</ele>
  <time>2011-10-25T19:46:30Z</time>
  <speed>0.670000</speed>
</trkpt>
<trkpt lat="32.565227509" lon="35.005809784">
  <ele>84.510376</ele>
  <time>2011-10-25T19:46:33Z</time>
  <speed>0.170000</speed>
</trkpt>
<trkpt lat="32.565193176" lon="35.005786896">
  <ele>85.233032</ele>
  <time>2011-10-25T19:46:37Z</time>
  <speed>1.510000</speed>
</trkpt>
<trkpt lat="32.565174103" lon="35.005752563">
  <ele>85.426392</ele>
  <time>2011-10-25T19:46:39Z</time>
  <speed>2.110000</speed>
</trkpt>
<trkpt lat="32.565158844" lon="35.005725861">
  <ele>85.475220</ele>
  <time>2011-10-25T19:46:40Z</time>
  <speed>3.160000</speed>
</trkpt>
<trkpt lat="32.565143585" lon="35.005691528">
  <ele>85.363892</ele>
  <time>2011-10-25T19:46:41Z</time>
  <speed>3.320000</speed>
</trkpt>
<trkpt lat="32.565132141" lon="35.005657196">
  <ele>85.510376</ele>
  <time>2011-10-25T19:46:42Z</time>
  <speed>3.080000</speed>
</trkpt>
<trkpt lat="32.565128326" lon="35.005622864">
  <ele>85.576782</ele>
  <time>2011-10-25T19:46:43Z</time>
  <speed>3.180000</speed>
</trkpt>
<trkpt lat="32.565132141" lon="35.005584717">
  <ele>85.832642</ele>
  <time>2011-10-25T19:46:44Z</time>
  <speed>3.210000</speed>
</trkpt>
<trkpt lat="32.565135956" lon="35.005542755">
  <ele>85.492798</ele>
  <time>2011-10-25T19:46:45Z</time>
  <speed>3.780000</speed>
</trkpt>
<trkpt lat="32.565143585" lon="35.005496979">
  <ele>85.260376</ele>
  <time>2011-10-25T19:46:46Z</time>
  <speed>3.680000</speed>
</trkpt>
<trkpt lat="32.565139771" lon="35.005458832">
  <ele>85.606079</ele>
  <time>2011-10-25T19:46:47Z</time>
  <speed>3.220000</speed>
</trkpt>
<trkpt lat="32.565132141" lon="35.005420685">
  <ele>85.889282</ele>
  <time>2011-10-25T19:46:48Z</time>
  <speed>2.850000</speed>
</trkpt>
<trkpt lat="32.565113068" lon="35.005371094">
  <ele>86.354126</ele>
  <time>2011-10-25T19:46:50Z</time>
  <speed>2.620000</speed>
</trkpt>
<trkpt lat="32.565109253" lon="35.005310059">
  <ele>85.998657</ele>
  <time>2011-10-25T19:46:52Z</time>
  <speed>2.390000</speed>
</trkpt>
<trkpt lat="32.565128326" lon="35.005268097">
  <ele>86.061157</ele>
  <time>2011-10-25T19:46:54Z</time>
  <speed>2.200000</speed>
</trkpt>
<trkpt lat="32.565162659" lon="35.005233765">
  <ele>86.379517</ele>
  <time>2011-10-25T19:46:56Z</time>
  <speed>2.400000</speed>
</trkpt>
<trkpt lat="32.565204620" lon="35.005214691">
  <ele>87.584595</ele>
  <time>2011-10-25T19:46:58Z</time>
  <speed>2.630000</speed>
</trkpt>
<trkpt lat="32.565250397" lon="35.005180359">
  <ele>87.500610</ele>
  <time>2011-10-25T19:47:00Z</time>
  <speed>2.890000</speed>
</trkpt>
<trkpt lat="32.565277100" lon="35.005165100">
  <ele>87.791626</ele>
  <time>2011-10-25T19:47:01Z</time>
  <speed>2.710000</speed>
</trkpt>
<trkpt lat="32.565315247" lon="35.005134583">
  <ele>88.467407</ele>
  <time>2011-10-25T19:47:03Z</time>
  <speed>2.370000</speed>
</trkpt>
<trkpt lat="32.565357208" lon="35.005107880">
  <ele>88.459595</ele>
  <time>2011-10-25T19:47:05Z</time>
  <speed>2.670000</speed>
</trkpt>
<trkpt lat="32.565399170" lon="35.005073547">
  <ele>89.252563</ele>
  <time>2011-10-25T19:47:07Z</time>
  <speed>2.990000</speed>
</trkpt>
<trkpt lat="32.565422058" lon="35.005054474">
  <ele>89.588501</ele>
  <time>2011-10-25T19:47:08Z</time>
  <speed>2.990000</speed>
</trkpt>
<trkpt lat="32.565448761" lon="35.005031586">
  <ele>90.336548</ele>
  <time>2011-10-25T19:47:09Z</time>
  <speed>3.100000</speed>
</trkpt>
<trkpt lat="32.565471649" lon="35.005008698">
  <ele>90.633423</ele>
  <time>2011-10-25T19:47:10Z</time>
  <speed>2.890000</speed>
</trkpt>
<trkpt lat="32.565509796" lon="35.004966736">
  <ele>91.154907</ele>
  <time>2011-10-25T19:47:12Z</time>
  <speed>3.180000</speed>
</trkpt>
<trkpt lat="32.565555573" lon="35.004924774">
  <ele>91.609985</ele>
  <time>2011-10-25T19:47:14Z</time>
  <speed>3.110000</speed>
</trkpt>
<trkpt lat="32.565593719" lon="35.004875183">
  <ele>90.047485</ele>
  <time>2011-10-25T19:47:16Z</time>
  <speed>3.070000</speed>
</trkpt>
<trkpt lat="32.565628052" lon="35.004833221">
  <ele>90.231079</ele>
  <time>2011-10-25T19:47:18Z</time>
  <speed>2.740000</speed>
</trkpt>
<trkpt lat="32.565658569" lon="35.004795074">
  <ele>90.977173</ele>
  <time>2011-10-25T19:47:20Z</time>
  <speed>2.740000</speed>
</trkpt>
<trkpt lat="32.565677643" lon="35.004753113">
  <ele>92.930298</ele>
  <time>2011-10-25T19:47:22Z</time>
  <speed>2.780000</speed>
</trkpt>
<trkpt lat="32.565708160" lon="35.004714966">
  <ele>95.236938</ele>
  <time>2011-10-25T19:47:24Z</time>
  <speed>2.850000</speed>
</trkpt>
<trkpt lat="32.565738678" lon="35.004673004">
  <ele>95.983032</ele>
  <time>2011-10-25T19:47:26Z</time>
  <speed>3.140000</speed>
</trkpt>
<trkpt lat="32.565761566" lon="35.004653931">
  <ele>96.918579</ele>
  <time>2011-10-25T19:47:27Z</time>
  <speed>2.830000</speed>
</trkpt>
<trkpt lat="32.565792084" lon="35.004604340">
  <ele>97.953735</ele>
  <time>2011-10-25T19:47:29Z</time>
  <speed>2.840000</speed>
</trkpt>
<trkpt lat="32.565811157" lon="35.004573822">
  <ele>98.266235</ele>
  <time>2011-10-25T19:47:30Z</time>
  <speed>3.050000</speed>
</trkpt>
<trkpt lat="32.565830231" lon="35.004547119">
  <ele>97.867798</ele>
  <time>2011-10-25T19:47:31Z</time>
  <speed>3.010000</speed>
</trkpt>
<trkpt lat="32.565845490" lon="35.004520416">
  <ele>97.688110</ele>
  <time>2011-10-25T19:47:32Z</time>
  <speed>3.060000</speed>
</trkpt>
<trkpt lat="32.565879822" lon="35.004474640">
  <ele>97.641235</ele>
  <time>2011-10-25T19:47:34Z</time>
  <speed>3.080000</speed>
</trkpt>
<trkpt lat="32.565914154" lon="35.004436493">
  <ele>97.318970</ele>
  <time>2011-10-25T19:47:36Z</time>
  <speed>3.050000</speed>
</trkpt>
<trkpt lat="32.565929413" lon="35.004413605">
  <ele>97.481079</ele>
  <time>2011-10-25T19:47:37Z</time>
  <speed>2.840000</speed>
</trkpt>
<trkpt lat="32.565967560" lon="35.004367828">
  <ele>98.004517</ele>
  <time>2011-10-25T19:47:39Z</time>
  <speed>3.150000</speed>
</trkpt>
<trkpt lat="32.565990448" lon="35.004344940">
  <ele>98.176392</ele>
  <time>2011-10-25T19:47:40Z</time>
  <speed>3.160000</speed>
</trkpt>
<trkpt lat="32.566009521" lon="35.004325867">
  <ele>98.445923</ele>
  <time>2011-10-25T19:47:41Z</time>
  <speed>3.120000</speed>
</trkpt>
<trkpt lat="32.566032410" lon="35.004302979">
  <ele>98.942017</ele>
  <time>2011-10-25T19:47:42Z</time>
  <speed>3.120000</speed>
</trkpt>
<trkpt lat="32.566055298" lon="35.004280090">
  <ele>98.803345</ele>
  <time>2011-10-25T19:47:43Z</time>
  <speed>3.100000</speed>
</trkpt>
<trkpt lat="32.566093445" lon="35.004234314">
  <ele>99.088501</ele>
  <time>2011-10-25T19:47:45Z</time>
  <speed>2.950000</speed>
</trkpt>
<trkpt lat="32.566127777" lon="35.004188538">
  <ele>99.328735</ele>
  <time>2011-10-25T19:47:47Z</time>
  <speed>3.110000</speed>
</trkpt>
<trkpt lat="32.566146851" lon="35.004161835">
  <ele>99.459595</ele>
  <time>2011-10-25T19:47:48Z</time>
  <speed>3.180000</speed>
</trkpt>
<trkpt lat="32.566169739" lon="35.004138947">
  <ele>99.486938</ele>
  <time>2011-10-25T19:47:49Z</time>
  <speed>3.170000</speed>
</trkpt>
<trkpt lat="32.566188812" lon="35.004116058">
  <ele>99.902954</ele>
  <time>2011-10-25T19:47:50Z</time>
  <speed>2.910000</speed>
</trkpt>
<trkpt lat="32.566211700" lon="35.004062653">
  <ele>100.129517</ele>
  <time>2011-10-25T19:47:52Z</time>
  <speed>2.890000</speed>
</trkpt>
<trkpt lat="32.566234589" lon="35.004039764">
  <ele>100.436157</ele>
  <time>2011-10-25T19:47:53Z</time>
  <speed>3.120000</speed>
</trkpt>
<trkpt lat="32.566249847" lon="35.004013062">
  <ele>100.529907</ele>
  <time>2011-10-25T19:47:54Z</time>
  <speed>2.920000</speed>
</trkpt>
<trkpt lat="32.566272736" lon="35.003963470">
  <ele>100.520142</ele>
  <time>2011-10-25T19:47:56Z</time>
  <speed>2.790000</speed>
</trkpt>
<trkpt lat="32.566284180" lon="35.003932953">
  <ele>101.246704</ele>
  <time>2011-10-25T19:47:57Z</time>
  <speed>2.590000</speed>
</trkpt>
<trkpt lat="32.566303253" lon="35.003871918">
  <ele>101.283813</ele>
  <time>2011-10-25T19:47:59Z</time>
  <speed>2.970000</speed>
</trkpt>
<trkpt lat="32.566299438" lon="35.003826141">
  <ele>100.777954</ele>
  <time>2011-10-25T19:48:00Z</time>
  <speed>2.690000</speed>
</trkpt>
<trkpt lat="32.566307068" lon="35.003795624">
  <ele>100.717407</ele>
  <time>2011-10-25T19:48:01Z</time>
  <speed>2.730000</speed>
</trkpt>
<trkpt lat="32.566314697" lon="35.003757477">
  <ele>100.772095</ele>
  <time>2011-10-25T19:48:02Z</time>
  <speed>2.840000</speed>
</trkpt>
<trkpt lat="32.566329956" lon="35.003726959">
  <ele>101.078735</ele>
  <time>2011-10-25T19:48:03Z</time>
  <speed>2.650000</speed>
</trkpt>
<trkpt lat="32.566333771" lon="35.003692627">
  <ele>100.858032</ele>
  <time>2011-10-25T19:48:04Z</time>
  <speed>2.680000</speed>
</trkpt>
<trkpt lat="32.566352844" lon="35.003639221">
  <ele>100.764282</ele>
  <time>2011-10-25T19:48:06Z</time>
  <speed>1.900000</speed>
</trkpt>
<trkpt lat="32.566371918" lon="35.003601074">
  <ele>101.565063</ele>
  <time>2011-10-25T19:48:08Z</time>
  <speed>2.400000</speed>
</trkpt>
<trkpt lat="32.566390991" lon="35.003543854">
  <ele>101.348267</ele>
  <time>2011-10-25T19:48:10Z</time>
  <speed>2.790000</speed>
</trkpt>
<trkpt lat="32.566421509" lon="35.003509521">
  <ele>102.500610</ele>
  <time>2011-10-25T19:48:12Z</time>
  <speed>2.170000</speed>
</trkpt>
<trkpt lat="32.566444397" lon="35.003482819">
  <ele>102.127563</ele>
  <time>2011-10-25T19:48:14Z</time>
  <speed>1.910000</speed>
</trkpt>
<trkpt lat="32.566471100" lon="35.003459930">
  <ele>102.402954</ele>
  <time>2011-10-25T19:48:16Z</time>
  <speed>2.040000</speed>
</trkpt>
<trkpt lat="32.566509247" lon="35.003433228">
  <ele>103.127563</ele>
  <time>2011-10-25T19:48:18Z</time>
  <speed>2.300000</speed>
</trkpt>
<trkpt lat="32.566539764" lon="35.003395081">
  <ele>103.498657</ele>
  <time>2011-10-25T19:48:20Z</time>
  <speed>2.470000</speed>
</trkpt>
<trkpt lat="32.566577911" lon="35.003368378">
  <ele>103.649048</ele>
  <time>2011-10-25T19:48:22Z</time>
  <speed>2.570000</speed>
</trkpt>
<trkpt lat="32.566612244" lon="35.003334045">
  <ele>104.262329</ele>
  <time>2011-10-25T19:48:24Z</time>
  <speed>2.440000</speed>
</trkpt>
<trkpt lat="32.566654205" lon="35.003303528">
  <ele>104.754517</ele>
  <time>2011-10-25T19:48:26Z</time>
  <speed>2.440000</speed>
</trkpt>
<trkpt lat="32.566688538" lon="35.003269196">
  <ele>104.852173</ele>
  <time>2011-10-25T19:48:28Z</time>
  <speed>2.670000</speed>
</trkpt>
<trkpt lat="32.566730499" lon="35.003242493">
  <ele>105.412720</ele>
  <time>2011-10-25T19:48:30Z</time>
  <speed>2.720000</speed>
</trkpt>
<trkpt lat="32.566761017" lon="35.003196716">
  <ele>105.422485</ele>
  <time>2011-10-25T19:48:32Z</time>
  <speed>2.620000</speed>
</trkpt>
<trkpt lat="32.566799164" lon="35.003154755">
  <ele>106.125610</ele>
  <time>2011-10-25T19:48:34Z</time>
  <speed>2.700000</speed>
</trkpt>
<trkpt lat="32.566829681" lon="35.003116608">
  <ele>106.512329</ele>
  <time>2011-10-25T19:48:36Z</time>
  <speed>2.800000</speed>
</trkpt>
<trkpt lat="32.566867828" lon="35.003086090">
  <ele>106.252563</ele>
  <time>2011-10-25T19:48:38Z</time>
  <speed>2.740000</speed>
</trkpt>
<trkpt lat="32.566905975" lon="35.003044128">
  <ele>106.852173</ele>
  <time>2011-10-25T19:48:40Z</time>
  <speed>2.840000</speed>
</trkpt>
<trkpt lat="32.566936493" lon="35.002998352">
  <ele>107.078735</ele>
  <time>2011-10-25T19:48:42Z</time>
  <speed>2.790000</speed>
</trkpt>
<trkpt lat="32.566978455" lon="35.002960205">
  <ele>106.740845</ele>
  <time>2011-10-25T19:48:44Z</time>
  <speed>2.910000</speed>
</trkpt>
<trkpt lat="32.567001343" lon="35.002941132">
  <ele>107.182251</ele>
  <time>2011-10-25T19:48:45Z</time>
  <speed>2.720000</speed>
</trkpt>
<trkpt lat="32.567039490" lon="35.002899170">
  <ele>106.875610</ele>
  <time>2011-10-25T19:48:47Z</time>
  <speed>2.810000</speed>
</trkpt>
<trkpt lat="32.567073822" lon="35.002857208">
  <ele>106.348267</ele>
  <time>2011-10-25T19:48:49Z</time>
  <speed>2.940000</speed>
</trkpt>
<trkpt lat="32.567092896" lon="35.002830505">
  <ele>106.113892</ele>
  <time>2011-10-25T19:48:50Z</time>
  <speed>2.940000</speed>
</trkpt>
<trkpt lat="32.567111969" lon="35.002803802">
  <ele>106.584595</ele>
  <time>2011-10-25T19:48:51Z</time>
  <speed>2.950000</speed>
</trkpt>
<trkpt lat="32.567131042" lon="35.002784729">
  <ele>106.666626</ele>
  <time>2011-10-25T19:48:52Z</time>
  <speed>2.940000</speed>
</trkpt>
<trkpt lat="32.567157745" lon="35.002769470">
  <ele>106.514282</ele>
  <time>2011-10-25T19:48:53Z</time>
  <speed>3.030000</speed>
</trkpt>
<trkpt lat="32.567195892" lon="35.002735138">
  <ele>106.391235</ele>
  <time>2011-10-25T19:48:55Z</time>
  <speed>2.830000</speed>
</trkpt>
<trkpt lat="32.567214966" lon="35.002712250">
  <ele>105.938110</ele>
  <time>2011-10-25T19:48:56Z</time>
  <speed>3.150000</speed>
</trkpt>
<trkpt lat="32.567237854" lon="35.002689362">
  <ele>105.559204</ele>
  <time>2011-10-25T19:48:57Z</time>
  <speed>3.260000</speed>
</trkpt>
<trkpt lat="32.567260742" lon="35.002670288">
  <ele>105.188110</ele>
  <time>2011-10-25T19:48:58Z</time>
  <speed>3.360000</speed>
</trkpt>
<trkpt lat="32.567287445" lon="35.002647400">
  <ele>105.371704</ele>
  <time>2011-10-25T19:48:59Z</time>
  <speed>3.270000</speed>
</trkpt>
<trkpt lat="32.567310333" lon="35.002628326">
  <ele>105.395142</ele>
  <time>2011-10-25T19:49:00Z</time>
  <speed>3.230000</speed>
</trkpt>
<trkpt lat="32.567337036" lon="35.002613068">
  <ele>105.619751</ele>
  <time>2011-10-25T19:49:01Z</time>
  <speed>3.080000</speed>
</trkpt>
<trkpt lat="32.567359924" lon="35.002590179">
  <ele>106.016235</ele>
  <time>2011-10-25T19:49:02Z</time>
  <speed>3.060000</speed>
</trkpt>
<trkpt lat="32.567386627" lon="35.002571106">
  <ele>106.401001</ele>
  <time>2011-10-25T19:49:03Z</time>
  <speed>3.240000</speed>
</trkpt>
<trkpt lat="32.567409515" lon="35.002552032">
  <ele>106.231079</ele>
  <time>2011-10-25T19:49:04Z</time>
  <speed>3.190000</speed>
</trkpt>
<trkpt lat="32.567436218" lon="35.002536774">
  <ele>106.547485</ele>
  <time>2011-10-25T19:49:05Z</time>
  <speed>3.040000</speed>
</trkpt>
<trkpt lat="32.567455292" lon="35.002513885">
  <ele>104.955688</ele>
  <time>2011-10-25T19:49:06Z</time>
  <speed>3.070000</speed>
</trkpt>
<trkpt lat="32.567478180" lon="35.002494812">
  <ele>104.846313</ele>
  <time>2011-10-25T19:49:07Z</time>
  <speed>3.140000</speed>
</trkpt>
<trkpt lat="32.567501068" lon="35.002475739">
  <ele>105.326782</ele>
  <time>2011-10-25T19:49:08Z</time>
  <speed>3.310000</speed>
</trkpt>
<trkpt lat="32.567531586" lon="35.002456665">
  <ele>105.197876</ele>
  <time>2011-10-25T19:49:09Z</time>
  <speed>3.460000</speed>
</trkpt>
<trkpt lat="32.567558289" lon="35.002433777">
  <ele>105.457642</ele>
  <time>2011-10-25T19:49:10Z</time>
  <speed>3.650000</speed>
</trkpt>
<trkpt lat="32.567581177" lon="35.002410889">
  <ele>105.588501</ele>
  <time>2011-10-25T19:49:11Z</time>
  <speed>3.810000</speed>
</trkpt>
<trkpt lat="32.567607880" lon="35.002391815">
  <ele>105.391235</ele>
  <time>2011-10-25T19:49:12Z</time>
  <speed>3.650000</speed>
</trkpt>
<trkpt lat="32.567642212" lon="35.002368927">
  <ele>105.738892</ele>
  <time>2011-10-25T19:49:13Z</time>
  <speed>3.750000</speed>
</trkpt>
<trkpt lat="32.567668915" lon="35.002349854">
  <ele>105.848267</ele>
  <time>2011-10-25T19:49:14Z</time>
  <speed>3.540000</speed>
</trkpt>
<trkpt lat="32.567695618" lon="35.002334595">
  <ele>106.309204</ele>
  <time>2011-10-25T19:49:15Z</time>
  <speed>3.460000</speed>
</trkpt>
<trkpt lat="32.567722321" lon="35.002311707">
  <ele>106.035767</ele>
  <time>2011-10-25T19:49:16Z</time>
  <speed>3.440000</speed>
</trkpt>
<trkpt lat="32.567749023" lon="35.002292633">
  <ele>106.479126</ele>
  <time>2011-10-25T19:49:17Z</time>
  <speed>3.390000</speed>
</trkpt>
<trkpt lat="32.567775726" lon="35.002277374">
  <ele>106.395142</ele>
  <time>2011-10-25T19:49:18Z</time>
  <speed>3.370000</speed>
</trkpt>
<trkpt lat="32.567802429" lon="35.002262115">
  <ele>106.651001</ele>
  <time>2011-10-25T19:49:19Z</time>
  <speed>3.340000</speed>
</trkpt>
<trkpt lat="32.567825317" lon="35.002246857">
  <ele>106.729126</ele>
  <time>2011-10-25T19:49:20Z</time>
  <speed>3.330000</speed>
</trkpt>
<trkpt lat="32.567852020" lon="35.002227783">
  <ele>106.473267</ele>
  <time>2011-10-25T19:49:21Z</time>
  <speed>3.520000</speed>
</trkpt>
<trkpt lat="32.567874908" lon="35.002204895">
  <ele>105.565063</ele>
  <time>2011-10-25T19:49:22Z</time>
  <speed>3.340000</speed>
</trkpt>
<trkpt lat="32.567901611" lon="35.002185822">
  <ele>105.133423</ele>
  <time>2011-10-25T19:49:23Z</time>
  <speed>3.130000</speed>
</trkpt>
<trkpt lat="32.567932129" lon="35.002174377">
  <ele>105.006470</ele>
  <time>2011-10-25T19:49:24Z</time>
  <speed>3.100000</speed>
</trkpt>
<trkpt lat="32.567958832" lon="35.002162933">
  <ele>104.686157</ele>
  <time>2011-10-25T19:49:25Z</time>
  <speed>3.100000</speed>
</trkpt>
<trkpt lat="32.568000793" lon="35.002132416">
  <ele>103.367798</ele>
  <time>2011-10-25T19:49:27Z</time>
  <speed>3.080000</speed>
</trkpt>
<trkpt lat="32.568050385" lon="35.002124786">
  <ele>103.481079</ele>
  <time>2011-10-25T19:49:29Z</time>
  <speed>3.100000</speed>
</trkpt>
<trkpt lat="32.568077087" lon="35.002124786">
  <ele>102.440063</ele>
  <time>2011-10-25T19:49:30Z</time>
  <speed>3.050000</speed>
</trkpt>
<trkpt lat="32.568126678" lon="35.002120972">
  <ele>102.334595</ele>
  <time>2011-10-25T19:49:32Z</time>
  <speed>2.900000</speed>
</trkpt>
<trkpt lat="32.568180084" lon="35.002132416">
  <ele>102.033813</ele>
  <time>2011-10-25T19:49:34Z</time>
  <speed>3.100000</speed>
</trkpt>
<trkpt lat="32.568229675" lon="35.002136230">
  <ele>101.543579</ele>
  <time>2011-10-25T19:49:36Z</time>
  <speed>3.290000</speed>
</trkpt>
<trkpt lat="32.568283081" lon="35.002147675">
  <ele>100.651001</ele>
  <time>2011-10-25T19:49:38Z</time>
  <speed>3.120000</speed>
</trkpt>
<trkpt lat="32.568309784" lon="35.002159119">
  <ele>100.397095</ele>
  <time>2011-10-25T19:49:39Z</time>
  <speed>3.180000</speed>
</trkpt>
<trkpt lat="32.568340302" lon="35.002170563">
  <ele>100.654907</ele>
  <time>2011-10-25T19:49:40Z</time>
  <speed>3.340000</speed>
</trkpt>
<trkpt lat="32.568367004" lon="35.002178192">
  <ele>100.596313</ele>
  <time>2011-10-25T19:49:41Z</time>
  <speed>3.020000</speed>
</trkpt>
<trkpt lat="32.568401337" lon="35.002178192">
  <ele>101.223267</ele>
  <time>2011-10-25T19:49:42Z</time>
  <speed>3.010000</speed>
</trkpt>
<trkpt lat="32.568428040" lon="35.002185822">
  <ele>101.393188</ele>
  <time>2011-10-25T19:49:43Z</time>
  <speed>3.180000</speed>
</trkpt>
<trkpt lat="32.568458557" lon="35.002185822">
  <ele>101.551392</ele>
  <time>2011-10-25T19:49:44Z</time>
  <speed>3.010000</speed>
</trkpt>
<trkpt lat="32.568492889" lon="35.002189636">
  <ele>102.078735</ele>
  <time>2011-10-25T19:49:45Z</time>
  <speed>3.200000</speed>
</trkpt>
<trkpt lat="32.568523407" lon="35.002189636">
  <ele>102.401001</ele>
  <time>2011-10-25T19:49:46Z</time>
  <speed>3.470000</speed>
</trkpt>
<trkpt lat="32.568553925" lon="35.002193451">
  <ele>102.268188</ele>
  <time>2011-10-25T19:49:47Z</time>
  <speed>3.450000</speed>
</trkpt>
<trkpt lat="32.568584442" lon="35.002197266">
  <ele>102.326782</ele>
  <time>2011-10-25T19:49:48Z</time>
  <speed>3.430000</speed>
</trkpt>
<trkpt lat="32.568614960" lon="35.002201080">
  <ele>102.293579</ele>
  <time>2011-10-25T19:49:49Z</time>
  <speed>3.120000</speed>
</trkpt>
<trkpt lat="32.568641663" lon="35.002201080">
  <ele>102.201782</ele>
  <time>2011-10-25T19:49:50Z</time>
  <speed>3.230000</speed>
</trkpt>
<trkpt lat="32.568675995" lon="35.002204895">
  <ele>102.201782</ele>
  <time>2011-10-25T19:49:51Z</time>
  <speed>3.380000</speed>
</trkpt>
<trkpt lat="32.568725586" lon="35.002208710">
  <ele>101.541626</ele>
  <time>2011-10-25T19:49:53Z</time>
  <speed>2.960000</speed>
</trkpt>
<trkpt lat="32.568759918" lon="35.002201080">
  <ele>101.734985</ele>
  <time>2011-10-25T19:49:54Z</time>
  <speed>3.250000</speed>
</trkpt>
<trkpt lat="32.568794250" lon="35.002201080">
  <ele>102.006470</ele>
  <time>2011-10-25T19:49:55Z</time>
  <speed>3.190000</speed>
</trkpt>
<trkpt lat="32.568824768" lon="35.002201080">
  <ele>101.867798</ele>
  <time>2011-10-25T19:49:56Z</time>
  <speed>3.500000</speed>
</trkpt>
<trkpt lat="32.568859100" lon="35.002197266">
  <ele>102.100220</ele>
  <time>2011-10-25T19:49:57Z</time>
  <speed>3.280000</speed>
</trkpt>
<trkpt lat="32.568889618" lon="35.002204895">
  <ele>101.883423</ele>
  <time>2011-10-25T19:49:58Z</time>
  <speed>3.180000</speed>
</trkpt>
<trkpt lat="32.568920135" lon="35.002208710">
  <ele>101.979126</ele>
  <time>2011-10-25T19:49:59Z</time>
  <speed>3.100000</speed>
</trkpt>
<trkpt lat="32.568950653" lon="35.002212524">
  <ele>102.039673</ele>
  <time>2011-10-25T19:50:00Z</time>
  <speed>3.320000</speed>
</trkpt>
<trkpt lat="32.568981171" lon="35.002220154">
  <ele>101.922485</ele>
  <time>2011-10-25T19:50:01Z</time>
  <speed>3.520000</speed>
</trkpt>
<trkpt lat="32.569011688" lon="35.002227783">
  <ele>101.942017</ele>
  <time>2011-10-25T19:50:02Z</time>
  <speed>3.300000</speed>
</trkpt>
<trkpt lat="32.569042206" lon="35.002239227">
  <ele>101.791626</ele>
  <time>2011-10-25T19:50:03Z</time>
  <speed>3.480000</speed>
</trkpt>
<trkpt lat="32.569072723" lon="35.002250671">
  <ele>101.668579</ele>
  <time>2011-10-25T19:50:04Z</time>
  <speed>3.720000</speed>
</trkpt>
<trkpt lat="32.569107056" lon="35.002262115">
  <ele>101.600220</ele>
  <time>2011-10-25T19:50:05Z</time>
  <speed>3.670000</speed>
</trkpt>
<trkpt lat="32.569141388" lon="35.002273560">
  <ele>101.469360</ele>
  <time>2011-10-25T19:50:06Z</time>
  <speed>3.720000</speed>
</trkpt>
<trkpt lat="32.569175720" lon="35.002288818">
  <ele>101.992798</ele>
  <time>2011-10-25T19:50:07Z</time>
  <speed>3.560000</speed>
</trkpt>
<trkpt lat="32.569202423" lon="35.002300262">
  <ele>102.035767</ele>
  <time>2011-10-25T19:50:08Z</time>
  <speed>3.360000</speed>
</trkpt>
<trkpt lat="32.569255829" lon="35.002323151">
  <ele>101.256470</ele>
  <time>2011-10-25T19:50:10Z</time>
  <speed>3.400000</speed>
</trkpt>
<trkpt lat="32.569286346" lon="35.002330780">
  <ele>100.526001</ele>
  <time>2011-10-25T19:50:11Z</time>
  <speed>3.310000</speed>
</trkpt>
<trkpt lat="32.569313049" lon="35.002342224">
  <ele>100.125610</ele>
  <time>2011-10-25T19:50:12Z</time>
  <speed>2.970000</speed>
</trkpt>
<trkpt lat="32.569339752" lon="35.002353668">
  <ele>99.817017</ele>
  <time>2011-10-25T19:50:13Z</time>
  <speed>3.110000</speed>
</trkpt>
<trkpt lat="32.569370270" lon="35.002361298">
  <ele>100.182251</ele>
  <time>2011-10-25T19:50:14Z</time>
  <speed>3.330000</speed>
</trkpt>
<trkpt lat="32.569396973" lon="35.002368927">
  <ele>100.660767</ele>
  <time>2011-10-25T19:50:15Z</time>
  <speed>3.550000</speed>
</trkpt>
<trkpt lat="32.569427490" lon="35.002376556">
  <ele>100.791626</ele>
  <time>2011-10-25T19:50:16Z</time>
  <speed>3.620000</speed>
</trkpt>
<trkpt lat="32.569461823" lon="35.002376556">
  <ele>99.899048</ele>
  <time>2011-10-25T19:50:17Z</time>
  <speed>3.440000</speed>
</trkpt>
<trkpt lat="32.569496155" lon="35.002372742">
  <ele>100.041626</ele>
  <time>2011-10-25T19:50:18Z</time>
  <speed>3.710000</speed>
</trkpt>
<trkpt lat="32.569534302" lon="35.002368927">
  <ele>100.463501</ele>
  <time>2011-10-25T19:50:19Z</time>
  <speed>3.650000</speed>
</trkpt>
<trkpt lat="32.569572449" lon="35.002365112">
  <ele>100.471313</ele>
  <time>2011-10-25T19:50:20Z</time>
  <speed>3.720000</speed>
</trkpt>
<trkpt lat="32.569610596" lon="35.002368927">
  <ele>100.496704</ele>
  <time>2011-10-25T19:50:21Z</time>
  <speed>3.440000</speed>
</trkpt>
<trkpt lat="32.569637299" lon="35.002368927">
  <ele>100.492798</ele>
  <time>2011-10-25T19:50:22Z</time>
  <speed>3.410000</speed>
</trkpt>
<trkpt lat="32.569667816" lon="35.002368927">
  <ele>100.822876</ele>
  <time>2011-10-25T19:50:23Z</time>
  <speed>3.430000</speed>
</trkpt>
<trkpt lat="32.569698334" lon="35.002368927">
  <ele>100.750610</ele>
  <time>2011-10-25T19:50:24Z</time>
  <speed>3.310000</speed>
</trkpt>
<trkpt lat="32.569751740" lon="35.002368927">
  <ele>100.869751</ele>
  <time>2011-10-25T19:50:26Z</time>
  <speed>3.410000</speed>
</trkpt>
<trkpt lat="32.569786072" lon="35.002372742">
  <ele>101.258423</ele>
  <time>2011-10-25T19:50:27Z</time>
  <speed>3.530000</speed>
</trkpt>
<trkpt lat="32.569816589" lon="35.002368927">
  <ele>101.291626</ele>
  <time>2011-10-25T19:50:28Z</time>
  <speed>3.400000</speed>
</trkpt>
<trkpt lat="32.569850922" lon="35.002372742">
  <ele>101.467407</ele>
  <time>2011-10-25T19:50:29Z</time>
  <speed>3.470000</speed>
</trkpt>
<trkpt lat="32.569877625" lon="35.002368927">
  <ele>101.492798</ele>
  <time>2011-10-25T19:50:30Z</time>
  <speed>3.340000</speed>
</trkpt>
<trkpt lat="32.569934845" lon="35.002384186">
  <ele>101.914673</ele>
  <time>2011-10-25T19:50:32Z</time>
  <speed>3.410000</speed>
</trkpt>
<trkpt lat="32.569965363" lon="35.002388000">
  <ele>102.262329</ele>
  <time>2011-10-25T19:50:33Z</time>
  <speed>3.350000</speed>
</trkpt>
<trkpt lat="32.569999695" lon="35.002388000">
  <ele>102.215454</ele>
  <time>2011-10-25T19:50:34Z</time>
  <speed>3.430000</speed>
</trkpt>
<trkpt lat="32.570030212" lon="35.002395630">
  <ele>101.975220</ele>
  <time>2011-10-25T19:50:35Z</time>
  <speed>3.660000</speed>
</trkpt>
<trkpt lat="32.570060730" lon="35.002403259">
  <ele>102.024048</ele>
  <time>2011-10-25T19:50:36Z</time>
  <speed>3.630000</speed>
</trkpt>
<trkpt lat="32.570098877" lon="35.002407074">
  <ele>102.434204</ele>
  <time>2011-10-25T19:50:37Z</time>
  <speed>3.810000</speed>
</trkpt>
<trkpt lat="32.570133209" lon="35.002410889">
  <ele>102.443970</ele>
  <time>2011-10-25T19:50:38Z</time>
  <speed>3.860000</speed>
</trkpt>
<trkpt lat="32.570171356" lon="35.002418518">
  <ele>102.733032</ele>
  <time>2011-10-25T19:50:39Z</time>
  <speed>4.080000</speed>
</trkpt>
<trkpt lat="32.570213318" lon="35.002422333">
  <ele>103.152954</ele>
  <time>2011-10-25T19:50:40Z</time>
  <speed>3.900000</speed>
</trkpt>
<trkpt lat="32.570247650" lon="35.002426147">
  <ele>103.311157</ele>
  <time>2011-10-25T19:50:41Z</time>
  <speed>3.960000</speed>
</trkpt>
<trkpt lat="32.570289612" lon="35.002437592">
  <ele>104.211548</ele>
  <time>2011-10-25T19:50:42Z</time>
  <speed>4.130000</speed>
</trkpt>
<trkpt lat="32.570323944" lon="35.002449036">
  <ele>104.541626</ele>
  <time>2011-10-25T19:50:43Z</time>
  <speed>3.880000</speed>
</trkpt>
<trkpt lat="32.570358276" lon="35.002456665">
  <ele>104.445923</ele>
  <time>2011-10-25T19:50:44Z</time>
  <speed>3.980000</speed>
</trkpt>
<trkpt lat="32.570388794" lon="35.002464294">
  <ele>104.401001</ele>
  <time>2011-10-25T19:50:45Z</time>
  <speed>3.590000</speed>
</trkpt>
<trkpt lat="32.570423126" lon="35.002464294">
  <ele>104.996704</ele>
  <time>2011-10-25T19:50:46Z</time>
  <speed>3.510000</speed>
</trkpt>
<trkpt lat="32.570457458" lon="35.002464294">
  <ele>104.727173</ele>
  <time>2011-10-25T19:50:47Z</time>
  <speed>3.260000</speed>
</trkpt>
<trkpt lat="32.570484161" lon="35.002464294">
  <ele>105.033813</ele>
  <time>2011-10-25T19:50:48Z</time>
  <speed>3.140000</speed>
</trkpt>
<trkpt lat="32.570526123" lon="35.002452850">
  <ele>105.041626</ele>
  <time>2011-10-25T19:50:50Z</time>
  <speed>3.100000</speed>
</trkpt>
<trkpt lat="32.570583344" lon="35.002449036">
  <ele>105.383423</ele>
  <time>2011-10-25T19:50:52Z</time>
  <speed>2.920000</speed>
</trkpt>
<trkpt lat="32.570640564" lon="35.002441406">
  <ele>105.551392</ele>
  <time>2011-10-25T19:50:54Z</time>
  <speed>3.000000</speed>
</trkpt>
<trkpt lat="32.570667267" lon="35.002441406">
  <ele>106.145142</ele>
  <time>2011-10-25T19:50:55Z</time>
  <speed>2.900000</speed>
</trkpt>
<trkpt lat="32.570697784" lon="35.002441406">
  <ele>106.455688</ele>
  <time>2011-10-25T19:50:56Z</time>
  <speed>2.910000</speed>
</trkpt>
<trkpt lat="32.570728302" lon="35.002445221">
  <ele>107.475220</ele>
  <time>2011-10-25T19:50:57Z</time>
  <speed>2.840000</speed>
</trkpt>
<trkpt lat="32.570755005" lon="35.002449036">
  <ele>107.727173</ele>
  <time>2011-10-25T19:50:58Z</time>
  <speed>2.770000</speed>
</trkpt>
<trkpt lat="32.570785522" lon="35.002449036">
  <ele>107.973267</ele>
  <time>2011-10-25T19:50:59Z</time>
  <speed>2.560000</speed>
</trkpt>
<trkpt lat="32.570835114" lon="35.002449036">
  <ele>109.143188</ele>
  <time>2011-10-25T19:51:01Z</time>
  <speed>2.860000</speed>
</trkpt>
<trkpt lat="32.570888519" lon="35.002460480">
  <ele>109.793579</ele>
  <time>2011-10-25T19:51:03Z</time>
  <speed>3.210000</speed>
</trkpt>
<trkpt lat="32.570915222" lon="35.002464294">
  <ele>109.904907</ele>
  <time>2011-10-25T19:51:04Z</time>
  <speed>3.140000</speed>
</trkpt>
<trkpt lat="32.570945740" lon="35.002468109">
  <ele>110.092407</ele>
  <time>2011-10-25T19:51:05Z</time>
  <speed>3.140000</speed>
</trkpt>
<trkpt lat="32.570976257" lon="35.002471924">
  <ele>110.910767</ele>
  <time>2011-10-25T19:51:06Z</time>
  <speed>2.960000</speed>
</trkpt>
<trkpt lat="32.571025848" lon="35.002479553">
  <ele>111.483032</ele>
  <time>2011-10-25T19:51:08Z</time>
  <speed>3.060000</speed>
</trkpt>
<trkpt lat="32.571075439" lon="35.002490997">
  <ele>111.795532</ele>
  <time>2011-10-25T19:51:10Z</time>
  <speed>2.990000</speed>
</trkpt>
<trkpt lat="32.571121216" lon="35.002498627">
  <ele>111.041626</ele>
  <time>2011-10-25T19:51:12Z</time>
  <speed>3.090000</speed>
</trkpt>
<trkpt lat="32.571151733" lon="35.002506256">
  <ele>111.029907</ele>
  <time>2011-10-25T19:51:13Z</time>
  <speed>3.440000</speed>
</trkpt>
<trkpt lat="32.571178436" lon="35.002517700">
  <ele>111.338501</ele>
  <time>2011-10-25T19:51:14Z</time>
  <speed>3.380000</speed>
</trkpt>
<trkpt lat="32.571212769" lon="35.002525330">
  <ele>111.281860</ele>
  <time>2011-10-25T19:51:15Z</time>
  <speed>3.350000</speed>
</trkpt>
<trkpt lat="32.571243286" lon="35.002536774">
  <ele>111.238892</ele>
  <time>2011-10-25T19:51:16Z</time>
  <speed>3.040000</speed>
</trkpt>
<trkpt lat="32.571269989" lon="35.002544403">
  <ele>111.654907</ele>
  <time>2011-10-25T19:51:17Z</time>
  <speed>3.310000</speed>
</trkpt>
<trkpt lat="32.571300507" lon="35.002552032">
  <ele>112.008423</ele>
  <time>2011-10-25T19:51:18Z</time>
  <speed>3.170000</speed>
</trkpt>
<trkpt lat="32.571327209" lon="35.002563477">
  <ele>111.883423</ele>
  <time>2011-10-25T19:51:19Z</time>
  <speed>3.320000</speed>
</trkpt>
<trkpt lat="32.571353912" lon="35.002574921">
  <ele>111.533813</ele>
  <time>2011-10-25T19:51:20Z</time>
  <speed>3.260000</speed>
</trkpt>
<trkpt lat="32.571399689" lon="35.002601624">
  <ele>110.529907</ele>
  <time>2011-10-25T19:51:22Z</time>
  <speed>2.700000</speed>
</trkpt>
<trkpt lat="32.571449280" lon="35.002620697">
  <ele>109.826782</ele>
  <time>2011-10-25T19:51:24Z</time>
  <speed>2.770000</speed>
</trkpt>
<trkpt lat="32.571491241" lon="35.002643585">
  <ele>109.684204</ele>
  <time>2011-10-25T19:51:26Z</time>
  <speed>2.500000</speed>
</trkpt>
<trkpt lat="32.571540833" lon="35.002658844">
  <ele>109.768188</ele>
  <time>2011-10-25T19:51:28Z</time>
  <speed>3.040000</speed>
</trkpt>
<trkpt lat="32.571571350" lon="35.002666473">
  <ele>110.063110</ele>
  <time>2011-10-25T19:51:29Z</time>
  <speed>3.130000</speed>
</trkpt>
<trkpt lat="32.571598053" lon="35.002674103">
  <ele>110.889282</ele>
  <time>2011-10-25T19:51:30Z</time>
  <speed>2.650000</speed>
</trkpt>
<trkpt lat="32.571624756" lon="35.002674103">
  <ele>111.092407</ele>
  <time>2011-10-25T19:51:31Z</time>
  <speed>2.590000</speed>
</trkpt>
<trkpt lat="32.571662903" lon="35.002677917">
  <ele>111.563110</ele>
  <time>2011-10-25T19:51:33Z</time>
  <speed>2.630000</speed>
</trkpt>
<trkpt lat="32.571689606" lon="35.002674103">
  <ele>112.092407</ele>
  <time>2011-10-25T19:51:34Z</time>
  <speed>2.280000</speed>
</trkpt>
<trkpt lat="32.571739197" lon="35.002666473">
  <ele>112.416626</ele>
  <time>2011-10-25T19:51:36Z</time>
  <speed>2.770000</speed>
</trkpt>
<trkpt lat="32.571788788" lon="35.002651215">
  <ele>113.184204</ele>
  <time>2011-10-25T19:51:38Z</time>
  <speed>2.990000</speed>
</trkpt>
<trkpt lat="32.571815491" lon="35.002647400">
  <ele>113.871704</ele>
  <time>2011-10-25T19:51:39Z</time>
  <speed>3.140000</speed>
</trkpt>
<trkpt lat="32.571842194" lon="35.002639771">
  <ele>113.520142</ele>
  <time>2011-10-25T19:51:40Z</time>
  <speed>3.110000</speed>
</trkpt>
<trkpt lat="32.571868896" lon="35.002632141">
  <ele>113.596313</ele>
  <time>2011-10-25T19:51:41Z</time>
  <speed>3.230000</speed>
</trkpt>
<trkpt lat="32.571903229" lon="35.002624512">
  <ele>113.895142</ele>
  <time>2011-10-25T19:51:42Z</time>
  <speed>3.290000</speed>
</trkpt>
<trkpt lat="32.571926117" lon="35.002616882">
  <ele>113.414673</ele>
  <time>2011-10-25T19:51:43Z</time>
  <speed>3.270000</speed>
</trkpt>
<trkpt lat="32.571956635" lon="35.002609253">
  <ele>113.164673</ele>
  <time>2011-10-25T19:51:44Z</time>
  <speed>3.140000</speed>
</trkpt>
<trkpt lat="32.571983337" lon="35.002605438">
  <ele>113.834595</ele>
  <time>2011-10-25T19:51:45Z</time>
  <speed>3.040000</speed>
</trkpt>
<trkpt lat="32.572036743" lon="35.002586365">
  <ele>113.820923</ele>
  <time>2011-10-25T19:51:47Z</time>
  <speed>3.200000</speed>
</trkpt>
<trkpt lat="32.572067261" lon="35.002578735">
  <ele>113.803345</ele>
  <time>2011-10-25T19:51:48Z</time>
  <speed>3.170000</speed>
</trkpt>
<trkpt lat="32.572120667" lon="35.002552032">
  <ele>113.692017</ele>
  <time>2011-10-25T19:51:50Z</time>
  <speed>3.240000</speed>
</trkpt>
<trkpt lat="32.572151184" lon="35.002544403">
  <ele>113.490845</ele>
  <time>2011-10-25T19:51:51Z</time>
  <speed>3.210000</speed>
</trkpt>
<trkpt lat="32.572200775" lon="35.002521515">
  <ele>113.551392</ele>
  <time>2011-10-25T19:51:53Z</time>
  <speed>3.170000</speed>
</trkpt>
<trkpt lat="32.572250366" lon="35.002498627">
  <ele>113.697876</ele>
  <time>2011-10-25T19:51:55Z</time>
  <speed>3.360000</speed>
</trkpt>
<trkpt lat="32.572284698" lon="35.002490997">
  <ele>114.270142</ele>
  <time>2011-10-25T19:51:56Z</time>
  <speed>3.420000</speed>
</trkpt>
<trkpt lat="32.572315216" lon="35.002483368">
  <ele>114.895142</ele>
  <time>2011-10-25T19:51:57Z</time>
  <speed>3.450000</speed>
</trkpt>
<trkpt lat="32.572345734" lon="35.002468109">
  <ele>114.336548</ele>
  <time>2011-10-25T19:51:58Z</time>
  <speed>3.290000</speed>
</trkpt>
<trkpt lat="32.572372437" lon="35.002452850">
  <ele>114.496704</ele>
  <time>2011-10-25T19:51:59Z</time>
  <speed>3.180000</speed>
</trkpt>
<trkpt lat="32.572418213" lon="35.002429962">
  <ele>114.936157</ele>
  <time>2011-10-25T19:52:01Z</time>
  <speed>2.910000</speed>
</trkpt>
<trkpt lat="32.572444916" lon="35.002422333">
  <ele>115.240845</ele>
  <time>2011-10-25T19:52:02Z</time>
  <speed>3.110000</speed>
</trkpt>
<trkpt lat="32.572494507" lon="35.002399445">
  <ele>115.326782</ele>
  <time>2011-10-25T19:52:04Z</time>
  <speed>2.950000</speed>
</trkpt>
<trkpt lat="32.572536469" lon="35.002365112">
  <ele>116.449829</ele>
  <time>2011-10-25T19:52:06Z</time>
  <speed>2.980000</speed>
</trkpt>
<trkpt lat="32.572563171" lon="35.002353668">
  <ele>116.656860</ele>
  <time>2011-10-25T19:52:07Z</time>
  <speed>2.990000</speed>
</trkpt>
<trkpt lat="32.572589874" lon="35.002342224">
  <ele>117.213501</ele>
  <time>2011-10-25T19:52:08Z</time>
  <speed>2.880000</speed>
</trkpt>
<trkpt lat="32.572639465" lon="35.002323151">
  <ele>117.395142</ele>
  <time>2011-10-25T19:52:10Z</time>
  <speed>2.860000</speed>
</trkpt>
<trkpt lat="32.572666168" lon="35.002311707">
  <ele>118.018188</ele>
  <time>2011-10-25T19:52:11Z</time>
  <speed>2.860000</speed>
</trkpt>
<trkpt lat="32.572715759" lon="35.002296448">
  <ele>118.041626</ele>
  <time>2011-10-25T19:52:13Z</time>
  <speed>3.140000</speed>
</trkpt>
<trkpt lat="32.572742462" lon="35.002281189">
  <ele>118.113892</ele>
  <time>2011-10-25T19:52:14Z</time>
  <speed>3.040000</speed>
</trkpt>
<trkpt lat="32.572784424" lon="35.002262115">
  <ele>118.565063</ele>
  <time>2011-10-25T19:52:16Z</time>
  <speed>2.840000</speed>
</trkpt>
<trkpt lat="32.572834015" lon="35.002239227">
  <ele>118.879517</ele>
  <time>2011-10-25T19:52:18Z</time>
  <speed>3.070000</speed>
</trkpt>
<trkpt lat="32.572883606" lon="35.002227783">
  <ele>118.914673</ele>
  <time>2011-10-25T19:52:20Z</time>
  <speed>2.950000</speed>
</trkpt>
<trkpt lat="32.572933197" lon="35.002208710">
  <ele>119.651001</ele>
  <time>2011-10-25T19:52:22Z</time>
  <speed>2.970000</speed>
</trkpt>
<trkpt lat="32.572963715" lon="35.002193451">
  <ele>119.742798</ele>
  <time>2011-10-25T19:52:23Z</time>
  <speed>2.770000</speed>
</trkpt>
<trkpt lat="32.573020935" lon="35.002182007">
  <ele>120.559204</ele>
  <time>2011-10-25T19:52:25Z</time>
  <speed>3.060000</speed>
</trkpt>
<trkpt lat="32.573047638" lon="35.002170563">
  <ele>120.111938</ele>
  <time>2011-10-25T19:52:26Z</time>
  <speed>2.940000</speed>
</trkpt>
<trkpt lat="32.573074341" lon="35.002162933">
  <ele>120.250610</ele>
  <time>2011-10-25T19:52:27Z</time>
  <speed>3.020000</speed>
</trkpt>
<trkpt lat="32.573123932" lon="35.002147675">
  <ele>120.455688</ele>
  <time>2011-10-25T19:52:29Z</time>
  <speed>3.080000</speed>
</trkpt>
<trkpt lat="32.573146820" lon="35.002136230">
  <ele>119.801392</ele>
  <time>2011-10-25T19:52:30Z</time>
  <speed>2.980000</speed>
</trkpt>
<trkpt lat="32.573196411" lon="35.002117157">
  <ele>118.988892</ele>
  <time>2011-10-25T19:52:32Z</time>
  <speed>2.990000</speed>
</trkpt>
<trkpt lat="32.573246002" lon="35.002101898">
  <ele>118.883423</ele>
  <time>2011-10-25T19:52:34Z</time>
  <speed>2.770000</speed>
</trkpt>
<trkpt lat="32.573276520" lon="35.002098083">
  <ele>118.838501</ele>
  <time>2011-10-25T19:52:35Z</time>
  <speed>2.930000</speed>
</trkpt>
<trkpt lat="32.573322296" lon="35.002090454">
  <ele>117.826782</ele>
  <time>2011-10-25T19:52:37Z</time>
  <speed>2.880000</speed>
</trkpt>
<trkpt lat="32.573371887" lon="35.002079010">
  <ele>117.252563</ele>
  <time>2011-10-25T19:52:39Z</time>
  <speed>2.950000</speed>
</trkpt>
<trkpt lat="32.573421478" lon="35.002067566">
  <ele>117.516235</ele>
  <time>2011-10-25T19:52:41Z</time>
  <speed>2.850000</speed>
</trkpt>
<trkpt lat="32.573455811" lon="35.002063751">
  <ele>117.951782</ele>
  <time>2011-10-25T19:52:42Z</time>
  <speed>3.170000</speed>
</trkpt>
<trkpt lat="32.573505402" lon="35.002063751">
  <ele>117.912720</ele>
  <time>2011-10-25T19:52:44Z</time>
  <speed>3.280000</speed>
</trkpt>
<trkpt lat="32.573535919" lon="35.002056122">
  <ele>117.590454</ele>
  <time>2011-10-25T19:52:45Z</time>
  <speed>3.060000</speed>
</trkpt>
<trkpt lat="32.573589325" lon="35.002056122">
  <ele>117.535767</ele>
  <time>2011-10-25T19:52:47Z</time>
  <speed>2.940000</speed>
</trkpt>
<trkpt lat="32.573616028" lon="35.002056122">
  <ele>117.736938</ele>
  <time>2011-10-25T19:52:48Z</time>
  <speed>3.130000</speed>
</trkpt>
<trkpt lat="32.573646545" lon="35.002052307">
  <ele>117.666626</ele>
  <time>2011-10-25T19:52:49Z</time>
  <speed>3.200000</speed>
</trkpt>
<trkpt lat="32.573677063" lon="35.002048492">
  <ele>117.738892</ele>
  <time>2011-10-25T19:52:50Z</time>
  <speed>3.610000</speed>
</trkpt>
<trkpt lat="32.573707581" lon="35.002040863">
  <ele>117.926392</ele>
  <time>2011-10-25T19:52:51Z</time>
  <speed>3.430000</speed>
</trkpt>
<trkpt lat="32.573741913" lon="35.002037048">
  <ele>118.238892</ele>
  <time>2011-10-25T19:52:52Z</time>
  <speed>3.150000</speed>
</trkpt>
<trkpt lat="32.573768616" lon="35.002025604">
  <ele>117.871704</ele>
  <time>2011-10-25T19:52:53Z</time>
  <speed>3.380000</speed>
</trkpt>
<trkpt lat="32.573802948" lon="35.002017975">
  <ele>117.928345</ele>
  <time>2011-10-25T19:52:54Z</time>
  <speed>3.540000</speed>
</trkpt>
<trkpt lat="32.573841095" lon="35.002006531">
  <ele>118.180298</ele>
  <time>2011-10-25T19:52:55Z</time>
  <speed>3.720000</speed>
</trkpt>
<trkpt lat="32.573875427" lon="35.001995087">
  <ele>118.600220</ele>
  <time>2011-10-25T19:52:56Z</time>
  <speed>3.690000</speed>
</trkpt>
<trkpt lat="32.573905945" lon="35.001983643">
  <ele>119.045532</ele>
  <time>2011-10-25T19:52:57Z</time>
  <speed>3.840000</speed>
</trkpt>
<trkpt lat="32.573940277" lon="35.001964569">
  <ele>119.012329</ele>
  <time>2011-10-25T19:52:58Z</time>
  <speed>3.630000</speed>
</trkpt>
<trkpt lat="32.573970795" lon="35.001953125">
  <ele>119.492798</ele>
  <time>2011-10-25T19:52:59Z</time>
  <speed>3.610000</speed>
</trkpt>
<trkpt lat="32.574001312" lon="35.001937866">
  <ele>119.520142</ele>
  <time>2011-10-25T19:53:00Z</time>
  <speed>3.550000</speed>
</trkpt>
<trkpt lat="32.574031830" lon="35.001926422">
  <ele>119.949829</ele>
  <time>2011-10-25T19:53:01Z</time>
  <speed>3.340000</speed>
</trkpt>
<trkpt lat="32.574058533" lon="35.001911163">
  <ele>119.588501</ele>
  <time>2011-10-25T19:53:02Z</time>
  <speed>3.250000</speed>
</trkpt>
<trkpt lat="32.574111938" lon="35.001884460">
  <ele>119.504517</ele>
  <time>2011-10-25T19:53:04Z</time>
  <speed>3.140000</speed>
</trkpt>
<trkpt lat="32.574165344" lon="35.001861572">
  <ele>120.506470</ele>
  <time>2011-10-25T19:53:06Z</time>
  <speed>3.360000</speed>
</trkpt>
<trkpt lat="32.574188232" lon="35.001842499">
  <ele>120.877563</ele>
  <time>2011-10-25T19:53:07Z</time>
  <speed>3.300000</speed>
</trkpt>
<trkpt lat="32.574214935" lon="35.001831055">
  <ele>121.469360</ele>
  <time>2011-10-25T19:53:08Z</time>
  <speed>3.260000</speed>
</trkpt>
<trkpt lat="32.574264526" lon="35.001804352">
  <ele>121.906860</ele>
  <time>2011-10-25T19:53:10Z</time>
  <speed>3.280000</speed>
</trkpt>
<trkpt lat="32.574295044" lon="35.001789093">
  <ele>121.654907</ele>
  <time>2011-10-25T19:53:11Z</time>
  <speed>3.260000</speed>
</trkpt>
<trkpt lat="32.574325562" lon="35.001773834">
  <ele>122.115845</ele>
  <time>2011-10-25T19:53:12Z</time>
  <speed>3.350000</speed>
</trkpt>
<trkpt lat="32.574356079" lon="35.001762390">
  <ele>122.629517</ele>
  <time>2011-10-25T19:53:13Z</time>
  <speed>3.350000</speed>
</trkpt>
<trkpt lat="32.574382782" lon="35.001754761">
  <ele>122.863892</ele>
  <time>2011-10-25T19:53:14Z</time>
  <speed>3.110000</speed>
</trkpt>
<trkpt lat="32.574428558" lon="35.001731873">
  <ele>123.457642</ele>
  <time>2011-10-25T19:53:16Z</time>
  <speed>2.990000</speed>
</trkpt>
<trkpt lat="32.574459076" lon="35.001720428">
  <ele>123.918579</ele>
  <time>2011-10-25T19:53:17Z</time>
  <speed>3.050000</speed>
</trkpt>
<trkpt lat="32.574485779" lon="35.001708984">
  <ele>124.026001</ele>
  <time>2011-10-25T19:53:18Z</time>
  <speed>3.120000</speed>
</trkpt>
<trkpt lat="32.574512482" lon="35.001701355">
  <ele>124.506470</ele>
  <time>2011-10-25T19:53:19Z</time>
  <speed>3.120000</speed>
</trkpt>
<trkpt lat="32.574539185" lon="35.001693726">
  <ele>124.613892</ele>
  <time>2011-10-25T19:53:20Z</time>
  <speed>3.070000</speed>
</trkpt>
<trkpt lat="32.574569702" lon="35.001686096">
  <ele>124.693970</ele>
  <time>2011-10-25T19:53:21Z</time>
  <speed>3.160000</speed>
</trkpt>
<trkpt lat="32.574596405" lon="35.001678467">
  <ele>125.117798</ele>
  <time>2011-10-25T19:53:22Z</time>
  <speed>3.020000</speed>
</trkpt>
<trkpt lat="32.574623108" lon="35.001667023">
  <ele>125.098267</ele>
  <time>2011-10-25T19:53:23Z</time>
  <speed>3.210000</speed>
</trkpt>
<trkpt lat="32.574676514" lon="35.001651764">
  <ele>126.180298</ele>
  <time>2011-10-25T19:53:25Z</time>
  <speed>2.830000</speed>
</trkpt>
<trkpt lat="32.574703217" lon="35.001640320">
  <ele>126.359985</ele>
  <time>2011-10-25T19:53:26Z</time>
  <speed>2.900000</speed>
</trkpt>
<trkpt lat="32.574752808" lon="35.001617432">
  <ele>126.199829</ele>
  <time>2011-10-25T19:53:28Z</time>
  <speed>2.950000</speed>
</trkpt>
<trkpt lat="32.574802399" lon="35.001602173">
  <ele>126.649048</ele>
  <time>2011-10-25T19:53:30Z</time>
  <speed>3.000000</speed>
</trkpt>
<trkpt lat="32.574825287" lon="35.001583099">
  <ele>126.832642</ele>
  <time>2011-10-25T19:53:31Z</time>
  <speed>3.120000</speed>
</trkpt>
<trkpt lat="32.574871063" lon="35.001552582">
  <ele>127.330688</ele>
  <time>2011-10-25T19:53:33Z</time>
  <speed>3.000000</speed>
</trkpt>
<trkpt lat="32.574897766" lon="35.001537323">
  <ele>128.411377</ele>
  <time>2011-10-25T19:53:34Z</time>
  <speed>2.910000</speed>
</trkpt>
<trkpt lat="32.574920654" lon="35.001522064">
  <ele>129.012939</ele>
  <time>2011-10-25T19:53:35Z</time>
  <speed>2.610000</speed>
</trkpt>
<trkpt lat="32.574954987" lon="35.001495361">
  <ele>129.141846</ele>
  <time>2011-10-25T19:53:37Z</time>
  <speed>2.520000</speed>
</trkpt>
<trkpt lat="32.574996948" lon="35.001472473">
  <ele>129.626221</ele>
  <time>2011-10-25T19:53:39Z</time>
  <speed>2.670000</speed>
</trkpt>
<trkpt lat="32.575038910" lon="35.001438141">
  <ele>130.325439</ele>
  <time>2011-10-25T19:53:41Z</time>
  <speed>3.010000</speed>
</trkpt>
<trkpt lat="32.575065613" lon="35.001426697">
  <ele>130.372314</ele>
  <time>2011-10-25T19:53:42Z</time>
  <speed>3.070000</speed>
</trkpt>
<trkpt lat="32.575107574" lon="35.001396179">
  <ele>129.778564</ele>
  <time>2011-10-25T19:53:44Z</time>
  <speed>2.870000</speed>
</trkpt>
<trkpt lat="32.575153351" lon="35.001373291">
  <ele>129.688721</ele>
  <time>2011-10-25T19:53:46Z</time>
  <speed>2.960000</speed>
</trkpt>
<trkpt lat="32.575180054" lon="35.001365662">
  <ele>129.673096</ele>
  <time>2011-10-25T19:53:47Z</time>
  <speed>3.220000</speed>
</trkpt>
<trkpt lat="32.575233459" lon="35.001342773">
  <ele>129.884033</ele>
  <time>2011-10-25T19:53:49Z</time>
  <speed>3.250000</speed>
</trkpt>
<trkpt lat="32.575263977" lon="35.001331329">
  <ele>129.575439</ele>
  <time>2011-10-25T19:53:50Z</time>
  <speed>3.160000</speed>
</trkpt>
<trkpt lat="32.575294495" lon="35.001319885">
  <ele>129.622314</ele>
  <time>2011-10-25T19:53:51Z</time>
  <speed>3.210000</speed>
</trkpt>
<trkpt lat="32.575321198" lon="35.001312256">
  <ele>129.977783</ele>
  <time>2011-10-25T19:53:52Z</time>
  <speed>3.220000</speed>
</trkpt>
<trkpt lat="32.575351715" lon="35.001312256">
  <ele>129.911377</ele>
  <time>2011-10-25T19:53:53Z</time>
  <speed>3.260000</speed>
</trkpt>
<trkpt lat="32.575405121" lon="35.001296997">
  <ele>129.505127</ele>
  <time>2011-10-25T19:53:55Z</time>
  <speed>3.170000</speed>
</trkpt>
<trkpt lat="32.575435638" lon="35.001293182">
  <ele>129.430908</ele>
  <time>2011-10-25T19:53:56Z</time>
  <speed>2.980000</speed>
</trkpt>
<trkpt lat="32.575462341" lon="35.001293182">
  <ele>129.317627</ele>
  <time>2011-10-25T19:53:57Z</time>
  <speed>2.960000</speed>
</trkpt>
<trkpt lat="32.575515747" lon="35.001289368">
  <ele>128.774658</ele>
  <time>2011-10-25T19:53:59Z</time>
  <speed>3.020000</speed>
</trkpt>
<trkpt lat="32.575557709" lon="35.001285553">
  <ele>128.966064</ele>
  <time>2011-10-25T19:54:01Z</time>
  <speed>2.680000</speed>
</trkpt>
<trkpt lat="32.575607300" lon="35.001281738">
  <ele>129.169189</ele>
  <time>2011-10-25T19:54:03Z</time>
  <speed>2.710000</speed>
</trkpt>
<trkpt lat="32.575656891" lon="35.001281738">
  <ele>129.466064</ele>
  <time>2011-10-25T19:54:05Z</time>
  <speed>2.640000</speed>
</trkpt>
<trkpt lat="32.575706482" lon="35.001281738">
  <ele>129.868408</ele>
  <time>2011-10-25T19:54:07Z</time>
  <speed>2.750000</speed>
</trkpt>
<trkpt lat="32.575733185" lon="35.001285553">
  <ele>130.395752</ele>
  <time>2011-10-25T19:54:08Z</time>
  <speed>2.740000</speed>
</trkpt>
<trkpt lat="32.575778961" lon="35.001296997">
  <ele>129.055908</ele>
  <time>2011-10-25T19:54:10Z</time>
  <speed>2.730000</speed>
</trkpt>
<trkpt lat="32.575817108" lon="35.001312256">
  <ele>128.821533</ele>
  <time>2011-10-25T19:54:12Z</time>
  <speed>2.680000</speed>
</trkpt>
<trkpt lat="32.575862885" lon="35.001327515">
  <ele>128.856689</ele>
  <time>2011-10-25T19:54:14Z</time>
  <speed>2.690000</speed>
</trkpt>
<trkpt lat="32.575893402" lon="35.001331329">
  <ele>128.813721</ele>
  <time>2011-10-25T19:54:15Z</time>
  <speed>2.720000</speed>
</trkpt>
<trkpt lat="32.575916290" lon="35.001342773">
  <ele>129.512939</ele>
  <time>2011-10-25T19:54:16Z</time>
  <speed>2.890000</speed>
</trkpt>
<trkpt lat="32.575965881" lon="35.001361847">
  <ele>129.466064</ele>
  <time>2011-10-25T19:54:18Z</time>
  <speed>2.950000</speed>
</trkpt>
<trkpt lat="32.576011658" lon="35.001392365">
  <ele>129.255127</ele>
  <time>2011-10-25T19:54:20Z</time>
  <speed>2.920000</speed>
</trkpt>
<trkpt lat="32.576049805" lon="35.001422882">
  <ele>128.665283</ele>
  <time>2011-10-25T19:54:22Z</time>
  <speed>2.910000</speed>
</trkpt>
<trkpt lat="32.576084137" lon="35.001461029">
  <ele>127.695923</ele>
  <time>2011-10-25T19:54:24Z</time>
  <speed>2.770000</speed>
</trkpt>
<trkpt lat="32.576110840" lon="35.001472473">
  <ele>127.893188</ele>
  <time>2011-10-25T19:54:25Z</time>
  <speed>3.020000</speed>
</trkpt>
<trkpt lat="32.576141357" lon="35.001483917">
  <ele>128.024658</ele>
  <time>2011-10-25T19:54:26Z</time>
  <speed>3.330000</speed>
</trkpt>
<trkpt lat="32.576168060" lon="35.001495361">
  <ele>127.756470</ele>
  <time>2011-10-25T19:54:27Z</time>
  <speed>2.770000</speed>
</trkpt>
<trkpt lat="32.576210022" lon="35.001525879">
  <ele>128.384033</ele>
  <time>2011-10-25T19:54:29Z</time>
  <speed>2.520000</speed>
</trkpt>
<trkpt lat="32.576251984" lon="35.001548767">
  <ele>128.012939</ele>
  <time>2011-10-25T19:54:31Z</time>
  <speed>2.560000</speed>
</trkpt>
<trkpt lat="32.576293945" lon="35.001575470">
  <ele>128.591064</ele>
  <time>2011-10-25T19:54:33Z</time>
  <speed>2.620000</speed>
</trkpt>
<trkpt lat="32.576339722" lon="35.001602173">
  <ele>129.032471</ele>
  <time>2011-10-25T19:54:35Z</time>
  <speed>2.670000</speed>
</trkpt>
<trkpt lat="32.576381683" lon="35.001636505">
  <ele>128.262939</ele>
  <time>2011-10-25T19:54:37Z</time>
  <speed>2.800000</speed>
</trkpt>
<trkpt lat="32.576416016" lon="35.001670837">
  <ele>128.208252</ele>
  <time>2011-10-25T19:54:39Z</time>
  <speed>2.640000</speed>
</trkpt>
<trkpt lat="32.576450348" lon="35.001712799">
  <ele>128.298096</ele>
  <time>2011-10-25T19:54:41Z</time>
  <speed>2.800000</speed>
</trkpt>
<trkpt lat="32.576492310" lon="35.001750946">
  <ele>129.044189</ele>
  <time>2011-10-25T19:54:43Z</time>
  <speed>2.780000</speed>
</trkpt>
<trkpt lat="32.576530457" lon="35.001789093">
  <ele>128.817627</ele>
  <time>2011-10-25T19:54:45Z</time>
  <speed>2.780000</speed>
</trkpt>
<trkpt lat="32.576572418" lon="35.001827240">
  <ele>128.856689</ele>
  <time>2011-10-25T19:54:47Z</time>
  <speed>2.950000</speed>
</trkpt>
<trkpt lat="32.576595306" lon="35.001850128">
  <ele>128.493408</ele>
  <time>2011-10-25T19:54:48Z</time>
  <speed>2.790000</speed>
</trkpt>
<trkpt lat="32.576625824" lon="35.001892090">
  <ele>128.555908</ele>
  <time>2011-10-25T19:54:50Z</time>
  <speed>2.630000</speed>
</trkpt>
<trkpt lat="32.576660156" lon="35.001930237">
  <ele>129.419189</ele>
  <time>2011-10-25T19:54:52Z</time>
  <speed>2.240000</speed>
</trkpt>
<trkpt lat="32.576683044" lon="35.001964569">
  <ele>129.005127</ele>
  <time>2011-10-25T19:54:54Z</time>
  <speed>2.370000</speed>
</trkpt>
<trkpt lat="32.576717377" lon="35.002002716">
  <ele>129.384033</ele>
  <time>2011-10-25T19:54:56Z</time>
  <speed>2.610000</speed>
</trkpt>
<trkpt lat="32.576751709" lon="35.002044678">
  <ele>129.973877</ele>
  <time>2011-10-25T19:54:58Z</time>
  <speed>2.270000</speed>
</trkpt>
<trkpt lat="32.576774597" lon="35.002086639">
  <ele>130.524658</ele>
  <time>2011-10-25T19:55:00Z</time>
  <speed>2.560000</speed>
</trkpt>
<trkpt lat="32.576805115" lon="35.002124786">
  <ele>130.833252</ele>
  <time>2011-10-25T19:55:02Z</time>
  <speed>2.710000</speed>
</trkpt>
<trkpt lat="32.576835632" lon="35.002162933">
  <ele>131.204346</ele>
  <time>2011-10-25T19:55:04Z</time>
  <speed>2.370000</speed>
</trkpt>
<trkpt lat="32.576866150" lon="35.002208710">
  <ele>131.567627</ele>
  <time>2011-10-25T19:55:06Z</time>
  <speed>2.460000</speed>
</trkpt>
<trkpt lat="32.576908112" lon="35.002246857">
  <ele>132.723877</ele>
  <time>2011-10-25T19:55:08Z</time>
  <speed>2.300000</speed>
</trkpt>
<trkpt lat="32.576934814" lon="35.002285004">
  <ele>133.770752</ele>
  <time>2011-10-25T19:55:10Z</time>
  <speed>2.250000</speed>
</trkpt>
<trkpt lat="32.576953888" lon="35.002319336">
  <ele>134.196533</ele>
  <time>2011-10-25T19:55:12Z</time>
  <speed>1.890000</speed>
</trkpt>
<trkpt lat="32.576976776" lon="35.002346039">
  <ele>134.723877</ele>
  <time>2011-10-25T19:55:14Z</time>
  <speed>1.750000</speed>
</trkpt>
<trkpt lat="32.577003479" lon="35.002372742">
  <ele>134.798096</ele>
  <time>2011-10-25T19:55:16Z</time>
  <speed>1.680000</speed>
</trkpt>
<trkpt lat="32.577022552" lon="35.002407074">
  <ele>135.134033</ele>
  <time>2011-10-25T19:55:19Z</time>
  <speed>0.970000</speed>
</trkpt>
<trkpt lat="32.577053070" lon="35.002426147">
  <ele>134.524658</ele>
  <time>2011-10-25T19:55:23Z</time>
  <speed>0.890000</speed>
</trkpt>
<trkpt lat="32.577075958" lon="35.002441406">
  <ele>135.071533</ele>
  <time>2011-10-25T19:56:00Z</time>
  <speed>0.470000</speed>
</trkpt>
<trkpt lat="32.577110291" lon="35.002452850">
  <ele>135.001221</ele>
  <time>2011-10-25T19:56:06Z</time>
  <speed>0.440000</speed>
</trkpt>
<trkpt lat="32.577136993" lon="35.002460480">
  <ele>135.223877</ele>
  <time>2011-10-25T19:56:14Z</time>
  <speed>1.540000</speed>
</trkpt>
<trkpt lat="32.577167511" lon="35.002464294">
  <ele>135.837158</ele>
  <time>2011-10-25T19:56:16Z</time>
  <speed>1.660000</speed>
</trkpt>
<trkpt lat="32.577201843" lon="35.002460480">
  <ele>136.505127</ele>
  <time>2011-10-25T19:56:18Z</time>
  <speed>1.920000</speed>
</trkpt>
<trkpt lat="32.577243805" lon="35.002456665">
  <ele>137.309814</ele>
  <time>2011-10-25T19:56:20Z</time>
  <speed>2.000000</speed>
</trkpt>
<trkpt lat="32.577274323" lon="35.002456665">
  <ele>137.802002</ele>
  <time>2011-10-25T19:56:22Z</time>
  <speed>1.010000</speed>
</trkpt>
<trkpt lat="32.577301025" lon="35.002460480">
  <ele>138.407471</ele>
  <time>2011-10-25T19:56:24Z</time>
  <speed>1.170000</speed>
</trkpt>
<trkpt lat="32.577327728" lon="35.002464294">
  <ele>139.337158</ele>
  <time>2011-10-25T19:56:26Z</time>
  <speed>1.650000</speed>
</trkpt>
<trkpt lat="32.577362061" lon="35.002464294">
  <ele>140.032471</ele>
  <time>2011-10-25T19:56:28Z</time>
  <speed>1.930000</speed>
</trkpt>
<trkpt lat="32.577396393" lon="35.002464294">
  <ele>141.192627</ele>
  <time>2011-10-25T19:56:30Z</time>
  <speed>1.960000</speed>
</trkpt>
<trkpt lat="32.577434540" lon="35.002464294">
  <ele>141.548096</ele>
  <time>2011-10-25T19:56:32Z</time>
  <speed>1.910000</speed>
</trkpt>
<trkpt lat="32.577468872" lon="35.002479553">
  <ele>142.255127</ele>
  <time>2011-10-25T19:56:34Z</time>
  <speed>2.130000</speed>
</trkpt>
<trkpt lat="32.577507019" lon="35.002490997">
  <ele>142.493408</ele>
  <time>2011-10-25T19:56:36Z</time>
  <speed>2.080000</speed>
</trkpt>
<trkpt lat="32.577529907" lon="35.002498627">
  <ele>143.614502</ele>
  <time>2011-10-25T19:56:37Z</time>
  <speed>1.970000</speed>
</trkpt>
<trkpt lat="32.577560425" lon="35.002487183">
  <ele>145.911377</ele>
  <time>2011-10-25T19:56:39Z</time>
  <speed>1.930000</speed>
</trkpt>
<trkpt lat="32.577602386" lon="35.002475739">
  <ele>147.462158</ele>
  <time>2011-10-25T19:56:41Z</time>
  <speed>1.940000</speed>
</trkpt>
<trkpt lat="32.577644348" lon="35.002475739">
  <ele>148.594971</ele>
  <time>2011-10-25T19:56:43Z</time>
  <speed>2.280000</speed>
</trkpt>
<trkpt lat="32.577682495" lon="35.002471924">
  <ele>148.512939</ele>
  <time>2011-10-25T19:56:45Z</time>
  <speed>2.090000</speed>
</trkpt>
<trkpt lat="32.577716827" lon="35.002471924">
  <ele>149.302002</ele>
  <time>2011-10-25T19:56:47Z</time>
  <speed>1.770000</speed>
</trkpt>
<trkpt lat="32.577747345" lon="35.002471924">
  <ele>149.434814</ele>
  <time>2011-10-25T19:56:49Z</time>
  <speed>1.750000</speed>
</trkpt>
<trkpt lat="32.577777863" lon="35.002479553">
  <ele>149.571533</ele>
  <time>2011-10-25T19:56:51Z</time>
  <speed>1.820000</speed>
</trkpt>
<trkpt lat="32.577812195" lon="35.002483368">
  <ele>150.434814</ele>
  <time>2011-10-25T19:56:53Z</time>
  <speed>1.740000</speed>
</trkpt>
<trkpt lat="32.577842712" lon="35.002494812">
  <ele>150.856689</ele>
  <time>2011-10-25T19:56:55Z</time>
  <speed>1.850000</speed>
</trkpt>
<trkpt lat="32.577877045" lon="35.002502441">
  <ele>151.251221</ele>
  <time>2011-10-25T19:56:57Z</time>
  <speed>2.000000</speed>
</trkpt>
<trkpt lat="32.577907562" lon="35.002510071">
  <ele>151.637939</ele>
  <time>2011-10-25T19:56:59Z</time>
  <speed>1.880000</speed>
</trkpt>
<trkpt lat="32.577934265" lon="35.002494812">
  <ele>153.501221</ele>
  <time>2011-10-25T19:57:01Z</time>
  <speed>1.600000</speed>
</trkpt>
<trkpt lat="32.577972412" lon="35.002490997">
  <ele>153.630127</ele>
  <time>2011-10-25T19:57:03Z</time>
  <speed>2.130000</speed>
</trkpt>
<trkpt lat="32.578010559" lon="35.002494812">
  <ele>154.305908</ele>
  <time>2011-10-25T19:57:05Z</time>
  <speed>1.870000</speed>
</trkpt>
<trkpt lat="32.578041077" lon="35.002494812">
  <ele>154.423096</ele>
  <time>2011-10-25T19:57:07Z</time>
  <speed>1.060000</speed>
</trkpt>
<trkpt lat="32.578079224" lon="35.002494812">
  <ele>154.044189</ele>
  <time>2011-10-25T19:57:10Z</time>
  <speed>1.680000</speed>
</trkpt>
<trkpt lat="32.578117371" lon="35.002487183">
  <ele>154.137939</ele>
  <time>2011-10-25T19:57:12Z</time>
  <speed>2.160000</speed>
</trkpt>
<trkpt lat="32.578155518" lon="35.002479553">
  <ele>154.454346</ele>
  <time>2011-10-25T19:57:14Z</time>
  <speed>2.000000</speed>
</trkpt>
<trkpt lat="32.578189850" lon="35.002483368">
  <ele>154.540283</ele>
  <time>2011-10-25T19:57:16Z</time>
  <speed>1.660000</speed>
</trkpt>
<trkpt lat="32.578220367" lon="35.002487183">
  <ele>155.317627</ele>
  <time>2011-10-25T19:57:18Z</time>
  <speed>1.460000</speed>
</trkpt>
<trkpt lat="32.578247070" lon="35.002483368">
  <ele>155.552002</ele>
  <time>2011-10-25T19:57:20Z</time>
  <speed>1.740000</speed>
</trkpt>
<trkpt lat="32.578273773" lon="35.002483368">
  <ele>155.704346</ele>
  <time>2011-10-25T19:57:22Z</time>
  <speed>1.840000</speed>
</trkpt>
<trkpt lat="32.578308105" lon="35.002487183">
  <ele>155.661377</ele>
  <time>2011-10-25T19:57:24Z</time>
  <speed>1.750000</speed>
</trkpt>
<trkpt lat="32.578338623" lon="35.002483368">
  <ele>154.833252</ele>
  <time>2011-10-25T19:57:26Z</time>
  <speed>1.730000</speed>
</trkpt>
<trkpt lat="32.578372955" lon="35.002487183">
  <ele>155.087158</ele>
  <time>2011-10-25T19:57:28Z</time>
  <speed>1.940000</speed>
</trkpt>
<trkpt lat="32.578403473" lon="35.002475739">
  <ele>155.415283</ele>
  <time>2011-10-25T19:57:30Z</time>
  <speed>1.960000</speed>
</trkpt>
<trkpt lat="32.578437805" lon="35.002471924">
  <ele>155.219971</ele>
  <time>2011-10-25T19:57:32Z</time>
  <speed>1.870000</speed>
</trkpt>
<trkpt lat="32.578472137" lon="35.002456665">
  <ele>155.516846</ele>
  <time>2011-10-25T19:57:34Z</time>
  <speed>2.380000</speed>
</trkpt>
<trkpt lat="32.578510284" lon="35.002449036">
  <ele>156.075439</ele>
  <time>2011-10-25T19:57:36Z</time>
  <speed>2.220000</speed>
</trkpt>
<trkpt lat="32.578544617" lon="35.002445221">
  <ele>155.868408</ele>
  <time>2011-10-25T19:57:38Z</time>
  <speed>2.010000</speed>
</trkpt>
<trkpt lat="32.578575134" lon="35.002445221">
  <ele>156.137939</ele>
  <time>2011-10-25T19:57:40Z</time>
  <speed>1.890000</speed>
</trkpt>
<trkpt lat="32.578609467" lon="35.002449036">
  <ele>156.114502</ele>
  <time>2011-10-25T19:57:42Z</time>
  <speed>1.860000</speed>
</trkpt>
<trkpt lat="32.578636169" lon="35.002445221">
  <ele>155.727783</ele>
  <time>2011-10-25T19:57:44Z</time>
  <speed>1.830000</speed>
</trkpt>
<trkpt lat="32.578674316" lon="35.002456665">
  <ele>155.548096</ele>
  <time>2011-10-25T19:57:46Z</time>
  <speed>2.360000</speed>
</trkpt>
<trkpt lat="32.578716278" lon="35.002460480">
  <ele>154.723877</ele>
  <time>2011-10-25T19:57:48Z</time>
  <speed>2.430000</speed>
</trkpt>
<trkpt lat="32.578762054" lon="35.002464294">
  <ele>153.884033</ele>
  <time>2011-10-25T19:57:50Z</time>
  <speed>2.690000</speed>
</trkpt>
<trkpt lat="32.578811646" lon="35.002471924">
  <ele>152.927002</ele>
  <time>2011-10-25T19:57:52Z</time>
  <speed>3.200000</speed>
</trkpt>
<trkpt lat="32.578842163" lon="35.002475739">
  <ele>152.954346</ele>
  <time>2011-10-25T19:57:53Z</time>
  <speed>3.350000</speed>
</trkpt>
<trkpt lat="32.578876495" lon="35.002475739">
  <ele>152.591064</ele>
  <time>2011-10-25T19:57:54Z</time>
  <speed>3.640000</speed>
</trkpt>
<trkpt lat="32.578914642" lon="35.002471924">
  <ele>152.466064</ele>
  <time>2011-10-25T19:57:55Z</time>
  <speed>4.110000</speed>
</trkpt>
<trkpt lat="32.578952789" lon="35.002460480">
  <ele>152.208252</ele>
  <time>2011-10-25T19:57:56Z</time>
  <speed>4.420000</speed>
</trkpt>
<trkpt lat="32.578990936" lon="35.002441406">
  <ele>151.708252</ele>
  <time>2011-10-25T19:57:57Z</time>
  <speed>4.780000</speed>
</trkpt>
<trkpt lat="32.579029083" lon="35.002410889">
  <ele>151.036377</ele>
  <time>2011-10-25T19:57:58Z</time>
  <speed>5.540000</speed>
</trkpt>
<trkpt lat="32.579067230" lon="35.002380371">
  <ele>150.239502</ele>
  <time>2011-10-25T19:57:59Z</time>
  <speed>5.440000</speed>
</trkpt>
<trkpt lat="32.579113007" lon="35.002349854">
  <ele>149.262939</ele>
  <time>2011-10-25T19:58:00Z</time>
  <speed>5.570000</speed>
</trkpt>
<trkpt lat="32.579158783" lon="35.002326965">
  <ele>148.352783</ele>
  <time>2011-10-25T19:58:01Z</time>
  <speed>5.770000</speed>
</trkpt>
<trkpt lat="32.579208374" lon="35.002307892">
  <ele>147.622314</ele>
  <time>2011-10-25T19:58:02Z</time>
  <speed>5.970000</speed>
</trkpt>
<trkpt lat="32.579254150" lon="35.002277374">
  <ele>147.028564</ele>
  <time>2011-10-25T19:58:03Z</time>
  <speed>5.560000</speed>
</trkpt>
<trkpt lat="32.579288483" lon="35.002250671">
  <ele>146.860596</ele>
  <time>2011-10-25T19:58:04Z</time>
  <speed>3.150000</speed>
</trkpt>
<trkpt lat="32.579322815" lon="35.002201080">
  <ele>146.649658</ele>
  <time>2011-10-25T19:58:06Z</time>
  <speed>2.690000</speed>
</trkpt>
<trkpt lat="32.579360962" lon="35.002178192">
  <ele>145.165283</ele>
  <time>2011-10-25T19:58:08Z</time>
  <speed>2.480000</speed>
</trkpt>
<trkpt lat="32.579402924" lon="35.002159119">
  <ele>144.325439</ele>
  <time>2011-10-25T19:58:10Z</time>
  <speed>2.840000</speed>
</trkpt>
<trkpt lat="32.579425812" lon="35.002132416">
  <ele>143.696533</ele>
  <time>2011-10-25T19:58:11Z</time>
  <speed>3.620000</speed>
</trkpt>
<trkpt lat="32.579444885" lon="35.002098083">
  <ele>143.536377</ele>
  <time>2011-10-25T19:58:12Z</time>
  <speed>3.870000</speed>
</trkpt>
<trkpt lat="32.579471588" lon="35.002063751">
  <ele>142.657471</ele>
  <time>2011-10-25T19:58:13Z</time>
  <speed>4.190000</speed>
</trkpt>
<trkpt lat="32.579513550" lon="35.002056122">
  <ele>142.579346</ele>
  <time>2011-10-25T19:58:14Z</time>
  <speed>4.090000</speed>
</trkpt>
<trkpt lat="32.579551697" lon="35.002048492">
  <ele>141.466064</ele>
  <time>2011-10-25T19:58:15Z</time>
  <speed>4.090000</speed>
</trkpt>
<trkpt lat="32.579586029" lon="35.002056122">
  <ele>140.997314</ele>
  <time>2011-10-25T19:58:16Z</time>
  <speed>4.140000</speed>
</trkpt>
<trkpt lat="32.579620361" lon="35.002063751">
  <ele>140.594971</ele>
  <time>2011-10-25T19:58:17Z</time>
  <speed>3.370000</speed>
</trkpt>
<trkpt lat="32.579647064" lon="35.002071381">
  <ele>140.872314</ele>
  <time>2011-10-25T19:58:18Z</time>
  <speed>3.380000</speed>
</trkpt>
<trkpt lat="32.579677582" lon="35.002071381">
  <ele>140.669189</ele>
  <time>2011-10-25T19:58:19Z</time>
  <speed>2.910000</speed>
</trkpt>
<trkpt lat="32.579704285" lon="35.002067566">
  <ele>139.966064</ele>
  <time>2011-10-25T19:58:20Z</time>
  <speed>2.900000</speed>
</trkpt>
<trkpt lat="32.579750061" lon="35.002048492">
  <ele>140.528564</ele>
  <time>2011-10-25T19:58:22Z</time>
  <speed>2.450000</speed>
</trkpt>
<trkpt lat="32.579719543" lon="35.002037048">
  <ele>139.395752</ele>
  <time>2011-10-25T19:58:41Z</time>
  <speed>0.070000</speed>
</trkpt>
<trkpt lat="32.579734802" lon="35.002082825">
  <ele>138.434814</ele>
  <time>2011-10-25T19:58:47Z</time>
  <speed>2.090000</speed>
</trkpt>
<trkpt lat="32.579765320" lon="35.002132416">
  <ele>136.938721</ele>
  <time>2011-10-25T19:58:49Z</time>
  <speed>3.590000</speed>
</trkpt>
<trkpt lat="32.579795837" lon="35.002166748">
  <ele>136.266846</ele>
  <time>2011-10-25T19:58:50Z</time>
  <speed>4.360000</speed>
</trkpt>
<trkpt lat="32.579826355" lon="35.002197266">
  <ele>135.860596</ele>
  <time>2011-10-25T19:58:51Z</time>
  <speed>4.260000</speed>
</trkpt>
<trkpt lat="32.579853058" lon="35.002223969">
  <ele>135.302002</ele>
  <time>2011-10-25T19:58:52Z</time>
  <speed>3.740000</speed>
</trkpt>
<trkpt lat="32.579872131" lon="35.002258301">
  <ele>134.884033</ele>
  <time>2011-10-25T19:58:53Z</time>
  <speed>3.500000</speed>
</trkpt>
<trkpt lat="32.579879761" lon="35.002300262">
  <ele>134.227783</ele>
  <time>2011-10-25T19:58:54Z</time>
  <speed>4.170000</speed>
</trkpt>
<trkpt lat="32.579898834" lon="35.002349854">
  <ele>133.489502</ele>
  <time>2011-10-25T19:58:55Z</time>
  <speed>4.280000</speed>
</trkpt>
<trkpt lat="32.579917908" lon="35.002388000">
  <ele>132.712158</ele>
  <time>2011-10-25T19:58:56Z</time>
  <speed>3.840000</speed>
</trkpt>
<trkpt lat="32.579944611" lon="35.002418518">
  <ele>131.473877</ele>
  <time>2011-10-25T19:58:57Z</time>
  <speed>3.560000</speed>
</trkpt>
<trkpt lat="32.579971313" lon="35.002441406">
  <ele>130.466064</ele>
  <time>2011-10-25T19:58:58Z</time>
  <speed>3.360000</speed>
</trkpt>
<trkpt lat="32.579998016" lon="35.002502441">
  <ele>129.118408</ele>
  <time>2011-10-25T19:59:00Z</time>
  <speed>3.290000</speed>
</trkpt>
<trkpt lat="32.580009460" lon="35.002532959">
  <ele>128.384033</ele>
  <time>2011-10-25T19:59:01Z</time>
  <speed>2.920000</speed>
</trkpt>
<trkpt lat="32.580028534" lon="35.002559662">
  <ele>127.432251</ele>
  <time>2011-10-25T19:59:02Z</time>
  <speed>3.900000</speed>
</trkpt>
<trkpt lat="32.580043793" lon="35.002601624">
  <ele>126.586548</ele>
  <time>2011-10-25T19:59:03Z</time>
  <speed>3.980000</speed>
</trkpt>
<trkpt lat="32.580055237" lon="35.002643585">
  <ele>125.969360</ele>
  <time>2011-10-25T19:59:04Z</time>
  <speed>4.500000</speed>
</trkpt>
<trkpt lat="32.580085754" lon="35.002674103">
  <ele>124.895142</ele>
  <time>2011-10-25T19:59:05Z</time>
  <speed>4.670000</speed>
</trkpt>
<trkpt lat="32.580116272" lon="35.002712250">
  <ele>124.057251</ele>
  <time>2011-10-25T19:59:06Z</time>
  <speed>4.870000</speed>
</trkpt>
<trkpt lat="32.580142975" lon="35.002746582">
  <ele>123.455688</ele>
  <time>2011-10-25T19:59:07Z</time>
  <speed>4.730000</speed>
</trkpt>
<trkpt lat="32.580169678" lon="35.002784729">
  <ele>122.873657</ele>
  <time>2011-10-25T19:59:08Z</time>
  <speed>4.780000</speed>
</trkpt>
<trkpt lat="32.580196381" lon="35.002826691">
  <ele>121.602173</ele>
  <time>2011-10-25T19:59:09Z</time>
  <speed>4.860000</speed>
</trkpt>
<trkpt lat="32.580223083" lon="35.002868652">
  <ele>120.787720</ele>
  <time>2011-10-25T19:59:10Z</time>
  <speed>4.590000</speed>
</trkpt>
<trkpt lat="32.580245972" lon="35.002914429">
  <ele>120.160767</ele>
  <time>2011-10-25T19:59:11Z</time>
  <speed>4.840000</speed>
</trkpt>
<trkpt lat="32.580276489" lon="35.002971649">
  <ele>120.219360</ele>
  <time>2011-10-25T19:59:12Z</time>
  <speed>5.130000</speed>
</trkpt>
<trkpt lat="32.580299377" lon="35.003021240">
  <ele>119.623657</ele>
  <time>2011-10-25T19:59:13Z</time>
  <speed>4.960000</speed>
</trkpt>
<trkpt lat="32.580326080" lon="35.003070831">
  <ele>119.627563</ele>
  <time>2011-10-25T19:59:14Z</time>
  <speed>5.340000</speed>
</trkpt>
<trkpt lat="32.580368042" lon="35.003105164">
  <ele>118.828735</ele>
  <time>2011-10-25T19:59:15Z</time>
  <speed>5.040000</speed>
</trkpt>
<trkpt lat="32.580402374" lon="35.003143311">
  <ele>118.865845</ele>
  <time>2011-10-25T19:59:16Z</time>
  <speed>5.420000</speed>
</trkpt>
<trkpt lat="32.580440521" lon="35.003185272">
  <ele>118.848267</ele>
  <time>2011-10-25T19:59:17Z</time>
  <speed>5.100000</speed>
</trkpt>
<trkpt lat="32.580482483" lon="35.003223419">
  <ele>118.594360</ele>
  <time>2011-10-25T19:59:18Z</time>
  <speed>5.210000</speed>
</trkpt>
<trkpt lat="32.580524445" lon="35.003246307">
  <ele>117.817017</ele>
  <time>2011-10-25T19:59:19Z</time>
  <speed>5.290000</speed>
</trkpt>
<trkpt lat="32.580558777" lon="35.003269196">
  <ele>118.033813</ele>
  <time>2011-10-25T19:59:20Z</time>
  <speed>3.180000</speed>
</trkpt>
<trkpt lat="32.580577850" lon="35.003295898">
  <ele>119.379517</ele>
  <time>2011-10-25T19:59:21Z</time>
  <speed>3.490000</speed>
</trkpt>
<trkpt lat="32.580596924" lon="35.003326416">
  <ele>119.039673</ele>
  <time>2011-10-25T19:59:22Z</time>
  <speed>3.760000</speed>
</trkpt>
<trkpt lat="32.580619812" lon="35.003368378">
  <ele>120.395142</ele>
  <time>2011-10-25T19:59:23Z</time>
  <speed>3.740000</speed>
</trkpt>
<trkpt lat="32.580631256" lon="35.003406525">
  <ele>119.795532</ele>
  <time>2011-10-25T19:59:24Z</time>
  <speed>3.900000</speed>
</trkpt>
<trkpt lat="32.580654144" lon="35.003440857">
  <ele>120.055298</ele>
  <time>2011-10-25T19:59:25Z</time>
  <speed>3.950000</speed>
</trkpt>
<trkpt lat="32.580673218" lon="35.003475189">
  <ele>119.279907</ele>
  <time>2011-10-25T19:59:26Z</time>
  <speed>4.240000</speed>
</trkpt>
<trkpt lat="32.580696106" lon="35.003520966">
  <ele>118.633423</ele>
  <time>2011-10-25T19:59:27Z</time>
  <speed>4.780000</speed>
</trkpt>
<trkpt lat="32.580722809" lon="35.003562927">
  <ele>117.820923</ele>
  <time>2011-10-25T19:59:28Z</time>
  <speed>5.460000</speed>
</trkpt>
<trkpt lat="32.580749512" lon="35.003608704">
  <ele>118.432251</ele>
  <time>2011-10-25T19:59:29Z</time>
  <speed>5.170000</speed>
</trkpt>
<trkpt lat="32.580780029" lon="35.003654480">
  <ele>118.508423</ele>
  <time>2011-10-25T19:59:30Z</time>
  <speed>5.700000</speed>
</trkpt>
<trkpt lat="32.580810547" lon="35.003707886">
  <ele>117.988892</ele>
  <time>2011-10-25T19:59:31Z</time>
  <speed>5.820000</speed>
</trkpt>
<trkpt lat="32.580833435" lon="35.003761292">
  <ele>117.160767</ele>
  <time>2011-10-25T19:59:32Z</time>
  <speed>5.260000</speed>
</trkpt>
<trkpt lat="32.580867767" lon="35.003807068">
  <ele>117.688110</ele>
  <time>2011-10-25T19:59:33Z</time>
  <speed>5.150000</speed>
</trkpt>
<trkpt lat="32.580902100" lon="35.003841400">
  <ele>117.529907</ele>
  <time>2011-10-25T19:59:34Z</time>
  <speed>4.720000</speed>
</trkpt>
<trkpt lat="32.580940247" lon="35.003856659">
  <ele>117.277954</ele>
  <time>2011-10-25T19:59:35Z</time>
  <speed>5.120000</speed>
</trkpt>
<trkpt lat="32.580982208" lon="35.003856659">
  <ele>116.526001</ele>
  <time>2011-10-25T19:59:36Z</time>
  <speed>5.290000</speed>
</trkpt>
<trkpt lat="32.581031799" lon="35.003860474">
  <ele>116.100220</ele>
  <time>2011-10-25T19:59:37Z</time>
  <speed>5.500000</speed>
</trkpt>
<trkpt lat="32.581081390" lon="35.003860474">
  <ele>115.639282</ele>
  <time>2011-10-25T19:59:38Z</time>
  <speed>5.060000</speed>
</trkpt>
<trkpt lat="32.581119537" lon="35.003879547">
  <ele>114.721313</ele>
  <time>2011-10-25T19:59:39Z</time>
  <speed>4.120000</speed>
</trkpt>
<trkpt lat="32.581146240" lon="35.003910065">
  <ele>114.889282</ele>
  <time>2011-10-25T19:59:40Z</time>
  <speed>4.060000</speed>
</trkpt>
<trkpt lat="32.581165314" lon="35.003955841">
  <ele>115.203735</ele>
  <time>2011-10-25T19:59:41Z</time>
  <speed>4.230000</speed>
</trkpt>
<trkpt lat="32.581176758" lon="35.004005432">
  <ele>115.512329</ele>
  <time>2011-10-25T19:59:42Z</time>
  <speed>4.140000</speed>
</trkpt>
<trkpt lat="32.581192017" lon="35.004043579">
  <ele>115.215454</ele>
  <time>2011-10-25T19:59:43Z</time>
  <speed>3.490000</speed>
</trkpt>
<trkpt lat="32.581203461" lon="35.004074097">
  <ele>114.916626</ele>
  <time>2011-10-25T19:59:44Z</time>
  <speed>3.070000</speed>
</trkpt>
<trkpt lat="32.581226349" lon="35.004116058">
  <ele>115.006470</ele>
  <time>2011-10-25T19:59:46Z</time>
  <speed>2.380000</speed>
</trkpt>
<trkpt lat="32.581241608" lon="35.004158020">
  <ele>115.238892</ele>
  <time>2011-10-25T19:59:48Z</time>
  <speed>1.930000</speed>
</trkpt>
<trkpt lat="32.581245422" lon="35.004196167">
  <ele>115.090454</ele>
  <time>2011-10-25T19:59:50Z</time>
  <speed>2.010000</speed>
</trkpt>
<trkpt lat="32.581233978" lon="35.004238129">
  <ele>114.998657</ele>
  <time>2011-10-25T19:59:52Z</time>
  <speed>2.210000</speed>
</trkpt>
<trkpt lat="32.581207275" lon="35.004280090">
  <ele>115.145142</ele>
  <time>2011-10-25T19:59:54Z</time>
  <speed>2.680000</speed>
</trkpt>
<trkpt lat="32.581184387" lon="35.004299164">
  <ele>114.346313</ele>
  <time>2011-10-25T19:59:55Z</time>
  <speed>2.630000</speed>
</trkpt>
<trkpt lat="32.581161499" lon="35.004322052">
  <ele>113.658813</ele>
  <time>2011-10-25T19:59:56Z</time>
  <speed>2.560000</speed>
</trkpt>
<trkpt lat="32.581142426" lon="35.004348755">
  <ele>114.086548</ele>
  <time>2011-10-25T19:59:57Z</time>
  <speed>2.510000</speed>
</trkpt>
<trkpt lat="32.581104279" lon="35.004383087">
  <ele>115.160767</ele>
  <time>2011-10-25T19:59:59Z</time>
  <speed>1.830000</speed>
</trkpt>
<trkpt lat="32.581085205" lon="35.004417419">
  <ele>115.193970</ele>
  <time>2011-10-25T20:00:01Z</time>
  <speed>1.950000</speed>
</trkpt>
<trkpt lat="32.581073761" lon="35.004455566">
  <ele>115.149048</ele>
  <time>2011-10-25T20:00:03Z</time>
  <speed>1.730000</speed>
</trkpt>
<trkpt lat="32.581066132" lon="35.004501343">
  <ele>114.910767</ele>
  <time>2011-10-25T20:00:05Z</time>
  <speed>2.370000</speed>
</trkpt>
<trkpt lat="32.581047058" lon="35.004547119">
  <ele>114.684204</ele>
  <time>2011-10-25T20:00:07Z</time>
  <speed>2.160000</speed>
</trkpt>
<trkpt lat="32.581027985" lon="35.004589081">
  <ele>115.115845</ele>
  <time>2011-10-25T20:00:09Z</time>
  <speed>2.090000</speed>
</trkpt>
<trkpt lat="32.581016541" lon="35.004627228">
  <ele>115.699829</ele>
  <time>2011-10-25T20:00:11Z</time>
  <speed>2.090000</speed>
</trkpt>
<trkpt lat="32.580997467" lon="35.004665375">
  <ele>116.022095</ele>
  <time>2011-10-25T20:00:13Z</time>
  <speed>2.100000</speed>
</trkpt>
<trkpt lat="32.580978394" lon="35.004703522">
  <ele>116.217407</ele>
  <time>2011-10-25T20:00:15Z</time>
  <speed>1.930000</speed>
</trkpt>
<trkpt lat="32.580959320" lon="35.004734039">
  <ele>116.170532</ele>
  <time>2011-10-25T20:00:17Z</time>
  <speed>1.440000</speed>
</trkpt>
<trkpt lat="32.580947876" lon="35.004768372">
  <ele>116.867798</ele>
  <time>2011-10-25T20:00:20Z</time>
  <speed>1.580000</speed>
</trkpt>
<trkpt lat="32.580940247" lon="35.004814148">
  <ele>116.609985</ele>
  <time>2011-10-25T20:00:22Z</time>
  <speed>2.270000</speed>
</trkpt>
<trkpt lat="32.580936432" lon="35.004852295">
  <ele>117.151001</ele>
  <time>2011-10-25T20:00:24Z</time>
  <speed>1.920000</speed>
</trkpt>
<trkpt lat="32.580924988" lon="35.004898071">
  <ele>117.602173</ele>
  <time>2011-10-25T20:00:26Z</time>
  <speed>2.040000</speed>
</trkpt>
<trkpt lat="32.580917358" lon="35.004936218">
  <ele>117.996704</ele>
  <time>2011-10-25T20:00:28Z</time>
  <speed>1.460000</speed>
</trkpt>
<trkpt lat="32.580909729" lon="35.004966736">
  <ele>117.922485</ele>
  <time>2011-10-25T20:00:30Z</time>
  <speed>1.680000</speed>
</trkpt>
<trkpt lat="32.580894470" lon="35.005004883">
  <ele>118.236938</ele>
  <time>2011-10-25T20:00:32Z</time>
  <speed>1.460000</speed>
</trkpt>
<trkpt lat="32.580886841" lon="35.005043030">
  <ele>117.484985</ele>
  <time>2011-10-25T20:00:34Z</time>
  <speed>1.700000</speed>
</trkpt>
<trkpt lat="32.580879211" lon="35.005077362">
  <ele>118.029907</ele>
  <time>2011-10-25T20:00:36Z</time>
  <speed>1.620000</speed>
</trkpt>
<trkpt lat="32.580871582" lon="35.005111694">
  <ele>118.252563</ele>
  <time>2011-10-25T20:00:38Z</time>
  <speed>1.470000</speed>
</trkpt>
<trkpt lat="32.580860138" lon="35.005146027">
  <ele>118.414673</ele>
  <time>2011-10-25T20:00:40Z</time>
  <speed>2.230000</speed>
</trkpt>
<trkpt lat="32.580860138" lon="35.005191803">
  <ele>119.102173</ele>
  <time>2011-10-25T20:00:42Z</time>
  <speed>2.800000</speed>
</trkpt>
<trkpt lat="32.580852509" lon="35.005252838">
  <ele>119.508423</ele>
  <time>2011-10-25T20:00:44Z</time>
  <speed>2.920000</speed>
</trkpt>
<trkpt lat="32.580841064" lon="35.005310059">
  <ele>119.586548</ele>
  <time>2011-10-25T20:00:46Z</time>
  <speed>2.770000</speed>
</trkpt>
<trkpt lat="32.580825806" lon="35.005363464">
  <ele>119.895142</ele>
  <time>2011-10-25T20:00:48Z</time>
  <speed>2.550000</speed>
</trkpt>
<trkpt lat="32.580814362" lon="35.005409241">
  <ele>120.190063</ele>
  <time>2011-10-25T20:00:50Z</time>
  <speed>2.040000</speed>
</trkpt>
<trkpt lat="32.580802917" lon="35.005451202">
  <ele>120.656860</ele>
  <time>2011-10-25T20:00:52Z</time>
  <speed>2.260000</speed>
</trkpt>
<trkpt lat="32.580791473" lon="35.005493164">
  <ele>120.553345</ele>
  <time>2011-10-25T20:00:54Z</time>
  <speed>2.480000</speed>
</trkpt>
<trkpt lat="32.580783844" lon="35.005542755">
  <ele>120.772095</ele>
  <time>2011-10-25T20:00:56Z</time>
  <speed>2.050000</speed>
</trkpt>
<trkpt lat="32.580787659" lon="35.005592346">
  <ele>121.234985</ele>
  <time>2011-10-25T20:00:58Z</time>
  <speed>2.480000</speed>
</trkpt>
<trkpt lat="32.580787659" lon="35.005641937">
  <ele>122.266235</ele>
  <time>2011-10-25T20:01:00Z</time>
  <speed>2.290000</speed>
</trkpt>
<trkpt lat="32.580783844" lon="35.005699158">
  <ele>122.606079</ele>
  <time>2011-10-25T20:01:02Z</time>
  <speed>2.230000</speed>
</trkpt>
<trkpt lat="32.580780029" lon="35.005741119">
  <ele>123.484985</ele>
  <time>2011-10-25T20:01:04Z</time>
  <speed>2.460000</speed>
</trkpt>
<trkpt lat="32.580787659" lon="35.005794525">
  <ele>124.313110</ele>
  <time>2011-10-25T20:01:06Z</time>
  <speed>2.510000</speed>
</trkpt>
<trkpt lat="32.580791473" lon="35.005844116">
  <ele>124.190063</ele>
  <time>2011-10-25T20:01:08Z</time>
  <speed>2.460000</speed>
</trkpt>
<trkpt lat="32.580791473" lon="35.005893707">
  <ele>125.012329</ele>
  <time>2011-10-25T20:01:10Z</time>
  <speed>2.590000</speed>
</trkpt>
<trkpt lat="32.580787659" lon="35.005947113">
  <ele>124.389282</ele>
  <time>2011-10-25T20:01:12Z</time>
  <speed>2.270000</speed>
</trkpt>
<trkpt lat="32.580802917" lon="35.005992889">
  <ele>125.053345</ele>
  <time>2011-10-25T20:01:14Z</time>
  <speed>2.140000</speed>
</trkpt>
<trkpt lat="32.580806732" lon="35.006027222">
  <ele>125.139282</ele>
  <time>2011-10-25T20:01:16Z</time>
  <speed>2.020000</speed>
</trkpt>
<trkpt lat="32.580821991" lon="35.006072998">
  <ele>125.401001</ele>
  <time>2011-10-25T20:01:18Z</time>
  <speed>2.080000</speed>
</trkpt>
<trkpt lat="32.580837250" lon="35.006107330">
  <ele>128.134033</ele>
  <time>2011-10-25T20:01:20Z</time>
  <speed>1.650000</speed>
</trkpt>
<trkpt lat="32.580833435" lon="35.006149292">
  <ele>127.371704</ele>
  <time>2011-10-25T20:01:22Z</time>
  <speed>1.950000</speed>
</trkpt>
<trkpt lat="32.580841064" lon="35.006191254">
  <ele>128.020752</ele>
  <time>2011-10-25T20:01:24Z</time>
  <speed>2.010000</speed>
</trkpt>
<trkpt lat="32.580848694" lon="35.006240845">
  <ele>127.965454</ele>
  <time>2011-10-25T20:01:26Z</time>
  <speed>1.850000</speed>
</trkpt>
<trkpt lat="32.580852509" lon="35.006286621">
  <ele>127.223267</ele>
  <time>2011-10-25T20:01:28Z</time>
  <speed>2.140000</speed>
</trkpt>
<trkpt lat="32.580844879" lon="35.006336212">
  <ele>125.932251</ele>
  <time>2011-10-25T20:01:30Z</time>
  <speed>1.850000</speed>
</trkpt>
<trkpt lat="32.580841064" lon="35.006374359">
  <ele>125.715454</ele>
  <time>2011-10-25T20:01:32Z</time>
  <speed>1.940000</speed>
</trkpt>
<trkpt lat="32.580841064" lon="35.006412506">
  <ele>125.533813</ele>
  <time>2011-10-25T20:01:34Z</time>
  <speed>1.880000</speed>
</trkpt>
<trkpt lat="32.580844879" lon="35.006450653">
  <ele>124.990845</ele>
  <time>2011-10-25T20:01:36Z</time>
  <speed>2.030000</speed>
</trkpt>
<trkpt lat="32.580833435" lon="35.006492615">
  <ele>124.750610</ele>
  <time>2011-10-25T20:01:38Z</time>
  <speed>2.070000</speed>
</trkpt>
<trkpt lat="32.580841064" lon="35.006530762">
  <ele>124.652954</ele>
  <time>2011-10-25T20:01:40Z</time>
  <speed>2.110000</speed>
</trkpt>
<trkpt lat="32.580844879" lon="35.006572723">
  <ele>124.268188</ele>
  <time>2011-10-25T20:01:42Z</time>
  <speed>2.560000</speed>
</trkpt>
<trkpt lat="32.580829620" lon="35.006622314">
  <ele>124.481079</ele>
  <time>2011-10-25T20:01:44Z</time>
  <speed>2.380000</speed>
</trkpt>
<trkpt lat="32.580814362" lon="35.006645203">
  <ele>125.674438</ele>
  <time>2011-10-25T20:01:45Z</time>
  <speed>2.090000</speed>
</trkpt>
<trkpt lat="32.580802917" lon="35.006690979">
  <ele>125.672485</ele>
  <time>2011-10-25T20:01:47Z</time>
  <speed>2.300000</speed>
</trkpt>
<trkpt lat="32.580799103" lon="35.006740570">
  <ele>125.967407</ele>
  <time>2011-10-25T20:01:49Z</time>
  <speed>2.180000</speed>
</trkpt>
<trkpt lat="32.580806732" lon="35.006774902">
  <ele>125.699829</ele>
  <time>2011-10-25T20:01:50Z</time>
  <speed>2.660000</speed>
</trkpt>
<trkpt lat="32.580806732" lon="35.006832123">
  <ele>125.752563</ele>
  <time>2011-10-25T20:01:52Z</time>
  <speed>2.280000</speed>
</trkpt>
<trkpt lat="32.580814362" lon="35.006881714">
  <ele>124.943970</ele>
  <time>2011-10-25T20:01:54Z</time>
  <speed>2.260000</speed>
</trkpt>
<trkpt lat="32.580825806" lon="35.006927490">
  <ele>124.797485</ele>
  <time>2011-10-25T20:01:56Z</time>
  <speed>2.310000</speed>
</trkpt>
<trkpt lat="32.580841064" lon="35.006980896">
  <ele>124.752563</ele>
  <time>2011-10-25T20:01:58Z</time>
  <speed>2.440000</speed>
</trkpt>
<trkpt lat="32.580844879" lon="35.007034302">
  <ele>125.416626</ele>
  <time>2011-10-25T20:02:00Z</time>
  <speed>2.490000</speed>
</trkpt>
<trkpt lat="32.580848694" lon="35.007087708">
  <ele>127.506470</ele>
  <time>2011-10-25T20:02:02Z</time>
  <speed>2.190000</speed>
</trkpt>
<trkpt lat="32.580852509" lon="35.007133484">
  <ele>128.895752</ele>
  <time>2011-10-25T20:02:04Z</time>
  <speed>1.790000</speed>
</trkpt>
<trkpt lat="32.580856323" lon="35.007164001">
  <ele>130.044189</ele>
  <time>2011-10-25T20:02:06Z</time>
  <speed>2.030000</speed>
</trkpt>
<trkpt lat="32.580856323" lon="35.007205963">
  <ele>131.387939</ele>
  <time>2011-10-25T20:02:08Z</time>
  <speed>1.890000</speed>
</trkpt>
<trkpt lat="32.580860138" lon="35.007244110">
  <ele>131.876221</ele>
  <time>2011-10-25T20:02:10Z</time>
  <speed>1.860000</speed>
</trkpt>
<trkpt lat="32.580856323" lon="35.007282257">
  <ele>132.173096</ele>
  <time>2011-10-25T20:02:12Z</time>
  <speed>1.500000</speed>
</trkpt>
<trkpt lat="32.580875397" lon="35.007320404">
  <ele>132.399658</ele>
  <time>2011-10-25T20:02:14Z</time>
  <speed>2.760000</speed>
</trkpt>
<trkpt lat="32.580863953" lon="35.007369995">
  <ele>131.501221</ele>
  <time>2011-10-25T20:02:16Z</time>
  <speed>2.120000</speed>
</trkpt>
<trkpt lat="32.580848694" lon="35.007419586">
  <ele>131.446533</ele>
  <time>2011-10-25T20:02:18Z</time>
  <speed>2.180000</speed>
</trkpt>
<trkpt lat="32.580856323" lon="35.007472992">
  <ele>131.622314</ele>
  <time>2011-10-25T20:02:20Z</time>
  <speed>2.280000</speed>
</trkpt>
<trkpt lat="32.580848694" lon="35.007526398">
  <ele>131.442627</ele>
  <time>2011-10-25T20:02:22Z</time>
  <speed>2.320000</speed>
</trkpt>
<trkpt lat="32.580844879" lon="35.007579803">
  <ele>131.634033</ele>
  <time>2011-10-25T20:02:24Z</time>
  <speed>2.650000</speed>
</trkpt>
<trkpt lat="32.580844879" lon="35.007637024">
  <ele>131.887939</ele>
  <time>2011-10-25T20:02:26Z</time>
  <speed>2.610000</speed>
</trkpt>
<trkpt lat="32.580821991" lon="35.007686615">
  <ele>132.493408</ele>
  <time>2011-10-25T20:02:28Z</time>
  <speed>2.460000</speed>
</trkpt>
<trkpt lat="32.580821991" lon="35.007732391">
  <ele>131.938721</ele>
  <time>2011-10-25T20:02:30Z</time>
  <speed>2.150000</speed>
</trkpt>
<trkpt lat="32.580821991" lon="35.007781982">
  <ele>132.180908</ele>
  <time>2011-10-25T20:02:32Z</time>
  <speed>2.500000</speed>
</trkpt>
<trkpt lat="32.580814362" lon="35.007831573">
  <ele>132.755127</ele>
  <time>2011-10-25T20:02:34Z</time>
  <speed>2.210000</speed>
</trkpt>
<trkpt lat="32.580818176" lon="35.007877350">
  <ele>133.567627</ele>
  <time>2011-10-25T20:02:36Z</time>
  <speed>2.070000</speed>
</trkpt>
<trkpt lat="32.580841064" lon="35.007896423">
  <ele>133.091064</ele>
  <time>2011-10-25T20:02:38Z</time>
  <speed>1.990000</speed>
</trkpt>
<trkpt lat="32.580883026" lon="35.007900238">
  <ele>133.907471</ele>
  <time>2011-10-25T20:02:40Z</time>
  <speed>2.210000</speed>
</trkpt>
<trkpt lat="32.580932617" lon="35.007869720">
  <ele>135.196533</ele>
  <time>2011-10-25T20:02:42Z</time>
  <speed>2.250000</speed>
</trkpt>
<trkpt lat="32.580970764" lon="35.007850647">
  <ele>136.044189</ele>
  <time>2011-10-25T20:02:44Z</time>
  <speed>1.900000</speed>
</trkpt>
<trkpt lat="32.581008911" lon="35.007835388">
  <ele>136.669189</ele>
  <time>2011-10-25T20:02:46Z</time>
  <speed>1.780000</speed>
</trkpt>
<trkpt lat="32.581035614" lon="35.007835388">
  <ele>137.044189</ele>
  <time>2011-10-25T20:02:48Z</time>
  <speed>1.820000</speed>
</trkpt>
<trkpt lat="32.581069946" lon="35.007827759">
  <ele>137.876221</ele>
  <time>2011-10-25T20:02:50Z</time>
  <speed>1.750000</speed>
</trkpt>
<trkpt lat="32.581100464" lon="35.007812500">
  <ele>138.911377</ele>
  <time>2011-10-25T20:02:52Z</time>
  <speed>1.550000</speed>
</trkpt>
<trkpt lat="32.581127167" lon="35.007797241">
  <ele>139.680908</ele>
  <time>2011-10-25T20:02:54Z</time>
  <speed>2.080000</speed>
</trkpt>
<trkpt lat="32.581169128" lon="35.007781982">
  <ele>139.817627</ele>
  <time>2011-10-25T20:02:56Z</time>
  <speed>2.150000</speed>
</trkpt>
<trkpt lat="32.581211090" lon="35.007762909">
  <ele>140.016846</ele>
  <time>2011-10-25T20:02:58Z</time>
  <speed>2.200000</speed>
</trkpt>
<trkpt lat="32.581245422" lon="35.007743835">
  <ele>140.446533</ele>
  <time>2011-10-25T20:03:00Z</time>
  <speed>2.260000</speed>
</trkpt>
<trkpt lat="32.581291199" lon="35.007732391">
  <ele>141.700439</ele>
  <time>2011-10-25T20:03:02Z</time>
  <speed>2.520000</speed>
</trkpt>
<trkpt lat="32.581336975" lon="35.007717133">
  <ele>142.477783</ele>
  <time>2011-10-25T20:03:04Z</time>
  <speed>2.230000</speed>
</trkpt>
<trkpt lat="32.581371307" lon="35.007717133">
  <ele>143.309814</ele>
  <time>2011-10-25T20:03:06Z</time>
  <speed>2.630000</speed>
</trkpt>
<trkpt lat="32.581420898" lon="35.007713318">
  <ele>143.751221</ele>
  <time>2011-10-25T20:03:08Z</time>
  <speed>2.410000</speed>
</trkpt>
<trkpt lat="32.581462860" lon="35.007709503">
  <ele>143.661377</ele>
  <time>2011-10-25T20:03:10Z</time>
  <speed>2.360000</speed>
</trkpt>
<trkpt lat="32.581516266" lon="35.007709503">
  <ele>143.915283</ele>
  <time>2011-10-25T20:03:12Z</time>
  <speed>2.800000</speed>
</trkpt>
<trkpt lat="32.581569672" lon="35.007701874">
  <ele>144.048096</ele>
  <time>2011-10-25T20:03:14Z</time>
  <speed>2.870000</speed>
</trkpt>
<trkpt lat="32.581596375" lon="35.007698059">
  <ele>143.653564</ele>
  <time>2011-10-25T20:03:15Z</time>
  <speed>2.930000</speed>
</trkpt>
<trkpt lat="32.581623077" lon="35.007701874">
  <ele>143.645752</ele>
  <time>2011-10-25T20:03:16Z</time>
  <speed>3.200000</speed>
</trkpt>
<trkpt lat="32.581657410" lon="35.007720947">
  <ele>143.114502</ele>
  <time>2011-10-25T20:03:17Z</time>
  <speed>3.290000</speed>
</trkpt>
<trkpt lat="32.581687927" lon="35.007728577">
  <ele>142.993408</ele>
  <time>2011-10-25T20:03:18Z</time>
  <speed>3.540000</speed>
</trkpt>
<trkpt lat="32.581718445" lon="35.007728577">
  <ele>142.473877</ele>
  <time>2011-10-25T20:03:19Z</time>
  <speed>3.150000</speed>
</trkpt>
<trkpt lat="32.581748962" lon="35.007736206">
  <ele>142.528564</ele>
  <time>2011-10-25T20:03:20Z</time>
  <speed>3.080000</speed>
</trkpt>
<trkpt lat="32.581779480" lon="35.007740021">
  <ele>142.329346</ele>
  <time>2011-10-25T20:03:21Z</time>
  <speed>3.000000</speed>
</trkpt>
<trkpt lat="32.581821442" lon="35.007740021">
  <ele>142.294189</ele>
  <time>2011-10-25T20:03:22Z</time>
  <speed>3.670000</speed>
</trkpt>
<trkpt lat="32.581863403" lon="35.007762909">
  <ele>141.813721</ele>
  <time>2011-10-25T20:03:24Z</time>
  <speed>2.630000</speed>
</trkpt>
<trkpt lat="32.581886292" lon="35.007781982">
  <ele>141.837158</ele>
  <time>2011-10-25T20:03:25Z</time>
  <speed>2.840000</speed>
</trkpt>
<trkpt lat="32.581928253" lon="35.007820129">
  <ele>142.122314</ele>
  <time>2011-10-25T20:03:27Z</time>
  <speed>3.370000</speed>
</trkpt>
<trkpt lat="32.581958771" lon="35.007831573">
  <ele>142.134033</ele>
  <time>2011-10-25T20:03:28Z</time>
  <speed>3.120000</speed>
</trkpt>
<trkpt lat="32.582008362" lon="35.007854462">
  <ele>142.919189</ele>
  <time>2011-10-25T20:03:30Z</time>
  <speed>2.870000</speed>
</trkpt>
<trkpt lat="32.582057953" lon="35.007869720">
  <ele>142.766846</ele>
  <time>2011-10-25T20:03:32Z</time>
  <speed>3.020000</speed>
</trkpt>
<trkpt lat="32.582084656" lon="35.007873535">
  <ele>142.782471</ele>
  <time>2011-10-25T20:03:33Z</time>
  <speed>2.910000</speed>
</trkpt>
<trkpt lat="32.582115173" lon="35.007877350">
  <ele>142.790283</ele>
  <time>2011-10-25T20:03:34Z</time>
  <speed>2.970000</speed>
</trkpt>
<trkpt lat="32.582141876" lon="35.007888794">
  <ele>142.622314</ele>
  <time>2011-10-25T20:03:35Z</time>
  <speed>3.120000</speed>
</trkpt>
<trkpt lat="32.582191467" lon="35.007923126">
  <ele>142.079346</ele>
  <time>2011-10-25T20:03:37Z</time>
  <speed>2.940000</speed>
</trkpt>
<trkpt lat="32.582214355" lon="35.007942200">
  <ele>142.188721</ele>
  <time>2011-10-25T20:03:38Z</time>
  <speed>2.720000</speed>
</trkpt>
<trkpt lat="32.582260132" lon="35.007972717">
  <ele>142.329346</ele>
  <time>2011-10-25T20:03:40Z</time>
  <speed>2.650000</speed>
</trkpt>
<trkpt lat="32.582286835" lon="35.007984161">
  <ele>142.653564</ele>
  <time>2011-10-25T20:03:41Z</time>
  <speed>2.840000</speed>
</trkpt>
<trkpt lat="32.582313538" lon="35.008018494">
  <ele>142.821533</ele>
  <time>2011-10-25T20:03:43Z</time>
  <speed>2.360000</speed>
</trkpt>
<trkpt lat="32.582336426" lon="35.008049011">
  <ele>143.368408</ele>
  <time>2011-10-25T20:03:45Z</time>
  <speed>1.800000</speed>
</trkpt>
<trkpt lat="32.582340240" lon="35.008094788">
  <ele>143.509033</ele>
  <time>2011-10-25T20:03:47Z</time>
  <speed>1.770000</speed>
</trkpt>
<trkpt lat="32.582351685" lon="35.008129120">
  <ele>143.813721</ele>
  <time>2011-10-25T20:03:49Z</time>
  <speed>1.770000</speed>
</trkpt>
<trkpt lat="32.582366943" lon="35.008163452">
  <ele>144.688721</ele>
  <time>2011-10-25T20:03:51Z</time>
  <speed>1.600000</speed>
</trkpt>
<trkpt lat="32.582386017" lon="35.008205414">
  <ele>145.458252</ele>
  <time>2011-10-25T20:03:53Z</time>
  <speed>2.120000</speed>
</trkpt>
<trkpt lat="32.582412720" lon="35.008247375">
  <ele>147.020752</ele>
  <time>2011-10-25T20:03:55Z</time>
  <speed>1.960000</speed>
</trkpt>
<trkpt lat="32.582447052" lon="35.008274078">
  <ele>148.102783</ele>
  <time>2011-10-25T20:03:57Z</time>
  <speed>1.750000</speed>
</trkpt>
<trkpt lat="32.582485199" lon="35.008285522">
  <ele>147.516846</ele>
  <time>2011-10-25T20:03:59Z</time>
  <speed>2.040000</speed>
</trkpt>
<trkpt lat="32.582508087" lon="35.008312225">
  <ele>147.192627</ele>
  <time>2011-10-25T20:04:01Z</time>
  <speed>1.350000</speed>
</trkpt>
<trkpt lat="32.582523346" lon="35.008338928">
  <ele>147.661377</ele>
  <time>2011-10-25T20:04:03Z</time>
  <speed>1.770000</speed>
</trkpt>
<trkpt lat="32.582534790" lon="35.008373260">
  <ele>148.298096</ele>
  <time>2011-10-25T20:04:05Z</time>
  <speed>1.560000</speed>
</trkpt>
<trkpt lat="32.582538605" lon="35.008403778">
  <ele>147.958252</ele>
  <time>2011-10-25T20:04:07Z</time>
  <speed>2.220000</speed>
</trkpt>
<trkpt lat="32.582542419" lon="35.008445740">
  <ele>148.751221</ele>
  <time>2011-10-25T20:04:09Z</time>
  <speed>1.450000</speed>
</trkpt>
<trkpt lat="32.582565308" lon="35.008483887">
  <ele>148.872314</ele>
  <time>2011-10-25T20:04:12Z</time>
  <speed>1.530000</speed>
</trkpt>
<trkpt lat="32.582595825" lon="35.008510590">
  <ele>148.891846</ele>
  <time>2011-10-25T20:04:14Z</time>
  <speed>1.730000</speed>
</trkpt>
<trkpt lat="32.582618713" lon="35.008537292">
  <ele>149.614502</ele>
  <time>2011-10-25T20:04:16Z</time>
  <speed>1.970000</speed>
</trkpt>
<trkpt lat="32.582641602" lon="35.008567810">
  <ele>149.911377</ele>
  <time>2011-10-25T20:04:18Z</time>
  <speed>1.600000</speed>
</trkpt>
<trkpt lat="32.582660675" lon="35.008586884">
  <ele>149.903564</ele>
  <time>2011-10-25T20:04:20Z</time>
  <speed>1.520000</speed>
</trkpt>
<trkpt lat="32.582687378" lon="35.008621216">
  <ele>150.372314</ele>
  <time>2011-10-25T20:04:22Z</time>
  <speed>1.420000</speed>
</trkpt>
<trkpt lat="32.582714081" lon="35.008644104">
  <ele>150.602783</ele>
  <time>2011-10-25T20:04:24Z</time>
  <speed>1.830000</speed>
</trkpt>
<trkpt lat="32.582736969" lon="35.008670807">
  <ele>151.141846</ele>
  <time>2011-10-25T20:04:26Z</time>
  <speed>1.540000</speed>
</trkpt>
<trkpt lat="32.582763672" lon="35.008693695">
  <ele>151.485596</ele>
  <time>2011-10-25T20:04:28Z</time>
  <speed>1.760000</speed>
</trkpt>
<trkpt lat="32.582786560" lon="35.008716583">
  <ele>151.938721</ele>
  <time>2011-10-25T20:04:30Z</time>
  <speed>1.630000</speed>
</trkpt>
<trkpt lat="32.582809448" lon="35.008747101">
  <ele>152.262939</ele>
  <time>2011-10-25T20:04:32Z</time>
  <speed>1.810000</speed>
</trkpt>
<trkpt lat="32.582828522" lon="35.008769989">
  <ele>152.434814</ele>
  <time>2011-10-25T20:04:34Z</time>
  <speed>1.500000</speed>
</trkpt>
<trkpt lat="32.582855225" lon="35.008808136">
  <ele>152.282471</ele>
  <time>2011-10-25T20:04:37Z</time>
  <speed>1.720000</speed>
</trkpt>
<trkpt lat="32.582870483" lon="35.008857727">
  <ele>152.512939</ele>
  <time>2011-10-25T20:04:39Z</time>
  <speed>1.640000</speed>
</trkpt>
<trkpt lat="32.582885742" lon="35.008884430">
  <ele>152.454346</ele>
  <time>2011-10-25T20:04:41Z</time>
  <speed>1.800000</speed>
</trkpt>
<trkpt lat="32.582893372" lon="35.008918762">
  <ele>152.544189</ele>
  <time>2011-10-25T20:04:43Z</time>
  <speed>1.460000</speed>
</trkpt>
<trkpt lat="32.582916260" lon="35.008953094">
  <ele>151.790283</ele>
  <time>2011-10-25T20:04:45Z</time>
  <speed>2.070000</speed>
</trkpt>
<trkpt lat="32.582916260" lon="35.008995056">
  <ele>150.884033</ele>
  <time>2011-10-25T20:04:47Z</time>
  <speed>1.980000</speed>
</trkpt>
<trkpt lat="32.582904816" lon="35.009040833">
  <ele>151.040283</ele>
  <time>2011-10-25T20:04:49Z</time>
  <speed>1.990000</speed>
</trkpt>
<trkpt lat="32.582901001" lon="35.009075165">
  <ele>151.204346</ele>
  <time>2011-10-25T20:04:51Z</time>
  <speed>2.090000</speed>
</trkpt>
<trkpt lat="32.582897186" lon="35.009109497">
  <ele>151.196533</ele>
  <time>2011-10-25T20:04:53Z</time>
  <speed>1.880000</speed>
</trkpt>
<trkpt lat="32.582901001" lon="35.009151459">
  <ele>152.067627</ele>
  <time>2011-10-25T20:04:55Z</time>
  <speed>2.000000</speed>
</trkpt>
<trkpt lat="32.582897186" lon="35.009185791">
  <ele>152.938721</ele>
  <time>2011-10-25T20:04:57Z</time>
  <speed>1.280000</speed>
</trkpt>
<trkpt lat="32.582901001" lon="35.009223938">
  <ele>153.298096</ele>
  <time>2011-10-25T20:04:59Z</time>
  <speed>1.890000</speed>
</trkpt>
<trkpt lat="32.582916260" lon="35.009273529">
  <ele>153.415283</ele>
  <time>2011-10-25T20:05:01Z</time>
  <speed>1.870000</speed>
</trkpt>
<trkpt lat="32.582927704" lon="35.009315491">
  <ele>153.052002</ele>
  <time>2011-10-25T20:05:03Z</time>
  <speed>1.550000</speed>
</trkpt>
<trkpt lat="32.582942963" lon="35.009349823">
  <ele>153.673096</ele>
  <time>2011-10-25T20:05:05Z</time>
  <speed>1.830000</speed>
</trkpt>
<trkpt lat="32.582962036" lon="35.009380341">
  <ele>154.274658</ele>
  <time>2011-10-25T20:05:07Z</time>
  <speed>2.010000</speed>
</trkpt>
<trkpt lat="32.582996368" lon="35.009414673">
  <ele>154.333252</ele>
  <time>2011-10-25T20:05:09Z</time>
  <speed>2.040000</speed>
</trkpt>
<trkpt lat="32.583026886" lon="35.009441376">
  <ele>154.641846</ele>
  <time>2011-10-25T20:05:11Z</time>
  <speed>2.300000</speed>
</trkpt>
<trkpt lat="32.583065033" lon="35.009464264">
  <ele>154.778564</ele>
  <time>2011-10-25T20:05:13Z</time>
  <speed>2.420000</speed>
</trkpt>
<trkpt lat="32.583103180" lon="35.009498596">
  <ele>155.571533</ele>
  <time>2011-10-25T20:05:15Z</time>
  <speed>2.380000</speed>
</trkpt>
<trkpt lat="32.583133698" lon="35.009536743">
  <ele>155.844971</ele>
  <time>2011-10-25T20:05:17Z</time>
  <speed>2.540000</speed>
</trkpt>
<trkpt lat="32.583168030" lon="35.009574890">
  <ele>156.509033</ele>
  <time>2011-10-25T20:05:19Z</time>
  <speed>2.310000</speed>
</trkpt>
<trkpt lat="32.583190918" lon="35.009613037">
  <ele>156.477783</ele>
  <time>2011-10-25T20:05:21Z</time>
  <speed>2.120000</speed>
</trkpt>
<trkpt lat="32.583209991" lon="35.009658813">
  <ele>156.977783</ele>
  <time>2011-10-25T20:05:23Z</time>
  <speed>1.990000</speed>
</trkpt>
<trkpt lat="32.583229065" lon="35.009700775">
  <ele>157.387939</ele>
  <time>2011-10-25T20:05:25Z</time>
  <speed>2.090000</speed>
</trkpt>
<trkpt lat="32.583251953" lon="35.009750366">
  <ele>157.591064</ele>
  <time>2011-10-25T20:05:27Z</time>
  <speed>2.150000</speed>
</trkpt>
<trkpt lat="32.583274841" lon="35.009792328">
  <ele>157.180908</ele>
  <time>2011-10-25T20:05:29Z</time>
  <speed>2.330000</speed>
</trkpt>
<trkpt lat="32.583297729" lon="35.009838104">
  <ele>157.735596</ele>
  <time>2011-10-25T20:05:31Z</time>
  <speed>2.210000</speed>
</trkpt>
<trkpt lat="32.583324432" lon="35.009868622">
  <ele>157.833252</ele>
  <time>2011-10-25T20:05:33Z</time>
  <speed>2.450000</speed>
</trkpt>
<trkpt lat="32.583362579" lon="35.009910583">
  <ele>158.442627</ele>
  <time>2011-10-25T20:05:35Z</time>
  <speed>2.290000</speed>
</trkpt>
<trkpt lat="32.583385468" lon="35.009952545">
  <ele>158.415283</ele>
  <time>2011-10-25T20:05:37Z</time>
  <speed>2.200000</speed>
</trkpt>
<trkpt lat="32.583415985" lon="35.010002136">
  <ele>158.485596</ele>
  <time>2011-10-25T20:05:39Z</time>
  <speed>2.980000</speed>
</trkpt>
<trkpt lat="32.583450317" lon="35.010051727">
  <ele>158.923096</ele>
  <time>2011-10-25T20:05:41Z</time>
  <speed>2.940000</speed>
</trkpt>
<trkpt lat="32.583480835" lon="35.010101318">
  <ele>157.555908</ele>
  <time>2011-10-25T20:05:43Z</time>
  <speed>2.910000</speed>
</trkpt>
<trkpt lat="32.583492279" lon="35.010128021">
  <ele>157.719971</ele>
  <time>2011-10-25T20:05:44Z</time>
  <speed>2.940000</speed>
</trkpt>
<trkpt lat="32.583511353" lon="35.010150909">
  <ele>158.262939</ele>
  <time>2011-10-25T20:05:45Z</time>
  <speed>2.590000</speed>
</trkpt>
<trkpt lat="32.583538055" lon="35.010196686">
  <ele>158.704346</ele>
  <time>2011-10-25T20:05:47Z</time>
  <speed>2.700000</speed>
</trkpt>
<trkpt lat="32.583549500" lon="35.010227203">
  <ele>159.134033</ele>
  <time>2011-10-25T20:05:48Z</time>
  <speed>2.620000</speed>
</trkpt>
<trkpt lat="32.583576202" lon="35.010276794">
  <ele>159.087158</ele>
  <time>2011-10-25T20:05:50Z</time>
  <speed>2.680000</speed>
</trkpt>
<trkpt lat="32.583599091" lon="35.010334015">
  <ele>160.434814</ele>
  <time>2011-10-25T20:05:52Z</time>
  <speed>2.490000</speed>
</trkpt>
<trkpt lat="32.583610535" lon="35.010379791">
  <ele>160.981689</ele>
  <time>2011-10-25T20:05:54Z</time>
  <speed>2.690000</speed>
</trkpt>
<trkpt lat="32.583629608" lon="35.010425568">
  <ele>161.493408</ele>
  <time>2011-10-25T20:05:56Z</time>
  <speed>2.620000</speed>
</trkpt>
<trkpt lat="32.583663940" lon="35.010467529">
  <ele>161.298096</ele>
  <time>2011-10-25T20:05:58Z</time>
  <speed>2.600000</speed>
</trkpt>
<trkpt lat="32.583683014" lon="35.010513306">
  <ele>161.641846</ele>
  <time>2011-10-25T20:06:00Z</time>
  <speed>2.650000</speed>
</trkpt>
<trkpt lat="32.583717346" lon="35.010559082">
  <ele>162.145752</ele>
  <time>2011-10-25T20:06:02Z</time>
  <speed>2.660000</speed>
</trkpt>
<trkpt lat="32.583736420" lon="35.010581970">
  <ele>162.130127</ele>
  <time>2011-10-25T20:06:03Z</time>
  <speed>2.820000</speed>
</trkpt>
<trkpt lat="32.583763123" lon="35.010601044">
  <ele>162.610596</ele>
  <time>2011-10-25T20:06:04Z</time>
  <speed>3.380000</speed>
</trkpt>
<trkpt lat="32.583786011" lon="35.010620117">
  <ele>162.419189</ele>
  <time>2011-10-25T20:06:05Z</time>
  <speed>3.050000</speed>
</trkpt>
<trkpt lat="32.583816528" lon="35.010662079">
  <ele>162.805908</ele>
  <time>2011-10-25T20:06:07Z</time>
  <speed>2.410000</speed>
</trkpt>
<trkpt lat="32.583835602" lon="35.010707855">
  <ele>163.075439</ele>
  <time>2011-10-25T20:06:09Z</time>
  <speed>2.020000</speed>
</trkpt>
<trkpt lat="32.583847046" lon="35.010746002">
  <ele>164.462158</ele>
  <time>2011-10-25T20:06:11Z</time>
  <speed>2.050000</speed>
</trkpt>
<trkpt lat="32.583854675" lon="35.010799408">
  <ele>164.305908</ele>
  <time>2011-10-25T20:06:13Z</time>
  <speed>2.370000</speed>
</trkpt>
<trkpt lat="32.583858490" lon="35.010860443">
  <ele>164.649658</ele>
  <time>2011-10-25T20:06:15Z</time>
  <speed>2.560000</speed>
</trkpt>
<trkpt lat="32.583858490" lon="35.010917664">
  <ele>165.532471</ele>
  <time>2011-10-25T20:06:17Z</time>
  <speed>2.610000</speed>
</trkpt>
<trkpt lat="32.583866119" lon="35.010967255">
  <ele>165.880127</ele>
  <time>2011-10-25T20:06:19Z</time>
  <speed>2.610000</speed>
</trkpt>
<trkpt lat="32.583858490" lon="35.011024475">
  <ele>165.321533</ele>
  <time>2011-10-25T20:06:21Z</time>
  <speed>2.660000</speed>
</trkpt>
<trkpt lat="32.583862305" lon="35.011077881">
  <ele>165.098877</ele>
  <time>2011-10-25T20:06:23Z</time>
  <speed>2.620000</speed>
</trkpt>
<trkpt lat="32.583862305" lon="35.011108398">
  <ele>166.157471</ele>
  <time>2011-10-25T20:06:24Z</time>
  <speed>2.640000</speed>
</trkpt>
<trkpt lat="32.583866119" lon="35.011157990">
  <ele>166.969971</ele>
  <time>2011-10-25T20:06:26Z</time>
  <speed>2.690000</speed>
</trkpt>
<trkpt lat="32.583869934" lon="35.011215210">
  <ele>167.087158</ele>
  <time>2011-10-25T20:06:28Z</time>
  <speed>2.310000</speed>
</trkpt>
<trkpt lat="32.583866119" lon="35.011264801">
  <ele>167.341064</ele>
  <time>2011-10-25T20:06:30Z</time>
  <speed>2.080000</speed>
</trkpt>
<trkpt lat="32.583854675" lon="35.011306763">
  <ele>167.071533</ele>
  <time>2011-10-25T20:06:32Z</time>
  <speed>2.270000</speed>
</trkpt>
<trkpt lat="32.583824158" lon="35.011341095">
  <ele>165.446533</ele>
  <time>2011-10-25T20:06:34Z</time>
  <speed>1.960000</speed>
</trkpt>
<trkpt lat="32.583797455" lon="35.011375427">
  <ele>165.055908</ele>
  <time>2011-10-25T20:06:36Z</time>
  <speed>2.340000</speed>
</trkpt>
<trkpt lat="32.583774567" lon="35.011409760">
  <ele>165.344971</ele>
  <time>2011-10-25T20:06:38Z</time>
  <speed>2.160000</speed>
</trkpt>
<trkpt lat="32.583755493" lon="35.011459351">
  <ele>165.864502</ele>
  <time>2011-10-25T20:06:40Z</time>
  <speed>2.360000</speed>
</trkpt>
<trkpt lat="32.583744049" lon="35.011505127">
  <ele>166.692627</ele>
  <time>2011-10-25T20:06:42Z</time>
  <speed>1.740000</speed>
</trkpt>
<trkpt lat="32.583736420" lon="35.011547089">
  <ele>166.805908</ele>
  <time>2011-10-25T20:06:44Z</time>
  <speed>1.810000</speed>
</trkpt>
<trkpt lat="32.583732605" lon="35.011581421">
  <ele>167.911377</ele>
  <time>2011-10-25T20:06:46Z</time>
  <speed>2.090000</speed>
</trkpt>
<trkpt lat="32.583732605" lon="35.011619568">
  <ele>168.876221</ele>
  <time>2011-10-25T20:06:48Z</time>
  <speed>1.740000</speed>
</trkpt>
<trkpt lat="32.583732605" lon="35.011661530">
  <ele>169.196533</ele>
  <time>2011-10-25T20:06:50Z</time>
  <speed>1.890000</speed>
</trkpt>
<trkpt lat="32.583736420" lon="35.011707306">
  <ele>169.962158</ele>
  <time>2011-10-25T20:06:52Z</time>
  <speed>2.050000</speed>
</trkpt>
<trkpt lat="32.583732605" lon="35.011753082">
  <ele>170.598877</ele>
  <time>2011-10-25T20:06:54Z</time>
  <speed>2.090000</speed>
</trkpt>
<trkpt lat="32.583732605" lon="35.011795044">
  <ele>170.747314</ele>
  <time>2011-10-25T20:06:56Z</time>
  <speed>2.090000</speed>
</trkpt>
<trkpt lat="32.583724976" lon="35.011840820">
  <ele>171.481689</ele>
  <time>2011-10-25T20:06:58Z</time>
  <speed>2.010000</speed>
</trkpt>
<trkpt lat="32.583721161" lon="35.011886597">
  <ele>170.958252</ele>
  <time>2011-10-25T20:07:00Z</time>
  <speed>2.050000</speed>
</trkpt>
<trkpt lat="32.583702087" lon="35.011920929">
  <ele>170.411377</ele>
  <time>2011-10-25T20:07:02Z</time>
  <speed>2.020000</speed>
</trkpt>
<trkpt lat="32.583683014" lon="35.011955261">
  <ele>170.778564</ele>
  <time>2011-10-25T20:07:04Z</time>
  <speed>2.120000</speed>
</trkpt>
<trkpt lat="32.583656311" lon="35.011985779">
  <ele>171.743408</ele>
  <time>2011-10-25T20:07:06Z</time>
  <speed>1.780000</speed>
</trkpt>
<trkpt lat="32.583637238" lon="35.012016296">
  <ele>171.196533</ele>
  <time>2011-10-25T20:07:08Z</time>
  <speed>1.680000</speed>
</trkpt>
<trkpt lat="32.583614349" lon="35.012046814">
  <ele>171.766846</ele>
  <time>2011-10-25T20:07:10Z</time>
  <speed>1.610000</speed>
</trkpt>
<trkpt lat="32.583602905" lon="35.012081146">
  <ele>171.860596</ele>
  <time>2011-10-25T20:07:12Z</time>
  <speed>1.890000</speed>
</trkpt>
<trkpt lat="32.583587646" lon="35.012126923">
  <ele>172.794189</ele>
  <time>2011-10-25T20:07:14Z</time>
  <speed>1.660000</speed>
</trkpt>
<trkpt lat="32.583580017" lon="35.012176514">
  <ele>172.844971</ele>
  <time>2011-10-25T20:07:17Z</time>
  <speed>1.740000</speed>
</trkpt>
<trkpt lat="32.583568573" lon="35.012207031">
  <ele>172.680908</ele>
  <time>2011-10-25T20:07:19Z</time>
  <speed>1.600000</speed>
</trkpt>
<trkpt lat="32.583564758" lon="35.012260437">
  <ele>173.512939</ele>
  <time>2011-10-25T20:07:22Z</time>
  <speed>2.190000</speed>
</trkpt>
<trkpt lat="32.583564758" lon="35.012306213">
  <ele>173.735596</ele>
  <time>2011-10-25T20:07:24Z</time>
  <speed>1.800000</speed>
</trkpt>
<trkpt lat="32.583576202" lon="35.012344360">
  <ele>173.614502</ele>
  <time>2011-10-25T20:07:26Z</time>
  <speed>1.490000</speed>
</trkpt>
<trkpt lat="32.583576202" lon="35.012386322">
  <ele>173.954346</ele>
  <time>2011-10-25T20:07:28Z</time>
  <speed>2.120000</speed>
</trkpt>
<trkpt lat="32.583587646" lon="35.012424469">
  <ele>174.044189</ele>
  <time>2011-10-25T20:07:30Z</time>
  <speed>2.070000</speed>
</trkpt>
<trkpt lat="32.583595276" lon="35.012477875">
  <ele>174.403564</ele>
  <time>2011-10-25T20:07:32Z</time>
  <speed>2.360000</speed>
</trkpt>
<trkpt lat="32.583599091" lon="35.012508392">
  <ele>173.747314</ele>
  <time>2011-10-25T20:07:33Z</time>
  <speed>2.490000</speed>
</trkpt>
<trkpt lat="32.583610535" lon="35.012569427">
  <ele>172.716064</ele>
  <time>2011-10-25T20:07:35Z</time>
  <speed>2.980000</speed>
</trkpt>
<trkpt lat="32.583637238" lon="35.012630463">
  <ele>173.395752</ele>
  <time>2011-10-25T20:07:37Z</time>
  <speed>3.080000</speed>
</trkpt>
<trkpt lat="32.583656311" lon="35.012683868">
  <ele>173.450439</ele>
  <time>2011-10-25T20:07:39Z</time>
  <speed>2.880000</speed>
</trkpt>
<trkpt lat="32.583679199" lon="35.012737274">
  <ele>173.704346</ele>
  <time>2011-10-25T20:07:41Z</time>
  <speed>2.780000</speed>
</trkpt>
<trkpt lat="32.583698273" lon="35.012786865">
  <ele>173.766846</ele>
  <time>2011-10-25T20:07:43Z</time>
  <speed>2.730000</speed>
</trkpt>
<trkpt lat="32.583709717" lon="35.012840271">
  <ele>174.380127</ele>
  <time>2011-10-25T20:07:45Z</time>
  <speed>2.350000</speed>
</trkpt>
<trkpt lat="32.583724976" lon="35.012882233">
  <ele>174.341064</ele>
  <time>2011-10-25T20:07:47Z</time>
  <speed>2.240000</speed>
</trkpt>
<trkpt lat="32.583724976" lon="35.012931824">
  <ele>174.223877</ele>
  <time>2011-10-25T20:07:49Z</time>
  <speed>2.620000</speed>
</trkpt>
<trkpt lat="32.583740234" lon="35.012962341">
  <ele>174.684814</ele>
  <time>2011-10-25T20:07:50Z</time>
  <speed>2.780000</speed>
</trkpt>
<trkpt lat="32.583751678" lon="35.013027191">
  <ele>174.614502</ele>
  <time>2011-10-25T20:07:52Z</time>
  <speed>3.200000</speed>
</trkpt>
<trkpt lat="32.583747864" lon="35.013061523">
  <ele>174.716064</ele>
  <time>2011-10-25T20:07:53Z</time>
  <speed>3.230000</speed>
</trkpt>
<trkpt lat="32.583759308" lon="35.013099670">
  <ele>175.020752</ele>
  <time>2011-10-25T20:07:54Z</time>
  <speed>3.210000</speed>
</trkpt>
<trkpt lat="32.583770752" lon="35.013141632">
  <ele>174.977783</ele>
  <time>2011-10-25T20:07:55Z</time>
  <speed>3.260000</speed>
</trkpt>
<trkpt lat="32.583774567" lon="35.013172150">
  <ele>174.231689</ele>
  <time>2011-10-25T20:07:56Z</time>
  <speed>3.210000</speed>
</trkpt>
<trkpt lat="32.583782196" lon="35.013210297">
  <ele>173.837158</ele>
  <time>2011-10-25T20:07:57Z</time>
  <speed>3.000000</speed>
</trkpt>
<trkpt lat="32.583797455" lon="35.013263702">
  <ele>173.598877</ele>
  <time>2011-10-25T20:07:59Z</time>
  <speed>2.790000</speed>
</trkpt>
<trkpt lat="32.583824158" lon="35.013309479">
  <ele>172.305908</ele>
  <time>2011-10-25T20:08:01Z</time>
  <speed>2.220000</speed>
</trkpt>
<trkpt lat="32.583854675" lon="35.013343811">
  <ele>172.653564</ele>
  <time>2011-10-25T20:08:03Z</time>
  <speed>2.570000</speed>
</trkpt>
<trkpt lat="32.583900452" lon="35.013366699">
  <ele>174.075439</ele>
  <time>2011-10-25T20:08:05Z</time>
  <speed>2.810000</speed>
</trkpt>
<trkpt lat="32.583942413" lon="35.013381958">
  <ele>175.630127</ele>
  <time>2011-10-25T20:08:07Z</time>
  <speed>2.560000</speed>
</trkpt>
<trkpt lat="32.583992004" lon="35.013381958">
  <ele>176.239502</ele>
  <time>2011-10-25T20:08:09Z</time>
  <speed>2.420000</speed>
</trkpt>
<trkpt lat="32.584037781" lon="35.013381958">
  <ele>176.622314</ele>
  <time>2011-10-25T20:08:11Z</time>
  <speed>2.270000</speed>
</trkpt>
<trkpt lat="32.584079742" lon="35.013401031">
  <ele>176.216064</ele>
  <time>2011-10-25T20:08:13Z</time>
  <speed>2.450000</speed>
</trkpt>
<trkpt lat="32.584125519" lon="35.013408661">
  <ele>175.993408</ele>
  <time>2011-10-25T20:08:15Z</time>
  <speed>2.500000</speed>
</trkpt>
<trkpt lat="32.584167480" lon="35.013412476">
  <ele>176.434814</ele>
  <time>2011-10-25T20:08:17Z</time>
  <speed>2.500000</speed>
</trkpt>
<trkpt lat="32.584213257" lon="35.013412476">
  <ele>177.305908</ele>
  <time>2011-10-25T20:08:19Z</time>
  <speed>2.410000</speed>
</trkpt>
<trkpt lat="32.584262848" lon="35.013393402">
  <ele>177.266846</ele>
  <time>2011-10-25T20:08:21Z</time>
  <speed>2.350000</speed>
</trkpt>
<trkpt lat="32.584312439" lon="35.013381958">
  <ele>178.016846</ele>
  <time>2011-10-25T20:08:23Z</time>
  <speed>2.440000</speed>
</trkpt>
<trkpt lat="32.584358215" lon="35.013362885">
  <ele>177.145752</ele>
  <time>2011-10-25T20:08:25Z</time>
  <speed>2.360000</speed>
</trkpt>
<trkpt lat="32.584392548" lon="35.013347626">
  <ele>177.829346</ele>
  <time>2011-10-25T20:08:27Z</time>
  <speed>2.360000</speed>
</trkpt>
<trkpt lat="32.584434509" lon="35.013328552">
  <ele>178.434814</ele>
  <time>2011-10-25T20:08:29Z</time>
  <speed>2.520000</speed>
</trkpt>
<trkpt lat="32.584472656" lon="35.013298035">
  <ele>177.790283</ele>
  <time>2011-10-25T20:08:31Z</time>
  <speed>2.980000</speed>
</trkpt>
<trkpt lat="32.584499359" lon="35.013286591">
  <ele>179.009033</ele>
  <time>2011-10-25T20:08:32Z</time>
  <speed>2.920000</speed>
</trkpt>
<trkpt lat="32.584537506" lon="35.013248444">
  <ele>179.481689</ele>
  <time>2011-10-25T20:08:34Z</time>
  <speed>2.520000</speed>
</trkpt>
<trkpt lat="32.584560394" lon="35.013206482">
  <ele>180.106689</ele>
  <time>2011-10-25T20:08:36Z</time>
  <speed>1.950000</speed>
</trkpt>
<trkpt lat="32.584579468" lon="35.013172150">
  <ele>180.325439</ele>
  <time>2011-10-25T20:08:38Z</time>
  <speed>2.100000</speed>
</trkpt>
<trkpt lat="32.584609985" lon="35.013137817">
  <ele>179.973877</ele>
  <time>2011-10-25T20:08:40Z</time>
  <speed>2.440000</speed>
</trkpt>
<trkpt lat="32.584636688" lon="35.013092041">
  <ele>180.489502</ele>
  <time>2011-10-25T20:08:42Z</time>
  <speed>2.440000</speed>
</trkpt>
<trkpt lat="32.584644318" lon="35.013053894">
  <ele>180.259033</ele>
  <time>2011-10-25T20:08:43Z</time>
  <speed>2.620000</speed>
</trkpt>
<trkpt lat="32.584663391" lon="35.013011932">
  <ele>180.083252</ele>
  <time>2011-10-25T20:08:45Z</time>
  <speed>2.420000</speed>
</trkpt>
<trkpt lat="32.584697723" lon="35.012981415">
  <ele>179.032471</ele>
  <time>2011-10-25T20:08:47Z</time>
  <speed>1.860000</speed>
</trkpt>
<trkpt lat="32.584724426" lon="35.012981415">
  <ele>178.329346</ele>
  <time>2011-10-25T20:08:49Z</time>
  <speed>1.610000</speed>
</trkpt>
<trkpt lat="32.584758759" lon="35.012973785">
  <ele>178.071533</ele>
  <time>2011-10-25T20:08:51Z</time>
  <speed>1.840000</speed>
</trkpt>
<trkpt lat="32.584800720" lon="35.012958527">
  <ele>178.680908</ele>
  <time>2011-10-25T20:08:53Z</time>
  <speed>1.080000</speed>
</trkpt>
<trkpt lat="32.584827423" lon="35.012947083">
  <ele>180.063721</ele>
  <time>2011-10-25T20:10:28Z</time>
  <speed>1.190000</speed>
</trkpt>
<trkpt lat="32.584865570" lon="35.012935638">
  <ele>179.766846</ele>
  <time>2011-10-25T20:10:31Z</time>
  <speed>1.860000</speed>
</trkpt>
<trkpt lat="32.584922791" lon="35.012928009">
  <ele>177.833252</ele>
  <time>2011-10-25T20:10:33Z</time>
  <speed>3.070000</speed>
</trkpt>
<trkpt lat="32.584953308" lon="35.012935638">
  <ele>177.196533</ele>
  <time>2011-10-25T20:10:34Z</time>
  <speed>3.610000</speed>
</trkpt>
<trkpt lat="32.584995270" lon="35.012950897">
  <ele>177.356689</ele>
  <time>2011-10-25T20:10:35Z</time>
  <speed>4.240000</speed>
</trkpt>
<trkpt lat="32.585029602" lon="35.012962341">
  <ele>176.930908</ele>
  <time>2011-10-25T20:10:36Z</time>
  <speed>3.800000</speed>
</trkpt>
<trkpt lat="32.585060120" lon="35.012981415">
  <ele>176.364502</ele>
  <time>2011-10-25T20:10:37Z</time>
  <speed>3.950000</speed>
</trkpt>
<trkpt lat="32.585090637" lon="35.013004303">
  <ele>175.739502</ele>
  <time>2011-10-25T20:10:38Z</time>
  <speed>3.590000</speed>
</trkpt>
<trkpt lat="32.585109711" lon="35.013042450">
  <ele>175.094971</ele>
  <time>2011-10-25T20:10:39Z</time>
  <speed>3.960000</speed>
</trkpt>
<trkpt lat="32.585140228" lon="35.013084412">
  <ele>173.700439</ele>
  <time>2011-10-25T20:10:40Z</time>
  <speed>4.500000</speed>
</trkpt>
<trkpt lat="32.585182190" lon="35.013111115">
  <ele>172.809814</ele>
  <time>2011-10-25T20:10:41Z</time>
  <speed>4.500000</speed>
</trkpt>
<trkpt lat="32.585235596" lon="35.013122559">
  <ele>172.427002</ele>
  <time>2011-10-25T20:10:42Z</time>
  <speed>4.970000</speed>
</trkpt>
<trkpt lat="32.585296631" lon="35.013126373">
  <ele>170.915283</ele>
  <time>2011-10-25T20:10:43Z</time>
  <speed>5.460000</speed>
</trkpt>
<trkpt lat="32.585365295" lon="35.013126373">
  <ele>170.618408</ele>
  <time>2011-10-25T20:10:44Z</time>
  <speed>6.150000</speed>
</trkpt>
<trkpt lat="32.585422516" lon="35.013130188">
  <ele>169.680908</ele>
  <time>2011-10-25T20:10:45Z</time>
  <speed>5.730000</speed>
</trkpt>
<trkpt lat="32.585475922" lon="35.013134003">
  <ele>168.559814</ele>
  <time>2011-10-25T20:10:46Z</time>
  <speed>4.970000</speed>
</trkpt>
<trkpt lat="32.585517883" lon="35.013122559">
  <ele>167.809814</ele>
  <time>2011-10-25T20:10:47Z</time>
  <speed>4.550000</speed>
</trkpt>
<trkpt lat="32.585559845" lon="35.013095856">
  <ele>168.063721</ele>
  <time>2011-10-25T20:10:48Z</time>
  <speed>4.280000</speed>
</trkpt>
<trkpt lat="32.585597992" lon="35.013069153">
  <ele>168.227783</ele>
  <time>2011-10-25T20:10:49Z</time>
  <speed>4.730000</speed>
</trkpt>
<trkpt lat="32.585639954" lon="35.013072968">
  <ele>167.973877</ele>
  <time>2011-10-25T20:10:50Z</time>
  <speed>4.510000</speed>
</trkpt>
<trkpt lat="32.585689545" lon="35.013080597">
  <ele>167.692627</ele>
  <time>2011-10-25T20:10:51Z</time>
  <speed>5.710000</speed>
</trkpt>
<trkpt lat="32.585739136" lon="35.013088226">
  <ele>167.380127</ele>
  <time>2011-10-25T20:10:52Z</time>
  <speed>4.620000</speed>
</trkpt>
<trkpt lat="32.585803986" lon="35.013095856">
  <ele>166.536377</ele>
  <time>2011-10-25T20:10:53Z</time>
  <speed>5.690000</speed>
</trkpt>
<trkpt lat="32.585853577" lon="35.013114929">
  <ele>166.075439</ele>
  <time>2011-10-25T20:10:54Z</time>
  <speed>5.640000</speed>
</trkpt>
<trkpt lat="32.585899353" lon="35.013141632">
  <ele>164.548096</ele>
  <time>2011-10-25T20:10:55Z</time>
  <speed>6.070000</speed>
</trkpt>
<trkpt lat="32.585941315" lon="35.013160706">
  <ele>164.294189</ele>
  <time>2011-10-25T20:10:56Z</time>
  <speed>5.170000</speed>
</trkpt>
<trkpt lat="32.585990906" lon="35.013175964">
  <ele>164.329346</ele>
  <time>2011-10-25T20:10:57Z</time>
  <speed>4.710000</speed>
</trkpt>
<trkpt lat="32.586040497" lon="35.013191223">
  <ele>164.719971</ele>
  <time>2011-10-25T20:10:58Z</time>
  <speed>4.680000</speed>
</trkpt>
<trkpt lat="32.586120605" lon="35.013191223">
  <ele>167.333252</ele>
  <time>2011-10-25T20:10:59Z</time>
  <speed>4.610000</speed>
</trkpt>
<trkpt lat="32.586166382" lon="35.013179779">
  <ele>167.325439</ele>
  <time>2011-10-25T20:11:00Z</time>
  <speed>5.370000</speed>
</trkpt>
<trkpt lat="32.586227417" lon="35.013156891">
  <ele>167.798096</ele>
  <time>2011-10-25T20:11:01Z</time>
  <speed>5.490000</speed>
</trkpt>
<trkpt lat="32.586277008" lon="35.013141632">
  <ele>167.899658</ele>
  <time>2011-10-25T20:11:02Z</time>
  <speed>5.420000</speed>
</trkpt>
<trkpt lat="32.586326599" lon="35.013126373">
  <ele>168.079346</ele>
  <time>2011-10-25T20:11:03Z</time>
  <speed>6.090000</speed>
</trkpt>
<trkpt lat="32.586383820" lon="35.013126373">
  <ele>168.200439</ele>
  <time>2011-10-25T20:11:04Z</time>
  <speed>5.520000</speed>
</trkpt>
<trkpt lat="32.586437225" lon="35.013114929">
  <ele>167.805908</ele>
  <time>2011-10-25T20:11:05Z</time>
  <speed>5.610000</speed>
</trkpt>
<trkpt lat="32.586479187" lon="35.013122559">
  <ele>167.993408</ele>
  <time>2011-10-25T20:11:06Z</time>
  <speed>5.050000</speed>
</trkpt>
<trkpt lat="32.586521149" lon="35.013134003">
  <ele>167.399658</ele>
  <time>2011-10-25T20:11:07Z</time>
  <speed>5.020000</speed>
</trkpt>
<trkpt lat="32.586574554" lon="35.013141632">
  <ele>166.688721</ele>
  <time>2011-10-25T20:11:08Z</time>
  <speed>5.660000</speed>
</trkpt>
<trkpt lat="32.586620331" lon="35.013149261">
  <ele>165.880127</ele>
  <time>2011-10-25T20:11:09Z</time>
  <speed>5.840000</speed>
</trkpt>
<trkpt lat="32.586673737" lon="35.013149261">
  <ele>165.427002</ele>
  <time>2011-10-25T20:11:10Z</time>
  <speed>5.580000</speed>
</trkpt>
<trkpt lat="32.586723328" lon="35.013149261">
  <ele>165.634033</ele>
  <time>2011-10-25T20:11:11Z</time>
  <speed>5.770000</speed>
</trkpt>
<trkpt lat="32.586776733" lon="35.013153076">
  <ele>164.942627</ele>
  <time>2011-10-25T20:11:12Z</time>
  <speed>4.640000</speed>
</trkpt>
<trkpt lat="32.586822510" lon="35.013172150">
  <ele>162.083252</ele>
  <time>2011-10-25T20:11:13Z</time>
  <speed>3.780000</speed>
</trkpt>
<trkpt lat="32.586853027" lon="35.013179779">
  <ele>160.759033</ele>
  <time>2011-10-25T20:11:14Z</time>
  <speed>2.460000</speed>
</trkpt>
<trkpt lat="32.586879730" lon="35.013191223">
  <ele>159.954346</ele>
  <time>2011-10-25T20:11:15Z</time>
  <speed>3.150000</speed>
</trkpt>
<trkpt lat="32.586910248" lon="35.013214111">
  <ele>159.169189</ele>
  <time>2011-10-25T20:11:16Z</time>
  <speed>3.380000</speed>
</trkpt>
<trkpt lat="32.586944580" lon="35.013229370">
  <ele>158.591064</ele>
  <time>2011-10-25T20:11:17Z</time>
  <speed>3.920000</speed>
</trkpt>
<trkpt lat="32.586986542" lon="35.013244629">
  <ele>158.454346</ele>
  <time>2011-10-25T20:11:18Z</time>
  <speed>4.200000</speed>
</trkpt>
<trkpt lat="32.587032318" lon="35.013244629">
  <ele>157.723877</ele>
  <time>2011-10-25T20:11:19Z</time>
  <speed>3.910000</speed>
</trkpt>
<trkpt lat="32.587070465" lon="35.013248444">
  <ele>156.969971</ele>
  <time>2011-10-25T20:11:20Z</time>
  <speed>3.470000</speed>
</trkpt>
<trkpt lat="32.587120056" lon="35.013256073">
  <ele>156.493408</ele>
  <time>2011-10-25T20:11:21Z</time>
  <speed>4.290000</speed>
</trkpt>
<trkpt lat="32.587169647" lon="35.013259888">
  <ele>155.645752</ele>
  <time>2011-10-25T20:11:22Z</time>
  <speed>5.430000</speed>
</trkpt>
<trkpt lat="32.587223053" lon="35.013263702">
  <ele>154.563721</ele>
  <time>2011-10-25T20:11:23Z</time>
  <speed>4.740000</speed>
</trkpt>
<trkpt lat="32.587261200" lon="35.013256073">
  <ele>153.680908</ele>
  <time>2011-10-25T20:11:24Z</time>
  <speed>4.760000</speed>
</trkpt>
<trkpt lat="32.587303162" lon="35.013252258">
  <ele>152.407471</ele>
  <time>2011-10-25T20:11:25Z</time>
  <speed>4.180000</speed>
</trkpt>
<trkpt lat="32.587345123" lon="35.013259888">
  <ele>152.200439</ele>
  <time>2011-10-25T20:11:26Z</time>
  <speed>4.080000</speed>
</trkpt>
<trkpt lat="32.587387085" lon="35.013259888">
  <ele>149.790283</ele>
  <time>2011-10-25T20:11:27Z</time>
  <speed>3.900000</speed>
</trkpt>
<trkpt lat="32.587425232" lon="35.013256073">
  <ele>148.493408</ele>
  <time>2011-10-25T20:11:28Z</time>
  <speed>3.220000</speed>
</trkpt>
<trkpt lat="32.587459564" lon="35.013263702">
  <ele>147.630127</ele>
  <time>2011-10-25T20:11:29Z</time>
  <speed>2.560000</speed>
</trkpt>
<trkpt lat="32.587512970" lon="35.013244629">
  <ele>144.313721</ele>
  <time>2011-10-25T20:11:30Z</time>
  <speed>3.210000</speed>
</trkpt>
<trkpt lat="32.587562561" lon="35.013244629">
  <ele>144.309814</ele>
  <time>2011-10-25T20:11:31Z</time>
  <speed>3.750000</speed>
</trkpt>
<trkpt lat="32.587600708" lon="35.013244629">
  <ele>143.630127</ele>
  <time>2011-10-25T20:11:32Z</time>
  <speed>2.920000</speed>
</trkpt>
<trkpt lat="32.587631226" lon="35.013252258">
  <ele>142.536377</ele>
  <time>2011-10-25T20:11:33Z</time>
  <speed>2.540000</speed>
</trkpt>
<trkpt lat="32.587669373" lon="35.013256073">
  <ele>138.813721</ele>
  <time>2011-10-25T20:11:35Z</time>
  <speed>2.360000</speed>
</trkpt>
<trkpt lat="32.587688446" lon="35.013313293">
  <ele>136.192627</ele>
  <time>2011-10-25T20:11:37Z</time>
  <speed>2.930000</speed>
</trkpt>
<trkpt lat="32.587730408" lon="35.013336182">
  <ele>137.860596</ele>
  <time>2011-10-25T20:11:38Z</time>
  <speed>2.950000</speed>
</trkpt>
<trkpt lat="32.587760925" lon="35.013347626">
  <ele>137.040283</ele>
  <time>2011-10-25T20:11:39Z</time>
  <speed>3.600000</speed>
</trkpt>
<trkpt lat="32.587787628" lon="35.013339996">
  <ele>136.755127</ele>
  <time>2011-10-25T20:11:40Z</time>
  <speed>3.230000</speed>
</trkpt>
<trkpt lat="32.587810516" lon="35.013317108">
  <ele>135.872314</ele>
  <time>2011-10-25T20:11:41Z</time>
  <speed>3.190000</speed>
</trkpt>
<trkpt lat="32.587852478" lon="35.013267517">
  <ele>134.591064</ele>
  <time>2011-10-25T20:11:43Z</time>
  <speed>3.130000</speed>
</trkpt>
<trkpt lat="32.587875366" lon="35.013240814">
  <ele>134.098877</ele>
  <time>2011-10-25T20:11:44Z</time>
  <speed>3.530000</speed>
</trkpt>
<trkpt lat="32.587890625" lon="35.013191223">
  <ele>133.173096</ele>
  <time>2011-10-25T20:11:45Z</time>
  <speed>3.940000</speed>
</trkpt>
<trkpt lat="32.587902069" lon="35.013141632">
  <ele>131.884033</ele>
  <time>2011-10-25T20:11:46Z</time>
  <speed>3.550000</speed>
</trkpt>
<trkpt lat="32.587928772" lon="35.013095856">
  <ele>131.384033</ele>
  <time>2011-10-25T20:11:47Z</time>
  <speed>4.260000</speed>
</trkpt>
<trkpt lat="32.587963104" lon="35.013050079">
  <ele>131.009033</ele>
  <time>2011-10-25T20:11:48Z</time>
  <speed>4.920000</speed>
</trkpt>
<trkpt lat="32.587985992" lon="35.013004303">
  <ele>129.434814</ele>
  <time>2011-10-25T20:11:49Z</time>
  <speed>4.530000</speed>
</trkpt>
<trkpt lat="32.588016510" lon="35.012958527">
  <ele>128.341064</ele>
  <time>2011-10-25T20:11:50Z</time>
  <speed>4.490000</speed>
</trkpt>
<trkpt lat="32.588054657" lon="35.012916565">
  <ele>127.619751</ele>
  <time>2011-10-25T20:11:51Z</time>
  <speed>4.400000</speed>
</trkpt>
<trkpt lat="32.588085175" lon="35.012874603">
  <ele>126.555298</ele>
  <time>2011-10-25T20:11:52Z</time>
  <speed>4.060000</speed>
</trkpt>
<trkpt lat="32.588100433" lon="35.012825012">
  <ele>126.215454</ele>
  <time>2011-10-25T20:11:53Z</time>
  <speed>3.430000</speed>
</trkpt>
<trkpt lat="32.588119507" lon="35.012790680">
  <ele>125.426392</ele>
  <time>2011-10-25T20:11:54Z</time>
  <speed>3.150000</speed>
</trkpt>
<trkpt lat="32.588146210" lon="35.012760162">
  <ele>124.498657</ele>
  <time>2011-10-25T20:11:55Z</time>
  <speed>3.770000</speed>
</trkpt>
<trkpt lat="32.588176727" lon="35.012729645">
  <ele>124.147095</ele>
  <time>2011-10-25T20:11:56Z</time>
  <speed>3.290000</speed>
</trkpt>
<trkpt lat="32.588191986" lon="35.012687683">
  <ele>124.260376</ele>
  <time>2011-10-25T20:11:57Z</time>
  <speed>3.950000</speed>
</trkpt>
<trkpt lat="32.588241577" lon="35.012611389">
  <ele>126.248657</ele>
  <time>2011-10-25T20:11:58Z</time>
  <speed>4.040000</speed>
</trkpt>
<trkpt lat="32.588253021" lon="35.012565613">
  <ele>125.725220</ele>
  <time>2011-10-25T20:11:59Z</time>
  <speed>4.190000</speed>
</trkpt>
<trkpt lat="32.588260651" lon="35.012519836">
  <ele>125.268188</ele>
  <time>2011-10-25T20:12:00Z</time>
  <speed>4.240000</speed>
</trkpt>
<trkpt lat="32.588272095" lon="35.012462616">
  <ele>124.850220</ele>
  <time>2011-10-25T20:12:01Z</time>
  <speed>4.510000</speed>
</trkpt>
<trkpt lat="32.588294983" lon="35.012405396">
  <ele>124.488892</ele>
  <time>2011-10-25T20:12:02Z</time>
  <speed>4.990000</speed>
</trkpt>
<trkpt lat="32.588298798" lon="35.012348175">
  <ele>123.779907</ele>
  <time>2011-10-25T20:12:03Z</time>
  <speed>4.820000</speed>
</trkpt>
<trkpt lat="32.588306427" lon="35.012287140">
  <ele>122.615845</ele>
  <time>2011-10-25T20:12:04Z</time>
  <speed>4.200000</speed>
</trkpt>
<trkpt lat="32.588317871" lon="35.012256622">
  <ele>123.287720</ele>
  <time>2011-10-25T20:12:05Z</time>
  <speed>3.330000</speed>
</trkpt>
<trkpt lat="32.588321686" lon="35.012226105">
  <ele>124.082642</ele>
  <time>2011-10-25T20:12:06Z</time>
  <speed>3.410000</speed>
</trkpt>
<trkpt lat="32.588344574" lon="35.012207031">
  <ele>123.791626</ele>
  <time>2011-10-25T20:12:07Z</time>
  <speed>2.100000</speed>
</trkpt>
<trkpt lat="32.588363647" lon="35.012229919">
  <ele>122.311157</ele>
  <time>2011-10-25T20:12:08Z</time>
  <speed>3.360000</speed>
</trkpt>
<trkpt lat="32.588382721" lon="35.012260437">
  <ele>121.543579</ele>
  <time>2011-10-25T20:12:09Z</time>
  <speed>3.570000</speed>
</trkpt>
<trkpt lat="32.588417053" lon="35.012290955">
  <ele>121.797485</ele>
  <time>2011-10-25T20:12:10Z</time>
  <speed>4.100000</speed>
</trkpt>
<trkpt lat="32.588470459" lon="35.012283325">
  <ele>120.307251</ele>
  <time>2011-10-25T20:12:12Z</time>
  <speed>4.260000</speed>
</trkpt>
<trkpt lat="32.588485718" lon="35.012252808">
  <ele>119.721313</ele>
  <time>2011-10-25T20:12:13Z</time>
  <speed>3.740000</speed>
</trkpt>
<trkpt lat="32.588500977" lon="35.012207031">
  <ele>118.957642</ele>
  <time>2011-10-25T20:12:14Z</time>
  <speed>4.310000</speed>
</trkpt>
<trkpt lat="32.588512421" lon="35.012157440">
  <ele>117.510376</ele>
  <time>2011-10-25T20:12:15Z</time>
  <speed>4.980000</speed>
</trkpt>
<trkpt lat="32.588520050" lon="35.012100220">
  <ele>116.481079</ele>
  <time>2011-10-25T20:12:16Z</time>
  <speed>4.880000</speed>
</trkpt>
<trkpt lat="32.588523865" lon="35.012046814">
  <ele>116.496704</ele>
  <time>2011-10-25T20:12:17Z</time>
  <speed>4.670000</speed>
</trkpt>
<trkpt lat="32.588527679" lon="35.011997223">
  <ele>115.904907</ele>
  <time>2011-10-25T20:12:18Z</time>
  <speed>3.280000</speed>
</trkpt>
<trkpt lat="32.588546753" lon="35.011970520">
  <ele>114.959595</ele>
  <time>2011-10-25T20:12:19Z</time>
  <speed>3.620000</speed>
</trkpt>
<trkpt lat="32.588569641" lon="35.011936188">
  <ele>114.068970</ele>
  <time>2011-10-25T20:12:20Z</time>
  <speed>4.310000</speed>
</trkpt>
<trkpt lat="32.588592529" lon="35.011901855">
  <ele>113.815063</ele>
  <time>2011-10-25T20:12:21Z</time>
  <speed>3.870000</speed>
</trkpt>
<trkpt lat="32.588619232" lon="35.011863708">
  <ele>113.121704</ele>
  <time>2011-10-25T20:12:22Z</time>
  <speed>3.720000</speed>
</trkpt>
<trkpt lat="32.588634491" lon="35.011833191">
  <ele>112.262329</ele>
  <time>2011-10-25T20:12:23Z</time>
  <speed>3.260000</speed>
</trkpt>
<trkpt lat="32.588649750" lon="35.011798859">
  <ele>110.959595</ele>
  <time>2011-10-25T20:12:24Z</time>
  <speed>3.630000</speed>
</trkpt>
<trkpt lat="32.588672638" lon="35.011764526">
  <ele>110.106079</ele>
  <time>2011-10-25T20:12:25Z</time>
  <speed>3.900000</speed>
</trkpt>
<trkpt lat="32.588703156" lon="35.011718750">
  <ele>110.492798</ele>
  <time>2011-10-25T20:12:26Z</time>
  <speed>3.840000</speed>
</trkpt>
<trkpt lat="32.588729858" lon="35.011672974">
  <ele>110.211548</ele>
  <time>2011-10-25T20:12:27Z</time>
  <speed>4.260000</speed>
</trkpt>
<trkpt lat="32.588764191" lon="35.011615753">
  <ele>110.965454</ele>
  <time>2011-10-25T20:12:28Z</time>
  <speed>4.310000</speed>
</trkpt>
<trkpt lat="32.588771820" lon="35.011558533">
  <ele>110.678345</ele>
  <time>2011-10-25T20:12:29Z</time>
  <speed>4.270000</speed>
</trkpt>
<trkpt lat="32.588775635" lon="35.011505127">
  <ele>110.326782</ele>
  <time>2011-10-25T20:12:30Z</time>
  <speed>4.000000</speed>
</trkpt>
<trkpt lat="32.588790894" lon="35.011463165">
  <ele>109.793579</ele>
  <time>2011-10-25T20:12:31Z</time>
  <speed>4.180000</speed>
</trkpt>
<trkpt lat="32.588809967" lon="35.011413574">
  <ele>108.899048</ele>
  <time>2011-10-25T20:12:32Z</time>
  <speed>4.750000</speed>
</trkpt>
<trkpt lat="32.588844299" lon="35.011360168">
  <ele>108.809204</ele>
  <time>2011-10-25T20:12:33Z</time>
  <speed>5.380000</speed>
</trkpt>
<trkpt lat="32.588871002" lon="35.011314392">
  <ele>107.887329</ele>
  <time>2011-10-25T20:12:34Z</time>
  <speed>4.470000</speed>
</trkpt>
<trkpt lat="32.588893890" lon="35.011280060">
  <ele>107.221313</ele>
  <time>2011-10-25T20:12:35Z</time>
  <speed>3.790000</speed>
</trkpt>
<trkpt lat="32.588935852" lon="35.011245728">
  <ele>106.752563</ele>
  <time>2011-10-25T20:12:36Z</time>
  <speed>4.090000</speed>
</trkpt>
<trkpt lat="32.588966370" lon="35.011203766">
  <ele>105.942017</ele>
  <time>2011-10-25T20:12:37Z</time>
  <speed>4.680000</speed>
</trkpt>
<trkpt lat="32.588973999" lon="35.011146545">
  <ele>105.373657</ele>
  <time>2011-10-25T20:12:38Z</time>
  <speed>4.320000</speed>
</trkpt>
<trkpt lat="32.588970184" lon="35.011081696">
  <ele>105.412720</ele>
  <time>2011-10-25T20:12:39Z</time>
  <speed>4.790000</speed>
</trkpt>
<trkpt lat="32.588966370" lon="35.011024475">
  <ele>104.772095</ele>
  <time>2011-10-25T20:12:40Z</time>
  <speed>4.700000</speed>
</trkpt>
<trkpt lat="32.588951111" lon="35.010978699">
  <ele>103.938110</ele>
  <time>2011-10-25T20:12:41Z</time>
  <speed>3.650000</speed>
</trkpt>
<trkpt lat="32.588939667" lon="35.010940552">
  <ele>103.143188</ele>
  <time>2011-10-25T20:12:42Z</time>
  <speed>3.230000</speed>
</trkpt>
<trkpt lat="32.588920593" lon="35.010902405">
  <ele>102.006470</ele>
  <time>2011-10-25T20:12:43Z</time>
  <speed>3.220000</speed>
</trkpt>
<trkpt lat="32.588901520" lon="35.010841370">
  <ele>101.924438</ele>
  <time>2011-10-25T20:12:44Z</time>
  <speed>2.720000</speed>
</trkpt>
<trkpt lat="32.588871002" lon="35.010818481">
  <ele>102.031860</ele>
  <time>2011-10-25T20:12:46Z</time>
  <speed>0.640000</speed>
</trkpt>
<trkpt lat="32.588882446" lon="35.010845184">
  <ele>103.539673</ele>
  <time>2011-10-25T20:12:54Z</time>
  <speed>0.010000</speed>
</trkpt>
<trkpt lat="32.588882446" lon="35.010803223">
  <ele>104.041626</ele>
  <time>2011-10-25T20:13:01Z</time>
  <speed>1.620000</speed>
</trkpt>
<trkpt lat="32.588886261" lon="35.010768890">
  <ele>104.438110</ele>
  <time>2011-10-25T20:13:03Z</time>
  <speed>0.980000</speed>
</trkpt>
<trkpt lat="32.588886261" lon="35.010726929">
  <ele>104.949829</ele>
  <time>2011-10-25T20:13:06Z</time>
  <speed>0.430000</speed>
</trkpt>
<trkpt lat="32.588901520" lon="35.010700226">
  <ele>106.592407</ele>
  <time>2011-10-25T20:13:12Z</time>
  <speed>0.060000</speed>
</trkpt>
<trkpt lat="32.588882446" lon="35.010662079">
  <ele>108.231079</ele>
  <time>2011-10-25T20:13:16Z</time>
  <speed>0.140000</speed>
</trkpt>
<trkpt lat="32.588905334" lon="35.010643005">
  <ele>108.070923</ele>
  <time>2011-10-25T20:13:23Z</time>
  <speed>1.000000</speed>
</trkpt>
<trkpt lat="32.588924408" lon="35.010608673">
  <ele>108.158813</ele>
  <time>2011-10-25T20:13:25Z</time>
  <speed>2.220000</speed>
</trkpt>
<trkpt lat="32.588939667" lon="35.010578156">
  <ele>108.186157</ele>
  <time>2011-10-25T20:13:26Z</time>
  <speed>3.440000</speed>
</trkpt>
<trkpt lat="32.588958740" lon="35.010551453">
  <ele>107.608032</ele>
  <time>2011-10-25T20:13:27Z</time>
  <speed>3.810000</speed>
</trkpt>
<trkpt lat="32.588985443" lon="35.010517120">
  <ele>107.055298</ele>
  <time>2011-10-25T20:13:28Z</time>
  <speed>4.670000</speed>
</trkpt>
<trkpt lat="32.589019775" lon="35.010486603">
  <ele>106.793579</ele>
  <time>2011-10-25T20:13:29Z</time>
  <speed>4.260000</speed>
</trkpt>
<trkpt lat="32.589054108" lon="35.010467529">
  <ele>106.547485</ele>
  <time>2011-10-25T20:13:30Z</time>
  <speed>3.910000</speed>
</trkpt>
<trkpt lat="32.589092255" lon="35.010459900">
  <ele>106.459595</ele>
  <time>2011-10-25T20:13:31Z</time>
  <speed>4.080000</speed>
</trkpt>
<trkpt lat="32.589134216" lon="35.010456085">
  <ele>105.664673</ele>
  <time>2011-10-25T20:13:32Z</time>
  <speed>4.550000</speed>
</trkpt>
<trkpt lat="32.589179993" lon="35.010444641">
  <ele>105.404907</ele>
  <time>2011-10-25T20:13:33Z</time>
  <speed>5.080000</speed>
</trkpt>
<trkpt lat="32.589214325" lon="35.010421753">
  <ele>104.719360</ele>
  <time>2011-10-25T20:13:34Z</time>
  <speed>3.990000</speed>
</trkpt>
<trkpt lat="32.589237213" lon="35.010387421">
  <ele>103.781860</ele>
  <time>2011-10-25T20:13:35Z</time>
  <speed>3.500000</speed>
</trkpt>
<trkpt lat="32.589256287" lon="35.010353088">
  <ele>102.524048</ele>
  <time>2011-10-25T20:13:36Z</time>
  <speed>3.010000</speed>
</trkpt>
<trkpt lat="32.589290619" lon="35.010326385">
  <ele>101.260376</ele>
  <time>2011-10-25T20:13:38Z</time>
  <speed>1.570000</speed>
</trkpt>
<trkpt lat="32.589321136" lon="35.010318756">
  <ele>100.197876</ele>
  <time>2011-10-25T20:13:40Z</time>
  <speed>1.540000</speed>
</trkpt>
<trkpt lat="32.589363098" lon="35.010326385">
  <ele>99.289673</ele>
  <time>2011-10-25T20:13:42Z</time>
  <speed>2.130000</speed>
</trkpt>
<trkpt lat="32.589412689" lon="35.010322571">
  <ele>98.016235</ele>
  <time>2011-10-25T20:13:44Z</time>
  <speed>2.240000</speed>
</trkpt>
<trkpt lat="32.589447021" lon="35.010326385">
  <ele>97.873657</ele>
  <time>2011-10-25T20:13:45Z</time>
  <speed>2.870000</speed>
</trkpt>
<trkpt lat="32.589485168" lon="35.010349274">
  <ele>96.897095</ele>
  <time>2011-10-25T20:13:46Z</time>
  <speed>2.190000</speed>
</trkpt>
<trkpt lat="32.589511871" lon="35.010372162">
  <ele>96.432251</ele>
  <time>2011-10-25T20:13:47Z</time>
  <speed>2.060000</speed>
</trkpt>
<trkpt lat="32.589546204" lon="35.010375977">
  <ele>94.332642</ele>
  <time>2011-10-25T20:13:48Z</time>
  <speed>1.990000</speed>
</trkpt>
<trkpt lat="32.589572906" lon="35.010379791">
  <ele>94.262329</ele>
  <time>2011-10-25T20:13:49Z</time>
  <speed>2.610000</speed>
</trkpt>
<trkpt lat="32.589618683" lon="35.010383606">
  <ele>94.219360</ele>
  <time>2011-10-25T20:13:50Z</time>
  <speed>3.410000</speed>
</trkpt>
<trkpt lat="32.589656830" lon="35.010387421">
  <ele>93.611938</ele>
  <time>2011-10-25T20:13:51Z</time>
  <speed>3.440000</speed>
</trkpt>
<trkpt lat="32.589691162" lon="35.010395050">
  <ele>93.545532</ele>
  <time>2011-10-25T20:13:52Z</time>
  <speed>3.590000</speed>
</trkpt>
<trkpt lat="32.589733124" lon="35.010395050">
  <ele>94.348267</ele>
  <time>2011-10-25T20:13:53Z</time>
  <speed>4.260000</speed>
</trkpt>
<trkpt lat="32.589782715" lon="35.010391235">
  <ele>94.236938</ele>
  <time>2011-10-25T20:13:54Z</time>
  <speed>4.120000</speed>
</trkpt>
<trkpt lat="32.589855194" lon="35.010387421">
  <ele>94.740845</ele>
  <time>2011-10-25T20:13:55Z</time>
  <speed>4.660000</speed>
</trkpt>
<trkpt lat="32.589897156" lon="35.010372162">
  <ele>94.871704</ele>
  <time>2011-10-25T20:13:56Z</time>
  <speed>4.230000</speed>
</trkpt>
<trkpt lat="32.589931488" lon="35.010368347">
  <ele>94.283813</ele>
  <time>2011-10-25T20:13:57Z</time>
  <speed>3.670000</speed>
</trkpt>
<trkpt lat="32.589962006" lon="35.010391235">
  <ele>93.871704</ele>
  <time>2011-10-25T20:13:58Z</time>
  <speed>3.760000</speed>
</trkpt>
<trkpt lat="32.589984894" lon="35.010425568">
  <ele>93.619751</ele>
  <time>2011-10-25T20:13:59Z</time>
  <speed>3.750000</speed>
</trkpt>
<trkpt lat="32.590003967" lon="35.010452271">
  <ele>93.184204</ele>
  <time>2011-10-25T20:14:00Z</time>
  <speed>3.730000</speed>
</trkpt>
<trkpt lat="32.590034485" lon="35.010486603">
  <ele>92.082642</ele>
  <time>2011-10-25T20:14:01Z</time>
  <speed>4.380000</speed>
</trkpt>
<trkpt lat="32.590068817" lon="35.010520935">
  <ele>91.709595</ele>
  <time>2011-10-25T20:14:02Z</time>
  <speed>4.670000</speed>
</trkpt>
<trkpt lat="32.590122223" lon="35.010532379">
  <ele>90.414673</ele>
  <time>2011-10-25T20:14:03Z</time>
  <speed>4.670000</speed>
</trkpt>
<trkpt lat="32.590141296" lon="35.010551453">
  <ele>89.488892</ele>
  <time>2011-10-25T20:14:04Z</time>
  <speed>2.480000</speed>
</trkpt>
<trkpt lat="32.590126038" lon="35.010597229">
  <ele>87.877563</ele>
  <time>2011-10-25T20:14:06Z</time>
  <speed>2.030000</speed>
</trkpt>
<trkpt lat="32.590095520" lon="35.010631561">
  <ele>87.547485</ele>
  <time>2011-10-25T20:14:08Z</time>
  <speed>2.110000</speed>
</trkpt>
<trkpt lat="32.590072632" lon="35.010665894">
  <ele>87.567017</ele>
  <time>2011-10-25T20:14:10Z</time>
  <speed>2.540000</speed>
</trkpt>
<trkpt lat="32.590045929" lon="35.010696411">
  <ele>86.643188</ele>
  <time>2011-10-25T20:14:11Z</time>
  <speed>3.690000</speed>
</trkpt>
<trkpt lat="32.590023041" lon="35.010746002">
  <ele>86.922485</ele>
  <time>2011-10-25T20:14:12Z</time>
  <speed>5.470000</speed>
</trkpt>
<trkpt lat="32.589984894" lon="35.010795593">
  <ele>86.324829</ele>
  <time>2011-10-25T20:14:13Z</time>
  <speed>6.580000</speed>
</trkpt>
<trkpt lat="32.589950562" lon="35.010852814">
  <ele>85.840454</ele>
  <time>2011-10-25T20:14:14Z</time>
  <speed>6.440000</speed>
</trkpt>
<trkpt lat="32.589931488" lon="35.010902405">
  <ele>85.627563</ele>
  <time>2011-10-25T20:14:15Z</time>
  <speed>4.350000</speed>
</trkpt>
<trkpt lat="32.589931488" lon="35.010940552">
  <ele>85.945923</ele>
  <time>2011-10-25T20:14:16Z</time>
  <speed>1.800000</speed>
</trkpt>
<trkpt lat="32.589946747" lon="35.010982513">
  <ele>86.412720</ele>
  <time>2011-10-25T20:14:18Z</time>
  <speed>1.040000</speed>
</trkpt>
<trkpt lat="32.589969635" lon="35.010990143">
  <ele>87.611938</ele>
  <time>2011-10-25T20:14:25Z</time>
  <speed>0.190000</speed>
</trkpt>
<trkpt lat="32.590000153" lon="35.010993958">
  <ele>89.473267</ele>
  <time>2011-10-25T20:14:33Z</time>
  <speed>0.070000</speed>
</trkpt>
<trkpt lat="32.590015411" lon="35.010997772">
  <ele>92.412720</ele>
  <time>2011-10-25T20:14:43Z</time>
  <speed>0.020000</speed>
</trkpt>
<trkpt lat="32.590045929" lon="35.011009216">
  <ele>93.252563</ele>
  <time>2011-10-25T20:14:47Z</time>
  <speed>0.100000</speed>
</trkpt>
<trkpt lat="32.590065002" lon="35.010986328">
  <ele>94.930298</ele>
  <time>2011-10-25T20:14:59Z</time>
  <speed>0.870000</speed>
</trkpt>
<trkpt lat="32.590106964" lon="35.010982513">
  <ele>95.264282</ele>
  <time>2011-10-25T20:15:01Z</time>
  <speed>2.060000</speed>
</trkpt>
<trkpt lat="32.590164185" lon="35.010978699">
  <ele>95.287720</ele>
  <time>2011-10-25T20:15:03Z</time>
  <speed>3.040000</speed>
</trkpt>
<trkpt lat="32.590202332" lon="35.010974884">
  <ele>95.072876</ele>
  <time>2011-10-25T20:15:04Z</time>
  <speed>3.950000</speed>
</trkpt>
<trkpt lat="32.590244293" lon="35.010978699">
  <ele>94.721313</ele>
  <time>2011-10-25T20:15:05Z</time>
  <speed>4.750000</speed>
</trkpt>
<trkpt lat="32.590286255" lon="35.010982513">
  <ele>94.652954</ele>
  <time>2011-10-25T20:15:06Z</time>
  <speed>4.620000</speed>
</trkpt>
<trkpt lat="32.590332031" lon="35.010982513">
  <ele>94.104126</ele>
  <time>2011-10-25T20:15:07Z</time>
  <speed>5.030000</speed>
</trkpt>
<trkpt lat="32.590389252" lon="35.010986328">
  <ele>93.590454</ele>
  <time>2011-10-25T20:15:08Z</time>
  <speed>6.130000</speed>
</trkpt>
<trkpt lat="32.590446472" lon="35.010993958">
  <ele>93.141235</ele>
  <time>2011-10-25T20:15:09Z</time>
  <speed>6.400000</speed>
</trkpt>
<trkpt lat="32.590507507" lon="35.010990143">
  <ele>92.469360</ele>
  <time>2011-10-25T20:15:10Z</time>
  <speed>6.480000</speed>
</trkpt>
<trkpt lat="32.590564728" lon="35.010978699">
  <ele>91.652954</ele>
  <time>2011-10-25T20:15:11Z</time>
  <speed>6.820000</speed>
</trkpt>
<trkpt lat="32.590633392" lon="35.010982513">
  <ele>91.264282</ele>
  <time>2011-10-25T20:15:12Z</time>
  <speed>7.440000</speed>
</trkpt>
<trkpt lat="32.590702057" lon="35.010986328">
  <ele>90.557251</ele>
  <time>2011-10-25T20:15:13Z</time>
  <speed>7.800000</speed>
</trkpt>
<trkpt lat="32.590774536" lon="35.010990143">
  <ele>89.401001</ele>
  <time>2011-10-25T20:15:14Z</time>
  <speed>8.200000</speed>
</trkpt>
<trkpt lat="32.590843201" lon="35.011005402">
  <ele>87.572876</ele>
  <time>2011-10-25T20:15:15Z</time>
  <speed>8.200000</speed>
</trkpt>
<trkpt lat="32.590919495" lon="35.011024475">
  <ele>85.680298</ele>
  <time>2011-10-25T20:15:16Z</time>
  <speed>8.510000</speed>
</trkpt>
<trkpt lat="32.591003418" lon="35.011024475">
  <ele>85.598267</ele>
  <time>2011-10-25T20:15:17Z</time>
  <speed>8.780000</speed>
</trkpt>
<trkpt lat="32.591083527" lon="35.011016846">
  <ele>84.594360</ele>
  <time>2011-10-25T20:15:18Z</time>
  <speed>8.470000</speed>
</trkpt>
<trkpt lat="32.591159821" lon="35.011020660">
  <ele>83.727173</ele>
  <time>2011-10-25T20:15:19Z</time>
  <speed>8.270000</speed>
</trkpt>
<trkpt lat="32.591239929" lon="35.011009216">
  <ele>82.447876</ele>
  <time>2011-10-25T20:15:20Z</time>
  <speed>8.800000</speed>
</trkpt>
<trkpt lat="32.591320038" lon="35.010997772">
  <ele>81.289673</ele>
  <time>2011-10-25T20:15:21Z</time>
  <speed>8.720000</speed>
</trkpt>
<trkpt lat="32.591396332" lon="35.010982513">
  <ele>79.781860</ele>
  <time>2011-10-25T20:15:22Z</time>
  <speed>7.980000</speed>
</trkpt>
<trkpt lat="32.591468811" lon="35.010967255">
  <ele>78.195923</ele>
  <time>2011-10-25T20:15:23Z</time>
  <speed>8.010000</speed>
</trkpt>
<trkpt lat="32.591533661" lon="35.010948181">
  <ele>76.162720</ele>
  <time>2011-10-25T20:15:24Z</time>
  <speed>7.440000</speed>
</trkpt>
<trkpt lat="32.591602325" lon="35.010936737">
  <ele>74.942017</ele>
  <time>2011-10-25T20:15:25Z</time>
  <speed>7.950000</speed>
</trkpt>
<trkpt lat="32.591674805" lon="35.010925293">
  <ele>73.754517</ele>
  <time>2011-10-25T20:15:26Z</time>
  <speed>7.750000</speed>
</trkpt>
<trkpt lat="32.591735840" lon="35.010913849">
  <ele>73.115845</ele>
  <time>2011-10-25T20:15:27Z</time>
  <speed>6.800000</speed>
</trkpt>
<trkpt lat="32.591796875" lon="35.010913849">
  <ele>72.744751</ele>
  <time>2011-10-25T20:15:28Z</time>
  <speed>6.600000</speed>
</trkpt>
<trkpt lat="32.591854095" lon="35.010894775">
  <ele>71.785767</ele>
  <time>2011-10-25T20:15:29Z</time>
  <speed>5.800000</speed>
</trkpt>
<trkpt lat="32.591903687" lon="35.010871887">
  <ele>71.498657</ele>
  <time>2011-10-25T20:15:30Z</time>
  <speed>5.870000</speed>
</trkpt>
<trkpt lat="32.591964722" lon="35.010841370">
  <ele>71.004517</ele>
  <time>2011-10-25T20:15:31Z</time>
  <speed>6.150000</speed>
</trkpt>
<trkpt lat="32.592018127" lon="35.010803223">
  <ele>70.545532</ele>
  <time>2011-10-25T20:15:32Z</time>
  <speed>6.260000</speed>
</trkpt>
<trkpt lat="32.592075348" lon="35.010765076">
  <ele>70.082642</ele>
  <time>2011-10-25T20:15:33Z</time>
  <speed>6.400000</speed>
</trkpt>
<trkpt lat="32.592128754" lon="35.010734558">
  <ele>69.783813</ele>
  <time>2011-10-25T20:15:34Z</time>
  <speed>6.320000</speed>
</trkpt>
<trkpt lat="32.592182159" lon="35.010704041">
  <ele>68.463501</ele>
  <time>2011-10-25T20:15:35Z</time>
  <speed>5.990000</speed>
</trkpt>
<trkpt lat="32.592227936" lon="35.010662079">
  <ele>68.109985</ele>
  <time>2011-10-25T20:15:36Z</time>
  <speed>5.350000</speed>
</trkpt>
<trkpt lat="32.592269897" lon="35.010639191">
  <ele>67.408813</ele>
  <time>2011-10-25T20:15:37Z</time>
  <speed>4.670000</speed>
</trkpt>
<trkpt lat="32.592315674" lon="35.010604858">
  <ele>66.363892</ele>
  <time>2011-10-25T20:15:37Z</time>
  <speed>5.570000</speed>
</trkpt>
<trkpt lat="32.592361450" lon="35.010570526">
  <ele>65.797485</ele>
  <time>2011-10-25T20:15:39Z</time>
  <speed>5.600000</speed>
</trkpt>
<trkpt lat="32.592399597" lon="35.010524750">
  <ele>64.750610</ele>
  <time>2011-10-25T20:15:40Z</time>
  <speed>5.200000</speed>
</trkpt>
<trkpt lat="32.592441559" lon="35.010486603">
  <ele>64.332642</ele>
  <time>2011-10-25T20:15:41Z</time>
  <speed>6.130000</speed>
</trkpt>
<trkpt lat="32.592483521" lon="35.010440826">
  <ele>63.159485</ele>
  <time>2011-10-25T20:15:42Z</time>
  <speed>6.080000</speed>
</trkpt>
<trkpt lat="32.592514038" lon="35.010387421">
  <ele>62.367493</ele>
  <time>2011-10-25T20:15:43Z</time>
  <speed>5.920000</speed>
</trkpt>
<trkpt lat="32.592540741" lon="35.010334015">
  <ele>61.596008</ele>
  <time>2011-10-25T20:15:44Z</time>
  <speed>5.540000</speed>
</trkpt>
<trkpt lat="32.592567444" lon="35.010272980">
  <ele>60.603821</ele>
  <time>2011-10-25T20:15:45Z</time>
  <speed>5.900000</speed>
</trkpt>
<trkpt lat="32.592594147" lon="35.010208130">
  <ele>60.017883</ele>
  <time>2011-10-25T20:15:46Z</time>
  <speed>6.560000</speed>
</trkpt>
<trkpt lat="32.592620850" lon="35.010139465">
  <ele>59.589172</ele>
  <time>2011-10-25T20:15:47Z</time>
  <speed>6.340000</speed>
</trkpt>
<trkpt lat="32.592643738" lon="35.010074615">
  <ele>58.716125</ele>
  <time>2011-10-25T20:15:48Z</time>
  <speed>6.220000</speed>
</trkpt>
<trkpt lat="32.592678070" lon="35.010009766">
  <ele>59.013977</ele>
  <time>2011-10-25T20:15:49Z</time>
  <speed>5.800000</speed>
</trkpt>
<trkpt lat="32.592697144" lon="35.009944916">
  <ele>59.335266</ele>
  <time>2011-10-25T20:15:50Z</time>
  <speed>5.530000</speed>
</trkpt>
<trkpt lat="32.592708588" lon="35.009868622">
  <ele>59.404602</ele>
  <time>2011-10-25T20:15:51Z</time>
  <speed>5.870000</speed>
</trkpt>
<trkpt lat="32.592723846" lon="35.009807587">
  <ele>58.998352</ele>
  <time>2011-10-25T20:15:52Z</time>
  <speed>5.590000</speed>
</trkpt>
<trkpt lat="32.592731476" lon="35.009746552">
  <ele>58.398743</ele>
  <time>2011-10-25T20:15:53Z</time>
  <speed>5.790000</speed>
</trkpt>
<trkpt lat="32.592739105" lon="35.009681702">
  <ele>58.008118</ele>
  <time>2011-10-25T20:15:54Z</time>
  <speed>5.680000</speed>
</trkpt>
<trkpt lat="32.592746735" lon="35.009616852">
  <ele>57.520813</ele>
  <time>2011-10-25T20:15:55Z</time>
  <speed>5.770000</speed>
</trkpt>
<trkpt lat="32.592754364" lon="35.009552002">
  <ele>56.946594</ele>
  <time>2011-10-25T20:15:56Z</time>
  <speed>5.900000</speed>
</trkpt>
<trkpt lat="32.592769623" lon="35.009483337">
  <ele>56.791321</ele>
  <time>2011-10-25T20:15:57Z</time>
  <speed>5.650000</speed>
</trkpt>
<trkpt lat="32.592781067" lon="35.009422302">
  <ele>56.159485</ele>
  <time>2011-10-25T20:15:58Z</time>
  <speed>6.120000</speed>
</trkpt>
<trkpt lat="32.592807770" lon="35.009334564">
  <ele>57.038391</ele>
  <time>2011-10-25T20:15:59Z</time>
  <speed>6.220000</speed>
</trkpt>
<trkpt lat="32.592823029" lon="35.009262085">
  <ele>56.810852</ele>
  <time>2011-10-25T20:16:00Z</time>
  <speed>6.410000</speed>
</trkpt>
<trkpt lat="32.592834473" lon="35.009193420">
  <ele>56.935852</ele>
  <time>2011-10-25T20:16:01Z</time>
  <speed>6.170000</speed>
</trkpt>
<trkpt lat="32.592834473" lon="35.009128571">
  <ele>56.901672</ele>
  <time>2011-10-25T20:16:02Z</time>
  <speed>5.950000</speed>
</trkpt>
<trkpt lat="32.592830658" lon="35.009059906">
  <ele>56.628235</ele>
  <time>2011-10-25T20:16:03Z</time>
  <speed>6.120000</speed>
</trkpt>
<trkpt lat="32.592823029" lon="35.008987427">
  <ele>56.323547</ele>
  <time>2011-10-25T20:16:04Z</time>
  <speed>6.110000</speed>
</trkpt>
<trkpt lat="32.592815399" lon="35.008911133">
  <ele>56.149719</ele>
  <time>2011-10-25T20:16:05Z</time>
  <speed>6.240000</speed>
</trkpt>
<trkpt lat="32.592807770" lon="35.008842468">
  <ele>55.969055</ele>
  <time>2011-10-25T20:16:06Z</time>
  <speed>5.820000</speed>
</trkpt>
<trkpt lat="32.592792511" lon="35.008781433">
  <ele>55.889954</ele>
  <time>2011-10-25T20:16:07Z</time>
  <speed>6.440000</speed>
</trkpt>
<trkpt lat="32.592773438" lon="35.008701324">
  <ele>55.977844</ele>
  <time>2011-10-25T20:16:08Z</time>
  <speed>6.400000</speed>
</trkpt>
<trkpt lat="32.592761993" lon="35.008628845">
  <ele>56.107727</ele>
  <time>2011-10-25T20:16:09Z</time>
  <speed>6.280000</speed>
</trkpt>
<trkpt lat="32.592742920" lon="35.008560181">
  <ele>56.443665</ele>
  <time>2011-10-25T20:16:10Z</time>
  <speed>6.180000</speed>
</trkpt>
<trkpt lat="32.592727661" lon="35.008487701">
  <ele>56.646790</ele>
  <time>2011-10-25T20:16:11Z</time>
  <speed>6.070000</speed>
</trkpt>
<trkpt lat="32.592720032" lon="35.008434296">
  <ele>56.007141</ele>
  <time>2011-10-25T20:16:12Z</time>
  <speed>6.010000</speed>
</trkpt>
<trkpt lat="32.592700958" lon="35.008365631">
  <ele>55.828430</ele>
  <time>2011-10-25T20:16:13Z</time>
  <speed>6.110000</speed>
</trkpt>
<trkpt lat="32.592678070" lon="35.008304596">
  <ele>55.686829</ele>
  <time>2011-10-25T20:16:14Z</time>
  <speed>5.630000</speed>
</trkpt>
<trkpt lat="32.592655182" lon="35.008255005">
  <ele>55.652649</ele>
  <time>2011-10-25T20:16:15Z</time>
  <speed>4.710000</speed>
</trkpt>
<trkpt lat="32.592636108" lon="35.008205414">
  <ele>55.557922</ele>
  <time>2011-10-25T20:16:16Z</time>
  <speed>4.650000</speed>
</trkpt>
<trkpt lat="32.592609406" lon="35.008152008">
  <ele>55.450500</ele>
  <time>2011-10-25T20:16:17Z</time>
  <speed>5.590000</speed>
</trkpt>
<trkpt lat="32.592578888" lon="35.008102417">
  <ele>55.532532</ele>
  <time>2011-10-25T20:16:18Z</time>
  <speed>5.400000</speed>
</trkpt>
<trkpt lat="32.592544556" lon="35.008045197">
  <ele>55.954407</ele>
  <time>2011-10-25T20:16:19Z</time>
  <speed>5.440000</speed>
</trkpt>
<trkpt lat="32.592517853" lon="35.007995605">
  <ele>55.982727</ele>
  <time>2011-10-25T20:16:20Z</time>
  <speed>4.940000</speed>
</trkpt>
<trkpt lat="32.592494965" lon="35.007953644">
  <ele>55.813782</ele>
  <time>2011-10-25T20:16:21Z</time>
  <speed>4.490000</speed>
</trkpt>
<trkpt lat="32.592468262" lon="35.007919312">
  <ele>55.626282</ele>
  <time>2011-10-25T20:16:22Z</time>
  <speed>3.960000</speed>
</trkpt>
<trkpt lat="32.592441559" lon="35.007888794">
  <ele>55.477844</ele>
  <time>2011-10-25T20:16:23Z</time>
  <speed>4.170000</speed>
</trkpt>
<trkpt lat="32.592418671" lon="35.007862091">
  <ele>55.499329</ele>
  <time>2011-10-25T20:16:24Z</time>
  <speed>3.970000</speed>
</trkpt>
<trkpt lat="32.592391968" lon="35.007835388">
  <ele>55.642883</ele>
  <time>2011-10-25T20:16:25Z</time>
  <speed>4.230000</speed>
</trkpt>
<trkpt lat="32.592361450" lon="35.007804871">
  <ele>54.978821</ele>
  <time>2011-10-25T20:16:26Z</time>
  <speed>4.320000</speed>
</trkpt>
<trkpt lat="32.592330933" lon="35.007774353">
  <ele>55.017883</ele>
  <time>2011-10-25T20:16:27Z</time>
  <speed>4.410000</speed>
</trkpt>
<trkpt lat="32.592304230" lon="35.007740021">
  <ele>55.355774</ele>
  <time>2011-10-25T20:16:28Z</time>
  <speed>4.200000</speed>
</trkpt>
<trkpt lat="32.592281342" lon="35.007701874">
  <ele>55.343079</ele>
  <time>2011-10-25T20:16:29Z</time>
  <speed>4.200000</speed>
</trkpt>
<trkpt lat="32.592254639" lon="35.007671356">
  <ele>55.856750</ele>
  <time>2011-10-25T20:16:30Z</time>
  <speed>4.490000</speed>
</trkpt>
<trkpt lat="32.592224121" lon="35.007629395">
  <ele>56.839172</ele>
  <time>2011-10-25T20:16:31Z</time>
  <speed>3.710000</speed>
</trkpt>
<trkpt lat="32.592197418" lon="35.007595062">
  <ele>57.067688</ele>
  <time>2011-10-25T20:16:32Z</time>
  <speed>3.600000</speed>
</trkpt>
<trkpt lat="32.592178345" lon="35.007568359">
  <ele>57.515930</ele>
  <time>2011-10-25T20:16:33Z</time>
  <speed>3.430000</speed>
</trkpt>
<trkpt lat="32.592159271" lon="35.007541656">
  <ele>57.219055</ele>
  <time>2011-10-25T20:16:34Z</time>
  <speed>3.420000</speed>
</trkpt>
<trkpt lat="32.592140198" lon="35.007514954">
  <ele>57.716125</ele>
  <time>2011-10-25T20:16:35Z</time>
  <speed>3.410000</speed>
</trkpt>
<trkpt lat="32.592113495" lon="35.007495880">
  <ele>58.385071</ele>
  <time>2011-10-25T20:16:36Z</time>
  <speed>3.480000</speed>
</trkpt>
<trkpt lat="32.592082977" lon="35.007476807">
  <ele>59.166321</ele>
  <time>2011-10-25T20:16:37Z</time>
  <speed>3.460000</speed>
</trkpt>
<trkpt lat="32.592048645" lon="35.007461548">
  <ele>59.302063</ele>
  <time>2011-10-25T20:16:38Z</time>
  <speed>3.410000</speed>
</trkpt>
<trkpt lat="32.592018127" lon="35.007446289">
  <ele>58.842102</ele>
  <time>2011-10-25T20:16:39Z</time>
  <speed>3.430000</speed>
</trkpt>
<trkpt lat="32.591983795" lon="35.007434845">
  <ele>59.670227</ele>
  <time>2011-10-25T20:16:40Z</time>
  <speed>3.540000</speed>
</trkpt>
<trkpt lat="32.591953278" lon="35.007423401">
  <ele>59.155579</ele>
  <time>2011-10-25T20:16:41Z</time>
  <speed>3.570000</speed>
</trkpt>
<trkpt lat="32.591926575" lon="35.007408142">
  <ele>58.886047</ele>
  <time>2011-10-25T20:16:42Z</time>
  <speed>3.710000</speed>
</trkpt>
<trkpt lat="32.591896057" lon="35.007392883">
  <ele>59.234680</ele>
  <time>2011-10-25T20:16:43Z</time>
  <speed>3.550000</speed>
</trkpt>
<trkpt lat="32.591865540" lon="35.007373810">
  <ele>59.355774</ele>
  <time>2011-10-25T20:16:44Z</time>
  <speed>3.840000</speed>
</trkpt>
<trkpt lat="32.591831207" lon="35.007358551">
  <ele>59.173157</ele>
  <time>2011-10-25T20:16:45Z</time>
  <speed>3.770000</speed>
</trkpt>
<trkpt lat="32.591800690" lon="35.007343292">
  <ele>59.052063</ele>
  <time>2011-10-25T20:16:46Z</time>
  <speed>3.640000</speed>
</trkpt>
<trkpt lat="32.591770172" lon="35.007331848">
  <ele>58.913391</ele>
  <time>2011-10-25T20:16:47Z</time>
  <speed>3.640000</speed>
</trkpt>
<trkpt lat="32.591739655" lon="35.007320404">
  <ele>59.343079</ele>
  <time>2011-10-25T20:16:48Z</time>
  <speed>3.670000</speed>
</trkpt>
<trkpt lat="32.591709137" lon="35.007312775">
  <ele>58.967102</ele>
  <time>2011-10-25T20:16:49Z</time>
  <speed>3.800000</speed>
</trkpt>
<trkpt lat="32.591674805" lon="35.007301331">
  <ele>59.260071</ele>
  <time>2011-10-25T20:16:50Z</time>
  <speed>3.850000</speed>
</trkpt>
<trkpt lat="32.591640472" lon="35.007293701">
  <ele>59.245422</ele>
  <time>2011-10-25T20:16:51Z</time>
  <speed>3.230000</speed>
</trkpt>
<trkpt lat="32.591609955" lon="35.007286072">
  <ele>59.425110</ele>
  <time>2011-10-25T20:16:52Z</time>
  <speed>3.380000</speed>
</trkpt>
<trkpt lat="32.591579437" lon="35.007282257">
  <ele>59.125305</ele>
  <time>2011-10-25T20:16:53Z</time>
  <speed>3.090000</speed>
</trkpt>
<trkpt lat="32.591552734" lon="35.007274628">
  <ele>59.486633</ele>
  <time>2011-10-25T20:16:54Z</time>
  <speed>3.320000</speed>
</trkpt>
<trkpt lat="32.591522217" lon="35.007270813">
  <ele>59.849915</ele>
  <time>2011-10-25T20:16:55Z</time>
  <speed>3.350000</speed>
</trkpt>
<trkpt lat="32.591487885" lon="35.007266998">
  <ele>59.755188</ele>
  <time>2011-10-25T20:16:56Z</time>
  <speed>3.420000</speed>
</trkpt>
<trkpt lat="32.591445923" lon="35.007278442">
  <ele>60.738586</ele>
  <time>2011-10-25T20:16:57Z</time>
  <speed>3.590000</speed>
</trkpt>
<trkpt lat="32.591407776" lon="35.007286072">
  <ele>61.672180</ele>
  <time>2011-10-25T20:16:58Z</time>
  <speed>3.810000</speed>
</trkpt>
<trkpt lat="32.591369629" lon="35.007293701">
  <ele>62.217102</ele>
  <time>2011-10-25T20:16:59Z</time>
  <speed>3.960000</speed>
</trkpt>
<trkpt lat="32.591323853" lon="35.007293701">
  <ele>61.652649</ele>
  <time>2011-10-25T20:17:00Z</time>
  <speed>4.480000</speed>
</trkpt>
<trkpt lat="32.591281891" lon="35.007282257">
  <ele>60.667297</ele>
  <time>2011-10-25T20:17:01Z</time>
  <speed>4.090000</speed>
</trkpt>
<trkpt lat="32.591243744" lon="35.007266998">
  <ele>60.184875</ele>
  <time>2011-10-25T20:17:02Z</time>
  <speed>3.930000</speed>
</trkpt>
<trkpt lat="32.591205597" lon="35.007259369">
  <ele>59.969055</ele>
  <time>2011-10-25T20:17:03Z</time>
  <speed>3.760000</speed>
</trkpt>
<trkpt lat="32.591175079" lon="35.007259369">
  <ele>59.366516</ele>
  <time>2011-10-25T20:17:04Z</time>
  <speed>3.140000</speed>
</trkpt>
<trkpt lat="32.591148376" lon="35.007244110">
  <ele>59.557922</ele>
  <time>2011-10-25T20:17:05Z</time>
  <speed>3.060000</speed>
</trkpt>
<trkpt lat="32.591121674" lon="35.007232666">
  <ele>58.740540</ele>
  <time>2011-10-25T20:17:06Z</time>
  <speed>3.160000</speed>
</trkpt>
<trkpt lat="32.591094971" lon="35.007217407">
  <ele>58.413391</ele>
  <time>2011-10-25T20:17:07Z</time>
  <speed>3.080000</speed>
</trkpt>
<trkpt lat="32.591072083" lon="35.007194519">
  <ele>58.120422</ele>
  <time>2011-10-25T20:17:08Z</time>
  <speed>3.470000</speed>
</trkpt>
<trkpt lat="32.591049194" lon="35.007167816">
  <ele>58.119446</ele>
  <time>2011-10-25T20:17:09Z</time>
  <speed>3.410000</speed>
</trkpt>
<trkpt lat="32.591026306" lon="35.007137299">
  <ele>57.956360</ele>
  <time>2011-10-25T20:17:10Z</time>
  <speed>3.490000</speed>
</trkpt>
<trkpt lat="32.590999603" lon="35.007106781">
  <ele>58.086243</ele>
  <time>2011-10-25T20:17:11Z</time>
  <speed>3.730000</speed>
</trkpt>
<trkpt lat="32.590972900" lon="35.007072449">
  <ele>58.768860</ele>
  <time>2011-10-25T20:17:12Z</time>
  <speed>3.540000</speed>
</trkpt>
<trkpt lat="32.590957642" lon="35.007041931">
  <ele>58.747375</ele>
  <time>2011-10-25T20:17:13Z</time>
  <speed>3.230000</speed>
</trkpt>
<trkpt lat="32.590953827" lon="35.007011414">
  <ele>58.493469</ele>
  <time>2011-10-25T20:17:14Z</time>
  <speed>3.380000</speed>
</trkpt>
<trkpt lat="32.590942383" lon="35.006973267">
  <ele>58.530579</ele>
  <time>2011-10-25T20:17:15Z</time>
  <speed>3.250000</speed>
</trkpt>
<trkpt lat="32.590938568" lon="35.006927490">
  <ele>58.964172</ele>
  <time>2011-10-25T20:17:16Z</time>
  <speed>3.230000</speed>
</trkpt>
<trkpt lat="32.590942383" lon="35.006889343">
  <ele>59.573547</ele>
  <time>2011-10-25T20:17:17Z</time>
  <speed>3.310000</speed>
</trkpt>
<trkpt lat="32.590950012" lon="35.006847382">
  <ele>60.085266</ele>
  <time>2011-10-25T20:17:18Z</time>
  <speed>3.660000</speed>
</trkpt>
<trkpt lat="32.590976715" lon="35.006820679">
  <ele>59.344055</ele>
  <time>2011-10-25T20:17:19Z</time>
  <speed>3.680000</speed>
</trkpt>
<trkpt lat="32.591011047" lon="35.006801605">
  <ele>58.503235</ele>
  <time>2011-10-25T20:17:20Z</time>
  <speed>3.820000</speed>
</trkpt>
<trkpt lat="32.591041565" lon="35.006782532">
  <ele>58.756165</ele>
  <time>2011-10-25T20:17:21Z</time>
  <speed>4.340000</speed>
</trkpt>
<trkpt lat="32.591079712" lon="35.006759644">
  <ele>59.157532</ele>
  <time>2011-10-25T20:17:22Z</time>
  <speed>4.310000</speed>
</trkpt>
<trkpt lat="32.591117859" lon="35.006740570">
  <ele>58.799133</ele>
  <time>2011-10-25T20:17:23Z</time>
  <speed>4.830000</speed>
</trkpt>
<trkpt lat="32.591159821" lon="35.006710052">
  <ele>58.926086</ele>
  <time>2011-10-25T20:17:24Z</time>
  <speed>4.940000</speed>
</trkpt>
<trkpt lat="32.591197968" lon="35.006679535">
  <ele>58.989563</ele>
  <time>2011-10-25T20:17:25Z</time>
  <speed>5.040000</speed>
</trkpt>
<trkpt lat="32.591243744" lon="35.006645203">
  <ele>58.701477</ele>
  <time>2011-10-25T20:17:26Z</time>
  <speed>5.680000</speed>
</trkpt>
<trkpt lat="32.591285706" lon="35.006614685">
  <ele>58.083313</ele>
  <time>2011-10-25T20:17:27Z</time>
  <speed>6.150000</speed>
</trkpt>
<trkpt lat="32.591335297" lon="35.006572723">
  <ele>57.614563</ele>
  <time>2011-10-25T20:17:28Z</time>
  <speed>6.720000</speed>
</trkpt>
<trkpt lat="32.591388702" lon="35.006526947">
  <ele>57.566711</ele>
  <time>2011-10-25T20:17:29Z</time>
  <speed>6.700000</speed>
</trkpt>
<trkpt lat="32.591445923" lon="35.006481171">
  <ele>57.470032</ele>
  <time>2011-10-25T20:17:30Z</time>
  <speed>6.730000</speed>
</trkpt>
<trkpt lat="32.591495514" lon="35.006446838">
  <ele>57.236633</ele>
  <time>2011-10-25T20:17:31Z</time>
  <speed>6.810000</speed>
</trkpt>
<trkpt lat="32.591545105" lon="35.006404877">
  <ele>56.627258</ele>
  <time>2011-10-25T20:17:32Z</time>
  <speed>6.870000</speed>
</trkpt>
<trkpt lat="32.591602325" lon="35.006362915">
  <ele>56.432922</ele>
  <time>2011-10-25T20:17:33Z</time>
  <speed>7.060000</speed>
</trkpt>
<trkpt lat="32.591659546" lon="35.006320953">
  <ele>56.298157</ele>
  <time>2011-10-25T20:17:34Z</time>
  <speed>7.080000</speed>
</trkpt>
<trkpt lat="32.591709137" lon="35.006282806">
  <ele>56.584290</ele>
  <time>2011-10-25T20:17:35Z</time>
  <speed>7.010000</speed>
</trkpt>
<trkpt lat="32.591758728" lon="35.006237030">
  <ele>56.447571</ele>
  <time>2011-10-25T20:17:36Z</time>
  <speed>6.840000</speed>
</trkpt>
<trkpt lat="32.591804504" lon="35.006183624">
  <ele>56.374329</ele>
  <time>2011-10-25T20:17:37Z</time>
  <speed>6.870000</speed>
</trkpt>
<trkpt lat="32.591838837" lon="35.006111145">
  <ele>56.763977</ele>
  <time>2011-10-25T20:17:38Z</time>
  <speed>7.200000</speed>
</trkpt>
<trkpt lat="32.591857910" lon="35.006042480">
  <ele>56.442688</ele>
  <time>2011-10-25T20:17:39Z</time>
  <speed>6.540000</speed>
</trkpt>
<trkpt lat="32.591861725" lon="35.005954742">
  <ele>55.707336</ele>
  <time>2011-10-25T20:17:40Z</time>
  <speed>7.400000</speed>
</trkpt>
<trkpt lat="32.591838837" lon="35.005870819">
  <ele>56.316711</ele>
  <time>2011-10-25T20:17:41Z</time>
  <speed>7.060000</speed>
</trkpt>
<trkpt lat="32.591823578" lon="35.005802155">
  <ele>55.904602</ele>
  <time>2011-10-25T20:17:42Z</time>
  <speed>7.080000</speed>
</trkpt>
<trkpt lat="32.591812134" lon="35.005733490">
  <ele>55.883118</ele>
  <time>2011-10-25T20:17:43Z</time>
  <speed>6.700000</speed>
</trkpt>
<trkpt lat="32.591819763" lon="35.005664825">
  <ele>54.744446</ele>
  <time>2011-10-25T20:17:44Z</time>
  <speed>6.420000</speed>
</trkpt>
<trkpt lat="32.591846466" lon="35.005607605">
  <ele>53.971008</ele>
  <time>2011-10-25T20:17:45Z</time>
  <speed>6.250000</speed>
</trkpt>
<trkpt lat="32.591888428" lon="35.005573273">
  <ele>53.574524</ele>
  <time>2011-10-25T20:17:46Z</time>
  <speed>5.650000</speed>
</trkpt>
<trkpt lat="32.591930389" lon="35.005561829">
  <ele>53.495422</ele>
  <time>2011-10-25T20:17:47Z</time>
  <speed>3.780000</speed>
</trkpt>
<trkpt lat="32.591964722" lon="35.005561829">
  <ele>53.357727</ele>
  <time>2011-10-25T20:17:48Z</time>
  <speed>3.460000</speed>
</trkpt>
<trkpt lat="32.591995239" lon="35.005561829">
  <ele>53.524719</ele>
  <time>2011-10-25T20:17:49Z</time>
  <speed>3.400000</speed>
</trkpt>
<trkpt lat="32.592025757" lon="35.005561829">
  <ele>53.701477</ele>
  <time>2011-10-25T20:17:50Z</time>
  <speed>3.550000</speed>
</trkpt>
<trkpt lat="32.592052460" lon="35.005561829">
  <ele>54.124329</ele>
  <time>2011-10-25T20:17:51Z</time>
  <speed>2.910000</speed>
</trkpt>
<trkpt lat="32.592102051" lon="35.005558014">
  <ele>53.500305</ele>
  <time>2011-10-25T20:17:53Z</time>
  <speed>3.210000</speed>
</trkpt>
<trkpt lat="32.592136383" lon="35.005550385">
  <ele>52.814758</ele>
  <time>2011-10-25T20:17:54Z</time>
  <speed>3.970000</speed>
</trkpt>
<trkpt lat="32.592170715" lon="35.005542755">
  <ele>53.269836</ele>
  <time>2011-10-25T20:17:55Z</time>
  <speed>3.310000</speed>
</trkpt>
<trkpt lat="32.592220306" lon="35.005527496">
  <ele>54.445618</ele>
  <time>2011-10-25T20:17:56Z</time>
  <speed>3.400000</speed>
</trkpt>
<trkpt lat="32.592250824" lon="35.005523682">
  <ele>53.737610</ele>
  <time>2011-10-25T20:17:57Z</time>
  <speed>3.720000</speed>
</trkpt>
<trkpt lat="32.592288971" lon="35.005516052">
  <ele>53.249329</ele>
  <time>2011-10-25T20:17:58Z</time>
  <speed>3.820000</speed>
</trkpt>
<trkpt lat="32.592330933" lon="35.005496979">
  <ele>53.291321</ele>
  <time>2011-10-25T20:17:59Z</time>
  <speed>4.060000</speed>
</trkpt>
<trkpt lat="32.592365265" lon="35.005485535">
  <ele>53.035461</ele>
  <time>2011-10-25T20:18:00Z</time>
  <speed>4.100000</speed>
</trkpt>
<trkpt lat="32.592411041" lon="35.005470276">
  <ele>52.819641</ele>
  <time>2011-10-25T20:18:01Z</time>
  <speed>3.800000</speed>
</trkpt>
<trkpt lat="32.592449188" lon="35.005455017">
  <ele>54.104797</ele>
  <time>2011-10-25T20:18:02Z</time>
  <speed>3.150000</speed>
</trkpt>
<trkpt lat="32.592483521" lon="35.005443573">
  <ele>53.179993</ele>
  <time>2011-10-25T20:18:03Z</time>
  <speed>3.200000</speed>
</trkpt>
<trkpt lat="32.592517853" lon="35.005435944">
  <ele>53.270813</ele>
  <time>2011-10-25T20:18:04Z</time>
  <speed>3.520000</speed>
</trkpt>
<trkpt lat="32.592552185" lon="35.005413055">
  <ele>53.167297</ele>
  <time>2011-10-25T20:18:05Z</time>
  <speed>4.630000</speed>
</trkpt>
<trkpt lat="32.592594147" lon="35.005390167">
  <ele>53.792297</ele>
  <time>2011-10-25T20:18:06Z</time>
  <speed>5.130000</speed>
</trkpt>
<trkpt lat="32.592662811" lon="35.005371094">
  <ele>55.871399</ele>
  <time>2011-10-25T20:18:07Z</time>
  <speed>5.220000</speed>
</trkpt>
<trkpt lat="32.592720032" lon="35.005352020">
  <ele>58.312805</ele>
  <time>2011-10-25T20:18:08Z</time>
  <speed>4.250000</speed>
</trkpt>
<trkpt lat="32.592754364" lon="35.005336761">
  <ele>58.803040</ele>
  <time>2011-10-25T20:18:09Z</time>
  <speed>3.400000</speed>
</trkpt>
<trkpt lat="32.592784882" lon="35.005321503">
  <ele>59.761047</ele>
  <time>2011-10-25T20:18:10Z</time>
  <speed>3.000000</speed>
</trkpt>
<trkpt lat="32.592807770" lon="35.005302429">
  <ele>59.728821</ele>
  <time>2011-10-25T20:18:11Z</time>
  <speed>2.870000</speed>
</trkpt>
<trkpt lat="32.592838287" lon="35.005287170">
  <ele>60.221008</ele>
  <time>2011-10-25T20:18:12Z</time>
  <speed>3.340000</speed>
</trkpt>
<trkpt lat="32.592868805" lon="35.005268097">
  <ele>60.248352</ele>
  <time>2011-10-25T20:18:13Z</time>
  <speed>3.640000</speed>
</trkpt>
<trkpt lat="32.592895508" lon="35.005249023">
  <ele>59.800110</ele>
  <time>2011-10-25T20:18:14Z</time>
  <speed>3.760000</speed>
</trkpt>
<trkpt lat="32.592929840" lon="35.005229950">
  <ele>59.349915</ele>
  <time>2011-10-25T20:18:15Z</time>
  <speed>3.810000</speed>
</trkpt>
<trkpt lat="32.592960358" lon="35.005214691">
  <ele>59.775696</ele>
  <time>2011-10-25T20:18:16Z</time>
  <speed>4.090000</speed>
</trkpt>
<trkpt lat="32.592994690" lon="35.005207062">
  <ele>59.766907</ele>
  <time>2011-10-25T20:18:17Z</time>
  <speed>4.040000</speed>
</trkpt>
<trkpt lat="32.593032837" lon="35.005195618">
  <ele>59.801086</ele>
  <time>2011-10-25T20:18:18Z</time>
  <speed>4.340000</speed>
</trkpt>
<trkpt lat="32.593070984" lon="35.005176544">
  <ele>59.811829</ele>
  <time>2011-10-25T20:18:19Z</time>
  <speed>4.320000</speed>
</trkpt>
<trkpt lat="32.593105316" lon="35.005161285">
  <ele>59.937805</ele>
  <time>2011-10-25T20:18:20Z</time>
  <speed>4.240000</speed>
</trkpt>
<trkpt lat="32.593139648" lon="35.005149841">
  <ele>59.747375</ele>
  <time>2011-10-25T20:18:21Z</time>
  <speed>4.180000</speed>
</trkpt>
<trkpt lat="32.593177795" lon="35.005134583">
  <ele>60.054016</ele>
  <time>2011-10-25T20:18:22Z</time>
  <speed>3.930000</speed>
</trkpt>
<trkpt lat="32.593212128" lon="35.005115509">
  <ele>59.764954</ele>
  <time>2011-10-25T20:18:23Z</time>
  <speed>3.880000</speed>
</trkpt>
<trkpt lat="32.593250275" lon="35.005100250">
  <ele>60.215149</ele>
  <time>2011-10-25T20:18:24Z</time>
  <speed>4.010000</speed>
</trkpt>
<trkpt lat="32.593280792" lon="35.005084991">
  <ele>60.396790</ele>
  <time>2011-10-25T20:18:25Z</time>
  <speed>4.080000</speed>
</trkpt>
<trkpt lat="32.593315125" lon="35.005062103">
  <ele>60.302063</ele>
  <time>2011-10-25T20:18:26Z</time>
  <speed>4.100000</speed>
</trkpt>
<trkpt lat="32.593349457" lon="35.005046844">
  <ele>60.305969</ele>
  <time>2011-10-25T20:18:27Z</time>
  <speed>4.040000</speed>
</trkpt>
<trkpt lat="32.593383789" lon="35.005027771">
  <ele>60.004211</ele>
  <time>2011-10-25T20:18:28Z</time>
  <speed>4.160000</speed>
</trkpt>
<trkpt lat="32.593414307" lon="35.005012512">
  <ele>59.806946</ele>
  <time>2011-10-25T20:18:29Z</time>
  <speed>4.080000</speed>
</trkpt>
<trkpt lat="32.593448639" lon="35.004993439">
  <ele>59.770813</ele>
  <time>2011-10-25T20:18:30Z</time>
  <speed>4.190000</speed>
</trkpt>
<trkpt lat="32.593482971" lon="35.004974365">
  <ele>59.471008</ele>
  <time>2011-10-25T20:18:31Z</time>
  <speed>3.940000</speed>
</trkpt>
<trkpt lat="32.593517303" lon="35.004959106">
  <ele>60.251282</ele>
  <time>2011-10-25T20:18:32Z</time>
  <speed>3.980000</speed>
</trkpt>
<trkpt lat="32.593551636" lon="35.004943848">
  <ele>60.700500</ele>
  <time>2011-10-25T20:18:33Z</time>
  <speed>4.000000</speed>
</trkpt>
<trkpt lat="32.593582153" lon="35.004924774">
  <ele>60.656555</ele>
  <time>2011-10-25T20:18:34Z</time>
  <speed>3.730000</speed>
</trkpt>
<trkpt lat="32.593612671" lon="35.004905701">
  <ele>60.979797</ele>
  <time>2011-10-25T20:18:35Z</time>
  <speed>3.540000</speed>
</trkpt>
<trkpt lat="32.593639374" lon="35.004890442">
  <ele>61.720032</ele>
  <time>2011-10-25T20:18:36Z</time>
  <speed>3.530000</speed>
</trkpt>
<trkpt lat="32.593669891" lon="35.004882813">
  <ele>61.650696</ele>
  <time>2011-10-25T20:18:37Z</time>
  <speed>3.320000</speed>
</trkpt>
<trkpt lat="32.593696594" lon="35.004871368">
  <ele>61.679016</ele>
  <time>2011-10-25T20:18:38Z</time>
  <speed>3.240000</speed>
</trkpt>
<trkpt lat="32.593730927" lon="35.004859924">
  <ele>61.554016</ele>
  <time>2011-10-25T20:18:39Z</time>
  <speed>2.840000</speed>
</trkpt>
<trkpt lat="32.593772888" lon="35.004848480">
  <ele>61.129211</ele>
  <time>2011-10-25T20:18:41Z</time>
  <speed>2.240000</speed>
</trkpt>
<trkpt lat="32.593807220" lon="35.004844666">
  <ele>60.498352</ele>
  <time>2011-10-25T20:18:43Z</time>
  <speed>2.110000</speed>
</trkpt>
<trkpt lat="32.593845367" lon="35.004882813">
  <ele>60.380188</ele>
  <time>2011-10-25T20:18:45Z</time>
  <speed>2.500000</speed>
</trkpt>
<trkpt lat="32.593856812" lon="35.004947662">
  <ele>58.762024</ele>
  <time>2011-10-25T20:18:47Z</time>
  <speed>3.510000</speed>
</trkpt>
<trkpt lat="32.593864441" lon="35.004993439">
  <ele>59.546204</ele>
  <time>2011-10-25T20:18:48Z</time>
  <speed>3.300000</speed>
</trkpt>
<trkpt lat="32.593875885" lon="35.005031586">
  <ele>60.236633</ele>
  <time>2011-10-25T20:18:49Z</time>
  <speed>3.590000</speed>
</trkpt>
<trkpt lat="32.593894958" lon="35.005062103">
  <ele>59.817688</ele>
  <time>2011-10-25T20:18:50Z</time>
  <speed>3.540000</speed>
</trkpt>
<trkpt lat="32.593914032" lon="35.005092621">
  <ele>60.152649</ele>
  <time>2011-10-25T20:18:51Z</time>
  <speed>3.200000</speed>
</trkpt>
<trkpt lat="32.593936920" lon="35.005123138">
  <ele>60.422180</ele>
  <time>2011-10-25T20:18:52Z</time>
  <speed>3.230000</speed>
</trkpt>
<trkpt lat="32.593955994" lon="35.005149841">
  <ele>60.518860</ele>
  <time>2011-10-25T20:18:53Z</time>
  <speed>3.360000</speed>
</trkpt>
<trkpt lat="32.593978882" lon="35.005180359">
  <ele>60.604797</ele>
  <time>2011-10-25T20:18:54Z</time>
  <speed>3.830000</speed>
</trkpt>
<trkpt lat="32.593997955" lon="35.005210876">
  <ele>60.462219</ele>
  <time>2011-10-25T20:18:55Z</time>
  <speed>3.530000</speed>
</trkpt>
<trkpt lat="32.594017029" lon="35.005237579">
  <ele>60.052063</ele>
  <time>2011-10-25T20:18:56Z</time>
  <speed>3.470000</speed>
</trkpt>
<trkpt lat="32.594039917" lon="35.005256653">
  <ele>59.682922</ele>
  <time>2011-10-25T20:18:57Z</time>
  <speed>3.640000</speed>
</trkpt>
<trkpt lat="32.594062805" lon="35.005283356">
  <ele>59.535461</ele>
  <time>2011-10-25T20:18:58Z</time>
  <speed>3.660000</speed>
</trkpt>
<trkpt lat="32.594089508" lon="35.005306244">
  <ele>59.766907</ele>
  <time>2011-10-25T20:18:59Z</time>
  <speed>3.710000</speed>
</trkpt>
<trkpt lat="32.594116211" lon="35.005329132">
  <ele>60.076477</ele>
  <time>2011-10-25T20:19:00Z</time>
  <speed>3.600000</speed>
</trkpt>
<trkpt lat="32.594146729" lon="35.005352020">
  <ele>60.068665</ele>
  <time>2011-10-25T20:19:01Z</time>
  <speed>3.580000</speed>
</trkpt>
<trkpt lat="32.594173431" lon="35.005367279">
  <ele>59.749329</ele>
  <time>2011-10-25T20:19:02Z</time>
  <speed>3.570000</speed>
</trkpt>
<trkpt lat="32.594200134" lon="35.005390167">
  <ele>60.637024</ele>
  <time>2011-10-25T20:19:03Z</time>
  <speed>3.590000</speed>
</trkpt>
<trkpt lat="32.594230652" lon="35.005405426">
  <ele>60.607727</ele>
  <time>2011-10-25T20:19:04Z</time>
  <speed>3.620000</speed>
</trkpt>
<trkpt lat="32.594257355" lon="35.005420685">
  <ele>60.940735</ele>
  <time>2011-10-25T20:19:05Z</time>
  <speed>3.780000</speed>
</trkpt>
<trkpt lat="32.594295502" lon="35.005432129">
  <ele>61.499329</ele>
  <time>2011-10-25T20:19:06Z</time>
  <speed>3.890000</speed>
</trkpt>
<trkpt lat="32.594329834" lon="35.005447388">
  <ele>61.974915</ele>
  <time>2011-10-25T20:19:07Z</time>
  <speed>3.830000</speed>
</trkpt>
<trkpt lat="32.594364166" lon="35.005451202">
  <ele>62.860657</ele>
  <time>2011-10-25T20:19:08Z</time>
  <speed>3.880000</speed>
</trkpt>
<trkpt lat="32.594402313" lon="35.005458832">
  <ele>62.574524</ele>
  <time>2011-10-25T20:19:09Z</time>
  <speed>3.780000</speed>
</trkpt>
<trkpt lat="32.594429016" lon="35.005474091">
  <ele>62.732727</ele>
  <time>2011-10-25T20:19:10Z</time>
  <speed>3.430000</speed>
</trkpt>
<trkpt lat="32.594459534" lon="35.005489349">
  <ele>62.621399</ele>
  <time>2011-10-25T20:19:11Z</time>
  <speed>3.300000</speed>
</trkpt>
<trkpt lat="32.594486237" lon="35.005508423">
  <ele>62.336243</ele>
  <time>2011-10-25T20:19:12Z</time>
  <speed>3.510000</speed>
</trkpt>
<trkpt lat="32.594509125" lon="35.005531311">
  <ele>62.453430</ele>
  <time>2011-10-25T20:19:13Z</time>
  <speed>3.520000</speed>
</trkpt>
<trkpt lat="32.594532013" lon="35.005554199">
  <ele>62.347961</ele>
  <time>2011-10-25T20:19:14Z</time>
  <speed>3.450000</speed>
</trkpt>
<trkpt lat="32.594562531" lon="35.005577087">
  <ele>63.516907</ele>
  <time>2011-10-25T20:19:15Z</time>
  <speed>3.620000</speed>
</trkpt>
<trkpt lat="32.594585419" lon="35.005599976">
  <ele>63.617493</ele>
  <time>2011-10-25T20:19:16Z</time>
  <speed>3.320000</speed>
</trkpt>
<trkpt lat="32.594608307" lon="35.005626678">
  <ele>63.302063</ele>
  <time>2011-10-25T20:19:17Z</time>
  <speed>3.480000</speed>
</trkpt>
<trkpt lat="32.594631195" lon="35.005653381">
  <ele>63.454407</ele>
  <time>2011-10-25T20:19:18Z</time>
  <speed>3.640000</speed>
</trkpt>
<trkpt lat="32.594657898" lon="35.005683899">
  <ele>63.895813</ele>
  <time>2011-10-25T20:19:19Z</time>
  <speed>3.660000</speed>
</trkpt>
<trkpt lat="32.594684601" lon="35.005710602">
  <ele>64.502563</ele>
  <time>2011-10-25T20:19:20Z</time>
  <speed>3.750000</speed>
</trkpt>
<trkpt lat="32.594711304" lon="35.005733490">
  <ele>64.422485</ele>
  <time>2011-10-25T20:19:21Z</time>
  <speed>3.980000</speed>
</trkpt>
<trkpt lat="32.594741821" lon="35.005760193">
  <ele>64.326782</ele>
  <time>2011-10-25T20:19:22Z</time>
  <speed>3.800000</speed>
</trkpt>
<trkpt lat="32.594768524" lon="35.005779266">
  <ele>64.918579</ele>
  <time>2011-10-25T20:19:23Z</time>
  <speed>3.720000</speed>
</trkpt>
<trkpt lat="32.594799042" lon="35.005794525">
  <ele>64.930298</ele>
  <time>2011-10-25T20:19:24Z</time>
  <speed>3.360000</speed>
</trkpt>
<trkpt lat="32.594821930" lon="35.005813599">
  <ele>64.688110</ele>
  <time>2011-10-25T20:19:25Z</time>
  <speed>3.350000</speed>
</trkpt>
<trkpt lat="32.594848633" lon="35.005825043">
  <ele>64.658813</ele>
  <time>2011-10-25T20:19:26Z</time>
  <speed>3.470000</speed>
</trkpt>
<trkpt lat="32.594879150" lon="35.005836487">
  <ele>64.295532</ele>
  <time>2011-10-25T20:19:27Z</time>
  <speed>3.510000</speed>
</trkpt>
<trkpt lat="32.594917297" lon="35.005844116">
  <ele>64.652954</ele>
  <time>2011-10-25T20:19:28Z</time>
  <speed>3.540000</speed>
</trkpt>
<trkpt lat="32.594947815" lon="35.005851746">
  <ele>64.514282</ele>
  <time>2011-10-25T20:19:29Z</time>
  <speed>3.650000</speed>
</trkpt>
<trkpt lat="32.594974518" lon="35.005859375">
  <ele>64.928345</ele>
  <time>2011-10-25T20:19:30Z</time>
  <speed>3.420000</speed>
</trkpt>
<trkpt lat="32.595005035" lon="35.005870819">
  <ele>64.836548</ele>
  <time>2011-10-25T20:19:31Z</time>
  <speed>3.450000</speed>
</trkpt>
<trkpt lat="32.595031738" lon="35.005878448">
  <ele>64.885376</ele>
  <time>2011-10-25T20:19:32Z</time>
  <speed>3.440000</speed>
</trkpt>
<trkpt lat="32.595062256" lon="35.005889893">
  <ele>65.238892</ele>
  <time>2011-10-25T20:19:33Z</time>
  <speed>3.240000</speed>
</trkpt>
<trkpt lat="32.595092773" lon="35.005886078">
  <ele>65.596313</ele>
  <time>2011-10-25T20:19:34Z</time>
  <speed>3.140000</speed>
</trkpt>
<trkpt lat="32.595123291" lon="35.005886078">
  <ele>66.111938</ele>
  <time>2011-10-25T20:19:35Z</time>
  <speed>3.270000</speed>
</trkpt>
<trkpt lat="32.595149994" lon="35.005889893">
  <ele>66.574829</ele>
  <time>2011-10-25T20:19:36Z</time>
  <speed>3.070000</speed>
</trkpt>
<trkpt lat="32.595203400" lon="35.005886078">
  <ele>66.557251</ele>
  <time>2011-10-25T20:19:38Z</time>
  <speed>2.780000</speed>
</trkpt>
<trkpt lat="32.595233917" lon="35.005886078">
  <ele>67.371704</ele>
  <time>2011-10-25T20:19:39Z</time>
  <speed>2.360000</speed>
</trkpt>
<trkpt lat="32.595275879" lon="35.005870819">
  <ele>67.262329</ele>
  <time>2011-10-25T20:19:41Z</time>
  <speed>2.670000</speed>
</trkpt>
<trkpt lat="32.595321655" lon="35.005859375">
  <ele>67.238892</ele>
  <time>2011-10-25T20:19:43Z</time>
  <speed>2.740000</speed>
</trkpt>
<trkpt lat="32.595371246" lon="35.005867004">
  <ele>66.727173</ele>
  <time>2011-10-25T20:19:45Z</time>
  <speed>3.060000</speed>
</trkpt>
<trkpt lat="32.595394135" lon="35.005882263">
  <ele>66.854126</ele>
  <time>2011-10-25T20:19:46Z</time>
  <speed>3.110000</speed>
</trkpt>
<trkpt lat="32.595443726" lon="35.005912781">
  <ele>66.756470</ele>
  <time>2011-10-25T20:19:48Z</time>
  <speed>2.970000</speed>
</trkpt>
<trkpt lat="32.595466614" lon="35.005931854">
  <ele>66.912720</ele>
  <time>2011-10-25T20:19:49Z</time>
  <speed>3.110000</speed>
</trkpt>
<trkpt lat="32.595512390" lon="35.005973816">
  <ele>68.162720</ele>
  <time>2011-10-25T20:19:51Z</time>
  <speed>3.190000</speed>
</trkpt>
<trkpt lat="32.595535278" lon="35.005992889">
  <ele>68.026001</ele>
  <time>2011-10-25T20:19:52Z</time>
  <speed>3.030000</speed>
</trkpt>
<trkpt lat="32.595584869" lon="35.006019592">
  <ele>68.473267</ele>
  <time>2011-10-25T20:19:54Z</time>
  <speed>3.400000</speed>
</trkpt>
<trkpt lat="32.595615387" lon="35.006034851">
  <ele>68.658813</ele>
  <time>2011-10-25T20:19:55Z</time>
  <speed>3.480000</speed>
</trkpt>
<trkpt lat="32.595642090" lon="35.006046295">
  <ele>68.283813</ele>
  <time>2011-10-25T20:19:56Z</time>
  <speed>3.530000</speed>
</trkpt>
<trkpt lat="32.595672607" lon="35.006057739">
  <ele>68.076782</ele>
  <time>2011-10-25T20:19:57Z</time>
  <speed>3.540000</speed>
</trkpt>
<trkpt lat="32.595703125" lon="35.006076813">
  <ele>68.315063</ele>
  <time>2011-10-25T20:19:58Z</time>
  <speed>3.620000</speed>
</trkpt>
<trkpt lat="32.595733643" lon="35.006092072">
  <ele>68.828735</ele>
  <time>2011-10-25T20:19:59Z</time>
  <speed>3.600000</speed>
</trkpt>
<trkpt lat="32.595764160" lon="35.006107330">
  <ele>69.076782</ele>
  <time>2011-10-25T20:20:00Z</time>
  <speed>3.550000</speed>
</trkpt>
<trkpt lat="32.595790863" lon="35.006126404">
  <ele>69.240845</ele>
  <time>2011-10-25T20:20:01Z</time>
  <speed>3.600000</speed>
</trkpt>
<trkpt lat="32.595817566" lon="35.006141663">
  <ele>69.371704</ele>
  <time>2011-10-25T20:20:02Z</time>
  <speed>3.490000</speed>
</trkpt>
<trkpt lat="32.595848083" lon="35.006149292">
  <ele>69.141235</ele>
  <time>2011-10-25T20:20:03Z</time>
  <speed>3.760000</speed>
</trkpt>
<trkpt lat="32.595882416" lon="35.006160736">
  <ele>68.988892</ele>
  <time>2011-10-25T20:20:04Z</time>
  <speed>3.570000</speed>
</trkpt>
<trkpt lat="32.595912933" lon="35.006172180">
  <ele>69.215454</ele>
  <time>2011-10-25T20:20:05Z</time>
  <speed>3.660000</speed>
</trkpt>
<trkpt lat="32.595943451" lon="35.006183624">
  <ele>69.486938</ele>
  <time>2011-10-25T20:20:06Z</time>
  <speed>3.630000</speed>
</trkpt>
<trkpt lat="32.595977783" lon="35.006191254">
  <ele>69.873657</ele>
  <time>2011-10-25T20:20:07Z</time>
  <speed>3.630000</speed>
</trkpt>
<trkpt lat="32.596012115" lon="35.006198883">
  <ele>70.264282</ele>
  <time>2011-10-25T20:20:08Z</time>
  <speed>3.670000</speed>
</trkpt>
<trkpt lat="32.596046448" lon="35.006198883">
  <ele>69.686157</ele>
  <time>2011-10-25T20:20:09Z</time>
  <speed>3.410000</speed>
</trkpt>
<trkpt lat="32.596080780" lon="35.006202698">
  <ele>69.942017</ele>
  <time>2011-10-25T20:20:10Z</time>
  <speed>3.440000</speed>
</trkpt>
<trkpt lat="32.596111298" lon="35.006206512">
  <ele>70.197876</ele>
  <time>2011-10-25T20:20:11Z</time>
  <speed>3.780000</speed>
</trkpt>
<trkpt lat="32.596149445" lon="35.006206512">
  <ele>70.201782</ele>
  <time>2011-10-25T20:20:12Z</time>
  <speed>3.580000</speed>
</trkpt>
<trkpt lat="32.596179962" lon="35.006206512">
  <ele>70.580688</ele>
  <time>2011-10-25T20:20:13Z</time>
  <speed>3.640000</speed>
</trkpt>
<trkpt lat="32.596214294" lon="35.006198883">
  <ele>70.535767</ele>
  <time>2011-10-25T20:20:14Z</time>
  <speed>3.250000</speed>
</trkpt>
<trkpt lat="32.596248627" lon="35.006191254">
  <ele>71.668579</ele>
  <time>2011-10-25T20:20:15Z</time>
  <speed>3.160000</speed>
</trkpt>
<trkpt lat="32.596279144" lon="35.006187439">
  <ele>71.854126</ele>
  <time>2011-10-25T20:20:16Z</time>
  <speed>3.340000</speed>
</trkpt>
<trkpt lat="32.596313477" lon="35.006179810">
  <ele>72.043579</ele>
  <time>2011-10-25T20:20:17Z</time>
  <speed>3.410000</speed>
</trkpt>
<trkpt lat="32.596340179" lon="35.006172180">
  <ele>72.289673</ele>
  <time>2011-10-25T20:20:18Z</time>
  <speed>3.270000</speed>
</trkpt>
<trkpt lat="32.596370697" lon="35.006168365">
  <ele>72.455688</ele>
  <time>2011-10-25T20:20:19Z</time>
  <speed>3.440000</speed>
</trkpt>
<trkpt lat="32.596408844" lon="35.006164551">
  <ele>72.859985</ele>
  <time>2011-10-25T20:20:20Z</time>
  <speed>3.380000</speed>
</trkpt>
<trkpt lat="32.596435547" lon="35.006156921">
  <ele>72.213501</ele>
  <time>2011-10-25T20:20:21Z</time>
  <speed>3.140000</speed>
</trkpt>
<trkpt lat="32.596462250" lon="35.006156921">
  <ele>72.692017</ele>
  <time>2011-10-25T20:20:22Z</time>
  <speed>3.160000</speed>
</trkpt>
<trkpt lat="32.596496582" lon="35.006145477">
  <ele>72.901001</ele>
  <time>2011-10-25T20:20:23Z</time>
  <speed>3.300000</speed>
</trkpt>
<trkpt lat="32.596523285" lon="35.006137848">
  <ele>73.207642</ele>
  <time>2011-10-25T20:20:24Z</time>
  <speed>3.160000</speed>
</trkpt>
<trkpt lat="32.596576691" lon="35.006134033">
  <ele>73.215454</ele>
  <time>2011-10-25T20:20:26Z</time>
  <speed>2.860000</speed>
</trkpt>
<trkpt lat="32.596626282" lon="35.006134033">
  <ele>74.012329</ele>
  <time>2011-10-25T20:20:28Z</time>
  <speed>3.300000</speed>
</trkpt>
<trkpt lat="32.596656799" lon="35.006130219">
  <ele>74.024048</ele>
  <time>2011-10-25T20:20:29Z</time>
  <speed>3.100000</speed>
</trkpt>
<trkpt lat="32.596706390" lon="35.006137848">
  <ele>75.512329</ele>
  <time>2011-10-25T20:20:31Z</time>
  <speed>2.960000</speed>
</trkpt>
<trkpt lat="32.596759796" lon="35.006134033">
  <ele>76.002563</ele>
  <time>2011-10-25T20:20:33Z</time>
  <speed>2.860000</speed>
</trkpt>
<trkpt lat="32.596809387" lon="35.006130219">
  <ele>76.176392</ele>
  <time>2011-10-25T20:20:35Z</time>
  <speed>3.020000</speed>
</trkpt>
<trkpt lat="32.596862793" lon="35.006126404">
  <ele>77.086548</ele>
  <time>2011-10-25T20:20:37Z</time>
  <speed>2.880000</speed>
</trkpt>
<trkpt lat="32.596893311" lon="35.006122589">
  <ele>77.080688</ele>
  <time>2011-10-25T20:20:38Z</time>
  <speed>2.900000</speed>
</trkpt>
<trkpt lat="32.596939087" lon="35.006114960">
  <ele>77.330688</ele>
  <time>2011-10-25T20:20:40Z</time>
  <speed>2.770000</speed>
</trkpt>
<trkpt lat="32.596965790" lon="35.006118774">
  <ele>76.826782</ele>
  <time>2011-10-25T20:20:41Z</time>
  <speed>2.830000</speed>
</trkpt>
<trkpt lat="32.597015381" lon="35.006114960">
  <ele>76.443970</ele>
  <time>2011-10-25T20:20:43Z</time>
  <speed>2.530000</speed>
</trkpt>
<trkpt lat="32.597068787" lon="35.006107330">
  <ele>76.350220</ele>
  <time>2011-10-25T20:20:45Z</time>
  <speed>2.460000</speed>
</trkpt>
<trkpt lat="32.597114563" lon="35.006095886">
  <ele>76.526001</ele>
  <time>2011-10-25T20:20:47Z</time>
  <speed>2.440000</speed>
</trkpt>
<trkpt lat="32.597160339" lon="35.006095886">
  <ele>76.818970</ele>
  <time>2011-10-25T20:20:49Z</time>
  <speed>2.340000</speed>
</trkpt>
<trkpt lat="32.597202301" lon="35.006084442">
  <ele>77.492798</ele>
  <time>2011-10-25T20:20:51Z</time>
  <speed>2.360000</speed>
</trkpt>
<trkpt lat="32.597229004" lon="35.006053925">
  <ele>78.494751</ele>
  <time>2011-10-25T20:20:53Z</time>
  <speed>2.050000</speed>
</trkpt>
<trkpt lat="32.597236633" lon="35.006008148">
  <ele>79.768188</ele>
  <time>2011-10-25T20:20:55Z</time>
  <speed>2.020000</speed>
</trkpt>
<trkpt lat="32.597248077" lon="35.005958557">
  <ele>79.408813</ele>
  <time>2011-10-25T20:20:57Z</time>
  <speed>1.620000</speed>
</trkpt>
<trkpt lat="32.597244263" lon="35.005928040">
  <ele>78.901001</ele>
  <time>2011-10-25T20:20:59Z</time>
  <speed>1.740000</speed>
</trkpt>
<trkpt lat="32.597236633" lon="35.005878448">
  <ele>79.008423</ele>
  <time>2011-10-25T20:21:01Z</time>
  <speed>1.670000</speed>
</trkpt>
<trkpt lat="32.597236633" lon="35.005844116">
  <ele>79.340454</ele>
  <time>2011-10-25T20:21:03Z</time>
  <speed>1.610000</speed>
</trkpt>
<trkpt lat="32.597221375" lon="35.005802155">
  <ele>80.188110</ele>
  <time>2011-10-25T20:21:06Z</time>
  <speed>1.740000</speed>
</trkpt>
<trkpt lat="32.597213745" lon="35.005760193">
  <ele>79.725220</ele>
  <time>2011-10-25T20:21:08Z</time>
  <speed>1.680000</speed>
</trkpt>
<trkpt lat="32.597206116" lon="35.005725861">
  <ele>79.428345</ele>
  <time>2011-10-25T20:21:10Z</time>
  <speed>1.600000</speed>
</trkpt>
<trkpt lat="32.597198486" lon="35.005683899">
  <ele>80.067017</ele>
  <time>2011-10-25T20:21:12Z</time>
  <speed>1.690000</speed>
</trkpt>
<trkpt lat="32.597194672" lon="35.005638123">
  <ele>80.225220</ele>
  <time>2011-10-25T20:21:15Z</time>
  <speed>1.520000</speed>
</trkpt>
<trkpt lat="32.597179413" lon="35.005599976">
  <ele>80.881470</ele>
  <time>2011-10-25T20:21:17Z</time>
  <speed>1.650000</speed>
</trkpt>
<trkpt lat="32.597171783" lon="35.005569458">
  <ele>80.963501</ele>
  <time>2011-10-25T20:21:19Z</time>
  <speed>1.810000</speed>
</trkpt>
<trkpt lat="32.597156525" lon="35.005538940">
  <ele>81.693970</ele>
  <time>2011-10-25T20:21:21Z</time>
  <speed>1.630000</speed>
</trkpt>
<trkpt lat="32.597148895" lon="35.005504608">
  <ele>82.113892</ele>
  <time>2011-10-25T20:21:23Z</time>
  <speed>1.960000</speed>
</trkpt>
<trkpt lat="32.597152710" lon="35.005462646">
  <ele>82.483032</ele>
  <time>2011-10-25T20:21:25Z</time>
  <speed>1.680000</speed>
</trkpt>
<trkpt lat="32.597156525" lon="35.005428314">
  <ele>83.033813</ele>
  <time>2011-10-25T20:21:27Z</time>
  <speed>1.450000</speed>
</trkpt>
<trkpt lat="32.597156525" lon="35.005393982">
  <ele>83.104126</ele>
  <time>2011-10-25T20:21:29Z</time>
  <speed>1.550000</speed>
</trkpt>
<trkpt lat="32.597148895" lon="35.005359650">
  <ele>83.949829</ele>
  <time>2011-10-25T20:21:31Z</time>
  <speed>1.460000</speed>
</trkpt>
<trkpt lat="32.597129822" lon="35.005317688">
  <ele>84.609985</ele>
  <time>2011-10-25T20:21:34Z</time>
  <speed>1.740000</speed>
</trkpt>
<trkpt lat="32.597129822" lon="35.005287170">
  <ele>86.008423</ele>
  <time>2011-10-25T20:21:36Z</time>
  <speed>1.240000</speed>
</trkpt>
<trkpt lat="32.597133636" lon="35.005241394">
  <ele>86.324829</ele>
  <time>2011-10-25T20:21:39Z</time>
  <speed>1.660000</speed>
</trkpt>
<trkpt lat="32.597133636" lon="35.005207062">
  <ele>86.342407</ele>
  <time>2011-10-25T20:21:41Z</time>
  <speed>1.620000</speed>
</trkpt>
<trkpt lat="32.597126007" lon="35.005165100">
  <ele>86.916626</ele>
  <time>2011-10-25T20:21:44Z</time>
  <speed>1.480000</speed>
</trkpt>
<trkpt lat="32.597122192" lon="35.005111694">
  <ele>87.467407</ele>
  <time>2011-10-25T20:21:47Z</time>
  <speed>1.480000</speed>
</trkpt>
<trkpt lat="32.597126007" lon="35.005069733">
  <ele>88.154907</ele>
  <time>2011-10-25T20:21:50Z</time>
  <speed>1.880000</speed>
</trkpt>
<trkpt lat="32.597129822" lon="35.005031586">
  <ele>89.356079</ele>
  <time>2011-10-25T20:21:53Z</time>
  <speed>1.580000</speed>
</trkpt>
<trkpt lat="32.597129822" lon="35.004989624">
  <ele>89.744751</ele>
  <time>2011-10-25T20:21:56Z</time>
  <speed>1.240000</speed>
</trkpt>
<trkpt lat="32.597137451" lon="35.004955292">
  <ele>90.387329</ele>
  <time>2011-10-25T20:21:58Z</time>
  <speed>1.370000</speed>
</trkpt>
<trkpt lat="32.597129822" lon="35.004920959">
  <ele>90.774048</ele>
  <time>2011-10-25T20:22:00Z</time>
  <speed>1.480000</speed>
</trkpt>
<trkpt lat="32.597122192" lon="35.004886627">
  <ele>90.600220</ele>
  <time>2011-10-25T20:22:02Z</time>
  <speed>1.570000</speed>
</trkpt>
<trkpt lat="32.597122192" lon="35.004844666">
  <ele>90.762329</ele>
  <time>2011-10-25T20:22:05Z</time>
  <speed>1.350000</speed>
</trkpt>
<trkpt lat="32.597126007" lon="35.004810333">
  <ele>91.938110</ele>
  <time>2011-10-25T20:22:07Z</time>
  <speed>1.540000</speed>
</trkpt>
<trkpt lat="32.597129822" lon="35.004768372">
  <ele>92.297485</ele>
  <time>2011-10-25T20:22:10Z</time>
  <speed>1.420000</speed>
</trkpt>
<trkpt lat="32.597137451" lon="35.004730225">
  <ele>93.461548</ele>
  <time>2011-10-25T20:22:13Z</time>
  <speed>1.350000</speed>
</trkpt>
<trkpt lat="32.597122192" lon="35.004695892">
  <ele>93.875610</ele>
  <time>2011-10-25T20:22:15Z</time>
  <speed>1.430000</speed>
</trkpt>
<trkpt lat="32.597118378" lon="35.004653931">
  <ele>93.945923</ele>
  <time>2011-10-25T20:22:18Z</time>
  <speed>1.470000</speed>
</trkpt>
<trkpt lat="32.597133636" lon="35.004619598">
  <ele>94.387329</ele>
  <time>2011-10-25T20:22:21Z</time>
  <speed>1.160000</speed>
</trkpt>
<trkpt lat="32.597133636" lon="35.004589081">
  <ele>95.119751</ele>
  <time>2011-10-25T20:22:23Z</time>
  <speed>1.460000</speed>
</trkpt>
<trkpt lat="32.597148895" lon="35.004550934">
  <ele>96.442017</ele>
  <time>2011-10-25T20:22:26Z</time>
  <speed>1.130000</speed>
</trkpt>
<trkpt lat="32.597152710" lon="35.004516602">
  <ele>97.889282</ele>
  <time>2011-10-25T20:22:29Z</time>
  <speed>1.090000</speed>
</trkpt>
<trkpt lat="32.597145081" lon="35.004474640">
  <ele>98.717407</ele>
  <time>2011-10-25T20:22:33Z</time>
  <speed>1.240000</speed>
</trkpt>
<trkpt lat="32.597137451" lon="35.004440308">
  <ele>98.549438</ele>
  <time>2011-10-25T20:22:35Z</time>
  <speed>1.280000</speed>
</trkpt>
<trkpt lat="32.597129822" lon="35.004402161">
  <ele>98.643188</ele>
  <time>2011-10-25T20:22:38Z</time>
  <speed>1.470000</speed>
</trkpt>
<trkpt lat="32.597126007" lon="35.004364014">
  <ele>98.399048</ele>
  <time>2011-10-25T20:22:40Z</time>
  <speed>1.870000</speed>
</trkpt>
<trkpt lat="32.597129822" lon="35.004329681">
  <ele>97.428345</ele>
  <time>2011-10-25T20:22:42Z</time>
  <speed>1.720000</speed>
</trkpt>
<trkpt lat="32.597122192" lon="35.004287720">
  <ele>98.201782</ele>
  <time>2011-10-25T20:22:45Z</time>
  <speed>1.610000</speed>
</trkpt>
<trkpt lat="32.597110748" lon="35.004253387">
  <ele>98.629517</ele>
  <time>2011-10-25T20:22:47Z</time>
  <speed>1.840000</speed>
</trkpt>
<trkpt lat="32.597099304" lon="35.004215240">
  <ele>98.977173</ele>
  <time>2011-10-25T20:22:49Z</time>
  <speed>0.930000</speed>
</trkpt>
<trkpt lat="32.597080231" lon="35.004177094">
  <ele>98.826782</ele>
  <time>2011-10-25T20:22:51Z</time>
  <speed>1.200000</speed>
</trkpt>
<trkpt lat="32.597076416" lon="35.004142761">
  <ele>97.156860</ele>
  <time>2011-10-25T20:22:54Z</time>
  <speed>1.310000</speed>
</trkpt>
<trkpt lat="32.597106934" lon="35.004135132">
  <ele>95.859985</ele>
  <time>2011-10-25T20:22:56Z</time>
  <speed>1.750000</speed>
</trkpt>
<trkpt lat="32.597152710" lon="35.004158020">
  <ele>95.027954</ele>
  <time>2011-10-25T20:22:58Z</time>
  <speed>3.800000</speed>
</trkpt>
<trkpt lat="32.597190857" lon="35.004184723">
  <ele>95.141235</ele>
  <time>2011-10-25T20:22:59Z</time>
  <speed>5.130000</speed>
</trkpt>
<trkpt lat="32.597244263" lon="35.004215240">
  <ele>95.697876</ele>
  <time>2011-10-25T20:23:00Z</time>
  <speed>6.120000</speed>
</trkpt>
<trkpt lat="32.597297668" lon="35.004241943">
  <ele>95.602173</ele>
  <time>2011-10-25T20:23:01Z</time>
  <speed>5.970000</speed>
</trkpt>
<trkpt lat="32.597347260" lon="35.004272461">
  <ele>95.758423</ele>
  <time>2011-10-25T20:23:02Z</time>
  <speed>5.430000</speed>
</trkpt>
<trkpt lat="32.597381592" lon="35.004302979">
  <ele>96.188110</ele>
  <time>2011-10-25T20:23:03Z</time>
  <speed>3.580000</speed>
</trkpt>
<trkpt lat="32.597408295" lon="35.004352570">
  <ele>95.672485</ele>
  <time>2011-10-25T20:23:05Z</time>
  <speed>1.680000</speed>
</trkpt>
<trkpt lat="32.597423553" lon="35.004383087">
  <ele>95.719360</ele>
  <time>2011-10-25T20:23:09Z</time>
  <speed>0.570000</speed>
</trkpt>
<trkpt lat="32.597408295" lon="35.004409790">
  <ele>94.914673</ele>
  <time>2011-10-25T20:23:33Z</time>
  <speed>0.010000</speed>
</trkpt>
<trkpt lat="32.597404480" lon="35.004421234">
  <ele>94.854126</ele>
  <time>2011-10-25T20:23:34Z</time>
  <speed>0.020000</speed>
</trkpt>
</trkseg>
</trk>
</gpx>
